GFSCGP_prec_precacc_024.txt.gz
Total_Precipitation_Accumulation
0.00 0.00 0.00 0.00 0.00 0.00 0.00 0.00 0.00 0.00 0.00 0.00 0.00 0.00 0.00 0.01 0.03 0.05 0.04 0.14 0.05 0.01 0.02 0.03 0.02 0.02 0.01 0.06 0.02 0.05 0.03 0.01 0.00 0.00 0.01 0.04 0.03 0.01 0.00 0.00 0.00 0.00 0.00 0.00
0.00 0.00 0.00 0.00 0.00 0.00 0.00 0.00 0.00 0.00 0.00 0.00 0.00 0.00 0.01 0.03 0.01 0.01 0.01 0.14 0.03 0.01 0.01 0.01 0.00 0.00 0.01 0.04 0.03 0.00 0.00 0.00 0.01 0.01 0.00 0.01 0.01 0.00 0.00 0.00 0.00 0.00 0.00 0.00
0.00 0.00 0.00 0.00 0.00 0.00 0.00 0.00 0.00 0.00 0.00 0.00 0.00 0.00 0.02 0.01 0.01 0.02 0.01 0.00 0.00 0.00 0.00 0.00 0.00 0.00 0.01 0.01 0.01 0.01 0.01 0.01 0.00 0.00 0.00 0.00 0.00 0.00 0.00 0.00 0.00 0.00 0.00 0.00
0.00 0.00 0.00 0.00 0.00 0.00 0.00 0.00 0.00 0.00 0.00 0.00 0.00 0.01 0.09 0.02 0.00 0.01 0.01 0.00 0.00 0.00 0.00 0.00 0.01 0.01 0.02 0.03 0.03 0.05 0.03 0.03 0.00 0.00 0.00 0.00 0.03 0.00 0.00 0.00 0.00 0.00 0.00 0.00
0.00 0.00 0.00 0.00 0.00 0.00 0.01 0.00 0.00 0.00 0.00 0.01 0.01 0.00 0.08 0.01 0.00 0.00 0.00 0.00 0.00 0.01 0.00 0.00 0.01 0.01 0.02 0.04 0.04 0.02 0.02 0.04 0.02 0.01 0.01 0.02 0.04 0.02 0.00 0.00 0.00 0.00 0.00 0.00
0.00 0.00 0.00 0.00 0.00 0.00 0.00 0.00 0.00 0.00 0.00 0.01 0.02 0.02 0.04 0.01 0.00 0.01 0.01 0.00 0.00 0.00 0.02 0.04 0.05 0.02 0.03 0.05 0.05 0.06 0.04 0.04 0.07 0.07 0.05 0.02 0.05 0.03 0.01 0.01 0.00 0.00 0.00 0.00
0.00 0.00 0.00 0.00 0.00 0.00 0.00 0.00 0.00 0.01 0.00 0.00 0.00 0.01 0.02 0.02 0.05 0.12 0.10 0.00 0.00 0.00 0.00 0.01 0.02 0.02 0.02 0.06 0.04 0.03 0.06 0.14 0.12 0.09 0.06 0.03 0.02 0.02 0.03 0.03 0.02 0.00 0.00 0.00
0.00 0.00 0.00 0.00 0.00 0.00 0.00 0.00 0.00 0.05 0.04 0.01 0.01 0.01 0.00 0.00 0.00 0.00 0.00 0.00 0.00 0.00 0.00 0.01 0.03 0.05 0.06 0.04 0.03 0.02 0.08 0.19 0.18 0.13 0.11 0.06 0.02 0.01 0.01 0.01 0.00 0.00 0.00 0.00
0.02 0.00 0.00 0.00 0.00 0.00 0.00 0.00 0.00 0.01 0.01 0.01 0.00 0.00 0.00 0.00 0.00 0.00 0.00 0.00 0.00 0.01 0.04 0.05 0.02 0.03 0.06 0.05 0.04 0.09 0.10 0.09 0.13 0.14 0.13 0.10 0.08 0.06 0.05 0.04 0.01 0.00 0.00 0.00
0.04 0.07 0.01 0.00 0.00 0.00 0.00 0.00 0.00 0.00 0.00 0.00 0.00 0.00 0.00 0.01 0.00 0.00 0.00 0.00 0.00 0.00 0.00 0.00 0.00 0.00 0.01 0.00 0.01 0.01 0.02 0.04 0.05 0.06 0.08 0.09 0.09 0.08 0.06 0.02 0.01 0.00 0.00 0.00
0.00 0.03 0.04 0.00 0.00 0.00 0.00 0.00 0.00 0.00 0.00 0.00 0.00 0.00 0.00 0.00 0.00 0.00 0.00 0.00 0.00 0.00 0.00 0.00 0.00 0.00 0.00 0.00 0.00 0.00 0.01 0.02 0.06 0.13 0.13 0.09 0.06 0.04 0.03 0.02 0.00 0.00 0.00 0.00
0.00 0.00 0.00 0.00 0.00 0.00 0.00 0.00 0.00 0.00 0.00 0.00 0.00 0.00 0.00 0.00 0.00 0.00 0.00 0.00 0.00 0.00 0.00 0.00 0.00 0.00 0.00 0.00 0.00 0.01 0.03 0.05 0.09 0.08 0.07 0.07 0.05 0.02 0.01 0.01 0.00 0.00 0.00 0.00
0.00 0.00 0.00 0.00 0.00 0.00 0.00 0.00 0.00 0.00 0.00 0.00 0.00 0.00 0.00 0.00 0.00 0.00 0.00 0.00 0.00 0.00 0.00 0.00 0.00 0.00 0.00 0.00 0.04 0.07 0.08 0.07 0.06 0.10 0.10 0.07 0.04 0.02 0.01 0.00 0.00 0.00 0.00 0.00
0.01 0.00 0.00 0.00 0.00 0.00 0.00 0.00 0.00 0.00 0.00 0.00 0.00 0.00 0.00 0.00 0.00 0.00 0.00 0.00 0.00 0.00 0.00 0.00 0.00 0.00 0.00 0.05 0.10 0.08 0.06 0.05 0.08 0.11 0.09 0.07 0.04 0.01 0.00 0.00 0.00 0.00 0.00 0.00
0.01 0.00 0.00 0.00 0.00 0.00 0.00 0.00 0.00 0.00 0.00 0.00 0.00 0.00 0.00 0.00 0.00 0.00 0.00 0.00 0.00 0.00 0.00 0.00 0.01 0.01 0.01 0.05 0.06 0.04 0.05 0.05 0.06 0.05 0.03 0.02 0.01 0.00 0.00 0.00 0.00 0.00 0.00 0.00
0.00 0.00 0.00 0.00 0.00 0.00 0.00 0.00 0.00 0.00 0.00 0.00 0.00 0.00 0.00 0.00 0.00 0.00 0.00 0.00 0.00 0.00 0.00 0.00 0.00 0.01 0.01 0.01 0.01 0.01 0.02 0.02 0.01 0.01 0.01 0.00 0.00 0.00 0.00 0.00 0.00 0.00 0.00 0.00
0.00 0.00 0.00 0.00 0.00 0.00 0.00 0.00 0.00 0.00 0.00 0.00 0.00 0.00 0.00 0.00 0.00 0.00 0.00 0.00 0.00 0.00 0.00 0.00 0.00 0.00 0.00 0.01 0.00 0.01 0.00 0.00 0.00 0.00 0.00 0.00 0.00 0.00 0.00 0.00 0.00 0.00 0.00 0.01
0.02 0.01 0.00 0.00 0.00 0.00 0.00 0.00 0.00 0.00 0.00 0.00 0.00 0.00 0.00 0.00 0.00 0.00 0.00 0.00 0.00 0.00 0.00 0.00 0.00 0.00 0.00 0.00 0.00 0.00 0.00 0.00 0.00 0.00 0.00 0.00 0.00 0.00 0.01 0.00 0.01 0.02 0.04 0.07
0.08 0.02 0.00 0.00 0.00 0.00 0.00 0.00 0.00 0.00 0.00 0.00 0.00 0.00 0.00 0.00 0.00 0.00 0.00 0.00 0.00 0.00 0.00 0.00 0.00 0.00 0.00 0.00 0.00 0.00 0.00 0.00 0.00 0.00 0.00 0.00 0.01 0.01 0.01 0.03 0.08 0.14 0.17 0.10
0.01 0.03 0.01 0.00 0.00 0.00 0.00 0.00 0.00 0.00 0.00 0.00 0.00 0.00 0.00 0.00 0.00 0.00 0.00 0.00 0.00 0.00 0.00 0.00 0.00 0.00 0.00 0.00 0.00 0.00 0.00 0.00 0.00 0.00 0.00 0.00 0.01 0.03 0.09 0.17 0.20 0.13 0.06 0.02
0.00 0.00 0.00 0.00 0.00 0.00 0.00 0.00 0.00 0.00 0.00 0.00 0.00 0.00 0.00 0.00 0.00 0.00 0.00 0.00 0.00 0.00 0.00 0.00 0.00 0.00 0.00 0.00 0.00 0.00 0.00 0.00 0.00 0.00 0.01 0.03 0.08 0.14 0.16 0.13 0.06 0.02 0.01 0.01
0.00 0.00 0.00 0.00 0.00 0.00 0.00 0.00 0.00 0.00 0.00 0.00 0.00 0.00 0.00 0.00 0.00 0.00 0.00 0.00 0.00 0.00 0.00 0.00 0.00 0.00 0.00 0.00 0.00 0.01 0.00 0.00 0.00 0.03 0.07 0.12 0.15 0.12 0.07 0.02 0.00 0.00 0.00 0.00
0.00 0.00 0.00 0.00 0.00 0.00 0.00 0.00 0.00 0.00 0.00 0.00 0.00 0.00 0.00 0.00 0.00 0.00 0.00 0.00 0.00 0.00 0.00 0.00 0.00 0.00 0.00 0.00 0.00 0.01 0.02 0.04 0.04 0.06 0.08 0.08 0.04 0.01 0.00 0.00 0.00 0.00 0.00 0.00
0.00 0.00 0.00 0.00 0.00 0.00 0.00 0.00 0.00 0.00 0.00 0.00 0.00 0.00 0.00 0.00 0.00 0.00 0.00 0.00 0.00 0.00 0.00 0.00 0.00 0.00 0.02 0.04 0.05 0.05 0.04 0.03 0.02 0.02 0.01 0.00 0.00 0.00 0.00 0.00 0.00 0.00 0.00 0.00
0.00 0.00 0.00 0.00 0.00 0.00 0.00 0.00 0.00 0.00 0.00 0.00 0.00 0.00 0.00 0.00 0.00 0.00 0.00 0.00 0.00 0.01 0.03 0.02 0.03 0.05 0.05 0.02 0.01 0.01 0.02 0.01 0.01 0.00 0.00 0.00 0.00 0.00 0.00 0.00 0.00 0.00 0.00 0.00
0.00 0.00 0.00 0.00 0.00 0.00 0.00 0.00 0.00 0.00 0.00 0.00 0.00 0.00 0.00 0.00 0.00 0.00 0.00 0.00 0.03 0.05 0.02 0.03 0.03 0.02 0.02 0.01 0.01 0.00 0.00 0.00 0.00 0.00 0.00 0.00 0.00 0.00 0.00 0.00 0.00 0.00 0.00 0.00

GFSCGP_prec_precacc_027.txt.gz
Total_Precipitation_Accumulation
0.00 0.00 0.00 0.00 0.00 0.00 0.00 0.00 0.00 0.00 0.00 0.00 0.00 0.00 0.00 0.01 0.03 0.05 0.04 0.14 0.05 0.01 0.02 0.03 0.02 0.02 0.01 0.06 0.02 0.05 0.03 0.01 0.00 0.00 0.01 0.04 0.03 0.03 0.03 0.01 0.00 0.00 0.00 0.00
0.00 0.00 0.00 0.00 0.00 0.00 0.00 0.00 0.00 0.00 0.00 0.00 0.00 0.00 0.01 0.03 0.01 0.01 0.01 0.14 0.03 0.01 0.01 0.01 0.00 0.00 0.01 0.04 0.03 0.00 0.00 0.00 0.01 0.01 0.00 0.01 0.02 0.04 0.05 0.02 0.00 0.00 0.00 0.00
0.00 0.00 0.00 0.00 0.00 0.00 0.00 0.00 0.00 0.00 0.00 0.00 0.00 0.00 0.02 0.01 0.01 0.02 0.01 0.00 0.00 0.00 0.00 0.00 0.00 0.00 0.01 0.01 0.01 0.01 0.01 0.01 0.00 0.00 0.00 0.00 0.07 0.04 0.01 0.01 0.00 0.00 0.00 0.00
0.00 0.00 0.00 0.00 0.00 0.00 0.00 0.00 0.00 0.00 0.00 0.00 0.00 0.01 0.09 0.02 0.00 0.01 0.01 0.00 0.00 0.00 0.00 0.00 0.01 0.01 0.02 0.03 0.03 0.05 0.03 0.03 0.00 0.00 0.00 0.00 0.05 0.02 0.00 0.00 0.00 0.00 0.00 0.00
0.00 0.00 0.00 0.00 0.00 0.00 0.01 0.00 0.00 0.00 0.00 0.01 0.01 0.00 0.08 0.01 0.00 0.00 0.00 0.00 0.00 0.01 0.00 0.00 0.01 0.01 0.02 0.04 0.04 0.02 0.02 0.04 0.02 0.01 0.01 0.02 0.05 0.04 0.01 0.00 0.00 0.00 0.00 0.00
0.00 0.00 0.00 0.00 0.00 0.00 0.00 0.00 0.00 0.00 0.00 0.01 0.02 0.02 0.04 0.01 0.00 0.01 0.01 0.00 0.00 0.00 0.02 0.04 0.05 0.02 0.03 0.05 0.05 0.06 0.04 0.04 0.07 0.08 0.07 0.04 0.05 0.04 0.02 0.01 0.01 0.00 0.00 0.00
0.00 0.00 0.00 0.00 0.00 0.00 0.00 0.00 0.00 0.01 0.00 0.00 0.00 0.01 0.02 0.02 0.05 0.12 0.10 0.00 0.00 0.00 0.00 0.01 0.02 0.02 0.02 0.06 0.04 0.03 0.06 0.14 0.12 0.09 0.08 0.08 0.05 0.05 0.05 0.04 0.03 0.02 0.02 0.01
0.00 0.00 0.00 0.00 0.00 0.00 0.00 0.00 0.00 0.05 0.04 0.01 0.01 0.01 0.00 0.00 0.00 0.00 0.00 0.00 0.00 0.00 0.00 0.01 0.03 0.05 0.06 0.04 0.03 0.02 0.08 0.19 0.21 0.16 0.13 0.13 0.14 0.12 0.09 0.06 0.03 0.02 0.02 0.01
0.02 0.00 0.00 0.00 0.00 0.00 0.00 0.00 0.00 0.01 0.01 0.01 0.00 0.00 0.00 0.00 0.00 0.00 0.00 0.00 0.00 0.01 0.04 0.05 0.02 0.03 0.06 0.05 0.05 0.09 0.10 0.09 0.14 0.16 0.15 0.16 0.16 0.15 0.13 0.10 0.07 0.05 0.02 0.01
0.04 0.07 0.01 0.00 0.00 0.00 0.00 0.00 0.00 0.00 0.00 0.00 0.00 0.00 0.00 0.01 0.00 0.00 0.00 0.00 0.00 0.00 0.00 0.00 0.00 0.00 0.01 0.00 0.04 0.06 0.03 0.04 0.05 0.07 0.14 0.21 0.22 0.19 0.15 0.08 0.05 0.03 0.01 0.01
0.00 0.03 0.04 0.00 0.00 0.00 0.00 0.00 0.00 0.00 0.00 0.00 0.00 0.00 0.00 0.00 0.00 0.00 0.00 0.00 0.00 0.00 0.00 0.00 0.00 0.00 0.00 0.00 0.00 0.04 0.02 0.02 0.06 0.14 0.23 0.21 0.20 0.13 0.09 0.07 0.04 0.02 0.01 0.01
0.00 0.00 0.00 0.00 0.00 0.00 0.00 0.00 0.00 0.00 0.00 0.00 0.00 0.00 0.00 0.00 0.00 0.00 0.00 0.00 0.00 0.00 0.00 0.00 0.00 0.00 0.00 0.00 0.00 0.01 0.03 0.06 0.15 0.10 0.12 0.16 0.15 0.10 0.08 0.06 0.04 0.02 0.01 0.00
0.00 0.00 0.00 0.00 0.00 0.00 0.00 0.00 0.00 0.00 0.00 0.00 0.00 0.00 0.00 0.00 0.00 0.00 0.00 0.00 0.00 0.00 0.00 0.00 0.00 0.00 0.00 0.00 0.04 0.09 0.10 0.10 0.08 0.13 0.13 0.10 0.09 0.09 0.07 0.04 0.02 0.00 0.00 0.00
0.01 0.00 0.00 0.00 0.00 0.00 0.00 0.00 0.00 0.00 0.00 0.00 0.00 0.00 0.00 0.00 0.00 0.00 0.00 0.00 0.00 0.00 0.00 0.00 0.00 0.00 0.00 0.05 0.10 0.09 0.07 0.05 0.09 0.13 0.10 0.09 0.07 0.05 0.02 0.01 0.00 0.00 0.00 0.00
0.01 0.00 0.00 0.00 0.00 0.00 0.00 0.00 0.00 0.00 0.00 0.00 0.00 0.00 0.00 0.00 0.00 0.00 0.00 0.00 0.00 0.00 0.00 0.00 0.01 0.01 0.01 0.05 0.06 0.04 0.05 0.05 0.06 0.06 0.04 0.03 0.02 0.01 0.00 0.00 0.00 0.00 0.00 0.00
0.00 0.00 0.00 0.00 0.00 0.00 0.00 0.00 0.00 0.00 0.00 0.00 0.00 0.00 0.00 0.00 0.00 0.00 0.00 0.00 0.00 0.00 0.00 0.00 0.00 0.01 0.01 0.01 0.01 0.01 0.02 0.02 0.01 0.01 0.01 0.00 0.00 0.00 0.00 0.00 0.00 0.00 0.00 0.00
0.00 0.00 0.00 0.00 0.00 0.00 0.00 0.00 0.00 0.00 0.00 0.00 0.00 0.00 0.00 0.00 0.00 0.00 0.00 0.00 0.00 0.00 0.00 0.00 0.00 0.00 0.00 0.01 0.00 0.01 0.00 0.00 0.00 0.00 0.00 0.00 0.00 0.00 0.00 0.00 0.00 0.00 0.00 0.01
0.02 0.01 0.00 0.00 0.00 0.00 0.00 0.00 0.00 0.00 0.00 0.00 0.00 0.00 0.00 0.00 0.00 0.00 0.00 0.00 0.00 0.00 0.00 0.00 0.00 0.00 0.00 0.00 0.00 0.00 0.00 0.00 0.00 0.00 0.00 0.00 0.00 0.00 0.01 0.01 0.01 0.02 0.05 0.11
0.08 0.02 0.00 0.00 0.00 0.00 0.00 0.00 0.00 0.00 0.00 0.00 0.00 0.00 0.00 0.00 0.00 0.00 0.00 0.00 0.00 0.00 0.00 0.00 0.00 0.00 0.00 0.00 0.00 0.00 0.00 0.00 0.00 0.00 0.00 0.00 0.01 0.01 0.01 0.03 0.09 0.16 0.21 0.18
0.01 0.03 0.01 0.00 0.00 0.00 0.00 0.00 0.00 0.00 0.00 0.00 0.00 0.00 0.00 0.00 0.00 0.00 0.00 0.00 0.00 0.00 0.00 0.00 0.00 0.00 0.00 0.00 0.00 0.00 0.00 0.00 0.00 0.00 0.00 0.00 0.01 0.03 0.09 0.18 0.21 0.15 0.07 0.03
0.00 0.00 0.00 0.00 0.00 0.00 0.00 0.00 0.00 0.00 0.00 0.00 0.00 0.00 0.00 0.00 0.00 0.00 0.00 0.00 0.00 0.00 0.00 0.00 0.00 0.00 0.00 0.00 0.00 0.00 0.00 0.00 0.00 0.00 0.01 0.03 0.08 0.14 0.16 0.13 0.06 0.03 0.02 0.02
0.00 0.00 0.00 0.00 0.00 0.00 0.00 0.00 0.00 0.00 0.00 0.00 0.00 0.00 0.00 0.00 0.00 0.00 0.00 0.00 0.00 0.00 0.00 0.00 0.00 0.00 0.00 0.00 0.00 0.01 0.00 0.00 0.00 0.03 0.07 0.12 0.15 0.12 0.07 0.02 0.00 0.00 0.00 0.00
0.00 0.00 0.00 0.00 0.00 0.00 0.00 0.00 0.00 0.00 0.00 0.00 0.00 0.00 0.00 0.00 0.00 0.00 0.00 0.00 0.00 0.00 0.00 0.00 0.00 0.00 0.00 0.00 0.00 0.01 0.02 0.04 0.04 0.06 0.08 0.08 0.04 0.01 0.00 0.00 0.00 0.00 0.00 0.00
0.00 0.00 0.00 0.00 0.00 0.00 0.00 0.00 0.00 0.00 0.00 0.00 0.00 0.00 0.00 0.00 0.00 0.00 0.00 0.00 0.00 0.00 0.00 0.00 0.00 0.00 0.02 0.04 0.05 0.05 0.04 0.03 0.02 0.02 0.01 0.00 0.00 0.00 0.00 0.00 0.00 0.00 0.00 0.00
0.00 0.00 0.00 0.00 0.00 0.00 0.00 0.00 0.00 0.00 0.00 0.00 0.00 0.00 0.00 0.00 0.00 0.00 0.00 0.00 0.00 0.01 0.03 0.02 0.03 0.05 0.05 0.02 0.01 0.01 0.02 0.01 0.01 0.00 0.00 0.00 0.00 0.00 0.00 0.00 0.00 0.00 0.00 0.00
0.00 0.00 0.00 0.00 0.00 0.00 0.00 0.00 0.00 0.00 0.00 0.00 0.00 0.00 0.00 0.00 0.00 0.00 0.00 0.00 0.03 0.05 0.02 0.03 0.03 0.02 0.02 0.01 0.01 0.00 0.00 0.00 0.00 0.00 0.00 0.00 0.00 0.00 0.00 0.00 0.00 0.00 0.00 0.00

GFSCGP_prec_precacc_030.txt.gz
Total_Precipitation_Accumulation
0.00 0.00 0.00 0.00 0.00 0.00 0.00 0.00 0.00 0.00 0.00 0.00 0.00 0.00 0.00 0.01 0.03 0.05 0.04 0.14 0.05 0.01 0.02 0.03 0.02 0.02 0.01 0.06 0.02 0.05 0.03 0.01 0.00 0.00 0.01 0.04 0.03 0.03 0.04 0.03 0.00 0.00 0.00 0.00
0.00 0.00 0.00 0.00 0.00 0.00 0.00 0.00 0.00 0.00 0.00 0.00 0.00 0.00 0.01 0.03 0.01 0.01 0.01 0.14 0.03 0.01 0.01 0.01 0.00 0.00 0.01 0.04 0.03 0.00 0.00 0.00 0.01 0.01 0.00 0.01 0.02 0.04 0.07 0.05 0.02 0.01 0.00 0.00
0.00 0.00 0.00 0.00 0.00 0.00 0.00 0.00 0.00 0.00 0.00 0.00 0.00 0.00 0.02 0.01 0.01 0.02 0.01 0.00 0.00 0.00 0.00 0.00 0.00 0.00 0.01 0.01 0.01 0.01 0.01 0.01 0.00 0.00 0.00 0.00 0.07 0.05 0.06 0.11 0.06 0.01 0.00 0.00
0.00 0.00 0.00 0.00 0.00 0.00 0.00 0.00 0.00 0.00 0.00 0.00 0.00 0.01 0.09 0.02 0.00 0.01 0.01 0.00 0.00 0.00 0.00 0.00 0.01 0.01 0.02 0.03 0.03 0.05 0.03 0.03 0.00 0.00 0.00 0.00 0.05 0.05 0.09 0.09 0.03 0.00 0.00 0.00
0.00 0.00 0.00 0.00 0.00 0.00 0.01 0.00 0.00 0.00 0.00 0.01 0.01 0.00 0.08 0.01 0.00 0.00 0.00 0.00 0.00 0.01 0.00 0.00 0.01 0.01 0.02 0.04 0.04 0.02 0.02 0.04 0.02 0.01 0.01 0.02 0.05 0.07 0.05 0.02 0.01 0.00 0.00 0.00
0.00 0.00 0.00 0.00 0.00 0.00 0.00 0.00 0.00 0.00 0.00 0.01 0.02 0.02 0.04 0.01 0.00 0.01 0.01 0.00 0.00 0.00 0.02 0.04 0.05 0.02 0.03 0.05 0.05 0.06 0.04 0.04 0.07 0.08 0.07 0.04 0.06 0.06 0.03 0.02 0.02 0.01 0.01 0.01
0.00 0.00 0.00 0.00 0.00 0.00 0.00 0.00 0.00 0.01 0.00 0.00 0.00 0.01 0.02 0.02 0.05 0.12 0.10 0.00 0.00 0.00 0.00 0.01 0.02 0.02 0.02 0.06 0.04 0.03 0.06 0.14 0.12 0.09 0.08 0.09 0.07 0.06 0.06 0.07 0.07 0.05 0.03 0.03
0.00 0.00 0.00 0.00 0.00 0.00 0.00 0.00 0.00 0.05 0.04 0.01 0.01 0.01 0.00 0.00 0.00 0.00 0.00 0.00 0.00 0.00 0.00 0.01 0.03 0.05 0.06 0.04 0.03 0.02 0.08 0.19 0.21 0.16 0.13 0.16 0.18 0.20 0.17 0.16 0.12 0.08 0.06 0.04
0.02 0.00 0.00 0.00 0.00 0.00 0.00 0.00 0.00 0.01 0.01 0.01 0.00 0.00 0.00 0.00 0.00 0.00 0.00 0.00 0.00 0.01 0.04 0.05 0.02 0.03 0.06 0.05 0.05 0.09 0.10 0.09 0.14 0.16 0.16 0.20 0.21 0.20 0.21 0.16 0.11 0.07 0.04 0.02
0.04 0.07 0.01 0.00 0.00 0.00 0.00 0.00 0.00 0.00 0.00 0.00 0.00 0.00 0.00 0.01 0.00 0.00 0.00 0.00 0.00 0.00 0.00 0.00 0.00 0.00 0.01 0.00 0.04 0.06 0.03 0.04 0.05 0.07 0.14 0.23 0.28 0.29 0.24 0.15 0.10 0.05 0.03 0.01
0.00 0.03 0.04 0.00 0.00 0.00 0.00 0.00 0.00 0.00 0.00 0.00 0.00 0.00 0.00 0.00 0.00 0.00 0.00 0.00 0.00 0.00 0.00 0.00 0.00 0.00 0.00 0.00 0.00 0.04 0.02 0.02 0.06 0.14 0.24 0.24 0.29 0.25 0.18 0.15 0.11 0.06 0.02 0.02
0.00 0.00 0.00 0.00 0.00 0.00 0.00 0.00 0.00 0.00 0.00 0.00 0.00 0.00 0.00 0.00 0.00 0.00 0.00 0.00 0.00 0.00 0.00 0.00 0.00 0.00 0.00 0.00 0.00 0.01 0.03 0.06 0.15 0.10 0.13 0.18 0.19 0.17 0.14 0.12 0.09 0.06 0.04 0.04
0.00 0.00 0.00 0.00 0.00 0.00 0.00 0.00 0.00 0.00 0.00 0.00 0.00 0.00 0.00 0.00 0.00 0.00 0.00 0.00 0.00 0.00 0.00 0.00 0.00 0.00 0.00 0.00 0.04 0.09 0.10 0.10 0.08 0.14 0.13 0.11 0.11 0.11 0.09 0.07 0.04 0.02 0.02 0.02
0.01 0.00 0.00 0.00 0.00 0.00 0.00 0.00 0.00 0.00 0.00 0.00 0.00 0.00 0.00 0.00 0.00 0.00 0.00 0.00 0.00 0.00 0.00 0.00 0.00 0.00 0.00 0.05 0.10 0.09 0.07 0.06 0.10 0.14 0.12 0.11 0.11 0.07 0.06 0.03 0.01 0.00 0.00 0.00
0.01 0.00 0.00 0.00 0.00 0.00 0.00 0.00 0.00 0.00 0.00 0.00 0.00 0.00 0.00 0.00 0.00 0.00 0.00 0.00 0.00 0.00 0.00 0.00 0.01 0.01 0.01 0.05 0.06 0.04 0.06 0.06 0.08 0.06 0.04 0.03 0.02 0.01 0.00 0.00 0.00 0.00 0.00 0.00
0.00 0.00 0.00 0.00 0.00 0.00 0.00 0.00 0.00 0.00 0.00 0.00 0.00 0.00 0.00 0.00 0.00 0.00 0.00 0.00 0.00 0.00 0.00 0.00 0.00 0.01 0.01 0.01 0.01 0.02 0.02 0.02 0.01 0.01 0.01 0.00 0.00 0.00 0.00 0.00 0.00 0.00 0.00 0.00
0.00 0.00 0.00 0.00 0.00 0.00 0.00 0.00 0.00 0.00 0.00 0.00 0.00 0.00 0.00 0.00 0.00 0.00 0.00 0.00 0.00 0.00 0.00 0.00 0.00 0.00 0.00 0.01 0.00 0.01 0.00 0.00 0.00 0.00 0.00 0.00 0.00 0.00 0.00 0.00 0.00 0.00 0.00 0.01
0.02 0.01 0.00 0.00 0.00 0.00 0.00 0.00 0.00 0.00 0.00 0.00 0.00 0.00 0.00 0.00 0.00 0.00 0.00 0.00 0.00 0.00 0.00 0.00 0.00 0.00 0.00 0.00 0.00 0.00 0.00 0.00 0.00 0.00 0.00 0.00 0.00 0.00 0.01 0.01 0.01 0.02 0.05 0.11
0.08 0.02 0.00 0.00 0.00 0.00 0.00 0.00 0.00 0.00 0.00 0.00 0.00 0.00 0.00 0.00 0.00 0.00 0.00 0.00 0.00 0.00 0.00 0.00 0.00 0.00 0.00 0.00 0.00 0.00 0.00 0.00 0.00 0.00 0.00 0.00 0.01 0.01 0.01 0.03 0.09 0.17 0.21 0.18
0.01 0.03 0.01 0.00 0.00 0.00 0.00 0.00 0.00 0.00 0.00 0.00 0.00 0.00 0.00 0.00 0.00 0.00 0.00 0.00 0.00 0.00 0.00 0.00 0.00 0.00 0.00 0.00 0.00 0.00 0.00 0.00 0.00 0.00 0.00 0.00 0.01 0.03 0.09 0.18 0.21 0.15 0.07 0.03
0.00 0.00 0.00 0.00 0.00 0.00 0.00 0.00 0.00 0.00 0.00 0.00 0.00 0.00 0.00 0.00 0.00 0.00 0.00 0.00 0.00 0.00 0.00 0.00 0.00 0.00 0.00 0.00 0.00 0.00 0.00 0.00 0.00 0.00 0.01 0.03 0.08 0.14 0.16 0.13 0.06 0.03 0.02 0.02
0.00 0.00 0.00 0.00 0.00 0.00 0.00 0.00 0.00 0.00 0.00 0.00 0.00 0.00 0.00 0.00 0.00 0.00 0.00 0.00 0.00 0.00 0.00 0.00 0.00 0.00 0.00 0.00 0.00 0.01 0.00 0.00 0.00 0.03 0.07 0.12 0.15 0.12 0.07 0.02 0.00 0.00 0.00 0.00
0.00 0.00 0.00 0.00 0.00 0.00 0.00 0.00 0.00 0.00 0.00 0.00 0.00 0.00 0.00 0.00 0.00 0.00 0.00 0.00 0.00 0.00 0.00 0.00 0.00 0.00 0.00 0.00 0.00 0.01 0.02 0.04 0.04 0.06 0.08 0.08 0.04 0.01 0.00 0.00 0.00 0.00 0.00 0.00
0.00 0.00 0.00 0.00 0.00 0.00 0.00 0.00 0.00 0.00 0.00 0.00 0.00 0.00 0.00 0.00 0.00 0.00 0.00 0.00 0.00 0.00 0.00 0.00 0.00 0.00 0.02 0.04 0.05 0.05 0.04 0.03 0.02 0.02 0.01 0.00 0.00 0.00 0.00 0.00 0.00 0.00 0.00 0.00
0.00 0.00 0.00 0.00 0.00 0.00 0.00 0.00 0.00 0.00 0.00 0.00 0.00 0.00 0.00 0.00 0.00 0.00 0.00 0.00 0.00 0.01 0.03 0.02 0.03 0.05 0.05 0.02 0.01 0.01 0.02 0.01 0.01 0.00 0.00 0.00 0.00 0.00 0.00 0.00 0.00 0.00 0.00 0.00
0.00 0.00 0.00 0.00 0.00 0.00 0.00 0.00 0.00 0.00 0.00 0.00 0.00 0.00 0.00 0.00 0.00 0.00 0.00 0.00 0.03 0.05 0.02 0.03 0.03 0.02 0.02 0.01 0.01 0.00 0.00 0.00 0.00 0.00 0.00 0.00 0.00 0.00 0.00 0.00 0.00 0.00 0.00 0.00

GFSCGP_prec_precacc_033.txt.gz
Total_Precipitation_Accumulation
0.00 0.00 0.00 0.00 0.00 0.00 0.00 0.00 0.00 0.00 0.00 0.00 0.00 0.01 0.00 0.01 0.03 0.05 0.04 0.14 0.05 0.01 0.02 0.03 0.02 0.02 0.01 0.06 0.02 0.05 0.03 0.01 0.02 0.02 0.01 0.04 0.03 0.03 0.08 0.11 0.02 0.00 0.00 0.00
0.00 0.00 0.00 0.00 0.00 0.00 0.00 0.00 0.00 0.00 0.00 0.00 0.00 0.00 0.01 0.03 0.01 0.01 0.01 0.14 0.03 0.01 0.01 0.01 0.00 0.00 0.01 0.04 0.03 0.00 0.00 0.00 0.01 0.01 0.00 0.01 0.02 0.04 0.10 0.14 0.05 0.01 0.01 0.00
0.00 0.00 0.00 0.00 0.00 0.00 0.00 0.00 0.00 0.00 0.00 0.00 0.00 0.00 0.02 0.01 0.01 0.02 0.01 0.00 0.00 0.00 0.00 0.00 0.00 0.00 0.01 0.01 0.01 0.01 0.01 0.01 0.00 0.00 0.00 0.00 0.07 0.05 0.07 0.12 0.07 0.03 0.01 0.00
0.00 0.00 0.00 0.00 0.00 0.00 0.00 0.00 0.00 0.00 0.00 0.00 0.00 0.01 0.09 0.02 0.00 0.01 0.01 0.00 0.00 0.00 0.00 0.00 0.01 0.01 0.02 0.03 0.03 0.05 0.03 0.03 0.00 0.00 0.00 0.00 0.05 0.05 0.09 0.10 0.04 0.00 0.00 0.00
0.00 0.00 0.00 0.00 0.00 0.00 0.01 0.00 0.00 0.00 0.00 0.01 0.01 0.00 0.08 0.01 0.00 0.00 0.00 0.00 0.00 0.01 0.00 0.00 0.01 0.01 0.02 0.04 0.04 0.02 0.02 0.04 0.02 0.01 0.01 0.02 0.05 0.07 0.05 0.02 0.01 0.00 0.00 0.00
0.00 0.00 0.00 0.00 0.00 0.00 0.00 0.00 0.00 0.00 0.00 0.01 0.02 0.02 0.04 0.01 0.00 0.01 0.01 0.00 0.00 0.00 0.02 0.04 0.05 0.02 0.03 0.05 0.05 0.06 0.04 0.04 0.07 0.08 0.07 0.04 0.06 0.06 0.03 0.03 0.02 0.01 0.01 0.02
0.00 0.00 0.00 0.00 0.00 0.00 0.00 0.00 0.00 0.02 0.00 0.00 0.00 0.01 0.02 0.02 0.05 0.12 0.10 0.00 0.00 0.00 0.00 0.01 0.02 0.02 0.02 0.06 0.04 0.03 0.06 0.14 0.12 0.09 0.08 0.09 0.07 0.06 0.06 0.08 0.08 0.06 0.05 0.04
0.00 0.00 0.00 0.00 0.00 0.00 0.00 0.00 0.00 0.07 0.05 0.02 0.01 0.01 0.00 0.00 0.00 0.00 0.00 0.00 0.00 0.00 0.00 0.01 0.03 0.05 0.06 0.04 0.03 0.02 0.08 0.19 0.21 0.16 0.13 0.16 0.18 0.20 0.18 0.19 0.17 0.12 0.12 0.17
0.02 0.00 0.00 0.00 0.00 0.00 0.00 0.00 0.00 0.01 0.01 0.01 0.00 0.00 0.00 0.00 0.00 0.00 0.00 0.00 0.00 0.01 0.04 0.05 0.02 0.03 0.06 0.05 0.05 0.09 0.10 0.09 0.14 0.16 0.16 0.20 0.21 0.20 0.23 0.22 0.16 0.09 0.05 0.03
0.04 0.07 0.01 0.00 0.00 0.00 0.00 0.00 0.00 0.00 0.01 0.01 0.00 0.00 0.00 0.01 0.00 0.00 0.00 0.00 0.00 0.00 0.00 0.00 0.00 0.00 0.01 0.00 0.04 0.06 0.03 0.04 0.05 0.07 0.15 0.24 0.28 0.30 0.29 0.20 0.12 0.07 0.04 0.01
0.00 0.03 0.04 0.00 0.00 0.00 0.00 0.00 0.00 0.00 0.00 0.00 0.00 0.00 0.00 0.00 0.00 0.00 0.00 0.00 0.00 0.00 0.00 0.00 0.00 0.00 0.00 0.00 0.00 0.04 0.02 0.02 0.06 0.14 0.24 0.24 0.30 0.31 0.26 0.19 0.12 0.08 0.04 0.03
0.00 0.00 0.00 0.00 0.00 0.00 0.00 0.00 0.00 0.00 0.00 0.00 0.00 0.00 0.00 0.00 0.00 0.00 0.00 0.00 0.00 0.00 0.00 0.00 0.00 0.00 0.00 0.00 0.00 0.01 0.03 0.06 0.15 0.10 0.13 0.19 0.22 0.21 0.21 0.19 0.12 0.09 0.06 0.04
0.00 0.00 0.00 0.00 0.00 0.00 0.00 0.00 0.00 0.00 0.00 0.00 0.00 0.00 0.00 0.00 0.00 0.00 0.00 0.00 0.00 0.00 0.00 0.00 0.00 0.00 0.00 0.00 0.04 0.09 0.10 0.10 0.08 0.14 0.13 0.11 0.12 0.13 0.12 0.10 0.08 0.05 0.03 0.02
0.01 0.00 0.00 0.00 0.00 0.00 0.00 0.00 0.00 0.00 0.00 0.00 0.00 0.00 0.00 0.00 0.00 0.00 0.00 0.00 0.00 0.00 0.00 0.00 0.00 0.00 0.00 0.05 0.10 0.09 0.07 0.06 0.10 0.14 0.14 0.12 0.14 0.08 0.07 0.04 0.01 0.00 0.00 0.00
0.01 0.00 0.00 0.00 0.00 0.00 0.00 0.00 0.00 0.00 0.00 0.00 0.00 0.00 0.00 0.00 0.00 0.00 0.00 0.00 0.00 0.00 0.00 0.00 0.01 0.01 0.01 0.05 0.06 0.04 0.06 0.07 0.09 0.09 0.07 0.05 0.03 0.01 0.00 0.00 0.00 0.00 0.00 0.00
0.00 0.00 0.00 0.00 0.00 0.00 0.00 0.00 0.00 0.00 0.00 0.00 0.00 0.00 0.00 0.00 0.00 0.00 0.00 0.00 0.00 0.00 0.00 0.00 0.00 0.01 0.01 0.01 0.01 0.02 0.03 0.04 0.03 0.02 0.01 0.01 0.00 0.00 0.00 0.00 0.00 0.00 0.00 0.00
0.00 0.00 0.00 0.00 0.00 0.00 0.00 0.00 0.00 0.00 0.00 0.00 0.00 0.00 0.00 0.00 0.00 0.00 0.00 0.00 0.00 0.00 0.00 0.00 0.00 0.00 0.00 0.01 0.00 0.01 0.01 0.00 0.00 0.00 0.00 0.00 0.00 0.00 0.00 0.00 0.00 0.00 0.00 0.01
0.02 0.01 0.00 0.00 0.00 0.00 0.00 0.00 0.00 0.00 0.00 0.00 0.00 0.00 0.00 0.00 0.00 0.00 0.00 0.00 0.00 0.00 0.00 0.00 0.00 0.00 0.00 0.00 0.00 0.00 0.00 0.00 0.00 0.00 0.00 0.00 0.00 0.00 0.01 0.01 0.01 0.02 0.05 0.11
0.08 0.03 0.00 0.00 0.00 0.00 0.00 0.00 0.00 0.00 0.00 0.00 0.00 0.00 0.00 0.00 0.00 0.00 0.00 0.00 0.00 0.00 0.00 0.00 0.00 0.00 0.00 0.00 0.00 0.00 0.00 0.00 0.00 0.00 0.00 0.00 0.01 0.01 0.01 0.03 0.09 0.17 0.21 0.18
0.01 0.03 0.02 0.01 0.00 0.00 0.00 0.00 0.00 0.00 0.00 0.00 0.00 0.00 0.00 0.00 0.00 0.00 0.00 0.00 0.00 0.00 0.00 0.00 0.00 0.00 0.00 0.00 0.00 0.00 0.00 0.00 0.00 0.00 0.00 0.00 0.01 0.03 0.09 0.18 0.21 0.15 0.07 0.03
0.00 0.00 0.01 0.02 0.00 0.00 0.00 0.00 0.00 0.00 0.00 0.00 0.00 0.00 0.00 0.00 0.00 0.00 0.00 0.00 0.00 0.00 0.00 0.00 0.00 0.00 0.00 0.00 0.00 0.00 0.00 0.00 0.00 0.00 0.01 0.03 0.08 0.14 0.16 0.13 0.06 0.03 0.02 0.02
0.02 0.01 0.02 0.01 0.02 0.00 0.00 0.00 0.00 0.00 0.00 0.00 0.00 0.00 0.00 0.00 0.00 0.00 0.00 0.00 0.00 0.00 0.00 0.00 0.00 0.00 0.00 0.00 0.00 0.01 0.00 0.00 0.00 0.03 0.07 0.12 0.15 0.12 0.07 0.02 0.00 0.00 0.00 0.00
0.02 0.03 0.03 0.00 0.00 0.00 0.00 0.00 0.00 0.00 0.00 0.00 0.00 0.00 0.00 0.00 0.00 0.00 0.00 0.00 0.00 0.00 0.00 0.00 0.00 0.00 0.00 0.00 0.00 0.01 0.02 0.04 0.04 0.06 0.08 0.08 0.04 0.01 0.00 0.00 0.00 0.00 0.00 0.00
0.00 0.00 0.00 0.00 0.00 0.00 0.00 0.00 0.00 0.00 0.00 0.00 0.00 0.00 0.00 0.00 0.00 0.00 0.00 0.00 0.00 0.00 0.00 0.00 0.00 0.00 0.02 0.04 0.05 0.05 0.04 0.03 0.02 0.02 0.01 0.00 0.00 0.00 0.00 0.00 0.00 0.00 0.00 0.00
0.00 0.00 0.00 0.00 0.00 0.00 0.00 0.00 0.00 0.00 0.00 0.00 0.00 0.00 0.00 0.00 0.00 0.00 0.00 0.00 0.00 0.01 0.03 0.02 0.03 0.05 0.05 0.02 0.01 0.01 0.02 0.01 0.01 0.00 0.00 0.00 0.00 0.00 0.00 0.00 0.00 0.00 0.00 0.00
0.00 0.00 0.00 0.00 0.00 0.00 0.00 0.00 0.00 0.00 0.00 0.00 0.00 0.00 0.00 0.00 0.00 0.00 0.00 0.00 0.03 0.05 0.02 0.03 0.03 0.02 0.02 0.01 0.01 0.00 0.00 0.00 0.00 0.00 0.00 0.00 0.00 0.00 0.00 0.00 0.00 0.00 0.00 0.00

GFSCGP_prec_precacc_036.txt.gz
Total_Precipitation_Accumulation
0.00 0.00 0.00 0.00 0.00 0.00 0.00 0.00 0.00 0.00 0.00 0.00 0.00 0.01 0.10 0.15 0.03 0.05 0.04 0.14 0.05 0.01 0.02 0.03 0.02 0.02 0.01 0.06 0.02 0.05 0.03 0.01 0.03 0.04 0.01 0.04 0.03 0.03 0.08 0.17 0.05 0.20 0.07 0.02
0.00 0.00 0.00 0.00 0.00 0.00 0.00 0.00 0.00 0.00 0.00 0.00 0.00 0.00 0.02 0.06 0.01 0.01 0.01 0.14 0.03 0.01 0.01 0.01 0.00 0.00 0.01 0.04 0.03 0.00 0.00 0.00 0.01 0.01 0.00 0.01 0.02 0.04 0.10 0.14 0.09 0.16 0.11 0.00
0.00 0.00 0.00 0.00 0.00 0.00 0.00 0.00 0.00 0.00 0.00 0.00 0.00 0.00 0.02 0.01 0.01 0.02 0.01 0.00 0.00 0.00 0.00 0.00 0.00 0.00 0.01 0.01 0.01 0.01 0.01 0.01 0.00 0.00 0.00 0.00 0.07 0.05 0.07 0.12 0.09 0.06 0.05 0.01
0.00 0.00 0.00 0.00 0.00 0.00 0.00 0.00 0.00 0.00 0.00 0.00 0.00 0.01 0.09 0.02 0.00 0.01 0.01 0.00 0.00 0.00 0.00 0.00 0.01 0.01 0.02 0.03 0.03 0.05 0.03 0.03 0.00 0.00 0.00 0.00 0.05 0.05 0.09 0.10 0.04 0.00 0.01 0.01
0.00 0.00 0.00 0.00 0.00 0.00 0.01 0.00 0.00 0.00 0.00 0.01 0.01 0.00 0.08 0.01 0.00 0.00 0.00 0.00 0.00 0.01 0.00 0.00 0.01 0.01 0.02 0.04 0.04 0.02 0.02 0.04 0.02 0.01 0.01 0.02 0.05 0.07 0.05 0.02 0.01 0.00 0.00 0.00
0.00 0.00 0.00 0.00 0.00 0.00 0.00 0.00 0.00 0.00 0.00 0.01 0.02 0.02 0.04 0.01 0.00 0.01 0.01 0.00 0.00 0.00 0.02 0.04 0.05 0.02 0.03 0.05 0.05 0.06 0.04 0.04 0.07 0.08 0.07 0.04 0.06 0.06 0.03 0.03 0.04 0.01 0.01 0.03
0.00 0.00 0.00 0.00 0.00 0.00 0.00 0.00 0.00 0.02 0.00 0.00 0.00 0.01 0.02 0.02 0.05 0.12 0.10 0.01 0.02 0.00 0.00 0.01 0.02 0.02 0.02 0.06 0.04 0.03 0.06 0.14 0.12 0.09 0.08 0.09 0.07 0.06 0.06 0.09 0.15 0.09 0.07 0.05
0.00 0.00 0.00 0.00 0.00 0.00 0.00 0.00 0.00 0.08 0.06 0.04 0.03 0.01 0.00 0.00 0.00 0.00 0.00 0.00 0.00 0.00 0.00 0.01 0.03 0.05 0.06 0.04 0.03 0.02 0.08 0.19 0.21 0.16 0.13 0.16 0.18 0.20 0.22 0.25 0.29 0.23 0.19 0.18
0.02 0.00 0.00 0.00 0.00 0.00 0.00 0.00 0.00 0.01 0.02 0.04 0.05 0.00 0.00 0.00 0.00 0.00 0.00 0.00 0.00 0.01 0.04 0.05 0.02 0.03 0.06 0.05 0.05 0.09 0.10 0.09 0.14 0.16 0.16 0.21 0.28 0.31 0.42 0.39 0.25 0.21 0.09 0.03
0.04 0.07 0.01 0.00 0.00 0.00 0.00 0.00 0.00 0.00 0.02 0.04 0.00 0.00 0.00 0.01 0.00 0.00 0.00 0.00 0.00 0.00 0.00 0.00 0.00 0.00 0.01 0.00 0.04 0.06 0.03 0.04 0.05 0.07 0.15 0.27 0.41 0.41 0.37 0.28 0.32 0.20 0.09 0.03
0.00 0.03 0.04 0.00 0.00 0.00 0.00 0.00 0.00 0.00 0.00 0.01 0.01 0.00 0.00 0.00 0.00 0.00 0.00 0.00 0.00 0.00 0.00 0.00 0.00 0.00 0.00 0.00 0.00 0.04 0.02 0.02 0.06 0.15 0.29 0.31 0.40 0.50 0.38 0.26 0.25 0.19 0.10 0.07
0.00 0.00 0.00 0.00 0.00 0.00 0.00 0.00 0.00 0.00 0.00 0.00 0.00 0.00 0.00 0.00 0.00 0.00 0.00 0.00 0.00 0.00 0.00 0.00 0.00 0.00 0.00 0.00 0.00 0.01 0.03 0.06 0.15 0.11 0.25 0.45 0.31 0.41 0.34 0.34 0.18 0.14 0.09 0.07
0.00 0.00 0.00 0.00 0.00 0.00 0.00 0.00 0.00 0.00 0.00 0.00 0.03 0.00 0.00 0.00 0.00 0.00 0.00 0.00 0.00 0.00 0.00 0.00 0.00 0.00 0.00 0.00 0.04 0.09 0.10 0.11 0.09 0.15 0.23 0.27 0.16 0.39 0.22 0.18 0.14 0.09 0.04 0.02
0.01 0.00 0.00 0.00 0.00 0.00 0.00 0.00 0.00 0.00 0.00 0.00 0.00 0.00 0.00 0.00 0.00 0.00 0.00 0.00 0.00 0.00 0.00 0.00 0.00 0.00 0.00 0.05 0.10 0.09 0.07 0.07 0.11 0.17 0.20 0.14 0.18 0.19 0.11 0.06 0.03 0.01 0.00 0.00
0.01 0.00 0.00 0.00 0.00 0.00 0.00 0.00 0.00 0.00 0.00 0.00 0.00 0.00 0.00 0.00 0.00 0.00 0.00 0.00 0.00 0.00 0.00 0.00 0.01 0.01 0.01 0.05 0.06 0.04 0.06 0.08 0.14 0.13 0.09 0.06 0.10 0.03 0.01 0.01 0.00 0.00 0.00 0.00
0.00 0.00 0.00 0.00 0.00 0.00 0.00 0.00 0.00 0.00 0.00 0.00 0.00 0.00 0.00 0.00 0.00 0.00 0.00 0.00 0.00 0.00 0.00 0.00 0.00 0.01 0.01 0.01 0.01 0.02 0.03 0.05 0.04 0.03 0.02 0.01 0.01 0.00 0.00 0.00 0.00 0.00 0.00 0.00
0.00 0.00 0.00 0.00 0.00 0.00 0.00 0.00 0.00 0.00 0.00 0.00 0.00 0.00 0.00 0.00 0.00 0.00 0.00 0.00 0.00 0.00 0.00 0.00 0.00 0.00 0.00 0.01 0.00 0.01 0.01 0.01 0.01 0.01 0.00 0.00 0.00 0.00 0.00 0.00 0.00 0.00 0.00 0.01
0.02 0.01 0.00 0.00 0.00 0.00 0.00 0.00 0.00 0.00 0.00 0.00 0.00 0.00 0.00 0.00 0.00 0.00 0.00 0.00 0.00 0.00 0.00 0.00 0.00 0.00 0.00 0.00 0.00 0.00 0.00 0.00 0.00 0.00 0.00 0.00 0.00 0.00 0.01 0.01 0.01 0.02 0.05 0.11
0.08 0.05 0.02 0.02 0.01 0.00 0.00 0.00 0.00 0.00 0.00 0.00 0.00 0.00 0.00 0.00 0.00 0.00 0.00 0.00 0.00 0.00 0.00 0.00 0.00 0.00 0.00 0.00 0.00 0.00 0.00 0.00 0.00 0.00 0.00 0.00 0.01 0.01 0.01 0.03 0.09 0.17 0.21 0.18
0.02 0.06 0.09 0.02 0.01 0.00 0.00 0.00 0.00 0.00 0.00 0.00 0.00 0.00 0.00 0.00 0.00 0.00 0.00 0.00 0.00 0.00 0.00 0.00 0.00 0.00 0.00 0.00 0.00 0.00 0.00 0.00 0.00 0.00 0.00 0.00 0.01 0.03 0.09 0.18 0.21 0.15 0.07 0.03
0.07 0.02 0.04 0.04 0.02 0.00 0.00 0.00 0.00 0.00 0.00 0.00 0.00 0.00 0.00 0.00 0.00 0.00 0.00 0.00 0.00 0.00 0.00 0.00 0.00 0.00 0.00 0.00 0.00 0.00 0.00 0.00 0.00 0.00 0.01 0.03 0.08 0.14 0.16 0.13 0.06 0.03 0.02 0.02
0.13 0.10 0.04 0.05 0.04 0.00 0.00 0.00 0.00 0.00 0.00 0.00 0.00 0.00 0.00 0.00 0.00 0.00 0.00 0.00 0.00 0.00 0.00 0.00 0.00 0.00 0.00 0.00 0.00 0.01 0.00 0.00 0.00 0.03 0.07 0.12 0.15 0.12 0.07 0.02 0.00 0.00 0.00 0.00
0.04 0.12 0.09 0.02 0.00 0.00 0.00 0.00 0.00 0.00 0.00 0.00 0.00 0.00 0.00 0.00 0.00 0.00 0.00 0.00 0.00 0.00 0.00 0.00 0.00 0.00 0.00 0.00 0.00 0.01 0.02 0.04 0.04 0.06 0.08 0.08 0.04 0.01 0.00 0.00 0.00 0.00 0.00 0.00
0.00 0.01 0.03 0.04 0.01 0.01 0.00 0.00 0.00 0.00 0.00 0.00 0.00 0.00 0.00 0.00 0.00 0.00 0.00 0.00 0.00 0.00 0.00 0.00 0.00 0.00 0.02 0.04 0.05 0.05 0.04 0.03 0.02 0.02 0.01 0.00 0.00 0.00 0.00 0.00 0.00 0.00 0.00 0.00
0.00 0.03 0.00 0.00 0.00 0.02 0.01 0.01 0.00 0.00 0.00 0.00 0.00 0.00 0.00 0.00 0.00 0.00 0.00 0.00 0.00 0.01 0.03 0.02 0.03 0.05 0.05 0.02 0.01 0.01 0.02 0.01 0.01 0.00 0.00 0.00 0.00 0.00 0.00 0.00 0.00 0.00 0.00 0.00
0.00 0.00 0.00 0.00 0.00 0.00 0.00 0.01 0.01 0.01 0.01 0.00 0.00 0.00 0.00 0.00 0.00 0.00 0.00 0.00 0.03 0.05 0.02 0.03 0.03 0.02 0.02 0.01 0.01 0.00 0.00 0.00 0.00 0.00 0.00 0.00 0.00 0.00 0.00 0.00 0.00 0.00 0.00 0.00

GFSCGP_prec_precacc_039.txt.gz
Total_Precipitation_Accumulation
0.00 0.00 0.00 0.00 0.00 0.00 0.00 0.00 0.00 0.00 0.00 0.00 0.00 0.02 0.10 0.15 0.03 0.06 0.04 0.14 0.05 0.01 0.02 0.03 0.02 0.02 0.01 0.06 0.02 0.05 0.03 0.01 0.03 0.04 0.01 0.04 0.03 0.03 0.08 0.17 0.06 0.23 0.10 0.10
0.00 0.00 0.00 0.00 0.00 0.00 0.00 0.00 0.00 0.00 0.00 0.00 0.00 0.00 0.02 0.07 0.01 0.01 0.01 0.14 0.03 0.01 0.01 0.01 0.00 0.00 0.01 0.04 0.03 0.00 0.00 0.00 0.01 0.01 0.00 0.01 0.02 0.04 0.10 0.14 0.13 0.21 0.19 0.06
0.00 0.00 0.00 0.00 0.00 0.00 0.00 0.00 0.00 0.00 0.00 0.00 0.00 0.00 0.02 0.02 0.02 0.05 0.01 0.00 0.00 0.00 0.00 0.00 0.00 0.00 0.01 0.01 0.01 0.01 0.01 0.01 0.00 0.00 0.00 0.00 0.07 0.05 0.07 0.12 0.11 0.11 0.10 0.04
0.00 0.00 0.00 0.00 0.00 0.00 0.00 0.00 0.00 0.00 0.00 0.00 0.00 0.01 0.09 0.03 0.01 0.04 0.02 0.00 0.01 0.00 0.00 0.00 0.01 0.01 0.02 0.03 0.03 0.05 0.03 0.03 0.00 0.00 0.00 0.00 0.05 0.05 0.09 0.10 0.05 0.03 0.01 0.06
0.00 0.00 0.00 0.00 0.00 0.00 0.01 0.00 0.00 0.00 0.00 0.01 0.01 0.00 0.08 0.01 0.01 0.01 0.01 0.00 0.01 0.01 0.00 0.00 0.01 0.01 0.02 0.04 0.04 0.02 0.02 0.04 0.02 0.01 0.01 0.02 0.05 0.07 0.05 0.02 0.01 0.01 0.03 0.03
0.00 0.00 0.00 0.00 0.00 0.00 0.00 0.00 0.00 0.00 0.00 0.01 0.02 0.02 0.04 0.01 0.00 0.02 0.01 0.00 0.01 0.02 0.03 0.04 0.05 0.02 0.03 0.05 0.05 0.06 0.04 0.04 0.07 0.08 0.07 0.04 0.09 0.07 0.03 0.03 0.04 0.04 0.03 0.16
0.00 0.00 0.00 0.00 0.00 0.00 0.00 0.00 0.00 0.02 0.00 0.00 0.00 0.01 0.02 0.02 0.05 0.12 0.10 0.01 0.02 0.00 0.00 0.01 0.02 0.02 0.02 0.06 0.04 0.03 0.06 0.14 0.12 0.09 0.08 0.09 0.08 0.07 0.06 0.09 0.20 0.21 0.18 0.21
0.00 0.00 0.00 0.00 0.00 0.00 0.00 0.00 0.00 0.08 0.06 0.05 0.03 0.01 0.01 0.00 0.00 0.00 0.00 0.00 0.00 0.00 0.00 0.01 0.03 0.05 0.06 0.04 0.03 0.02 0.08 0.19 0.21 0.16 0.13 0.16 0.19 0.20 0.22 0.27 0.40 0.43 0.33 0.28
0.02 0.00 0.00 0.00 0.00 0.00 0.00 0.00 0.00 0.01 0.02 0.05 0.06 0.00 0.00 0.00 0.00 0.00 0.00 0.00 0.00 0.01 0.04 0.05 0.02 0.03 0.06 0.05 0.05 0.09 0.10 0.09 0.14 0.16 0.16 0.21 0.28 0.31 0.43 0.43 0.32 0.33 0.22 0.13
0.04 0.07 0.01 0.00 0.00 0.00 0.00 0.00 0.00 0.00 0.02 0.04 0.00 0.00 0.00 0.01 0.00 0.00 0.00 0.00 0.00 0.00 0.00 0.00 0.01 0.00 0.01 0.00 0.04 0.06 0.03 0.05 0.09 0.13 0.15 0.27 0.41 0.42 0.38 0.31 0.39 0.31 0.26 0.23
0.00 0.03 0.04 0.00 0.00 0.00 0.00 0.00 0.00 0.00 0.00 0.01 0.01 0.00 0.00 0.00 0.00 0.00 0.00 0.00 0.00 0.00 0.00 0.00 0.01 0.01 0.01 0.00 0.01 0.04 0.08 0.31 0.27 0.29 0.34 0.35 0.43 0.58 0.59 0.46 0.39 0.37 0.19 0.16
0.00 0.00 0.00 0.00 0.00 0.00 0.00 0.00 0.00 0.00 0.00 0.00 0.01 0.00 0.00 0.00 0.00 0.00 0.00 0.00 0.00 0.00 0.00 0.00 0.00 0.00 0.00 0.01 0.01 0.02 0.04 0.16 0.31 0.23 0.46 0.69 0.61 0.84 0.96 0.83 0.49 0.45 0.19 0.17
0.00 0.00 0.00 0.00 0.00 0.00 0.00 0.00 0.00 0.00 0.00 0.00 0.03 0.00 0.00 0.00 0.00 0.00 0.00 0.00 0.00 0.00 0.00 0.00 0.00 0.00 0.00 0.00 0.04 0.10 0.14 0.26 0.33 0.48 0.59 0.57 0.40 0.68 0.49 0.45 0.31 0.15 0.09 0.05
0.01 0.00 0.00 0.00 0.00 0.00 0.00 0.00 0.00 0.00 0.00 0.00 0.00 0.00 0.00 0.01 0.00 0.00 0.00 0.00 0.00 0.00 0.00 0.00 0.00 0.00 0.00 0.05 0.10 0.09 0.09 0.19 0.31 0.28 0.28 0.21 0.19 0.25 0.19 0.12 0.07 0.06 0.03 0.03
0.01 0.00 0.00 0.00 0.00 0.00 0.00 0.00 0.00 0.00 0.00 0.01 0.00 0.00 0.00 0.00 0.00 0.00 0.00 0.00 0.00 0.00 0.00 0.00 0.01 0.01 0.01 0.05 0.06 0.04 0.06 0.10 0.16 0.14 0.09 0.07 0.14 0.04 0.04 0.04 0.02 0.00 0.02 0.01
0.00 0.00 0.00 0.00 0.00 0.00 0.00 0.00 0.00 0.00 0.00 0.00 0.00 0.00 0.00 0.00 0.00 0.00 0.00 0.00 0.00 0.00 0.00 0.00 0.00 0.01 0.01 0.01 0.01 0.02 0.03 0.06 0.05 0.03 0.02 0.01 0.02 0.01 0.01 0.01 0.00 0.00 0.00 0.00
0.02 0.00 0.00 0.00 0.00 0.00 0.00 0.00 0.00 0.00 0.00 0.00 0.00 0.00 0.00 0.00 0.00 0.00 0.00 0.00 0.00 0.00 0.00 0.00 0.00 0.00 0.01 0.01 0.00 0.01 0.01 0.01 0.01 0.01 0.00 0.00 0.00 0.00 0.00 0.00 0.00 0.00 0.00 0.01
0.16 0.03 0.00 0.00 0.01 0.01 0.00 0.00 0.00 0.00 0.00 0.00 0.00 0.00 0.00 0.00 0.00 0.00 0.00 0.00 0.00 0.00 0.00 0.00 0.00 0.00 0.00 0.00 0.00 0.00 0.00 0.00 0.00 0.00 0.00 0.00 0.00 0.00 0.01 0.01 0.01 0.02 0.05 0.11
0.21 0.13 0.04 0.02 0.01 0.00 0.00 0.00 0.00 0.00 0.00 0.00 0.00 0.00 0.00 0.00 0.00 0.00 0.00 0.00 0.00 0.00 0.00 0.00 0.00 0.00 0.00 0.00 0.00 0.00 0.00 0.00 0.00 0.00 0.00 0.00 0.01 0.01 0.01 0.03 0.09 0.17 0.21 0.18
0.26 0.16 0.12 0.04 0.01 0.00 0.00 0.00 0.00 0.00 0.00 0.00 0.00 0.00 0.00 0.00 0.00 0.00 0.00 0.00 0.00 0.00 0.00 0.00 0.00 0.00 0.00 0.00 0.00 0.00 0.00 0.00 0.00 0.00 0.00 0.00 0.01 0.03 0.09 0.18 0.21 0.15 0.07 0.03
0.17 0.19 0.14 0.06 0.03 0.00 0.00 0.00 0.00 0.00 0.00 0.00 0.00 0.00 0.00 0.00 0.00 0.00 0.00 0.00 0.00 0.00 0.00 0.00 0.00 0.00 0.00 0.00 0.00 0.00 0.00 0.00 0.00 0.00 0.01 0.03 0.08 0.14 0.16 0.13 0.06 0.03 0.02 0.02
0.15 0.19 0.17 0.14 0.05 0.00 0.00 0.00 0.00 0.00 0.00 0.00 0.00 0.00 0.00 0.00 0.00 0.00 0.00 0.00 0.00 0.00 0.00 0.00 0.00 0.00 0.00 0.00 0.00 0.01 0.00 0.00 0.00 0.03 0.07 0.12 0.15 0.12 0.07 0.02 0.00 0.00 0.00 0.00
0.04 0.12 0.12 0.08 0.02 0.00 0.00 0.00 0.00 0.00 0.00 0.00 0.00 0.00 0.00 0.00 0.00 0.00 0.00 0.00 0.00 0.00 0.00 0.00 0.00 0.00 0.00 0.00 0.00 0.01 0.02 0.04 0.04 0.06 0.08 0.08 0.04 0.01 0.00 0.00 0.00 0.00 0.00 0.00
0.00 0.01 0.03 0.04 0.02 0.03 0.02 0.02 0.00 0.00 0.00 0.00 0.00 0.00 0.00 0.00 0.00 0.00 0.00 0.00 0.00 0.00 0.00 0.00 0.00 0.00 0.02 0.04 0.05 0.05 0.04 0.03 0.02 0.02 0.01 0.00 0.00 0.00 0.00 0.00 0.00 0.00 0.00 0.00
0.00 0.03 0.03 0.02 0.01 0.02 0.03 0.12 0.09 0.04 0.02 0.01 0.01 0.02 0.00 0.00 0.00 0.00 0.00 0.00 0.00 0.01 0.03 0.02 0.03 0.05 0.05 0.02 0.01 0.01 0.02 0.01 0.01 0.00 0.00 0.00 0.00 0.00 0.00 0.00 0.00 0.00 0.00 0.00
0.00 0.00 0.00 0.01 0.00 0.00 0.00 0.02 0.03 0.08 0.09 0.04 0.02 0.02 0.01 0.00 0.00 0.00 0.00 0.00 0.03 0.05 0.02 0.03 0.03 0.02 0.02 0.01 0.01 0.00 0.00 0.00 0.00 0.00 0.00 0.00 0.00 0.00 0.00 0.00 0.00 0.00 0.00 0.00

GFSCGP_prec_precacc_042.txt.gz
Total_Precipitation_Accumulation
0.00 0.00 0.00 0.00 0.00 0.00 0.00 0.00 0.00 0.00 0.00 0.00 0.00 0.02 0.10 0.15 0.04 0.06 0.04 0.14 0.05 0.01 0.02 0.03 0.02 0.02 0.01 0.06 0.02 0.05 0.03 0.01 0.03 0.04 0.01 0.04 0.03 0.03 0.08 0.17 0.06 0.23 0.10 0.10
0.00 0.00 0.00 0.00 0.00 0.00 0.00 0.00 0.00 0.00 0.00 0.00 0.00 0.00 0.02 0.07 0.01 0.01 0.01 0.14 0.03 0.01 0.01 0.01 0.00 0.00 0.01 0.04 0.03 0.00 0.00 0.00 0.01 0.01 0.00 0.01 0.02 0.04 0.10 0.14 0.13 0.21 0.19 0.06
0.00 0.00 0.00 0.00 0.00 0.00 0.00 0.00 0.00 0.00 0.00 0.00 0.00 0.00 0.02 0.02 0.02 0.06 0.01 0.00 0.00 0.00 0.00 0.00 0.00 0.00 0.01 0.01 0.01 0.01 0.01 0.01 0.00 0.00 0.00 0.00 0.07 0.05 0.07 0.12 0.11 0.11 0.10 0.04
0.00 0.00 0.00 0.00 0.00 0.00 0.00 0.00 0.00 0.00 0.00 0.00 0.00 0.01 0.09 0.03 0.01 0.04 0.02 0.00 0.01 0.00 0.00 0.00 0.01 0.01 0.02 0.03 0.03 0.05 0.03 0.03 0.00 0.00 0.00 0.00 0.05 0.05 0.09 0.10 0.05 0.03 0.01 0.06
0.00 0.00 0.00 0.00 0.00 0.00 0.01 0.00 0.00 0.00 0.00 0.01 0.01 0.00 0.08 0.01 0.01 0.01 0.01 0.00 0.01 0.01 0.00 0.00 0.01 0.01 0.02 0.04 0.04 0.02 0.02 0.04 0.02 0.01 0.01 0.02 0.05 0.07 0.05 0.02 0.01 0.01 0.03 0.03
0.00 0.00 0.00 0.00 0.00 0.00 0.00 0.00 0.00 0.00 0.00 0.01 0.02 0.02 0.04 0.01 0.00 0.02 0.02 0.01 0.01 0.02 0.03 0.04 0.05 0.02 0.03 0.05 0.05 0.06 0.04 0.04 0.07 0.08 0.07 0.04 0.09 0.07 0.03 0.03 0.04 0.04 0.03 0.17
0.00 0.00 0.00 0.00 0.00 0.00 0.00 0.00 0.00 0.02 0.00 0.00 0.00 0.01 0.02 0.02 0.05 0.12 0.10 0.01 0.02 0.00 0.00 0.01 0.02 0.02 0.02 0.06 0.04 0.03 0.06 0.14 0.12 0.09 0.08 0.09 0.08 0.07 0.06 0.09 0.20 0.21 0.18 0.30
0.00 0.00 0.00 0.00 0.00 0.00 0.00 0.00 0.00 0.08 0.06 0.05 0.03 0.01 0.01 0.01 0.01 0.00 0.00 0.00 0.00 0.00 0.00 0.01 0.03 0.05 0.06 0.04 0.03 0.02 0.08 0.19 0.21 0.16 0.13 0.16 0.19 0.20 0.22 0.27 0.42 0.44 0.34 0.31
0.02 0.00 0.00 0.00 0.00 0.00 0.00 0.00 0.00 0.01 0.02 0.05 0.06 0.00 0.00 0.00 0.00 0.00 0.00 0.00 0.00 0.01 0.04 0.05 0.02 0.03 0.06 0.05 0.05 0.09 0.10 0.09 0.14 0.16 0.16 0.21 0.28 0.31 0.43 0.46 0.37 0.35 0.23 0.14
0.04 0.07 0.01 0.00 0.00 0.00 0.00 0.00 0.00 0.00 0.02 0.04 0.00 0.00 0.00 0.01 0.00 0.00 0.00 0.00 0.00 0.00 0.00 0.00 0.01 0.00 0.01 0.01 0.05 0.06 0.03 0.06 0.12 0.15 0.16 0.27 0.41 0.42 0.41 0.33 0.42 0.37 0.32 0.33
0.00 0.03 0.04 0.00 0.00 0.00 0.00 0.00 0.00 0.00 0.00 0.01 0.01 0.00 0.00 0.01 0.00 0.00 0.00 0.00 0.00 0.00 0.00 0.00 0.01 0.01 0.01 0.00 0.01 0.06 0.11 0.33 0.29 0.36 0.39 0.37 0.46 0.61 0.67 0.60 0.56 0.53 0.48 0.45
0.00 0.00 0.00 0.00 0.00 0.00 0.00 0.00 0.00 0.00 0.00 0.00 0.01 0.00 0.00 0.00 0.00 0.00 0.00 0.00 0.00 0.00 0.00 0.00 0.00 0.00 0.01 0.01 0.01 0.02 0.07 0.19 0.35 0.31 0.51 0.73 0.66 0.98 1.49 1.50 1.15 1.24 1.11 0.63
0.00 0.00 0.00 0.00 0.00 0.00 0.00 0.00 0.00 0.00 0.00 0.00 0.03 0.00 0.00 0.00 0.00 0.00 0.00 0.00 0.00 0.00 0.00 0.00 0.00 0.00 0.00 0.00 0.04 0.10 0.15 0.27 0.42 0.63 0.76 0.76 0.62 0.99 0.94 0.65 0.47 0.39 0.45 0.26
0.02 0.00 0.00 0.00 0.00 0.00 0.00 0.00 0.00 0.00 0.00 0.00 0.00 0.00 0.00 0.01 0.00 0.00 0.00 0.00 0.00 0.00 0.00 0.00 0.00 0.00 0.00 0.05 0.10 0.09 0.09 0.23 0.34 0.37 0.47 0.37 0.30 0.34 0.31 0.23 0.17 0.12 0.08 0.10
0.05 0.05 0.00 0.00 0.00 0.00 0.00 0.00 0.00 0.00 0.00 0.01 0.00 0.00 0.00 0.00 0.00 0.00 0.00 0.00 0.00 0.00 0.00 0.00 0.01 0.01 0.01 0.05 0.06 0.04 0.07 0.12 0.16 0.15 0.17 0.13 0.21 0.13 0.12 0.07 0.06 0.04 0.05 0.06
0.03 0.08 0.00 0.00 0.00 0.00 0.00 0.00 0.00 0.00 0.00 0.00 0.00 0.00 0.00 0.00 0.00 0.00 0.00 0.00 0.00 0.00 0.00 0.00 0.00 0.01 0.01 0.01 0.01 0.02 0.03 0.06 0.05 0.05 0.08 0.06 0.08 0.07 0.06 0.04 0.02 0.02 0.03 0.02
0.10 0.13 0.05 0.01 0.00 0.00 0.00 0.00 0.00 0.00 0.00 0.00 0.00 0.00 0.00 0.00 0.00 0.00 0.00 0.00 0.00 0.00 0.00 0.00 0.00 0.00 0.01 0.01 0.00 0.01 0.01 0.01 0.02 0.05 0.04 0.04 0.04 0.05 0.04 0.04 0.03 0.01 0.00 0.01
0.26 0.16 0.11 0.04 0.01 0.02 0.01 0.00 0.00 0.00 0.00 0.00 0.00 0.00 0.00 0.00 0.00 0.00 0.00 0.00 0.00 0.00 0.00 0.00 0.00 0.00 0.00 0.00 0.00 0.00 0.00 0.00 0.01 0.02 0.03 0.03 0.03 0.03 0.04 0.02 0.01 0.02 0.05 0.11
0.23 0.22 0.19 0.12 0.07 0.02 0.00 0.00 0.00 0.00 0.00 0.00 0.00 0.00 0.00 0.00 0.00 0.00 0.00 0.00 0.00 0.00 0.00 0.00 0.00 0.00 0.00 0.00 0.00 0.00 0.00 0.01 0.01 0.02 0.02 0.02 0.03 0.03 0.02 0.03 0.09 0.17 0.21 0.18
0.27 0.26 0.29 0.15 0.15 0.08 0.00 0.00 0.00 0.00 0.00 0.00 0.00 0.00 0.00 0.00 0.00 0.00 0.00 0.00 0.00 0.00 0.00 0.00 0.00 0.00 0.00 0.00 0.00 0.01 0.01 0.01 0.00 0.00 0.00 0.00 0.01 0.03 0.09 0.18 0.21 0.15 0.07 0.03
0.18 0.21 0.23 0.15 0.16 0.05 0.00 0.00 0.00 0.00 0.00 0.00 0.00 0.00 0.00 0.00 0.00 0.00 0.00 0.00 0.00 0.00 0.00 0.00 0.00 0.00 0.00 0.00 0.00 0.00 0.00 0.00 0.00 0.00 0.01 0.03 0.08 0.14 0.16 0.13 0.06 0.03 0.02 0.02
0.15 0.19 0.19 0.21 0.16 0.05 0.01 0.00 0.00 0.00 0.00 0.00 0.00 0.00 0.00 0.00 0.00 0.00 0.00 0.00 0.00 0.00 0.00 0.00 0.00 0.00 0.00 0.00 0.00 0.01 0.00 0.00 0.00 0.03 0.07 0.12 0.15 0.12 0.07 0.02 0.00 0.00 0.00 0.00
0.05 0.12 0.13 0.10 0.06 0.02 0.02 0.01 0.00 0.00 0.00 0.01 0.01 0.00 0.00 0.00 0.00 0.00 0.00 0.00 0.00 0.00 0.00 0.00 0.00 0.00 0.00 0.00 0.00 0.01 0.02 0.04 0.04 0.06 0.08 0.08 0.04 0.01 0.00 0.00 0.00 0.00 0.00 0.00
0.01 0.01 0.03 0.04 0.02 0.03 0.03 0.02 0.01 0.00 0.00 0.01 0.00 0.00 0.00 0.00 0.00 0.00 0.00 0.00 0.00 0.00 0.00 0.00 0.00 0.00 0.02 0.04 0.05 0.05 0.04 0.03 0.02 0.02 0.01 0.00 0.00 0.00 0.00 0.00 0.00 0.00 0.00 0.00
0.02 0.05 0.04 0.02 0.01 0.02 0.03 0.12 0.09 0.04 0.02 0.01 0.01 0.02 0.02 0.01 0.01 0.01 0.01 0.00 0.00 0.01 0.03 0.02 0.03 0.05 0.05 0.02 0.01 0.01 0.02 0.01 0.01 0.00 0.00 0.00 0.00 0.00 0.00 0.00 0.00 0.00 0.00 0.00
0.01 0.02 0.02 0.02 0.00 0.00 0.00 0.02 0.03 0.08 0.09 0.04 0.03 0.03 0.02 0.00 0.00 0.00 0.00 0.00 0.03 0.05 0.02 0.03 0.03 0.02 0.02 0.01 0.01 0.00 0.00 0.00 0.00 0.00 0.00 0.00 0.00 0.00 0.00 0.00 0.00 0.00 0.00 0.00

GFSCGP_prec_precacc_045.txt.gz
Total_Precipitation_Accumulation
0.00 0.00 0.00 0.00 0.00 0.00 0.00 0.00 0.00 0.00 0.00 0.00 0.00 0.02 0.10 0.15 0.04 0.06 0.04 0.14 0.05 0.01 0.02 0.03 0.02 0.02 0.01 0.06 0.02 0.05 0.03 0.02 0.05 0.05 0.01 0.05 0.03 0.03 0.08 0.17 0.06 0.23 0.10 0.10
0.00 0.00 0.00 0.00 0.00 0.00 0.00 0.00 0.00 0.00 0.00 0.00 0.00 0.00 0.02 0.07 0.01 0.01 0.01 0.14 0.03 0.01 0.01 0.01 0.00 0.00 0.01 0.04 0.03 0.00 0.00 0.00 0.01 0.01 0.00 0.01 0.02 0.04 0.10 0.14 0.13 0.21 0.19 0.06
0.00 0.00 0.00 0.00 0.00 0.00 0.00 0.00 0.00 0.00 0.00 0.00 0.00 0.00 0.02 0.02 0.02 0.06 0.01 0.00 0.00 0.00 0.00 0.00 0.00 0.00 0.01 0.01 0.01 0.01 0.01 0.01 0.00 0.00 0.00 0.00 0.07 0.05 0.07 0.12 0.11 0.11 0.10 0.04
0.00 0.00 0.00 0.00 0.00 0.00 0.00 0.00 0.00 0.00 0.00 0.00 0.00 0.01 0.09 0.03 0.01 0.04 0.02 0.00 0.01 0.00 0.00 0.00 0.01 0.01 0.02 0.03 0.03 0.05 0.03 0.03 0.00 0.00 0.00 0.00 0.05 0.05 0.09 0.10 0.05 0.03 0.01 0.06
0.00 0.00 0.00 0.00 0.00 0.00 0.01 0.00 0.00 0.00 0.00 0.01 0.01 0.00 0.08 0.01 0.01 0.01 0.01 0.00 0.01 0.01 0.00 0.00 0.01 0.01 0.02 0.04 0.04 0.02 0.02 0.04 0.02 0.01 0.01 0.02 0.05 0.07 0.05 0.02 0.01 0.01 0.03 0.03
0.00 0.00 0.00 0.00 0.00 0.00 0.00 0.00 0.00 0.00 0.00 0.01 0.02 0.02 0.04 0.01 0.00 0.02 0.02 0.01 0.01 0.02 0.03 0.04 0.05 0.02 0.03 0.05 0.05 0.06 0.04 0.04 0.07 0.08 0.07 0.04 0.09 0.07 0.03 0.03 0.04 0.04 0.03 0.17
0.00 0.00 0.00 0.00 0.00 0.00 0.00 0.00 0.00 0.02 0.00 0.00 0.00 0.01 0.02 0.02 0.05 0.12 0.10 0.01 0.02 0.00 0.00 0.01 0.02 0.02 0.02 0.06 0.04 0.03 0.06 0.14 0.12 0.09 0.08 0.09 0.08 0.07 0.06 0.09 0.20 0.21 0.18 0.30
0.00 0.00 0.00 0.00 0.00 0.00 0.00 0.00 0.00 0.08 0.06 0.05 0.03 0.01 0.01 0.01 0.01 0.00 0.00 0.00 0.00 0.00 0.00 0.01 0.03 0.05 0.06 0.04 0.03 0.02 0.08 0.19 0.21 0.16 0.13 0.16 0.19 0.20 0.22 0.27 0.42 0.44 0.34 0.31
0.02 0.00 0.00 0.00 0.00 0.00 0.00 0.00 0.00 0.01 0.02 0.05 0.06 0.00 0.00 0.00 0.00 0.00 0.00 0.00 0.00 0.01 0.04 0.05 0.02 0.03 0.06 0.05 0.05 0.09 0.10 0.09 0.14 0.16 0.16 0.21 0.28 0.31 0.43 0.46 0.37 0.36 0.27 0.16
0.04 0.07 0.01 0.00 0.00 0.00 0.00 0.00 0.00 0.00 0.02 0.04 0.00 0.00 0.00 0.01 0.00 0.00 0.00 0.00 0.00 0.00 0.00 0.00 0.01 0.00 0.01 0.01 0.06 0.06 0.03 0.06 0.12 0.16 0.16 0.27 0.41 0.42 0.41 0.33 0.43 0.38 0.37 0.38
0.00 0.03 0.04 0.00 0.00 0.00 0.00 0.00 0.00 0.00 0.00 0.01 0.01 0.00 0.00 0.01 0.00 0.00 0.00 0.00 0.00 0.00 0.00 0.00 0.01 0.01 0.01 0.00 0.02 0.09 0.15 0.34 0.34 0.43 0.50 0.43 0.47 0.62 0.69 0.62 0.60 0.58 0.55 0.55
0.00 0.00 0.00 0.00 0.00 0.00 0.00 0.00 0.00 0.00 0.00 0.00 0.01 0.00 0.00 0.00 0.00 0.00 0.00 0.00 0.00 0.00 0.00 0.00 0.00 0.00 0.01 0.01 0.01 0.03 0.09 0.19 0.37 0.40 0.65 0.84 0.72 1.03 1.56 1.61 1.25 1.47 1.48 1.11
0.00 0.00 0.00 0.00 0.00 0.00 0.00 0.00 0.00 0.00 0.00 0.00 0.03 0.00 0.00 0.00 0.00 0.00 0.00 0.00 0.00 0.00 0.00 0.00 0.00 0.00 0.00 0.00 0.04 0.10 0.16 0.27 0.43 0.64 0.79 0.82 0.68 1.07 1.00 0.70 0.52 0.42 0.50 0.46
0.02 0.00 0.00 0.00 0.00 0.00 0.00 0.00 0.00 0.00 0.00 0.00 0.00 0.00 0.00 0.01 0.00 0.00 0.00 0.00 0.00 0.00 0.00 0.00 0.00 0.00 0.00 0.05 0.10 0.09 0.09 0.23 0.34 0.37 0.47 0.38 0.33 0.39 0.35 0.26 0.18 0.17 0.15 0.12
0.05 0.05 0.01 0.00 0.00 0.00 0.00 0.00 0.00 0.00 0.00 0.01 0.00 0.00 0.00 0.00 0.00 0.00 0.00 0.00 0.00 0.00 0.00 0.00 0.01 0.01 0.01 0.05 0.06 0.04 0.07 0.12 0.16 0.15 0.17 0.14 0.23 0.17 0.14 0.09 0.06 0.09 0.12 0.16
0.03 0.08 0.01 0.00 0.00 0.00 0.00 0.00 0.00 0.00 0.00 0.00 0.00 0.00 0.00 0.00 0.00 0.00 0.00 0.00 0.00 0.00 0.00 0.00 0.00 0.01 0.01 0.01 0.01 0.02 0.03 0.06 0.05 0.05 0.09 0.07 0.10 0.10 0.10 0.06 0.04 0.05 0.08 0.08
0.10 0.13 0.05 0.01 0.00 0.00 0.00 0.00 0.00 0.00 0.00 0.00 0.00 0.00 0.00 0.00 0.00 0.00 0.00 0.00 0.00 0.00 0.00 0.00 0.00 0.00 0.01 0.01 0.00 0.01 0.01 0.01 0.02 0.05 0.04 0.05 0.06 0.08 0.06 0.07 0.05 0.06 0.07 0.04
0.26 0.16 0.12 0.05 0.01 0.04 0.02 0.00 0.00 0.00 0.00 0.00 0.00 0.00 0.00 0.00 0.00 0.00 0.00 0.00 0.00 0.00 0.00 0.00 0.00 0.00 0.00 0.00 0.00 0.00 0.00 0.00 0.01 0.03 0.04 0.04 0.05 0.05 0.07 0.06 0.05 0.05 0.06 0.11
0.23 0.22 0.20 0.13 0.07 0.04 0.00 0.00 0.00 0.00 0.00 0.00 0.00 0.00 0.00 0.00 0.00 0.00 0.00 0.00 0.00 0.00 0.00 0.00 0.00 0.00 0.00 0.00 0.00 0.00 0.00 0.01 0.01 0.02 0.02 0.03 0.05 0.05 0.04 0.04 0.09 0.17 0.21 0.18
0.27 0.26 0.29 0.16 0.15 0.10 0.01 0.00 0.00 0.00 0.01 0.00 0.00 0.00 0.00 0.00 0.00 0.00 0.00 0.00 0.00 0.00 0.00 0.00 0.00 0.00 0.00 0.00 0.00 0.01 0.01 0.01 0.01 0.01 0.01 0.02 0.02 0.04 0.09 0.19 0.21 0.15 0.07 0.03
0.18 0.22 0.23 0.16 0.16 0.05 0.01 0.01 0.00 0.03 0.02 0.00 0.00 0.00 0.00 0.00 0.00 0.00 0.00 0.00 0.00 0.00 0.00 0.00 0.00 0.00 0.00 0.00 0.00 0.00 0.00 0.00 0.00 0.01 0.01 0.03 0.08 0.14 0.16 0.13 0.06 0.03 0.02 0.02
0.15 0.19 0.19 0.21 0.17 0.05 0.02 0.05 0.07 0.04 0.00 0.00 0.00 0.00 0.00 0.00 0.00 0.00 0.00 0.00 0.00 0.00 0.00 0.00 0.00 0.00 0.00 0.00 0.00 0.01 0.00 0.01 0.01 0.03 0.07 0.12 0.15 0.12 0.07 0.02 0.00 0.00 0.00 0.00
0.05 0.12 0.13 0.10 0.06 0.02 0.02 0.03 0.02 0.01 0.01 0.01 0.01 0.00 0.00 0.00 0.00 0.00 0.00 0.00 0.00 0.00 0.00 0.00 0.00 0.00 0.00 0.00 0.00 0.01 0.03 0.04 0.04 0.06 0.08 0.08 0.04 0.01 0.00 0.00 0.00 0.00 0.00 0.00
0.01 0.01 0.03 0.04 0.02 0.03 0.03 0.02 0.01 0.00 0.01 0.01 0.00 0.00 0.00 0.00 0.00 0.00 0.00 0.00 0.00 0.00 0.00 0.00 0.00 0.00 0.02 0.04 0.05 0.05 0.04 0.03 0.02 0.02 0.01 0.00 0.00 0.00 0.00 0.00 0.00 0.00 0.00 0.00
0.02 0.05 0.04 0.02 0.01 0.02 0.03 0.12 0.09 0.04 0.02 0.02 0.01 0.02 0.02 0.02 0.01 0.01 0.01 0.01 0.00 0.01 0.03 0.02 0.03 0.05 0.05 0.02 0.01 0.01 0.02 0.01 0.01 0.00 0.00 0.00 0.00 0.00 0.00 0.00 0.00 0.00 0.00 0.00
0.02 0.04 0.06 0.03 0.02 0.00 0.00 0.03 0.03 0.08 0.10 0.04 0.03 0.03 0.02 0.01 0.02 0.01 0.01 0.01 0.04 0.05 0.02 0.03 0.03 0.02 0.02 0.01 0.01 0.00 0.00 0.00 0.00 0.00 0.00 0.00 0.00 0.00 0.00 0.00 0.00 0.00 0.00 0.00

GFSCGP_prec_precacc_048.txt.gz
Total_Precipitation_Accumulation
0.00 0.00 0.00 0.00 0.00 0.00 0.00 0.00 0.00 0.00 0.00 0.00 0.00 0.02 0.10 0.15 0.04 0.06 0.04 0.14 0.05 0.01 0.02 0.03 0.02 0.02 0.01 0.06 0.03 0.06 0.07 0.05 0.14 0.15 0.05 0.05 0.04 0.04 0.08 0.17 0.07 0.23 0.11 0.12
0.00 0.00 0.00 0.00 0.00 0.00 0.00 0.00 0.00 0.00 0.00 0.00 0.00 0.00 0.02 0.07 0.01 0.01 0.01 0.14 0.03 0.01 0.01 0.01 0.00 0.00 0.01 0.04 0.03 0.00 0.01 0.02 0.07 0.07 0.06 0.02 0.03 0.04 0.10 0.15 0.13 0.22 0.20 0.07
0.00 0.00 0.00 0.00 0.00 0.00 0.00 0.00 0.00 0.00 0.00 0.00 0.00 0.00 0.02 0.02 0.02 0.06 0.01 0.00 0.00 0.00 0.00 0.00 0.00 0.00 0.01 0.01 0.01 0.01 0.01 0.01 0.01 0.01 0.01 0.00 0.07 0.05 0.07 0.12 0.11 0.11 0.10 0.04
0.00 0.00 0.00 0.00 0.00 0.00 0.00 0.00 0.00 0.00 0.00 0.00 0.00 0.01 0.09 0.03 0.01 0.04 0.02 0.00 0.01 0.00 0.00 0.00 0.01 0.01 0.02 0.03 0.03 0.05 0.03 0.03 0.00 0.00 0.00 0.00 0.05 0.05 0.09 0.10 0.05 0.03 0.01 0.06
0.00 0.00 0.00 0.00 0.00 0.00 0.01 0.00 0.00 0.00 0.00 0.01 0.01 0.00 0.08 0.01 0.01 0.01 0.01 0.00 0.01 0.01 0.00 0.00 0.01 0.01 0.02 0.04 0.04 0.02 0.02 0.04 0.02 0.01 0.01 0.02 0.05 0.07 0.05 0.02 0.01 0.01 0.03 0.03
0.00 0.00 0.00 0.00 0.00 0.00 0.00 0.00 0.00 0.00 0.00 0.01 0.02 0.02 0.04 0.01 0.00 0.02 0.02 0.01 0.01 0.02 0.03 0.04 0.05 0.02 0.03 0.05 0.05 0.06 0.04 0.04 0.07 0.08 0.07 0.04 0.09 0.07 0.03 0.03 0.04 0.04 0.03 0.17
0.00 0.00 0.00 0.00 0.00 0.00 0.00 0.00 0.00 0.02 0.00 0.00 0.00 0.01 0.02 0.02 0.05 0.12 0.10 0.01 0.02 0.00 0.00 0.01 0.02 0.02 0.02 0.06 0.04 0.03 0.06 0.14 0.12 0.09 0.08 0.09 0.08 0.07 0.06 0.09 0.20 0.21 0.18 0.30
0.00 0.00 0.00 0.00 0.00 0.00 0.00 0.00 0.00 0.08 0.06 0.05 0.03 0.01 0.01 0.01 0.01 0.00 0.00 0.00 0.00 0.00 0.00 0.01 0.03 0.05 0.06 0.04 0.03 0.02 0.08 0.19 0.21 0.16 0.13 0.16 0.19 0.20 0.22 0.27 0.42 0.44 0.34 0.31
0.02 0.00 0.00 0.00 0.00 0.00 0.00 0.00 0.00 0.01 0.02 0.05 0.06 0.00 0.00 0.00 0.00 0.00 0.00 0.00 0.00 0.01 0.04 0.05 0.02 0.03 0.06 0.05 0.05 0.09 0.10 0.09 0.14 0.16 0.16 0.21 0.28 0.31 0.43 0.46 0.37 0.36 0.27 0.16
0.04 0.07 0.01 0.00 0.00 0.00 0.00 0.00 0.00 0.00 0.02 0.04 0.00 0.00 0.00 0.01 0.00 0.00 0.00 0.00 0.00 0.00 0.00 0.00 0.01 0.00 0.01 0.01 0.06 0.07 0.03 0.06 0.12 0.16 0.16 0.27 0.41 0.42 0.41 0.33 0.43 0.38 0.37 0.38
0.00 0.03 0.04 0.00 0.00 0.00 0.00 0.00 0.00 0.00 0.00 0.01 0.01 0.00 0.00 0.01 0.00 0.00 0.00 0.00 0.00 0.00 0.00 0.00 0.01 0.01 0.01 0.00 0.02 0.09 0.15 0.35 0.35 0.43 0.53 0.45 0.47 0.62 0.69 0.63 0.60 0.58 0.55 0.55
0.00 0.00 0.00 0.00 0.00 0.00 0.00 0.00 0.00 0.00 0.00 0.00 0.01 0.00 0.00 0.00 0.00 0.00 0.00 0.00 0.00 0.00 0.00 0.00 0.00 0.00 0.01 0.01 0.01 0.03 0.09 0.20 0.38 0.43 0.67 0.90 0.76 1.04 1.56 1.62 1.26 1.48 1.49 1.15
0.00 0.00 0.00 0.00 0.00 0.00 0.00 0.00 0.00 0.00 0.00 0.00 0.03 0.00 0.00 0.00 0.00 0.00 0.00 0.00 0.00 0.00 0.00 0.00 0.00 0.00 0.00 0.00 0.04 0.10 0.16 0.28 0.45 0.66 0.81 0.84 0.71 1.10 1.02 0.71 0.53 0.42 0.52 0.49
0.02 0.00 0.00 0.01 0.00 0.00 0.00 0.00 0.00 0.00 0.00 0.00 0.00 0.00 0.00 0.01 0.00 0.00 0.00 0.00 0.00 0.00 0.00 0.00 0.00 0.00 0.00 0.05 0.10 0.09 0.09 0.23 0.34 0.37 0.47 0.38 0.34 0.40 0.38 0.31 0.24 0.20 0.18 0.17
0.05 0.05 0.01 0.00 0.00 0.00 0.00 0.00 0.00 0.00 0.00 0.01 0.00 0.00 0.00 0.00 0.00 0.00 0.00 0.00 0.00 0.00 0.00 0.00 0.01 0.01 0.01 0.05 0.06 0.04 0.07 0.12 0.16 0.15 0.17 0.14 0.23 0.17 0.15 0.10 0.12 0.15 0.17 0.24
0.03 0.08 0.01 0.00 0.00 0.00 0.00 0.00 0.00 0.00 0.00 0.00 0.00 0.00 0.00 0.00 0.00 0.00 0.00 0.00 0.00 0.00 0.00 0.00 0.00 0.01 0.01 0.01 0.01 0.02 0.03 0.06 0.05 0.05 0.09 0.07 0.10 0.10 0.11 0.06 0.06 0.09 0.10 0.11
0.11 0.13 0.05 0.01 0.00 0.00 0.00 0.00 0.00 0.00 0.00 0.00 0.00 0.00 0.00 0.00 0.00 0.00 0.00 0.00 0.00 0.00 0.00 0.00 0.00 0.00 0.01 0.01 0.00 0.01 0.01 0.01 0.02 0.05 0.04 0.05 0.06 0.08 0.06 0.09 0.06 0.08 0.11 0.09
0.26 0.16 0.12 0.05 0.01 0.04 0.02 0.00 0.00 0.00 0.00 0.00 0.00 0.00 0.00 0.00 0.00 0.00 0.00 0.00 0.00 0.00 0.00 0.00 0.00 0.00 0.00 0.00 0.00 0.00 0.00 0.00 0.01 0.03 0.04 0.04 0.05 0.06 0.07 0.07 0.09 0.10 0.12 0.17
0.23 0.22 0.20 0.13 0.07 0.04 0.00 0.00 0.00 0.00 0.00 0.00 0.00 0.00 0.00 0.00 0.00 0.00 0.00 0.00 0.00 0.00 0.00 0.00 0.00 0.00 0.00 0.00 0.00 0.00 0.00 0.01 0.01 0.02 0.02 0.04 0.06 0.06 0.06 0.08 0.13 0.22 0.27 0.24
0.28 0.27 0.29 0.16 0.15 0.10 0.01 0.00 0.00 0.00 0.01 0.00 0.00 0.00 0.00 0.00 0.00 0.00 0.00 0.00 0.00 0.00 0.00 0.00 0.00 0.00 0.00 0.00 0.00 0.01 0.01 0.01 0.01 0.01 0.01 0.02 0.03 0.05 0.10 0.20 0.23 0.18 0.11 0.06
0.19 0.22 0.24 0.16 0.17 0.05 0.01 0.01 0.00 0.03 0.02 0.00 0.00 0.00 0.00 0.00 0.00 0.00 0.00 0.00 0.00 0.00 0.00 0.00 0.00 0.00 0.00 0.00 0.00 0.00 0.00 0.00 0.00 0.01 0.02 0.04 0.08 0.14 0.16 0.13 0.08 0.05 0.03 0.03
0.15 0.19 0.19 0.21 0.18 0.05 0.02 0.05 0.08 0.04 0.00 0.00 0.00 0.00 0.00 0.00 0.00 0.00 0.00 0.00 0.00 0.00 0.00 0.00 0.00 0.00 0.00 0.00 0.00 0.01 0.00 0.01 0.02 0.05 0.08 0.12 0.15 0.12 0.07 0.03 0.02 0.02 0.01 0.00
0.05 0.12 0.13 0.10 0.06 0.02 0.02 0.03 0.02 0.01 0.01 0.01 0.01 0.00 0.00 0.00 0.00 0.00 0.00 0.00 0.00 0.00 0.00 0.00 0.00 0.00 0.00 0.00 0.00 0.01 0.04 0.07 0.08 0.08 0.10 0.09 0.04 0.01 0.01 0.00 0.01 0.00 0.00 0.00
0.01 0.01 0.03 0.04 0.02 0.03 0.03 0.02 0.01 0.00 0.01 0.01 0.00 0.00 0.00 0.00 0.00 0.00 0.00 0.00 0.00 0.00 0.00 0.00 0.00 0.00 0.02 0.04 0.05 0.07 0.08 0.05 0.04 0.03 0.02 0.00 0.00 0.00 0.00 0.00 0.00 0.00 0.00 0.00
0.02 0.05 0.04 0.02 0.01 0.02 0.03 0.12 0.09 0.04 0.02 0.02 0.02 0.03 0.02 0.02 0.02 0.01 0.01 0.01 0.00 0.01 0.03 0.02 0.03 0.05 0.05 0.03 0.02 0.03 0.03 0.01 0.01 0.00 0.00 0.00 0.00 0.00 0.00 0.00 0.00 0.00 0.00 0.00
0.02 0.04 0.06 0.03 0.02 0.00 0.00 0.03 0.03 0.08 0.10 0.04 0.04 0.03 0.03 0.02 0.02 0.01 0.02 0.02 0.04 0.06 0.03 0.03 0.03 0.02 0.02 0.02 0.01 0.00 0.00 0.00 0.00 0.00 0.00 0.00 0.00 0.00 0.00 0.00 0.00 0.00 0.00 0.00

GFSCGP_prec_precacc_051.txt.gz
Total_Precipitation_Accumulation
0.00 0.00 0.00 0.00 0.00 0.00 0.00 0.00 0.00 0.00 0.00 0.00 0.00 0.02 0.10 0.15 0.04 0.06 0.04 0.14 0.05 0.01 0.02 0.03 0.02 0.02 0.01 0.06 0.03 0.08 0.13 0.11 0.29 0.28 0.10 0.07 0.05 0.04 0.08 0.17 0.07 0.23 0.11 0.12
0.00 0.00 0.00 0.00 0.00 0.00 0.00 0.00 0.00 0.00 0.00 0.00 0.00 0.00 0.02 0.07 0.01 0.01 0.01 0.14 0.03 0.01 0.01 0.01 0.00 0.00 0.01 0.04 0.03 0.00 0.02 0.04 0.11 0.16 0.17 0.05 0.03 0.04 0.10 0.15 0.15 0.22 0.20 0.07
0.00 0.00 0.00 0.00 0.00 0.00 0.00 0.00 0.00 0.00 0.00 0.00 0.00 0.00 0.02 0.02 0.02 0.06 0.01 0.00 0.00 0.00 0.00 0.00 0.00 0.00 0.01 0.01 0.01 0.01 0.01 0.02 0.03 0.05 0.16 0.04 0.08 0.05 0.07 0.13 0.12 0.11 0.11 0.05
0.00 0.00 0.00 0.00 0.00 0.00 0.00 0.00 0.00 0.00 0.00 0.00 0.00 0.01 0.09 0.03 0.01 0.04 0.02 0.00 0.01 0.00 0.00 0.00 0.01 0.01 0.02 0.03 0.03 0.05 0.03 0.03 0.00 0.01 0.03 0.01 0.05 0.05 0.09 0.10 0.05 0.03 0.01 0.07
0.00 0.00 0.00 0.00 0.00 0.00 0.01 0.00 0.00 0.00 0.00 0.01 0.01 0.00 0.08 0.01 0.01 0.01 0.01 0.00 0.01 0.01 0.00 0.00 0.01 0.01 0.02 0.04 0.04 0.02 0.02 0.04 0.02 0.01 0.01 0.02 0.05 0.07 0.05 0.02 0.01 0.01 0.03 0.03
0.00 0.00 0.00 0.00 0.00 0.00 0.00 0.00 0.00 0.00 0.00 0.01 0.02 0.02 0.04 0.01 0.00 0.02 0.02 0.01 0.01 0.02 0.03 0.04 0.05 0.02 0.03 0.05 0.05 0.06 0.04 0.04 0.07 0.08 0.07 0.04 0.09 0.07 0.03 0.03 0.04 0.04 0.03 0.17
0.00 0.00 0.00 0.00 0.00 0.00 0.00 0.00 0.00 0.02 0.00 0.00 0.00 0.01 0.02 0.02 0.05 0.12 0.10 0.01 0.02 0.00 0.00 0.01 0.02 0.02 0.02 0.06 0.04 0.03 0.06 0.14 0.12 0.09 0.08 0.09 0.08 0.07 0.06 0.09 0.20 0.21 0.18 0.30
0.00 0.00 0.00 0.00 0.00 0.00 0.00 0.00 0.00 0.08 0.06 0.05 0.03 0.01 0.01 0.01 0.01 0.00 0.00 0.00 0.00 0.00 0.00 0.01 0.03 0.05 0.06 0.04 0.03 0.02 0.08 0.19 0.21 0.16 0.13 0.16 0.19 0.20 0.22 0.27 0.42 0.44 0.34 0.31
0.02 0.00 0.00 0.00 0.00 0.00 0.00 0.00 0.00 0.01 0.02 0.05 0.06 0.00 0.00 0.00 0.00 0.00 0.00 0.00 0.00 0.01 0.04 0.05 0.02 0.03 0.06 0.05 0.05 0.09 0.10 0.09 0.14 0.16 0.16 0.21 0.28 0.31 0.43 0.46 0.37 0.36 0.27 0.16
0.04 0.07 0.01 0.00 0.00 0.00 0.00 0.00 0.00 0.00 0.02 0.04 0.00 0.00 0.00 0.01 0.00 0.00 0.00 0.00 0.00 0.00 0.00 0.00 0.01 0.00 0.01 0.01 0.06 0.07 0.03 0.06 0.12 0.16 0.16 0.27 0.41 0.42 0.41 0.33 0.43 0.38 0.37 0.38
0.00 0.03 0.04 0.00 0.00 0.00 0.00 0.00 0.00 0.00 0.00 0.01 0.01 0.00 0.00 0.01 0.00 0.00 0.00 0.00 0.00 0.00 0.00 0.00 0.01 0.01 0.01 0.00 0.02 0.09 0.15 0.35 0.35 0.43 0.53 0.45 0.47 0.62 0.69 0.63 0.60 0.58 0.55 0.55
0.00 0.00 0.00 0.00 0.00 0.00 0.00 0.00 0.00 0.00 0.00 0.00 0.01 0.00 0.00 0.00 0.00 0.00 0.00 0.00 0.00 0.00 0.00 0.00 0.00 0.00 0.01 0.01 0.01 0.03 0.09 0.20 0.38 0.43 0.67 0.92 0.77 1.04 1.56 1.62 1.26 1.48 1.49 1.15
0.00 0.00 0.00 0.00 0.00 0.00 0.00 0.00 0.00 0.00 0.00 0.00 0.03 0.00 0.00 0.00 0.00 0.00 0.00 0.00 0.00 0.00 0.00 0.00 0.00 0.00 0.00 0.00 0.04 0.10 0.16 0.28 0.45 0.66 0.81 0.84 0.74 1.12 1.03 0.71 0.53 0.42 0.52 0.49
0.02 0.00 0.00 0.01 0.00 0.00 0.00 0.00 0.00 0.00 0.00 0.00 0.00 0.00 0.00 0.01 0.00 0.00 0.00 0.00 0.00 0.00 0.00 0.00 0.00 0.00 0.00 0.05 0.10 0.09 0.09 0.23 0.34 0.37 0.47 0.38 0.34 0.40 0.38 0.31 0.24 0.20 0.18 0.17
0.05 0.05 0.01 0.00 0.00 0.00 0.00 0.00 0.00 0.00 0.00 0.01 0.00 0.00 0.00 0.00 0.00 0.00 0.00 0.00 0.00 0.00 0.00 0.00 0.01 0.01 0.01 0.05 0.06 0.04 0.07 0.12 0.16 0.15 0.17 0.14 0.23 0.17 0.15 0.10 0.12 0.15 0.18 0.25
0.03 0.08 0.01 0.00 0.00 0.00 0.00 0.00 0.00 0.00 0.00 0.00 0.00 0.00 0.00 0.00 0.00 0.00 0.00 0.00 0.00 0.00 0.00 0.00 0.00 0.01 0.01 0.01 0.01 0.02 0.03 0.06 0.05 0.05 0.09 0.07 0.10 0.10 0.11 0.06 0.06 0.09 0.11 0.13
0.11 0.13 0.05 0.01 0.00 0.00 0.00 0.00 0.00 0.00 0.00 0.00 0.00 0.00 0.00 0.00 0.00 0.00 0.00 0.00 0.00 0.00 0.00 0.00 0.00 0.00 0.01 0.01 0.00 0.01 0.01 0.01 0.02 0.05 0.04 0.05 0.06 0.08 0.06 0.09 0.06 0.08 0.12 0.10
0.26 0.16 0.12 0.05 0.01 0.04 0.02 0.00 0.00 0.00 0.00 0.00 0.00 0.00 0.00 0.00 0.00 0.00 0.00 0.00 0.00 0.00 0.00 0.00 0.00 0.00 0.00 0.00 0.00 0.00 0.00 0.00 0.01 0.03 0.04 0.04 0.05 0.06 0.07 0.07 0.09 0.10 0.12 0.20
0.23 0.22 0.20 0.13 0.07 0.04 0.00 0.00 0.00 0.00 0.00 0.00 0.00 0.00 0.00 0.00 0.00 0.00 0.00 0.00 0.00 0.00 0.00 0.00 0.00 0.00 0.00 0.00 0.00 0.00 0.00 0.01 0.01 0.02 0.02 0.04 0.06 0.06 0.06 0.08 0.13 0.22 0.28 0.27
0.28 0.27 0.31 0.17 0.16 0.10 0.01 0.00 0.00 0.00 0.01 0.00 0.00 0.00 0.00 0.00 0.00 0.00 0.00 0.00 0.00 0.00 0.00 0.00 0.00 0.00 0.00 0.00 0.00 0.01 0.01 0.01 0.01 0.01 0.01 0.02 0.03 0.05 0.10 0.21 0.24 0.19 0.13 0.09
0.20 0.23 0.25 0.19 0.18 0.05 0.01 0.01 0.00 0.03 0.02 0.00 0.00 0.00 0.00 0.00 0.00 0.00 0.00 0.00 0.00 0.00 0.00 0.00 0.00 0.00 0.00 0.00 0.00 0.00 0.00 0.00 0.00 0.01 0.02 0.06 0.10 0.17 0.19 0.14 0.08 0.05 0.04 0.04
0.15 0.20 0.20 0.22 0.18 0.05 0.02 0.05 0.08 0.04 0.00 0.00 0.00 0.00 0.00 0.00 0.00 0.00 0.00 0.00 0.00 0.00 0.00 0.00 0.00 0.00 0.00 0.00 0.00 0.01 0.00 0.01 0.02 0.06 0.11 0.17 0.20 0.16 0.09 0.04 0.02 0.02 0.02 0.02
0.05 0.12 0.13 0.10 0.06 0.02 0.02 0.03 0.02 0.01 0.01 0.01 0.01 0.00 0.00 0.00 0.00 0.00 0.00 0.00 0.00 0.00 0.00 0.00 0.00 0.00 0.00 0.00 0.00 0.01 0.04 0.07 0.09 0.12 0.15 0.16 0.09 0.03 0.01 0.01 0.01 0.02 0.03 0.03
0.01 0.01 0.03 0.04 0.02 0.03 0.03 0.02 0.01 0.00 0.01 0.01 0.00 0.00 0.00 0.00 0.00 0.01 0.01 0.01 0.00 0.00 0.00 0.00 0.00 0.00 0.02 0.04 0.05 0.07 0.09 0.07 0.06 0.05 0.05 0.02 0.00 0.00 0.00 0.01 0.01 0.01 0.02 0.02
0.02 0.05 0.04 0.02 0.01 0.02 0.03 0.12 0.09 0.04 0.02 0.02 0.02 0.03 0.02 0.03 0.03 0.04 0.04 0.02 0.01 0.02 0.03 0.02 0.03 0.05 0.05 0.03 0.02 0.04 0.03 0.02 0.02 0.01 0.00 0.00 0.00 0.00 0.00 0.00 0.00 0.01 0.00 0.00
0.02 0.04 0.06 0.03 0.02 0.00 0.00 0.03 0.03 0.08 0.10 0.04 0.04 0.04 0.08 0.12 0.06 0.04 0.05 0.04 0.07 0.07 0.03 0.03 0.04 0.02 0.03 0.04 0.04 0.01 0.01 0.00 0.00 0.00 0.00 0.00 0.00 0.00 0.00 0.00 0.00 0.00 0.01 0.01

GFSCGP_prec_precacc_054.txt.gz
Total_Precipitation_Accumulation
0.00 0.00 0.00 0.00 0.00 0.00 0.00 0.00 0.00 0.00 0.00 0.00 0.00 0.02 0.10 0.15 0.04 0.06 0.04 0.14 0.05 0.01 0.02 0.03 0.02 0.02 0.01 0.06 0.03 0.09 0.23 0.19 0.34 0.31 0.16 0.14 0.10 0.07 0.10 0.18 0.07 0.23 0.11 0.12
0.00 0.00 0.00 0.00 0.00 0.00 0.00 0.00 0.00 0.00 0.00 0.00 0.00 0.00 0.02 0.07 0.01 0.01 0.01 0.14 0.03 0.01 0.01 0.01 0.00 0.00 0.01 0.04 0.03 0.01 0.03 0.07 0.17 0.22 0.22 0.08 0.05 0.05 0.10 0.15 0.15 0.22 0.20 0.07
0.00 0.00 0.00 0.00 0.00 0.00 0.00 0.00 0.00 0.00 0.00 0.00 0.00 0.00 0.02 0.02 0.02 0.06 0.01 0.00 0.00 0.00 0.00 0.00 0.00 0.00 0.01 0.01 0.01 0.01 0.01 0.03 0.04 0.11 0.21 0.14 0.16 0.10 0.09 0.13 0.12 0.11 0.11 0.05
0.00 0.00 0.00 0.00 0.00 0.00 0.00 0.00 0.00 0.00 0.00 0.00 0.00 0.01 0.09 0.03 0.01 0.04 0.02 0.00 0.01 0.00 0.00 0.00 0.01 0.01 0.02 0.03 0.03 0.05 0.03 0.03 0.01 0.02 0.05 0.04 0.09 0.07 0.10 0.10 0.05 0.03 0.01 0.07
0.00 0.00 0.00 0.00 0.00 0.00 0.01 0.00 0.00 0.00 0.00 0.01 0.01 0.00 0.08 0.01 0.01 0.01 0.01 0.00 0.01 0.01 0.00 0.00 0.01 0.01 0.02 0.04 0.04 0.03 0.03 0.04 0.02 0.01 0.02 0.03 0.06 0.07 0.05 0.02 0.01 0.01 0.03 0.03
0.00 0.00 0.00 0.00 0.00 0.00 0.00 0.00 0.00 0.00 0.00 0.01 0.02 0.02 0.04 0.01 0.00 0.02 0.02 0.01 0.01 0.02 0.03 0.04 0.05 0.02 0.03 0.05 0.05 0.06 0.04 0.04 0.07 0.08 0.07 0.04 0.09 0.07 0.03 0.03 0.04 0.04 0.03 0.17
0.00 0.00 0.00 0.00 0.00 0.00 0.00 0.00 0.00 0.02 0.00 0.00 0.00 0.01 0.02 0.02 0.05 0.12 0.10 0.01 0.02 0.00 0.00 0.01 0.02 0.02 0.02 0.06 0.04 0.03 0.06 0.14 0.12 0.09 0.08 0.09 0.08 0.07 0.06 0.09 0.20 0.21 0.18 0.30
0.01 0.01 0.00 0.00 0.00 0.00 0.00 0.00 0.00 0.08 0.06 0.05 0.03 0.01 0.01 0.01 0.01 0.00 0.00 0.00 0.00 0.00 0.00 0.01 0.03 0.05 0.06 0.04 0.03 0.02 0.08 0.19 0.21 0.16 0.13 0.16 0.19 0.20 0.22 0.27 0.42 0.44 0.34 0.31
0.02 0.00 0.00 0.00 0.00 0.00 0.00 0.00 0.00 0.01 0.02 0.05 0.06 0.00 0.00 0.00 0.00 0.00 0.00 0.00 0.00 0.01 0.04 0.05 0.02 0.03 0.06 0.05 0.05 0.09 0.10 0.09 0.14 0.16 0.16 0.21 0.28 0.31 0.43 0.46 0.37 0.36 0.27 0.16
0.04 0.07 0.01 0.00 0.00 0.00 0.00 0.00 0.00 0.00 0.02 0.04 0.00 0.00 0.00 0.01 0.00 0.00 0.00 0.00 0.00 0.00 0.00 0.00 0.01 0.00 0.01 0.01 0.06 0.07 0.03 0.06 0.12 0.16 0.16 0.27 0.41 0.42 0.41 0.33 0.43 0.38 0.37 0.38
0.00 0.03 0.04 0.00 0.00 0.00 0.00 0.00 0.00 0.00 0.00 0.01 0.01 0.00 0.00 0.01 0.00 0.00 0.00 0.00 0.00 0.00 0.00 0.00 0.01 0.01 0.01 0.00 0.02 0.09 0.15 0.35 0.35 0.43 0.53 0.45 0.47 0.62 0.69 0.63 0.60 0.58 0.55 0.55
0.00 0.00 0.00 0.00 0.00 0.00 0.00 0.00 0.00 0.00 0.00 0.00 0.01 0.00 0.00 0.00 0.00 0.00 0.00 0.00 0.00 0.00 0.00 0.00 0.00 0.00 0.01 0.01 0.01 0.03 0.09 0.20 0.38 0.43 0.67 0.92 0.77 1.04 1.56 1.62 1.26 1.48 1.49 1.15
0.00 0.00 0.00 0.00 0.00 0.00 0.00 0.00 0.00 0.00 0.00 0.00 0.03 0.00 0.00 0.00 0.00 0.00 0.00 0.00 0.00 0.00 0.00 0.00 0.00 0.00 0.00 0.00 0.04 0.10 0.16 0.28 0.45 0.66 0.81 0.84 0.74 1.13 1.03 0.71 0.53 0.42 0.52 0.49
0.02 0.01 0.00 0.01 0.00 0.00 0.00 0.00 0.00 0.00 0.00 0.00 0.00 0.00 0.00 0.01 0.00 0.00 0.00 0.00 0.00 0.00 0.00 0.00 0.00 0.00 0.00 0.05 0.10 0.09 0.09 0.23 0.34 0.37 0.47 0.38 0.34 0.41 0.40 0.33 0.24 0.20 0.18 0.17
0.05 0.05 0.01 0.00 0.00 0.00 0.00 0.00 0.00 0.00 0.00 0.01 0.00 0.00 0.00 0.00 0.00 0.00 0.00 0.00 0.00 0.00 0.00 0.00 0.01 0.01 0.01 0.05 0.06 0.04 0.07 0.12 0.16 0.15 0.17 0.14 0.23 0.17 0.15 0.10 0.12 0.15 0.18 0.25
0.03 0.08 0.01 0.00 0.00 0.00 0.00 0.00 0.00 0.00 0.00 0.00 0.00 0.00 0.00 0.00 0.00 0.00 0.00 0.00 0.00 0.00 0.00 0.00 0.00 0.01 0.01 0.01 0.01 0.02 0.03 0.06 0.05 0.05 0.09 0.07 0.10 0.10 0.11 0.06 0.06 0.09 0.11 0.13
0.11 0.13 0.05 0.01 0.00 0.00 0.00 0.00 0.00 0.00 0.00 0.00 0.00 0.00 0.00 0.00 0.00 0.00 0.00 0.00 0.00 0.00 0.00 0.00 0.00 0.00 0.01 0.01 0.00 0.01 0.01 0.01 0.02 0.05 0.04 0.05 0.06 0.08 0.06 0.09 0.06 0.08 0.12 0.10
0.26 0.17 0.13 0.06 0.01 0.04 0.02 0.00 0.00 0.00 0.00 0.00 0.00 0.00 0.00 0.00 0.00 0.00 0.00 0.00 0.00 0.00 0.00 0.00 0.00 0.00 0.00 0.00 0.00 0.00 0.00 0.00 0.01 0.03 0.04 0.04 0.05 0.06 0.07 0.07 0.09 0.11 0.12 0.20
0.23 0.22 0.21 0.14 0.08 0.04 0.00 0.00 0.00 0.00 0.00 0.00 0.00 0.00 0.00 0.00 0.00 0.00 0.00 0.00 0.00 0.00 0.00 0.00 0.00 0.00 0.00 0.00 0.00 0.00 0.00 0.01 0.01 0.02 0.02 0.04 0.06 0.06 0.06 0.08 0.13 0.22 0.28 0.27
0.28 0.27 0.32 0.18 0.16 0.10 0.01 0.00 0.00 0.00 0.01 0.00 0.00 0.00 0.00 0.00 0.00 0.00 0.00 0.00 0.00 0.00 0.00 0.00 0.00 0.00 0.00 0.00 0.00 0.01 0.01 0.01 0.01 0.01 0.01 0.02 0.03 0.05 0.10 0.21 0.24 0.19 0.13 0.09
0.20 0.24 0.26 0.21 0.19 0.05 0.01 0.01 0.00 0.03 0.02 0.00 0.00 0.00 0.00 0.00 0.00 0.00 0.00 0.00 0.00 0.00 0.00 0.00 0.00 0.00 0.00 0.00 0.00 0.00 0.00 0.00 0.00 0.01 0.02 0.06 0.10 0.17 0.20 0.15 0.08 0.06 0.05 0.04
0.16 0.20 0.21 0.23 0.19 0.05 0.02 0.06 0.08 0.04 0.00 0.00 0.00 0.00 0.00 0.00 0.00 0.00 0.00 0.00 0.00 0.00 0.00 0.00 0.00 0.00 0.00 0.00 0.00 0.01 0.00 0.01 0.02 0.06 0.11 0.17 0.21 0.19 0.13 0.08 0.07 0.05 0.03 0.03
0.06 0.12 0.13 0.10 0.06 0.02 0.02 0.04 0.03 0.01 0.01 0.01 0.01 0.00 0.00 0.00 0.00 0.00 0.00 0.00 0.00 0.00 0.00 0.00 0.00 0.00 0.00 0.00 0.00 0.01 0.04 0.07 0.09 0.12 0.15 0.17 0.13 0.07 0.05 0.04 0.04 0.03 0.03 0.04
0.01 0.01 0.03 0.04 0.02 0.03 0.03 0.02 0.01 0.00 0.01 0.01 0.00 0.00 0.00 0.00 0.00 0.01 0.02 0.01 0.01 0.01 0.01 0.00 0.00 0.00 0.02 0.04 0.05 0.07 0.09 0.07 0.06 0.05 0.09 0.06 0.05 0.06 0.03 0.02 0.02 0.02 0.03 0.04
0.02 0.05 0.04 0.02 0.01 0.02 0.03 0.12 0.09 0.04 0.02 0.02 0.02 0.03 0.02 0.03 0.03 0.05 0.07 0.07 0.06 0.06 0.05 0.03 0.03 0.07 0.07 0.05 0.04 0.05 0.06 0.07 0.07 0.05 0.04 0.02 0.02 0.01 0.00 0.00 0.02 0.02 0.02 0.04
0.02 0.04 0.06 0.03 0.02 0.00 0.00 0.03 0.03 0.08 0.10 0.04 0.04 0.04 0.08 0.12 0.07 0.05 0.06 0.08 0.15 0.22 0.18 0.09 0.06 0.04 0.05 0.08 0.11 0.09 0.07 0.06 0.05 0.02 0.01 0.02 0.00 0.00 0.01 0.01 0.03 0.05 0.05 0.04

GFSCGP_prec_precacc_057.txt.gz
Total_Precipitation_Accumulation
0.00 0.00 0.00 0.00 0.00 0.00 0.00 0.00 0.00 0.00 0.00 0.00 0.00 0.02 0.10 0.15 0.04 0.06 0.04 0.14 0.05 0.01 0.02 0.03 0.02 0.02 0.01 0.06 0.04 0.10 0.23 0.20 0.34 0.32 0.18 0.19 0.17 0.14 0.14 0.19 0.08 0.23 0.11 0.12
0.00 0.00 0.00 0.00 0.00 0.00 0.00 0.00 0.00 0.00 0.00 0.00 0.00 0.00 0.02 0.07 0.01 0.01 0.01 0.14 0.03 0.01 0.01 0.01 0.00 0.00 0.01 0.05 0.04 0.01 0.03 0.08 0.18 0.23 0.23 0.09 0.07 0.08 0.11 0.15 0.15 0.22 0.22 0.07
0.00 0.00 0.00 0.00 0.00 0.00 0.00 0.00 0.00 0.00 0.00 0.00 0.00 0.00 0.02 0.02 0.02 0.06 0.01 0.00 0.00 0.00 0.00 0.00 0.00 0.00 0.01 0.01 0.01 0.01 0.02 0.03 0.05 0.13 0.23 0.15 0.18 0.12 0.11 0.14 0.13 0.11 0.14 0.05
0.00 0.00 0.00 0.00 0.00 0.00 0.00 0.00 0.00 0.00 0.00 0.00 0.00 0.01 0.09 0.03 0.01 0.04 0.02 0.00 0.01 0.00 0.00 0.00 0.01 0.01 0.02 0.03 0.03 0.06 0.04 0.03 0.01 0.02 0.05 0.05 0.12 0.09 0.11 0.10 0.05 0.03 0.04 0.09
0.00 0.00 0.00 0.00 0.00 0.00 0.01 0.00 0.00 0.00 0.00 0.01 0.01 0.00 0.08 0.01 0.01 0.01 0.01 0.00 0.01 0.01 0.00 0.00 0.01 0.01 0.02 0.04 0.04 0.03 0.03 0.05 0.02 0.02 0.02 0.03 0.06 0.08 0.06 0.02 0.02 0.02 0.05 0.07
0.00 0.00 0.00 0.00 0.00 0.00 0.00 0.00 0.00 0.00 0.00 0.01 0.02 0.02 0.04 0.01 0.00 0.02 0.02 0.01 0.01 0.02 0.03 0.04 0.05 0.02 0.03 0.05 0.05 0.06 0.05 0.04 0.07 0.08 0.08 0.04 0.09 0.07 0.03 0.03 0.04 0.04 0.04 0.20
0.00 0.00 0.00 0.00 0.00 0.00 0.00 0.00 0.00 0.02 0.00 0.00 0.00 0.01 0.02 0.02 0.05 0.12 0.10 0.01 0.02 0.00 0.00 0.01 0.02 0.02 0.02 0.06 0.04 0.03 0.06 0.15 0.13 0.09 0.08 0.10 0.08 0.07 0.06 0.09 0.20 0.21 0.18 0.30
0.01 0.01 0.00 0.00 0.00 0.00 0.00 0.00 0.00 0.08 0.06 0.05 0.03 0.01 0.01 0.01 0.01 0.00 0.00 0.00 0.00 0.00 0.00 0.01 0.03 0.05 0.06 0.04 0.03 0.02 0.08 0.19 0.21 0.16 0.13 0.16 0.19 0.20 0.22 0.27 0.42 0.44 0.34 0.31
0.02 0.00 0.00 0.00 0.00 0.00 0.00 0.00 0.00 0.01 0.02 0.05 0.06 0.00 0.00 0.00 0.00 0.00 0.00 0.00 0.00 0.01 0.04 0.05 0.02 0.03 0.06 0.05 0.05 0.09 0.10 0.09 0.14 0.16 0.17 0.22 0.28 0.32 0.43 0.46 0.37 0.36 0.27 0.16
0.04 0.07 0.01 0.00 0.00 0.00 0.00 0.00 0.00 0.00 0.02 0.04 0.00 0.00 0.00 0.01 0.00 0.00 0.00 0.00 0.00 0.00 0.00 0.00 0.01 0.00 0.01 0.01 0.06 0.07 0.03 0.06 0.12 0.16 0.16 0.27 0.41 0.42 0.41 0.33 0.43 0.38 0.37 0.38
0.00 0.03 0.05 0.00 0.00 0.00 0.00 0.00 0.00 0.00 0.00 0.01 0.01 0.00 0.00 0.01 0.00 0.00 0.00 0.00 0.00 0.00 0.00 0.00 0.01 0.01 0.01 0.00 0.02 0.09 0.15 0.35 0.35 0.43 0.53 0.45 0.47 0.62 0.69 0.63 0.60 0.58 0.55 0.55
0.00 0.00 0.00 0.00 0.00 0.00 0.00 0.00 0.00 0.00 0.00 0.00 0.01 0.00 0.00 0.00 0.00 0.00 0.00 0.00 0.00 0.00 0.00 0.00 0.00 0.00 0.01 0.01 0.01 0.03 0.09 0.20 0.38 0.43 0.67 0.92 0.77 1.04 1.56 1.62 1.26 1.48 1.49 1.15
0.01 0.00 0.00 0.00 0.00 0.00 0.00 0.00 0.00 0.00 0.00 0.01 0.04 0.00 0.00 0.00 0.00 0.00 0.00 0.00 0.00 0.00 0.00 0.00 0.00 0.00 0.00 0.00 0.04 0.10 0.16 0.28 0.45 0.66 0.81 0.84 0.74 1.13 1.03 0.71 0.53 0.42 0.52 0.49
0.02 0.01 0.00 0.01 0.00 0.00 0.00 0.00 0.00 0.00 0.00 0.00 0.01 0.00 0.00 0.01 0.00 0.00 0.00 0.00 0.00 0.00 0.00 0.00 0.00 0.00 0.00 0.05 0.10 0.09 0.09 0.23 0.34 0.37 0.47 0.38 0.34 0.41 0.40 0.33 0.24 0.20 0.18 0.17
0.06 0.06 0.01 0.00 0.00 0.00 0.00 0.00 0.00 0.00 0.00 0.01 0.00 0.00 0.00 0.00 0.00 0.00 0.00 0.00 0.00 0.00 0.00 0.00 0.01 0.01 0.01 0.05 0.06 0.04 0.07 0.12 0.16 0.15 0.17 0.14 0.23 0.17 0.15 0.11 0.13 0.15 0.18 0.25
0.03 0.09 0.01 0.00 0.00 0.00 0.00 0.00 0.00 0.00 0.00 0.00 0.00 0.00 0.00 0.00 0.00 0.00 0.00 0.00 0.00 0.00 0.00 0.00 0.00 0.01 0.01 0.01 0.01 0.02 0.03 0.06 0.05 0.05 0.09 0.07 0.10 0.10 0.11 0.06 0.06 0.09 0.11 0.13
0.11 0.14 0.06 0.01 0.00 0.00 0.00 0.00 0.00 0.00 0.00 0.00 0.00 0.00 0.00 0.00 0.00 0.00 0.00 0.00 0.00 0.00 0.00 0.00 0.00 0.00 0.01 0.01 0.00 0.01 0.01 0.01 0.02 0.05 0.04 0.05 0.06 0.08 0.06 0.09 0.06 0.08 0.12 0.10
0.26 0.17 0.13 0.06 0.01 0.05 0.02 0.00 0.00 0.00 0.00 0.00 0.00 0.00 0.00 0.00 0.00 0.00 0.00 0.00 0.00 0.00 0.00 0.00 0.00 0.00 0.00 0.00 0.00 0.00 0.00 0.00 0.01 0.03 0.04 0.04 0.05 0.06 0.07 0.07 0.09 0.11 0.12 0.20
0.23 0.23 0.22 0.14 0.08 0.04 0.00 0.00 0.00 0.00 0.00 0.00 0.00 0.00 0.00 0.00 0.00 0.00 0.00 0.00 0.00 0.00 0.00 0.00 0.00 0.00 0.00 0.00 0.00 0.00 0.00 0.01 0.01 0.02 0.02 0.04 0.06 0.06 0.06 0.08 0.13 0.22 0.28 0.27
0.28 0.27 0.33 0.19 0.16 0.10 0.01 0.00 0.00 0.00 0.01 0.00 0.00 0.00 0.00 0.00 0.00 0.00 0.00 0.00 0.00 0.00 0.00 0.00 0.00 0.00 0.00 0.00 0.00 0.01 0.01 0.01 0.01 0.01 0.01 0.02 0.03 0.05 0.10 0.21 0.24 0.19 0.13 0.09
0.21 0.24 0.26 0.21 0.20 0.06 0.01 0.01 0.00 0.03 0.04 0.00 0.00 0.00 0.00 0.00 0.00 0.00 0.00 0.00 0.00 0.00 0.00 0.00 0.00 0.00 0.00 0.00 0.00 0.00 0.00 0.00 0.00 0.01 0.02 0.06 0.10 0.17 0.20 0.15 0.08 0.06 0.05 0.05
0.16 0.21 0.22 0.24 0.22 0.06 0.02 0.06 0.09 0.08 0.01 0.00 0.00 0.00 0.00 0.00 0.00 0.00 0.00 0.00 0.00 0.00 0.00 0.00 0.00 0.00 0.00 0.00 0.00 0.01 0.00 0.01 0.02 0.06 0.11 0.17 0.21 0.19 0.13 0.08 0.07 0.06 0.04 0.04
0.08 0.12 0.13 0.10 0.06 0.02 0.02 0.06 0.04 0.01 0.01 0.01 0.01 0.00 0.00 0.00 0.00 0.00 0.00 0.00 0.00 0.00 0.00 0.00 0.00 0.00 0.00 0.00 0.00 0.01 0.04 0.07 0.09 0.12 0.15 0.17 0.13 0.07 0.05 0.05 0.06 0.06 0.06 0.07
0.02 0.02 0.05 0.08 0.02 0.03 0.03 0.02 0.01 0.00 0.01 0.01 0.00 0.00 0.00 0.00 0.00 0.01 0.02 0.01 0.01 0.01 0.01 0.00 0.00 0.00 0.02 0.04 0.05 0.07 0.09 0.07 0.06 0.06 0.09 0.06 0.05 0.08 0.05 0.05 0.05 0.06 0.06 0.07
0.02 0.06 0.05 0.03 0.01 0.02 0.03 0.12 0.09 0.04 0.02 0.02 0.02 0.03 0.02 0.03 0.03 0.05 0.07 0.07 0.06 0.06 0.06 0.04 0.04 0.07 0.07 0.06 0.07 0.08 0.08 0.10 0.12 0.08 0.07 0.06 0.06 0.06 0.05 0.05 0.08 0.05 0.06 0.08
0.02 0.04 0.08 0.05 0.04 0.01 0.02 0.03 0.03 0.08 0.10 0.04 0.04 0.04 0.08 0.12 0.07 0.05 0.06 0.08 0.15 0.22 0.21 0.18 0.16 0.12 0.12 0.13 0.17 0.17 0.15 0.14 0.14 0.11 0.10 0.11 0.09 0.07 0.07 0.05 0.08 0.13 0.13 0.13

GFSCGP_prec_precacc_060.txt.gz
Total_Precipitation_Accumulation
0.00 0.00 0.00 0.00 0.00 0.00 0.00 0.00 0.00 0.00 0.00 0.00 0.00 0.02 0.10 0.15 0.04 0.06 0.04 0.14 0.05 0.01 0.02 0.03 0.02 0.02 0.01 0.06 0.04 0.10 0.24 0.21 0.35 0.32 0.19 0.24 0.29 0.43 0.28 0.25 0.09 0.23 0.11 0.12
0.00 0.00 0.00 0.00 0.00 0.00 0.00 0.00 0.00 0.00 0.00 0.00 0.00 0.00 0.02 0.07 0.01 0.01 0.01 0.14 0.03 0.01 0.01 0.01 0.00 0.00 0.01 0.05 0.04 0.02 0.03 0.08 0.18 0.23 0.23 0.10 0.11 0.15 0.18 0.17 0.16 0.23 0.22 0.07
0.01 0.00 0.00 0.00 0.00 0.00 0.00 0.00 0.00 0.00 0.00 0.00 0.00 0.00 0.02 0.02 0.02 0.06 0.01 0.00 0.00 0.00 0.00 0.00 0.00 0.00 0.01 0.01 0.01 0.02 0.02 0.03 0.05 0.13 0.23 0.16 0.18 0.14 0.14 0.15 0.13 0.11 0.14 0.05
0.03 0.00 0.00 0.00 0.00 0.00 0.00 0.00 0.00 0.00 0.00 0.00 0.00 0.01 0.09 0.03 0.01 0.04 0.02 0.00 0.01 0.00 0.00 0.00 0.01 0.01 0.02 0.03 0.03 0.06 0.04 0.03 0.01 0.03 0.06 0.06 0.12 0.10 0.11 0.10 0.06 0.04 0.05 0.10
0.05 0.01 0.00 0.00 0.00 0.00 0.01 0.00 0.00 0.00 0.00 0.01 0.01 0.00 0.08 0.01 0.01 0.01 0.01 0.00 0.01 0.01 0.00 0.00 0.01 0.01 0.02 0.04 0.04 0.03 0.03 0.05 0.02 0.02 0.02 0.03 0.06 0.08 0.06 0.02 0.02 0.02 0.06 0.08
0.00 0.00 0.00 0.00 0.00 0.00 0.00 0.00 0.00 0.00 0.00 0.01 0.02 0.02 0.04 0.01 0.00 0.02 0.02 0.01 0.01 0.02 0.03 0.04 0.05 0.02 0.03 0.05 0.05 0.06 0.05 0.05 0.08 0.08 0.08 0.04 0.09 0.07 0.03 0.03 0.04 0.04 0.04 0.20
0.00 0.00 0.00 0.00 0.00 0.00 0.00 0.00 0.00 0.02 0.00 0.00 0.00 0.01 0.02 0.02 0.05 0.12 0.10 0.01 0.02 0.00 0.00 0.01 0.02 0.02 0.02 0.06 0.04 0.03 0.06 0.15 0.13 0.09 0.08 0.10 0.08 0.07 0.06 0.09 0.20 0.21 0.18 0.31
0.01 0.01 0.00 0.00 0.00 0.00 0.00 0.00 0.00 0.08 0.06 0.05 0.03 0.01 0.01 0.01 0.01 0.00 0.00 0.00 0.00 0.00 0.00 0.01 0.03 0.05 0.06 0.04 0.03 0.02 0.08 0.19 0.21 0.16 0.13 0.16 0.20 0.20 0.22 0.27 0.42 0.44 0.34 0.31
0.02 0.00 0.00 0.00 0.00 0.00 0.00 0.00 0.00 0.01 0.02 0.05 0.06 0.00 0.00 0.00 0.00 0.00 0.00 0.00 0.00 0.01 0.04 0.05 0.02 0.03 0.06 0.05 0.05 0.09 0.10 0.09 0.14 0.16 0.17 0.22 0.28 0.32 0.43 0.46 0.37 0.36 0.27 0.16
0.04 0.08 0.01 0.00 0.00 0.00 0.00 0.00 0.00 0.00 0.03 0.04 0.00 0.00 0.00 0.01 0.00 0.00 0.00 0.00 0.00 0.00 0.00 0.00 0.01 0.00 0.01 0.01 0.06 0.07 0.03 0.06 0.12 0.16 0.16 0.27 0.41 0.42 0.41 0.33 0.43 0.38 0.37 0.38
0.00 0.03 0.05 0.00 0.00 0.00 0.00 0.00 0.00 0.00 0.00 0.01 0.01 0.00 0.00 0.01 0.00 0.00 0.00 0.00 0.00 0.00 0.00 0.00 0.01 0.01 0.01 0.00 0.02 0.09 0.15 0.35 0.35 0.43 0.53 0.45 0.47 0.62 0.69 0.63 0.60 0.58 0.55 0.55
0.00 0.00 0.01 0.00 0.00 0.00 0.00 0.00 0.00 0.01 0.01 0.01 0.01 0.01 0.00 0.00 0.00 0.00 0.00 0.00 0.00 0.00 0.00 0.00 0.00 0.00 0.01 0.01 0.01 0.03 0.09 0.20 0.38 0.43 0.67 0.92 0.77 1.04 1.56 1.62 1.26 1.48 1.49 1.15
0.01 0.00 0.00 0.01 0.02 0.01 0.00 0.00 0.00 0.00 0.03 0.06 0.06 0.01 0.00 0.00 0.00 0.00 0.00 0.00 0.00 0.00 0.00 0.00 0.00 0.00 0.00 0.00 0.04 0.10 0.16 0.28 0.45 0.66 0.81 0.84 0.74 1.13 1.03 0.71 0.53 0.42 0.52 0.49
0.02 0.01 0.00 0.02 0.05 0.02 0.01 0.00 0.00 0.00 0.06 0.04 0.03 0.01 0.02 0.01 0.00 0.00 0.00 0.00 0.00 0.00 0.00 0.00 0.00 0.00 0.00 0.05 0.10 0.09 0.09 0.23 0.35 0.37 0.47 0.38 0.34 0.41 0.40 0.33 0.24 0.20 0.18 0.17
0.07 0.08 0.03 0.00 0.00 0.00 0.01 0.01 0.00 0.01 0.02 0.03 0.00 0.01 0.01 0.01 0.00 0.00 0.00 0.00 0.00 0.00 0.00 0.00 0.01 0.01 0.01 0.05 0.06 0.04 0.07 0.12 0.16 0.15 0.17 0.14 0.23 0.17 0.15 0.11 0.13 0.15 0.18 0.25
0.05 0.11 0.01 0.00 0.00 0.00 0.00 0.00 0.04 0.00 0.00 0.00 0.00 0.01 0.00 0.00 0.00 0.00 0.00 0.00 0.00 0.00 0.00 0.00 0.00 0.01 0.01 0.01 0.01 0.02 0.03 0.06 0.05 0.05 0.09 0.07 0.10 0.10 0.11 0.06 0.06 0.09 0.11 0.13
0.11 0.15 0.12 0.04 0.00 0.00 0.00 0.00 0.00 0.01 0.00 0.00 0.00 0.00 0.00 0.00 0.00 0.00 0.00 0.00 0.00 0.00 0.00 0.00 0.00 0.00 0.01 0.01 0.00 0.01 0.01 0.01 0.02 0.05 0.04 0.05 0.06 0.08 0.06 0.09 0.06 0.08 0.12 0.10
0.26 0.18 0.17 0.11 0.04 0.06 0.02 0.00 0.00 0.00 0.00 0.00 0.00 0.00 0.00 0.00 0.00 0.00 0.00 0.00 0.00 0.00 0.00 0.00 0.00 0.00 0.00 0.00 0.00 0.00 0.00 0.00 0.01 0.03 0.04 0.04 0.05 0.06 0.07 0.07 0.09 0.11 0.12 0.20
0.23 0.23 0.25 0.17 0.13 0.06 0.01 0.00 0.00 0.00 0.00 0.00 0.00 0.00 0.00 0.00 0.00 0.00 0.00 0.00 0.00 0.00 0.00 0.00 0.00 0.00 0.00 0.00 0.00 0.00 0.00 0.01 0.01 0.02 0.02 0.04 0.06 0.06 0.06 0.08 0.13 0.22 0.28 0.27
0.28 0.27 0.35 0.21 0.18 0.10 0.01 0.00 0.00 0.00 0.01 0.00 0.00 0.00 0.00 0.00 0.00 0.00 0.00 0.00 0.00 0.00 0.00 0.00 0.00 0.00 0.00 0.00 0.00 0.01 0.01 0.01 0.01 0.01 0.01 0.02 0.03 0.05 0.10 0.21 0.24 0.19 0.13 0.09
0.22 0.25 0.27 0.22 0.22 0.06 0.01 0.01 0.00 0.04 0.08 0.00 0.00 0.00 0.00 0.00 0.00 0.00 0.00 0.00 0.00 0.00 0.00 0.00 0.00 0.00 0.00 0.00 0.00 0.00 0.00 0.00 0.00 0.01 0.02 0.06 0.10 0.17 0.20 0.15 0.08 0.06 0.05 0.05
0.17 0.22 0.22 0.24 0.23 0.07 0.02 0.06 0.11 0.13 0.02 0.00 0.00 0.00 0.00 0.00 0.00 0.00 0.00 0.00 0.00 0.00 0.00 0.00 0.00 0.00 0.00 0.00 0.00 0.01 0.00 0.01 0.02 0.06 0.11 0.17 0.21 0.19 0.13 0.08 0.07 0.06 0.04 0.04
0.15 0.13 0.14 0.10 0.07 0.02 0.03 0.07 0.06 0.01 0.02 0.01 0.01 0.00 0.00 0.00 0.00 0.00 0.00 0.00 0.00 0.00 0.00 0.00 0.00 0.00 0.00 0.00 0.00 0.01 0.04 0.07 0.09 0.12 0.15 0.17 0.13 0.07 0.05 0.06 0.08 0.08 0.06 0.07
0.12 0.04 0.08 0.12 0.04 0.04 0.05 0.04 0.01 0.00 0.01 0.01 0.00 0.00 0.00 0.00 0.00 0.01 0.02 0.01 0.01 0.01 0.01 0.00 0.00 0.00 0.02 0.04 0.05 0.07 0.09 0.07 0.06 0.06 0.09 0.07 0.06 0.08 0.05 0.08 0.09 0.08 0.08 0.10
0.10 0.18 0.09 0.09 0.06 0.09 0.20 0.19 0.09 0.04 0.02 0.02 0.02 0.03 0.02 0.03 0.03 0.05 0.07 0.07 0.06 0.06 0.06 0.04 0.04 0.07 0.08 0.06 0.07 0.08 0.08 0.10 0.13 0.11 0.11 0.10 0.09 0.09 0.08 0.09 0.13 0.11 0.13 0.19
0.03 0.11 0.13 0.12 0.11 0.08 0.22 0.06 0.03 0.08 0.10 0.04 0.04 0.04 0.08 0.12 0.07 0.05 0.06 0.08 0.15 0.22 0.21 0.18 0.16 0.13 0.12 0.14 0.19 0.19 0.17 0.16 0.17 0.16 0.17 0.20 0.15 0.14 0.13 0.11 0.16 0.28 0.29 0.27

GFSCGP_prec_precacc_063.txt.gz
Total_Precipitation_Accumulation
0.00 0.00 0.00 0.00 0.00 0.00 0.00 0.00 0.00 0.00 0.00 0.00 0.00 0.02 0.10 0.15 0.04 0.06 0.04 0.14 0.05 0.01 0.02 0.03 0.02 0.02 0.01 0.06 0.04 0.10 0.24 0.21 0.35 0.32 0.20 0.25 0.31 0.49 0.33 0.34 0.12 0.24 0.11 0.12
0.00 0.00 0.00 0.00 0.00 0.00 0.00 0.00 0.00 0.00 0.00 0.00 0.00 0.00 0.02 0.07 0.01 0.01 0.01 0.14 0.03 0.01 0.01 0.01 0.00 0.00 0.01 0.05 0.04 0.02 0.03 0.08 0.18 0.23 0.23 0.10 0.12 0.17 0.22 0.23 0.21 0.23 0.22 0.07
0.02 0.00 0.00 0.00 0.00 0.00 0.00 0.00 0.00 0.00 0.00 0.00 0.00 0.00 0.02 0.02 0.02 0.06 0.01 0.00 0.00 0.00 0.00 0.00 0.00 0.00 0.01 0.01 0.01 0.02 0.02 0.03 0.05 0.13 0.24 0.16 0.19 0.15 0.18 0.17 0.14 0.11 0.14 0.05
0.08 0.00 0.00 0.00 0.00 0.00 0.00 0.00 0.00 0.00 0.00 0.00 0.00 0.01 0.09 0.03 0.01 0.04 0.02 0.00 0.01 0.00 0.00 0.00 0.01 0.01 0.02 0.03 0.03 0.06 0.04 0.03 0.01 0.03 0.06 0.06 0.12 0.10 0.11 0.10 0.06 0.04 0.05 0.10
0.06 0.02 0.02 0.00 0.00 0.00 0.01 0.00 0.00 0.00 0.00 0.01 0.01 0.00 0.08 0.01 0.01 0.01 0.01 0.00 0.01 0.01 0.00 0.00 0.01 0.01 0.02 0.04 0.04 0.03 0.04 0.05 0.02 0.02 0.02 0.03 0.06 0.08 0.06 0.02 0.02 0.02 0.06 0.08
0.00 0.01 0.01 0.00 0.00 0.00 0.00 0.00 0.00 0.00 0.00 0.01 0.02 0.02 0.04 0.01 0.00 0.02 0.02 0.01 0.01 0.02 0.03 0.04 0.05 0.02 0.03 0.05 0.05 0.06 0.05 0.05 0.08 0.08 0.08 0.04 0.09 0.07 0.03 0.03 0.04 0.04 0.04 0.21
0.00 0.00 0.00 0.00 0.00 0.00 0.00 0.01 0.00 0.02 0.00 0.00 0.00 0.01 0.02 0.02 0.05 0.12 0.10 0.01 0.02 0.00 0.00 0.01 0.02 0.02 0.02 0.06 0.04 0.03 0.06 0.16 0.13 0.09 0.08 0.10 0.08 0.07 0.06 0.09 0.20 0.21 0.18 0.31
0.01 0.02 0.00 0.00 0.00 0.00 0.00 0.00 0.01 0.08 0.07 0.05 0.03 0.01 0.01 0.01 0.01 0.00 0.00 0.00 0.00 0.00 0.00 0.01 0.03 0.05 0.06 0.04 0.03 0.02 0.08 0.19 0.22 0.16 0.13 0.16 0.20 0.20 0.22 0.27 0.42 0.44 0.34 0.31
0.02 0.00 0.00 0.00 0.00 0.00 0.01 0.00 0.00 0.02 0.04 0.05 0.06 0.00 0.00 0.00 0.00 0.00 0.00 0.00 0.00 0.01 0.04 0.05 0.02 0.03 0.06 0.05 0.05 0.09 0.10 0.09 0.14 0.16 0.17 0.22 0.28 0.32 0.43 0.46 0.37 0.36 0.27 0.16
0.04 0.08 0.01 0.00 0.00 0.00 0.00 0.00 0.05 0.07 0.04 0.05 0.00 0.00 0.01 0.01 0.00 0.00 0.00 0.00 0.00 0.00 0.00 0.00 0.01 0.00 0.01 0.01 0.06 0.07 0.03 0.06 0.12 0.16 0.17 0.27 0.41 0.42 0.41 0.33 0.43 0.38 0.37 0.38
0.00 0.03 0.05 0.00 0.00 0.00 0.00 0.01 0.08 0.04 0.00 0.01 0.01 0.00 0.00 0.01 0.00 0.00 0.00 0.00 0.00 0.00 0.00 0.00 0.01 0.01 0.01 0.00 0.02 0.09 0.15 0.35 0.35 0.43 0.53 0.45 0.47 0.62 0.69 0.63 0.60 0.58 0.55 0.55
0.00 0.00 0.01 0.00 0.00 0.00 0.00 0.00 0.01 0.05 0.03 0.01 0.02 0.02 0.00 0.00 0.00 0.00 0.00 0.00 0.00 0.00 0.00 0.00 0.00 0.01 0.01 0.01 0.01 0.03 0.09 0.20 0.38 0.43 0.67 0.92 0.77 1.05 1.56 1.62 1.26 1.48 1.49 1.15
0.01 0.00 0.00 0.01 0.03 0.01 0.00 0.00 0.00 0.00 0.06 0.13 0.07 0.01 0.01 0.01 0.00 0.00 0.00 0.00 0.00 0.00 0.00 0.00 0.00 0.00 0.01 0.04 0.06 0.10 0.17 0.30 0.46 0.66 0.81 0.84 0.74 1.13 1.03 0.71 0.53 0.42 0.52 0.49
0.02 0.01 0.00 0.02 0.06 0.08 0.03 0.00 0.00 0.01 0.13 0.10 0.11 0.03 0.08 0.01 0.01 0.00 0.00 0.00 0.00 0.00 0.00 0.00 0.00 0.00 0.00 0.08 0.15 0.14 0.12 0.26 0.39 0.39 0.47 0.38 0.34 0.41 0.40 0.33 0.24 0.20 0.18 0.17
0.07 0.08 0.03 0.00 0.00 0.03 0.04 0.01 0.01 0.02 0.03 0.09 0.03 0.09 0.12 0.10 0.01 0.00 0.00 0.00 0.00 0.00 0.00 0.00 0.01 0.01 0.01 0.05 0.07 0.07 0.10 0.15 0.22 0.22 0.19 0.14 0.23 0.17 0.15 0.11 0.13 0.15 0.18 0.25
0.06 0.12 0.01 0.00 0.00 0.00 0.00 0.01 0.06 0.03 0.01 0.03 0.04 0.08 0.06 0.10 0.05 0.01 0.00 0.00 0.00 0.00 0.00 0.00 0.00 0.01 0.01 0.01 0.01 0.02 0.04 0.08 0.08 0.06 0.11 0.11 0.11 0.10 0.11 0.06 0.06 0.09 0.11 0.13
0.12 0.16 0.13 0.06 0.00 0.00 0.00 0.00 0.01 0.06 0.03 0.02 0.05 0.01 0.01 0.01 0.01 0.00 0.00 0.00 0.00 0.00 0.00 0.00 0.00 0.00 0.01 0.01 0.00 0.01 0.01 0.01 0.02 0.05 0.05 0.06 0.07 0.09 0.06 0.09 0.07 0.08 0.12 0.10
0.26 0.18 0.19 0.13 0.05 0.07 0.02 0.00 0.00 0.00 0.02 0.00 0.00 0.00 0.00 0.00 0.00 0.00 0.00 0.00 0.00 0.00 0.00 0.00 0.00 0.00 0.00 0.00 0.00 0.00 0.00 0.00 0.01 0.03 0.04 0.04 0.05 0.06 0.08 0.09 0.10 0.11 0.12 0.20
0.23 0.23 0.26 0.19 0.17 0.07 0.01 0.00 0.00 0.00 0.00 0.00 0.00 0.00 0.00 0.00 0.00 0.00 0.00 0.00 0.00 0.00 0.00 0.00 0.00 0.00 0.00 0.00 0.00 0.00 0.00 0.01 0.01 0.02 0.02 0.04 0.06 0.06 0.06 0.09 0.14 0.22 0.28 0.27
0.28 0.27 0.35 0.22 0.20 0.11 0.02 0.00 0.00 0.00 0.02 0.00 0.00 0.00 0.00 0.00 0.00 0.00 0.00 0.00 0.00 0.00 0.00 0.00 0.00 0.00 0.00 0.00 0.00 0.01 0.01 0.01 0.01 0.01 0.01 0.02 0.03 0.05 0.10 0.21 0.24 0.19 0.13 0.09
0.22 0.26 0.27 0.23 0.23 0.07 0.01 0.01 0.00 0.04 0.09 0.00 0.00 0.00 0.00 0.00 0.00 0.00 0.00 0.00 0.00 0.00 0.00 0.00 0.00 0.00 0.00 0.00 0.00 0.00 0.00 0.00 0.00 0.01 0.02 0.06 0.10 0.17 0.20 0.15 0.09 0.06 0.06 0.05
0.21 0.23 0.24 0.26 0.24 0.07 0.02 0.06 0.12 0.14 0.03 0.00 0.00 0.00 0.00 0.00 0.00 0.00 0.00 0.00 0.00 0.00 0.00 0.00 0.00 0.00 0.00 0.00 0.00 0.01 0.00 0.01 0.02 0.06 0.11 0.17 0.21 0.19 0.13 0.09 0.09 0.09 0.07 0.08
0.25 0.16 0.16 0.10 0.07 0.04 0.05 0.09 0.08 0.03 0.02 0.01 0.01 0.00 0.00 0.00 0.00 0.00 0.00 0.00 0.00 0.00 0.00 0.00 0.00 0.00 0.00 0.00 0.00 0.01 0.04 0.07 0.09 0.12 0.15 0.17 0.13 0.07 0.05 0.08 0.11 0.12 0.11 0.12
0.15 0.07 0.11 0.15 0.11 0.11 0.19 0.15 0.02 0.01 0.02 0.01 0.00 0.00 0.00 0.00 0.00 0.01 0.02 0.01 0.01 0.01 0.01 0.00 0.00 0.00 0.02 0.04 0.05 0.07 0.09 0.07 0.06 0.06 0.10 0.07 0.06 0.09 0.05 0.09 0.11 0.11 0.11 0.15
0.16 0.42 0.20 0.18 0.21 0.18 0.30 0.48 0.19 0.06 0.02 0.02 0.02 0.03 0.02 0.03 0.03 0.05 0.07 0.07 0.06 0.06 0.06 0.04 0.04 0.07 0.08 0.06 0.07 0.08 0.08 0.10 0.13 0.11 0.11 0.11 0.11 0.12 0.11 0.12 0.19 0.17 0.23 0.33
0.11 0.58 0.37 0.26 0.47 0.33 0.48 0.24 0.17 0.14 0.10 0.04 0.04 0.04 0.08 0.12 0.07 0.05 0.06 0.08 0.15 0.22 0.21 0.18 0.16 0.13 0.12 0.14 0.19 0.19 0.18 0.16 0.17 0.16 0.18 0.22 0.17 0.17 0.18 0.16 0.24 0.40 0.44 0.43

GFSCGP_prec_precacc_066.txt.gz
Total_Precipitation_Accumulation
0.00 0.00 0.00 0.00 0.00 0.00 0.00 0.00 0.00 0.00 0.00 0.00 0.00 0.02 0.10 0.15 0.04 0.06 0.04 0.14 0.05 0.01 0.02 0.03 0.02 0.02 0.01 0.06 0.04 0.10 0.25 0.22 0.36 0.32 0.20 0.26 0.32 0.51 0.35 0.37 0.14 0.24 0.11 0.12
0.00 0.00 0.00 0.00 0.00 0.00 0.00 0.00 0.00 0.00 0.00 0.00 0.00 0.00 0.02 0.07 0.01 0.01 0.01 0.14 0.03 0.01 0.01 0.01 0.00 0.00 0.01 0.05 0.04 0.02 0.04 0.09 0.19 0.23 0.23 0.11 0.12 0.19 0.26 0.30 0.31 0.29 0.23 0.07
0.02 0.00 0.00 0.00 0.00 0.00 0.00 0.00 0.00 0.00 0.00 0.00 0.00 0.00 0.02 0.02 0.02 0.06 0.01 0.00 0.00 0.00 0.00 0.00 0.00 0.00 0.01 0.01 0.01 0.02 0.02 0.04 0.06 0.14 0.24 0.16 0.19 0.16 0.20 0.29 0.36 0.26 0.16 0.05
0.08 0.00 0.00 0.00 0.00 0.00 0.00 0.00 0.00 0.00 0.00 0.00 0.00 0.01 0.09 0.03 0.01 0.04 0.02 0.00 0.01 0.00 0.00 0.00 0.01 0.01 0.02 0.03 0.03 0.06 0.04 0.03 0.02 0.03 0.06 0.06 0.12 0.11 0.12 0.12 0.14 0.18 0.08 0.10
0.06 0.03 0.02 0.00 0.00 0.00 0.01 0.00 0.00 0.00 0.00 0.01 0.01 0.00 0.08 0.01 0.01 0.01 0.01 0.00 0.01 0.01 0.00 0.00 0.01 0.01 0.02 0.04 0.04 0.03 0.04 0.05 0.03 0.03 0.03 0.04 0.06 0.08 0.06 0.03 0.04 0.08 0.11 0.09
0.00 0.01 0.01 0.01 0.00 0.00 0.00 0.00 0.00 0.00 0.00 0.01 0.02 0.02 0.04 0.01 0.00 0.02 0.02 0.01 0.01 0.02 0.03 0.04 0.05 0.02 0.03 0.05 0.05 0.06 0.05 0.05 0.08 0.08 0.08 0.04 0.09 0.07 0.03 0.03 0.05 0.07 0.05 0.21
0.00 0.00 0.00 0.00 0.00 0.00 0.00 0.03 0.02 0.03 0.00 0.00 0.00 0.01 0.02 0.02 0.05 0.12 0.10 0.01 0.02 0.00 0.00 0.01 0.02 0.02 0.02 0.06 0.04 0.03 0.06 0.16 0.13 0.10 0.08 0.10 0.08 0.07 0.06 0.09 0.20 0.21 0.18 0.31
0.01 0.02 0.00 0.00 0.00 0.00 0.00 0.02 0.03 0.10 0.07 0.05 0.03 0.01 0.01 0.01 0.01 0.00 0.00 0.00 0.00 0.00 0.00 0.01 0.03 0.05 0.06 0.04 0.03 0.02 0.08 0.19 0.22 0.16 0.13 0.16 0.20 0.20 0.22 0.27 0.42 0.44 0.34 0.31
0.02 0.00 0.00 0.00 0.00 0.01 0.03 0.04 0.01 0.05 0.05 0.05 0.06 0.00 0.00 0.00 0.00 0.00 0.00 0.00 0.00 0.01 0.04 0.05 0.02 0.03 0.06 0.05 0.05 0.09 0.10 0.09 0.14 0.17 0.17 0.22 0.28 0.32 0.43 0.46 0.37 0.36 0.27 0.16
0.04 0.08 0.01 0.00 0.00 0.00 0.00 0.02 0.16 0.16 0.08 0.06 0.00 0.00 0.01 0.01 0.00 0.00 0.00 0.00 0.00 0.00 0.00 0.00 0.01 0.00 0.01 0.01 0.06 0.07 0.03 0.06 0.12 0.16 0.17 0.27 0.41 0.42 0.41 0.33 0.43 0.38 0.37 0.38
0.00 0.03 0.05 0.00 0.00 0.00 0.01 0.11 0.17 0.10 0.01 0.02 0.02 0.01 0.01 0.01 0.00 0.00 0.00 0.00 0.00 0.00 0.00 0.00 0.01 0.01 0.01 0.00 0.02 0.09 0.15 0.35 0.35 0.43 0.53 0.45 0.47 0.62 0.69 0.63 0.60 0.58 0.55 0.55
0.00 0.00 0.01 0.00 0.00 0.00 0.01 0.01 0.03 0.12 0.06 0.01 0.02 0.08 0.04 0.00 0.00 0.00 0.00 0.00 0.00 0.00 0.00 0.00 0.00 0.01 0.01 0.01 0.01 0.03 0.10 0.21 0.38 0.43 0.67 0.92 0.77 1.05 1.56 1.62 1.26 1.48 1.49 1.15
0.01 0.00 0.01 0.01 0.03 0.01 0.00 0.00 0.01 0.03 0.12 0.16 0.08 0.03 0.07 0.02 0.01 0.00 0.00 0.00 0.00 0.00 0.00 0.00 0.00 0.01 0.02 0.07 0.12 0.17 0.20 0.31 0.47 0.68 0.81 0.84 0.74 1.13 1.03 0.71 0.53 0.42 0.52 0.49
0.02 0.01 0.01 0.03 0.07 0.09 0.04 0.01 0.01 0.04 0.21 0.12 0.11 0.03 0.14 0.17 0.08 0.00 0.00 0.00 0.00 0.00 0.00 0.00 0.01 0.01 0.01 0.09 0.18 0.23 0.25 0.34 0.42 0.42 0.49 0.38 0.34 0.41 0.40 0.33 0.24 0.20 0.18 0.17
0.07 0.08 0.03 0.00 0.00 0.03 0.07 0.06 0.03 0.04 0.04 0.10 0.04 0.10 0.17 0.27 0.27 0.03 0.00 0.00 0.00 0.00 0.00 0.00 0.01 0.01 0.01 0.05 0.08 0.08 0.11 0.17 0.25 0.24 0.22 0.20 0.28 0.21 0.17 0.11 0.13 0.15 0.18 0.25
0.06 0.12 0.02 0.00 0.00 0.00 0.01 0.01 0.10 0.07 0.03 0.04 0.05 0.11 0.14 0.27 0.23 0.04 0.00 0.00 0.00 0.00 0.00 0.00 0.00 0.01 0.01 0.01 0.01 0.02 0.04 0.08 0.08 0.07 0.15 0.17 0.13 0.16 0.16 0.13 0.12 0.12 0.11 0.13
0.13 0.17 0.13 0.06 0.00 0.00 0.00 0.00 0.03 0.08 0.07 0.11 0.15 0.05 0.09 0.15 0.25 0.06 0.00 0.00 0.00 0.00 0.00 0.00 0.00 0.00 0.01 0.01 0.00 0.01 0.01 0.01 0.02 0.05 0.05 0.06 0.07 0.09 0.09 0.15 0.13 0.12 0.13 0.15
0.26 0.18 0.19 0.13 0.05 0.07 0.02 0.00 0.00 0.02 0.05 0.05 0.08 0.09 0.08 0.03 0.04 0.04 0.00 0.00 0.00 0.00 0.00 0.00 0.00 0.00 0.00 0.00 0.00 0.00 0.00 0.00 0.01 0.03 0.04 0.04 0.05 0.06 0.09 0.10 0.10 0.12 0.16 0.23
0.23 0.23 0.26 0.19 0.17 0.08 0.01 0.00 0.00 0.02 0.03 0.04 0.05 0.06 0.02 0.01 0.00 0.00 0.00 0.00 0.00 0.00 0.00 0.00 0.00 0.00 0.00 0.00 0.00 0.00 0.00 0.01 0.01 0.02 0.02 0.04 0.06 0.06 0.06 0.09 0.14 0.24 0.30 0.29
0.28 0.27 0.35 0.23 0.21 0.12 0.02 0.00 0.00 0.01 0.05 0.01 0.01 0.01 0.00 0.00 0.00 0.00 0.00 0.00 0.00 0.00 0.00 0.00 0.00 0.00 0.00 0.00 0.00 0.01 0.01 0.01 0.01 0.01 0.01 0.02 0.03 0.05 0.10 0.21 0.24 0.20 0.15 0.11
0.22 0.26 0.27 0.23 0.23 0.07 0.01 0.01 0.01 0.05 0.13 0.01 0.00 0.00 0.00 0.00 0.00 0.00 0.00 0.00 0.00 0.00 0.00 0.00 0.00 0.00 0.00 0.00 0.00 0.00 0.00 0.00 0.00 0.01 0.02 0.06 0.10 0.17 0.20 0.15 0.09 0.06 0.06 0.06
0.24 0.24 0.24 0.27 0.25 0.07 0.02 0.06 0.13 0.15 0.03 0.01 0.00 0.00 0.00 0.00 0.00 0.00 0.00 0.00 0.00 0.00 0.00 0.00 0.00 0.00 0.00 0.00 0.00 0.01 0.00 0.01 0.02 0.06 0.11 0.17 0.21 0.19 0.13 0.09 0.09 0.09 0.07 0.08
0.41 0.24 0.17 0.11 0.07 0.08 0.09 0.11 0.10 0.04 0.04 0.03 0.02 0.01 0.00 0.00 0.00 0.00 0.00 0.00 0.00 0.00 0.00 0.00 0.00 0.00 0.00 0.00 0.00 0.01 0.04 0.07 0.09 0.12 0.15 0.17 0.13 0.07 0.05 0.08 0.11 0.12 0.11 0.12
0.19 0.11 0.16 0.18 0.13 0.13 0.24 0.20 0.03 0.01 0.02 0.02 0.01 0.00 0.00 0.01 0.00 0.01 0.02 0.01 0.01 0.01 0.01 0.00 0.00 0.00 0.02 0.04 0.05 0.07 0.09 0.07 0.06 0.06 0.10 0.07 0.06 0.09 0.05 0.09 0.11 0.11 0.11 0.16
0.18 0.43 0.27 0.27 0.31 0.24 0.31 0.60 0.30 0.08 0.03 0.03 0.02 0.03 0.02 0.03 0.03 0.05 0.07 0.07 0.06 0.06 0.06 0.04 0.04 0.07 0.08 0.06 0.07 0.08 0.09 0.10 0.13 0.11 0.11 0.11 0.11 0.12 0.11 0.14 0.22 0.19 0.28 0.38
0.14 0.73 0.69 0.39 0.58 0.69 0.55 0.29 0.28 0.24 0.13 0.04 0.04 0.04 0.08 0.12 0.07 0.05 0.06 0.08 0.15 0.22 0.21 0.18 0.16 0.13 0.12 0.14 0.19 0.19 0.18 0.17 0.17 0.16 0.18 0.22 0.17 0.18 0.18 0.18 0.27 0.46 0.51 0.50

GFSCGP_prec_precacc_069.txt.gz
Total_Precipitation_Accumulation
0.00 0.00 0.00 0.00 0.00 0.00 0.00 0.00 0.00 0.00 0.00 0.00 0.00 0.02 0.10 0.15 0.04 0.06 0.04 0.14 0.05 0.01 0.02 0.03 0.02 0.02 0.01 0.06 0.04 0.10 0.25 0.22 0.36 0.33 0.20 0.26 0.32 0.51 0.35 0.37 0.15 0.26 0.14 0.14
0.00 0.00 0.00 0.00 0.00 0.00 0.00 0.00 0.00 0.00 0.00 0.00 0.00 0.00 0.02 0.07 0.01 0.01 0.01 0.14 0.03 0.01 0.01 0.01 0.00 0.00 0.01 0.05 0.04 0.02 0.04 0.09 0.19 0.24 0.23 0.11 0.12 0.19 0.27 0.32 0.35 0.30 0.24 0.10
0.02 0.00 0.00 0.00 0.00 0.00 0.00 0.00 0.00 0.00 0.00 0.00 0.00 0.00 0.02 0.02 0.02 0.06 0.01 0.00 0.00 0.00 0.00 0.00 0.00 0.00 0.01 0.01 0.01 0.02 0.02 0.04 0.06 0.14 0.24 0.16 0.20 0.17 0.21 0.36 0.55 0.31 0.18 0.10
0.08 0.00 0.00 0.00 0.00 0.00 0.00 0.00 0.00 0.00 0.00 0.00 0.00 0.01 0.09 0.03 0.01 0.04 0.02 0.00 0.01 0.00 0.00 0.00 0.01 0.01 0.02 0.03 0.03 0.06 0.04 0.03 0.02 0.03 0.07 0.06 0.12 0.11 0.13 0.13 0.25 0.35 0.16 0.14
0.06 0.03 0.02 0.00 0.00 0.00 0.01 0.00 0.00 0.00 0.00 0.01 0.01 0.00 0.08 0.01 0.01 0.01 0.01 0.00 0.01 0.01 0.00 0.00 0.01 0.01 0.02 0.04 0.04 0.03 0.04 0.05 0.03 0.03 0.03 0.04 0.06 0.09 0.06 0.03 0.05 0.23 0.24 0.15
0.00 0.01 0.01 0.01 0.00 0.01 0.00 0.01 0.00 0.00 0.00 0.01 0.02 0.02 0.04 0.01 0.00 0.02 0.02 0.01 0.01 0.02 0.03 0.04 0.05 0.02 0.03 0.05 0.05 0.06 0.05 0.05 0.08 0.08 0.08 0.04 0.09 0.07 0.04 0.04 0.05 0.08 0.15 0.29
0.00 0.00 0.00 0.00 0.00 0.01 0.02 0.05 0.03 0.04 0.00 0.00 0.00 0.01 0.02 0.02 0.05 0.12 0.10 0.01 0.02 0.00 0.00 0.01 0.02 0.02 0.02 0.06 0.04 0.03 0.06 0.16 0.13 0.10 0.08 0.10 0.08 0.07 0.06 0.10 0.20 0.21 0.19 0.36
0.01 0.02 0.00 0.00 0.00 0.01 0.01 0.04 0.05 0.11 0.07 0.05 0.03 0.01 0.01 0.01 0.01 0.00 0.00 0.00 0.00 0.00 0.00 0.01 0.03 0.05 0.06 0.04 0.03 0.02 0.08 0.19 0.22 0.16 0.13 0.16 0.20 0.20 0.22 0.28 0.42 0.44 0.34 0.31
0.02 0.00 0.00 0.00 0.00 0.02 0.06 0.07 0.04 0.07 0.07 0.05 0.06 0.00 0.00 0.00 0.00 0.00 0.00 0.00 0.00 0.01 0.04 0.05 0.02 0.03 0.06 0.05 0.05 0.09 0.10 0.09 0.14 0.17 0.17 0.22 0.28 0.32 0.43 0.46 0.37 0.36 0.27 0.16
0.04 0.08 0.01 0.00 0.00 0.00 0.05 0.11 0.24 0.21 0.15 0.07 0.00 0.01 0.01 0.01 0.00 0.00 0.00 0.00 0.00 0.00 0.00 0.00 0.01 0.00 0.01 0.01 0.06 0.07 0.03 0.06 0.12 0.16 0.17 0.27 0.41 0.42 0.41 0.33 0.43 0.38 0.37 0.38
0.00 0.03 0.05 0.00 0.00 0.01 0.05 0.18 0.26 0.15 0.02 0.03 0.03 0.05 0.01 0.01 0.00 0.00 0.00 0.00 0.00 0.00 0.00 0.00 0.01 0.01 0.01 0.00 0.02 0.09 0.15 0.35 0.35 0.43 0.53 0.45 0.47 0.62 0.69 0.63 0.60 0.58 0.55 0.55
0.00 0.00 0.01 0.00 0.00 0.00 0.01 0.03 0.08 0.18 0.10 0.02 0.04 0.14 0.05 0.00 0.00 0.00 0.00 0.00 0.00 0.00 0.00 0.00 0.00 0.01 0.02 0.02 0.02 0.04 0.10 0.21 0.39 0.44 0.68 0.92 0.77 1.05 1.56 1.62 1.26 1.48 1.49 1.15
0.01 0.00 0.01 0.01 0.03 0.02 0.01 0.02 0.03 0.07 0.17 0.17 0.12 0.09 0.15 0.04 0.01 0.00 0.00 0.00 0.00 0.00 0.00 0.00 0.01 0.02 0.04 0.13 0.19 0.25 0.27 0.35 0.49 0.70 0.83 0.85 0.74 1.13 1.03 0.71 0.53 0.42 0.52 0.49
0.02 0.01 0.01 0.03 0.08 0.10 0.06 0.04 0.03 0.10 0.29 0.14 0.12 0.06 0.36 0.42 0.14 0.00 0.00 0.00 0.00 0.01 0.02 0.03 0.04 0.05 0.07 0.17 0.26 0.29 0.27 0.38 0.43 0.44 0.50 0.41 0.36 0.42 0.41 0.33 0.24 0.20 0.18 0.17
0.07 0.08 0.03 0.00 0.00 0.03 0.08 0.08 0.06 0.07 0.05 0.12 0.04 0.10 0.23 0.50 0.57 0.15 0.01 0.00 0.00 0.00 0.00 0.01 0.02 0.02 0.02 0.06 0.10 0.09 0.12 0.17 0.25 0.24 0.22 0.21 0.29 0.23 0.19 0.13 0.14 0.16 0.18 0.25
0.06 0.12 0.02 0.00 0.00 0.00 0.01 0.01 0.11 0.12 0.06 0.06 0.05 0.12 0.18 0.36 0.44 0.27 0.16 0.03 0.00 0.00 0.00 0.00 0.00 0.01 0.01 0.01 0.01 0.02 0.04 0.08 0.08 0.07 0.15 0.17 0.13 0.16 0.18 0.16 0.19 0.16 0.13 0.16
0.14 0.18 0.13 0.06 0.00 0.00 0.00 0.00 0.03 0.10 0.13 0.22 0.22 0.07 0.11 0.16 0.35 0.18 0.21 0.14 0.06 0.01 0.00 0.00 0.00 0.00 0.01 0.01 0.00 0.01 0.01 0.01 0.02 0.05 0.05 0.06 0.07 0.09 0.09 0.16 0.14 0.13 0.16 0.20
0.26 0.18 0.19 0.13 0.05 0.07 0.02 0.00 0.00 0.02 0.06 0.08 0.12 0.14 0.18 0.06 0.12 0.21 0.05 0.17 0.11 0.04 0.01 0.00 0.00 0.00 0.00 0.00 0.00 0.00 0.00 0.00 0.01 0.03 0.04 0.04 0.05 0.06 0.09 0.10 0.10 0.13 0.18 0.25
0.23 0.23 0.26 0.19 0.17 0.08 0.01 0.00 0.00 0.03 0.04 0.04 0.06 0.10 0.09 0.08 0.04 0.10 0.02 0.03 0.06 0.03 0.01 0.00 0.00 0.00 0.00 0.00 0.00 0.00 0.00 0.01 0.01 0.02 0.02 0.04 0.06 0.06 0.06 0.09 0.14 0.24 0.30 0.30
0.28 0.27 0.35 0.23 0.21 0.12 0.02 0.00 0.00 0.01 0.06 0.01 0.01 0.06 0.10 0.01 0.01 0.05 0.06 0.06 0.04 0.01 0.00 0.00 0.00 0.00 0.00 0.00 0.00 0.01 0.01 0.01 0.01 0.01 0.01 0.02 0.03 0.05 0.10 0.21 0.24 0.20 0.15 0.11
0.22 0.26 0.27 0.23 0.23 0.07 0.01 0.01 0.01 0.08 0.15 0.01 0.00 0.01 0.03 0.01 0.00 0.00 0.01 0.02 0.02 0.00 0.00 0.00 0.00 0.00 0.00 0.00 0.00 0.00 0.00 0.00 0.00 0.01 0.02 0.06 0.10 0.17 0.20 0.15 0.09 0.06 0.06 0.06
0.24 0.24 0.24 0.27 0.25 0.07 0.02 0.06 0.14 0.19 0.05 0.02 0.01 0.01 0.01 0.02 0.00 0.00 0.00 0.00 0.00 0.00 0.00 0.00 0.00 0.00 0.00 0.00 0.00 0.01 0.00 0.01 0.02 0.06 0.11 0.17 0.21 0.19 0.13 0.09 0.09 0.09 0.07 0.08
0.48 0.30 0.18 0.11 0.07 0.08 0.09 0.11 0.10 0.04 0.11 0.07 0.19 0.14 0.10 0.10 0.08 0.03 0.01 0.00 0.00 0.00 0.00 0.00 0.00 0.00 0.00 0.00 0.00 0.01 0.04 0.07 0.09 0.12 0.15 0.17 0.13 0.07 0.05 0.08 0.11 0.12 0.11 0.13
0.24 0.21 0.31 0.24 0.16 0.13 0.24 0.22 0.04 0.01 0.02 0.02 0.05 0.20 0.12 0.11 0.06 0.03 0.02 0.01 0.01 0.01 0.01 0.00 0.00 0.00 0.02 0.04 0.05 0.07 0.09 0.07 0.06 0.06 0.10 0.07 0.06 0.09 0.05 0.09 0.11 0.11 0.12 0.16
0.26 0.45 0.27 0.37 0.36 0.25 0.33 0.61 0.33 0.11 0.05 0.04 0.02 0.03 0.02 0.03 0.03 0.05 0.07 0.07 0.06 0.06 0.06 0.04 0.04 0.07 0.08 0.07 0.08 0.08 0.09 0.10 0.13 0.11 0.11 0.11 0.11 0.12 0.11 0.14 0.23 0.20 0.31 0.40
0.16 0.74 0.72 0.48 0.74 0.79 0.76 0.37 0.32 0.42 0.23 0.07 0.04 0.04 0.08 0.12 0.07 0.05 0.06 0.08 0.15 0.22 0.21 0.18 0.17 0.13 0.13 0.15 0.19 0.19 0.18 0.17 0.17 0.16 0.18 0.22 0.17 0.18 0.18 0.18 0.27 0.46 0.52 0.51

GFSCGP_prec_precacc_072.txt.gz
Total_Precipitation_Accumulation
0.00 0.00 0.00 0.00 0.00 0.00 0.00 0.00 0.00 0.00 0.00 0.00 0.00 0.02 0.10 0.15 0.04 0.06 0.04 0.14 0.05 0.01 0.02 0.03 0.02 0.02 0.01 0.06 0.04 0.10 0.25 0.22 0.36 0.33 0.20 0.27 0.33 0.52 0.36 0.39 0.37 0.71 0.43 0.33
0.00 0.00 0.00 0.00 0.00 0.00 0.00 0.00 0.00 0.00 0.00 0.00 0.00 0.00 0.02 0.07 0.01 0.01 0.01 0.14 0.03 0.01 0.01 0.01 0.00 0.00 0.01 0.05 0.04 0.02 0.04 0.10 0.19 0.24 0.24 0.11 0.12 0.19 0.27 0.33 0.38 0.40 0.40 0.26
0.02 0.00 0.00 0.00 0.00 0.00 0.00 0.00 0.00 0.00 0.00 0.00 0.00 0.00 0.02 0.02 0.02 0.06 0.01 0.00 0.00 0.00 0.00 0.00 0.00 0.00 0.01 0.01 0.01 0.02 0.02 0.04 0.06 0.14 0.24 0.16 0.20 0.17 0.21 0.36 0.56 0.33 0.20 0.15
0.08 0.00 0.00 0.00 0.00 0.00 0.00 0.00 0.00 0.00 0.00 0.00 0.00 0.01 0.09 0.03 0.01 0.04 0.02 0.00 0.01 0.00 0.00 0.00 0.01 0.01 0.02 0.03 0.03 0.06 0.04 0.03 0.02 0.04 0.07 0.06 0.12 0.12 0.13 0.13 0.26 0.40 0.17 0.15
0.06 0.03 0.02 0.00 0.00 0.00 0.01 0.00 0.00 0.00 0.00 0.01 0.01 0.00 0.08 0.01 0.01 0.01 0.01 0.00 0.01 0.01 0.00 0.00 0.01 0.01 0.02 0.04 0.04 0.03 0.04 0.05 0.03 0.03 0.03 0.04 0.07 0.09 0.06 0.03 0.05 0.26 0.35 0.17
0.00 0.01 0.01 0.01 0.00 0.01 0.00 0.01 0.00 0.00 0.00 0.01 0.02 0.02 0.04 0.01 0.00 0.02 0.02 0.01 0.01 0.02 0.03 0.04 0.05 0.02 0.03 0.05 0.05 0.06 0.05 0.05 0.08 0.09 0.08 0.04 0.09 0.07 0.04 0.04 0.06 0.10 0.21 0.38
0.00 0.00 0.00 0.00 0.00 0.01 0.02 0.06 0.05 0.05 0.01 0.01 0.00 0.01 0.02 0.02 0.05 0.12 0.10 0.01 0.02 0.00 0.00 0.01 0.02 0.02 0.02 0.06 0.04 0.03 0.06 0.16 0.13 0.10 0.09 0.10 0.08 0.08 0.07 0.10 0.20 0.22 0.21 0.40
0.01 0.02 0.00 0.00 0.00 0.01 0.01 0.05 0.08 0.13 0.07 0.05 0.03 0.01 0.01 0.01 0.01 0.00 0.00 0.00 0.00 0.00 0.00 0.01 0.03 0.05 0.06 0.04 0.03 0.02 0.08 0.19 0.22 0.16 0.13 0.16 0.20 0.20 0.22 0.28 0.42 0.45 0.34 0.31
0.02 0.00 0.00 0.00 0.00 0.02 0.07 0.09 0.06 0.13 0.09 0.06 0.06 0.00 0.00 0.00 0.00 0.00 0.00 0.00 0.00 0.01 0.04 0.05 0.02 0.03 0.06 0.05 0.05 0.09 0.10 0.09 0.14 0.17 0.17 0.22 0.28 0.32 0.43 0.46 0.37 0.37 0.27 0.16
0.04 0.08 0.01 0.00 0.00 0.00 0.06 0.15 0.29 0.31 0.23 0.10 0.00 0.01 0.01 0.01 0.00 0.00 0.00 0.00 0.00 0.00 0.00 0.00 0.01 0.00 0.01 0.01 0.06 0.07 0.03 0.06 0.12 0.16 0.17 0.27 0.41 0.42 0.41 0.33 0.43 0.38 0.37 0.39
0.00 0.03 0.05 0.00 0.00 0.01 0.06 0.24 0.37 0.23 0.05 0.06 0.06 0.08 0.02 0.01 0.00 0.00 0.00 0.00 0.00 0.00 0.00 0.00 0.01 0.01 0.01 0.01 0.03 0.09 0.15 0.35 0.35 0.43 0.53 0.45 0.47 0.62 0.69 0.63 0.60 0.58 0.55 0.55
0.01 0.01 0.01 0.00 0.00 0.00 0.02 0.04 0.14 0.36 0.19 0.03 0.07 0.19 0.07 0.01 0.00 0.00 0.00 0.00 0.00 0.00 0.00 0.00 0.00 0.01 0.02 0.05 0.04 0.04 0.11 0.21 0.39 0.45 0.68 0.92 0.77 1.05 1.56 1.62 1.26 1.48 1.49 1.15
0.01 0.01 0.01 0.01 0.03 0.02 0.01 0.03 0.07 0.19 0.31 0.21 0.16 0.11 0.17 0.05 0.01 0.00 0.00 0.00 0.00 0.00 0.00 0.00 0.02 0.03 0.06 0.15 0.21 0.27 0.31 0.39 0.52 0.72 0.84 0.86 0.75 1.13 1.03 0.71 0.53 0.42 0.52 0.49
0.02 0.01 0.01 0.03 0.08 0.10 0.06 0.04 0.08 0.30 0.45 0.16 0.13 0.08 0.49 0.54 0.16 0.01 0.00 0.00 0.01 0.02 0.03 0.04 0.06 0.08 0.13 0.25 0.35 0.37 0.33 0.42 0.47 0.45 0.50 0.42 0.36 0.43 0.42 0.34 0.24 0.20 0.18 0.17
0.07 0.08 0.03 0.00 0.00 0.03 0.08 0.08 0.07 0.16 0.21 0.27 0.06 0.11 0.28 0.63 0.69 0.25 0.02 0.00 0.00 0.00 0.01 0.04 0.06 0.06 0.08 0.12 0.15 0.13 0.15 0.20 0.26 0.24 0.22 0.21 0.29 0.23 0.20 0.14 0.15 0.17 0.18 0.26
0.07 0.12 0.02 0.00 0.00 0.00 0.01 0.01 0.11 0.13 0.08 0.09 0.05 0.12 0.21 0.40 0.52 0.40 0.29 0.07 0.01 0.00 0.00 0.00 0.00 0.02 0.01 0.02 0.01 0.02 0.05 0.09 0.08 0.07 0.15 0.17 0.14 0.17 0.19 0.17 0.21 0.17 0.14 0.19
0.15 0.18 0.13 0.06 0.00 0.00 0.00 0.00 0.03 0.10 0.14 0.22 0.23 0.08 0.11 0.17 0.37 0.27 0.28 0.24 0.11 0.02 0.00 0.00 0.00 0.00 0.01 0.01 0.00 0.01 0.01 0.01 0.02 0.05 0.05 0.06 0.07 0.09 0.10 0.16 0.15 0.15 0.18 0.22
0.27 0.18 0.19 0.13 0.05 0.07 0.02 0.00 0.00 0.02 0.07 0.08 0.12 0.16 0.23 0.15 0.25 0.30 0.09 0.22 0.20 0.13 0.05 0.02 0.02 0.01 0.00 0.00 0.00 0.00 0.00 0.00 0.01 0.03 0.04 0.04 0.05 0.06 0.09 0.10 0.10 0.13 0.18 0.26
0.23 0.23 0.26 0.19 0.17 0.08 0.01 0.00 0.00 0.03 0.04 0.04 0.06 0.11 0.12 0.09 0.13 0.19 0.08 0.10 0.14 0.09 0.08 0.04 0.01 0.00 0.00 0.00 0.00 0.00 0.00 0.01 0.01 0.02 0.02 0.04 0.06 0.06 0.06 0.09 0.14 0.24 0.30 0.30
0.28 0.27 0.35 0.23 0.21 0.12 0.02 0.00 0.00 0.01 0.06 0.01 0.01 0.07 0.13 0.04 0.04 0.16 0.20 0.22 0.18 0.09 0.05 0.01 0.00 0.00 0.00 0.00 0.00 0.01 0.01 0.01 0.01 0.01 0.01 0.02 0.03 0.05 0.10 0.21 0.24 0.20 0.15 0.11
0.23 0.26 0.27 0.23 0.23 0.07 0.01 0.01 0.01 0.08 0.15 0.01 0.00 0.01 0.08 0.22 0.12 0.18 0.17 0.22 0.19 0.04 0.00 0.00 0.00 0.00 0.00 0.00 0.00 0.00 0.00 0.00 0.00 0.01 0.02 0.06 0.10 0.17 0.20 0.15 0.09 0.06 0.06 0.06
0.24 0.24 0.24 0.27 0.26 0.08 0.02 0.06 0.14 0.19 0.05 0.02 0.01 0.01 0.02 0.10 0.04 0.06 0.01 0.02 0.03 0.01 0.00 0.00 0.00 0.00 0.00 0.00 0.00 0.01 0.00 0.01 0.02 0.06 0.11 0.17 0.21 0.19 0.13 0.09 0.09 0.09 0.07 0.08
0.48 0.30 0.19 0.11 0.07 0.08 0.09 0.11 0.10 0.04 0.11 0.10 0.27 0.24 0.18 0.13 0.18 0.20 0.12 0.07 0.04 0.00 0.00 0.00 0.00 0.00 0.00 0.00 0.00 0.02 0.04 0.07 0.09 0.12 0.15 0.17 0.13 0.07 0.05 0.08 0.11 0.12 0.11 0.13
0.26 0.30 0.50 0.37 0.21 0.13 0.24 0.22 0.05 0.01 0.02 0.03 0.10 0.56 0.72 0.57 0.45 0.40 0.26 0.09 0.01 0.01 0.01 0.00 0.00 0.00 0.02 0.04 0.05 0.08 0.09 0.07 0.06 0.06 0.10 0.07 0.06 0.09 0.05 0.09 0.11 0.11 0.12 0.16
0.32 0.52 0.31 0.40 0.45 0.31 0.36 0.62 0.34 0.13 0.08 0.06 0.03 0.05 0.15 0.13 0.10 0.08 0.08 0.08 0.06 0.06 0.06 0.04 0.04 0.07 0.08 0.07 0.08 0.08 0.09 0.10 0.13 0.11 0.11 0.11 0.11 0.12 0.12 0.15 0.23 0.21 0.32 0.40
0.29 0.77 0.73 0.51 0.81 0.91 0.86 0.45 0.38 0.47 0.31 0.10 0.05 0.04 0.08 0.12 0.09 0.07 0.07 0.09 0.16 0.22 0.21 0.18 0.17 0.14 0.13 0.15 0.20 0.20 0.18 0.17 0.17 0.16 0.18 0.22 0.17 0.18 0.19 0.18 0.28 0.47 0.52 0.52

GFSCGP_prec_precacc_078.txt.gz
Total_Precipitation_Accumulation
0.00 0.00 0.00 0.00 0.00 0.00 0.00 0.00 0.00 0.00 0.00 0.00 0.00 0.02 0.10 0.15 0.04 0.06 0.04 0.14 0.05 0.01 0.02 0.03 0.02 0.02 0.01 0.06 0.04 0.10 0.25 0.23 0.37 0.34 0.22 0.28 0.33 0.53 0.36 0.41 0.44 0.89 0.94 1.44
0.00 0.00 0.00 0.00 0.00 0.00 0.00 0.00 0.00 0.00 0.00 0.00 0.00 0.00 0.02 0.07 0.01 0.01 0.01 0.14 0.03 0.01 0.01 0.01 0.00 0.00 0.01 0.05 0.04 0.02 0.04 0.10 0.19 0.24 0.24 0.12 0.12 0.20 0.28 0.34 0.43 0.57 0.73 0.93
0.02 0.00 0.00 0.00 0.00 0.00 0.00 0.00 0.00 0.00 0.00 0.00 0.00 0.00 0.02 0.02 0.02 0.06 0.01 0.00 0.00 0.00 0.00 0.00 0.00 0.00 0.01 0.01 0.01 0.02 0.02 0.05 0.07 0.14 0.25 0.18 0.20 0.18 0.23 0.38 0.60 0.43 0.44 0.69
0.08 0.00 0.00 0.00 0.00 0.00 0.00 0.00 0.00 0.00 0.00 0.00 0.00 0.01 0.09 0.03 0.01 0.04 0.02 0.00 0.01 0.00 0.00 0.00 0.01 0.01 0.02 0.03 0.03 0.06 0.04 0.04 0.03 0.04 0.07 0.07 0.13 0.12 0.14 0.14 0.28 0.46 0.24 0.42
0.06 0.03 0.02 0.00 0.00 0.00 0.01 0.00 0.00 0.00 0.00 0.01 0.01 0.00 0.08 0.01 0.01 0.01 0.01 0.00 0.01 0.01 0.00 0.00 0.01 0.01 0.02 0.04 0.04 0.03 0.04 0.05 0.03 0.04 0.03 0.05 0.07 0.10 0.07 0.04 0.07 0.31 0.47 0.29
0.00 0.01 0.01 0.01 0.00 0.01 0.00 0.01 0.00 0.00 0.00 0.02 0.02 0.02 0.04 0.01 0.00 0.02 0.02 0.01 0.01 0.02 0.03 0.04 0.05 0.02 0.03 0.05 0.05 0.06 0.05 0.05 0.09 0.09 0.09 0.05 0.10 0.08 0.05 0.05 0.07 0.12 0.31 0.69
0.00 0.00 0.00 0.00 0.00 0.01 0.02 0.07 0.05 0.06 0.02 0.01 0.00 0.01 0.02 0.02 0.05 0.12 0.10 0.01 0.02 0.00 0.00 0.01 0.02 0.02 0.02 0.06 0.04 0.03 0.06 0.16 0.14 0.10 0.09 0.11 0.09 0.08 0.07 0.11 0.21 0.23 0.23 0.50
0.01 0.02 0.00 0.00 0.00 0.01 0.01 0.05 0.08 0.14 0.08 0.05 0.03 0.01 0.01 0.01 0.01 0.00 0.00 0.00 0.00 0.00 0.00 0.01 0.03 0.05 0.06 0.04 0.03 0.02 0.08 0.20 0.22 0.17 0.14 0.16 0.20 0.21 0.23 0.29 0.43 0.46 0.35 0.32
0.02 0.00 0.00 0.00 0.00 0.02 0.07 0.10 0.07 0.17 0.11 0.08 0.06 0.00 0.00 0.00 0.00 0.00 0.00 0.00 0.00 0.01 0.04 0.05 0.02 0.03 0.06 0.05 0.05 0.09 0.10 0.10 0.15 0.17 0.17 0.22 0.29 0.32 0.43 0.46 0.37 0.37 0.29 0.17
0.04 0.08 0.01 0.00 0.00 0.00 0.07 0.17 0.37 0.36 0.26 0.12 0.01 0.02 0.03 0.01 0.00 0.00 0.00 0.00 0.00 0.00 0.00 0.00 0.01 0.00 0.01 0.01 0.07 0.07 0.04 0.07 0.12 0.16 0.17 0.28 0.41 0.42 0.41 0.33 0.43 0.38 0.38 0.40
0.00 0.03 0.05 0.01 0.01 0.02 0.07 0.25 0.43 0.34 0.07 0.11 0.11 0.22 0.14 0.02 0.00 0.00 0.00 0.00 0.00 0.00 0.00 0.00 0.01 0.02 0.01 0.02 0.05 0.10 0.15 0.35 0.35 0.43 0.53 0.45 0.47 0.62 0.69 0.63 0.60 0.58 0.56 0.56
0.03 0.03 0.01 0.00 0.00 0.00 0.03 0.07 0.17 0.42 0.26 0.13 0.14 0.36 0.37 0.07 0.01 0.00 0.00 0.01 0.02 0.02 0.02 0.02 0.02 0.03 0.04 0.07 0.06 0.06 0.11 0.22 0.39 0.45 0.68 0.92 0.78 1.05 1.57 1.62 1.27 1.48 1.49 1.15
0.04 0.11 0.09 0.06 0.08 0.04 0.05 0.09 0.16 0.28 0.38 0.31 0.29 0.21 0.49 0.23 0.05 0.01 0.00 0.01 0.03 0.05 0.03 0.02 0.05 0.08 0.11 0.19 0.25 0.31 0.33 0.50 0.64 0.77 0.85 0.86 0.75 1.13 1.04 0.72 0.53 0.43 0.52 0.49
0.07 0.03 0.05 0.10 0.12 0.12 0.07 0.05 0.10 0.39 0.61 0.34 0.22 0.15 0.73 0.94 0.42 0.09 0.01 0.04 0.07 0.08 0.10 0.09 0.09 0.12 0.18 0.32 0.43 0.44 0.49 0.62 0.60 0.49 0.53 0.45 0.37 0.43 0.42 0.34 0.25 0.21 0.18 0.18
0.24 0.13 0.05 0.01 0.02 0.03 0.08 0.08 0.07 0.16 0.23 0.32 0.10 0.13 0.31 0.78 0.86 0.53 0.09 0.04 0.07 0.08 0.06 0.13 0.13 0.13 0.14 0.20 0.26 0.25 0.27 0.30 0.32 0.27 0.25 0.23 0.31 0.25 0.21 0.15 0.16 0.17 0.19 0.26
0.37 0.24 0.04 0.01 0.01 0.01 0.01 0.01 0.11 0.13 0.08 0.09 0.06 0.12 0.21 0.42 0.57 0.51 0.42 0.19 0.10 0.10 0.06 0.06 0.07 0.07 0.07 0.09 0.06 0.08 0.11 0.14 0.10 0.07 0.15 0.18 0.15 0.18 0.21 0.19 0.22 0.19 0.16 0.21
0.40 0.44 0.17 0.07 0.00 0.00 0.00 0.00 0.03 0.10 0.14 0.23 0.23 0.08 0.13 0.19 0.40 0.30 0.34 0.29 0.19 0.17 0.04 0.03 0.03 0.03 0.04 0.03 0.02 0.03 0.03 0.03 0.05 0.08 0.06 0.06 0.07 0.09 0.10 0.17 0.16 0.16 0.20 0.24
0.47 0.34 0.22 0.13 0.05 0.07 0.02 0.00 0.00 0.03 0.07 0.08 0.12 0.18 0.28 0.25 0.55 0.56 0.16 0.26 0.27 0.28 0.28 0.09 0.03 0.01 0.00 0.00 0.00 0.00 0.01 0.00 0.01 0.03 0.05 0.05 0.05 0.07 0.09 0.10 0.10 0.13 0.18 0.27
0.28 0.33 0.30 0.19 0.17 0.08 0.01 0.00 0.00 0.03 0.04 0.04 0.07 0.12 0.13 0.13 0.23 0.54 0.36 0.22 0.26 0.27 0.32 0.26 0.08 0.06 0.02 0.00 0.00 0.01 0.01 0.01 0.01 0.02 0.03 0.04 0.06 0.06 0.06 0.09 0.14 0.24 0.30 0.30
0.28 0.30 0.39 0.24 0.21 0.12 0.02 0.00 0.00 0.01 0.06 0.01 0.01 0.07 0.14 0.05 0.09 0.22 0.37 0.46 0.48 0.29 0.18 0.11 0.04 0.03 0.03 0.03 0.01 0.01 0.01 0.01 0.02 0.02 0.01 0.02 0.03 0.05 0.10 0.21 0.24 0.20 0.15 0.11
0.24 0.28 0.29 0.24 0.24 0.07 0.01 0.01 0.01 0.08 0.15 0.01 0.00 0.01 0.08 0.24 0.23 0.51 0.60 0.62 0.68 0.21 0.06 0.04 0.02 0.02 0.02 0.01 0.01 0.01 0.00 0.00 0.01 0.02 0.03 0.07 0.10 0.17 0.20 0.15 0.09 0.06 0.06 0.06
0.29 0.27 0.25 0.28 0.26 0.08 0.02 0.06 0.14 0.20 0.06 0.02 0.01 0.01 0.03 0.15 0.15 0.39 0.45 0.54 0.52 0.28 0.03 0.00 0.00 0.00 0.00 0.00 0.00 0.01 0.01 0.01 0.02 0.06 0.11 0.17 0.21 0.19 0.13 0.09 0.09 0.09 0.07 0.08
0.52 0.33 0.23 0.12 0.08 0.08 0.09 0.11 0.10 0.06 0.12 0.11 0.28 0.30 0.30 0.30 0.52 0.57 0.52 0.56 0.62 0.28 0.01 0.00 0.00 0.00 0.00 0.00 0.00 0.02 0.04 0.07 0.09 0.12 0.15 0.17 0.13 0.07 0.05 0.08 0.11 0.12 0.11 0.13
0.29 0.32 0.59 0.59 0.43 0.19 0.25 0.22 0.06 0.04 0.05 0.05 0.12 0.58 0.91 1.01 0.95 0.95 0.90 0.62 0.44 0.24 0.03 0.00 0.00 0.00 0.02 0.04 0.05 0.08 0.09 0.07 0.06 0.06 0.10 0.07 0.06 0.09 0.05 0.09 0.11 0.12 0.12 0.16
0.33 0.56 0.43 0.71 0.75 0.50 0.45 0.67 0.38 0.19 0.14 0.15 0.16 0.15 0.27 0.38 0.40 0.26 0.24 0.30 0.27 0.25 0.11 0.04 0.04 0.08 0.08 0.07 0.08 0.08 0.09 0.10 0.13 0.11 0.11 0.11 0.11 0.12 0.12 0.16 0.24 0.22 0.34 0.41
0.35 0.88 0.81 0.68 0.94 1.03 0.97 0.55 0.46 0.54 0.40 0.26 0.13 0.10 0.15 0.22 0.21 0.20 0.17 0.15 0.20 0.25 0.22 0.19 0.17 0.14 0.14 0.15 0.20 0.20 0.18 0.17 0.17 0.16 0.18 0.22 0.17 0.18 0.19 0.19 0.28 0.48 0.54 0.52

GFSCGP_prec_precacc_081.txt.gz
Total_Precipitation_Accumulation
0.00 0.00 0.00 0.00 0.00 0.00 0.00 0.00 0.00 0.00 0.00 0.00 0.00 0.02 0.10 0.15 0.04 0.06 0.04 0.14 0.05 0.01 0.02 0.03 0.02 0.02 0.01 0.06 0.04 0.10 0.25 0.23 0.37 0.34 0.22 0.29 0.34 0.54 0.37 0.41 0.44 0.91 0.96 1.68
0.00 0.00 0.00 0.00 0.00 0.00 0.00 0.00 0.00 0.00 0.00 0.00 0.00 0.00 0.02 0.07 0.01 0.01 0.01 0.14 0.03 0.01 0.01 0.01 0.00 0.00 0.01 0.05 0.04 0.02 0.04 0.10 0.19 0.24 0.24 0.12 0.13 0.21 0.29 0.35 0.44 0.59 0.75 1.00
0.02 0.00 0.00 0.00 0.00 0.00 0.00 0.00 0.00 0.00 0.00 0.00 0.00 0.00 0.02 0.02 0.02 0.06 0.01 0.00 0.00 0.00 0.00 0.00 0.00 0.00 0.01 0.01 0.01 0.02 0.02 0.05 0.07 0.14 0.25 0.18 0.21 0.19 0.25 0.41 0.61 0.44 0.47 0.74
0.08 0.00 0.00 0.00 0.00 0.00 0.00 0.00 0.00 0.00 0.00 0.00 0.00 0.01 0.09 0.03 0.01 0.04 0.02 0.00 0.01 0.00 0.00 0.00 0.01 0.01 0.02 0.03 0.03 0.06 0.04 0.04 0.03 0.04 0.07 0.07 0.14 0.13 0.14 0.14 0.28 0.47 0.27 0.46
0.06 0.03 0.02 0.00 0.00 0.00 0.01 0.00 0.00 0.00 0.00 0.01 0.01 0.00 0.08 0.01 0.01 0.01 0.01 0.00 0.01 0.01 0.00 0.00 0.01 0.01 0.02 0.04 0.04 0.03 0.04 0.05 0.03 0.04 0.03 0.05 0.07 0.10 0.08 0.05 0.07 0.31 0.47 0.30
0.00 0.01 0.01 0.01 0.00 0.01 0.00 0.01 0.00 0.00 0.00 0.02 0.02 0.02 0.04 0.01 0.00 0.02 0.02 0.01 0.01 0.02 0.03 0.04 0.05 0.02 0.03 0.05 0.05 0.06 0.05 0.05 0.09 0.09 0.09 0.05 0.10 0.08 0.06 0.06 0.08 0.13 0.31 0.70
0.00 0.00 0.00 0.00 0.00 0.01 0.02 0.07 0.05 0.06 0.03 0.01 0.00 0.01 0.02 0.02 0.05 0.12 0.10 0.01 0.02 0.00 0.00 0.01 0.02 0.02 0.02 0.06 0.04 0.03 0.06 0.16 0.14 0.10 0.09 0.11 0.09 0.09 0.08 0.11 0.21 0.24 0.24 0.51
0.01 0.02 0.00 0.00 0.00 0.01 0.01 0.05 0.08 0.14 0.08 0.05 0.04 0.01 0.01 0.01 0.01 0.00 0.00 0.00 0.00 0.00 0.00 0.01 0.03 0.05 0.06 0.04 0.03 0.02 0.08 0.20 0.22 0.17 0.14 0.16 0.21 0.21 0.23 0.29 0.44 0.47 0.36 0.33
0.02 0.00 0.00 0.00 0.00 0.02 0.09 0.10 0.07 0.17 0.11 0.09 0.06 0.00 0.00 0.00 0.00 0.00 0.00 0.00 0.00 0.01 0.04 0.05 0.02 0.03 0.06 0.05 0.05 0.09 0.10 0.10 0.15 0.18 0.17 0.22 0.29 0.32 0.44 0.46 0.38 0.39 0.30 0.18
0.04 0.08 0.01 0.00 0.00 0.00 0.08 0.19 0.39 0.39 0.29 0.13 0.01 0.03 0.07 0.02 0.00 0.00 0.00 0.00 0.00 0.00 0.00 0.01 0.01 0.00 0.01 0.01 0.07 0.07 0.04 0.07 0.14 0.18 0.17 0.28 0.42 0.43 0.42 0.33 0.43 0.39 0.39 0.42
0.01 0.04 0.05 0.03 0.02 0.03 0.09 0.27 0.46 0.36 0.10 0.14 0.13 0.27 0.15 0.02 0.00 0.00 0.00 0.00 0.00 0.00 0.01 0.00 0.01 0.02 0.01 0.02 0.05 0.11 0.16 0.36 0.36 0.46 0.53 0.45 0.47 0.63 0.70 0.63 0.60 0.59 0.57 0.58
0.10 0.08 0.03 0.01 0.00 0.00 0.03 0.09 0.23 0.46 0.31 0.17 0.17 0.41 0.37 0.07 0.01 0.00 0.00 0.01 0.02 0.03 0.03 0.03 0.04 0.03 0.04 0.07 0.07 0.07 0.12 0.22 0.41 0.49 0.69 0.92 0.78 1.05 1.58 1.63 1.27 1.48 1.49 1.16
0.06 0.16 0.15 0.08 0.10 0.05 0.05 0.10 0.19 0.31 0.40 0.33 0.33 0.32 0.58 0.28 0.06 0.02 0.00 0.01 0.03 0.06 0.06 0.05 0.07 0.10 0.12 0.20 0.26 0.33 0.35 0.51 0.70 0.81 0.86 0.87 0.75 1.13 1.04 0.72 0.54 0.43 0.53 0.49
0.12 0.07 0.09 0.11 0.16 0.18 0.12 0.09 0.14 0.42 0.62 0.36 0.24 0.15 0.75 0.96 0.43 0.13 0.02 0.04 0.08 0.10 0.14 0.13 0.13 0.16 0.21 0.34 0.45 0.48 0.54 0.67 0.63 0.52 0.54 0.45 0.37 0.43 0.42 0.34 0.26 0.22 0.19 0.18
0.29 0.19 0.08 0.03 0.02 0.04 0.11 0.12 0.09 0.18 0.23 0.32 0.10 0.13 0.31 0.78 0.87 0.53 0.09 0.05 0.09 0.13 0.11 0.18 0.17 0.16 0.17 0.23 0.29 0.31 0.32 0.35 0.37 0.31 0.26 0.24 0.31 0.25 0.22 0.16 0.16 0.17 0.19 0.27
0.42 0.30 0.09 0.06 0.02 0.02 0.03 0.02 0.11 0.13 0.08 0.09 0.06 0.12 0.21 0.43 0.59 0.51 0.42 0.20 0.16 0.15 0.13 0.13 0.11 0.11 0.11 0.12 0.10 0.14 0.17 0.17 0.14 0.10 0.16 0.18 0.16 0.19 0.22 0.20 0.23 0.19 0.17 0.21
0.45 0.55 0.38 0.17 0.03 0.01 0.01 0.00 0.03 0.10 0.14 0.23 0.24 0.09 0.13 0.20 0.41 0.32 0.35 0.29 0.26 0.30 0.11 0.11 0.11 0.09 0.09 0.07 0.04 0.08 0.10 0.09 0.08 0.10 0.08 0.07 0.08 0.10 0.11 0.18 0.17 0.18 0.22 0.25
0.55 0.46 0.49 0.32 0.07 0.08 0.02 0.00 0.00 0.03 0.08 0.08 0.12 0.19 0.29 0.26 0.55 0.61 0.26 0.31 0.35 0.46 0.53 0.17 0.11 0.05 0.04 0.04 0.03 0.04 0.06 0.07 0.06 0.05 0.07 0.07 0.06 0.07 0.10 0.12 0.12 0.15 0.20 0.29
0.31 0.45 0.49 0.30 0.19 0.08 0.01 0.00 0.00 0.04 0.07 0.04 0.07 0.12 0.13 0.13 0.24 0.58 0.53 0.31 0.36 0.44 0.57 0.75 0.23 0.11 0.06 0.01 0.01 0.02 0.03 0.03 0.03 0.04 0.03 0.04 0.06 0.07 0.07 0.09 0.15 0.24 0.30 0.30
0.30 0.35 0.59 0.33 0.23 0.12 0.07 0.00 0.00 0.01 0.07 0.01 0.01 0.07 0.14 0.05 0.10 0.25 0.40 0.49 0.58 0.49 0.37 0.34 0.46 0.27 0.18 0.15 0.04 0.02 0.02 0.01 0.02 0.02 0.02 0.02 0.03 0.06 0.11 0.22 0.24 0.20 0.15 0.11
0.26 0.30 0.34 0.30 0.26 0.08 0.01 0.01 0.01 0.08 0.16 0.01 0.00 0.01 0.08 0.24 0.24 0.52 0.63 0.72 0.81 0.34 0.22 0.23 0.15 0.12 0.12 0.14 0.17 0.12 0.04 0.02 0.01 0.02 0.03 0.07 0.11 0.18 0.21 0.16 0.09 0.06 0.06 0.06
0.33 0.31 0.28 0.31 0.29 0.10 0.02 0.06 0.14 0.20 0.06 0.02 0.01 0.01 0.03 0.15 0.17 0.43 0.51 0.66 0.67 0.43 0.14 0.08 0.10 0.04 0.01 0.00 0.01 0.03 0.05 0.07 0.07 0.09 0.12 0.18 0.22 0.20 0.14 0.09 0.10 0.10 0.07 0.08
0.58 0.38 0.31 0.20 0.14 0.08 0.09 0.11 0.10 0.06 0.12 0.11 0.28 0.30 0.30 0.31 0.55 0.62 0.61 0.69 0.78 0.44 0.05 0.00 0.00 0.00 0.00 0.00 0.00 0.02 0.04 0.07 0.09 0.13 0.17 0.19 0.14 0.08 0.06 0.08 0.11 0.12 0.12 0.13
0.34 0.32 0.60 0.60 0.43 0.19 0.26 0.22 0.06 0.04 0.05 0.05 0.12 0.58 0.93 1.04 0.98 1.01 0.99 0.74 0.58 0.37 0.05 0.00 0.00 0.00 0.02 0.04 0.05 0.08 0.09 0.07 0.06 0.06 0.10 0.07 0.06 0.09 0.05 0.09 0.12 0.12 0.12 0.16
0.34 0.57 0.43 0.73 0.77 0.53 0.48 0.70 0.39 0.19 0.14 0.16 0.18 0.16 0.30 0.44 0.45 0.30 0.30 0.38 0.38 0.38 0.20 0.05 0.04 0.08 0.08 0.07 0.08 0.08 0.09 0.10 0.13 0.11 0.11 0.11 0.11 0.12 0.12 0.16 0.25 0.23 0.34 0.41
0.35 0.88 0.82 0.72 0.96 1.09 1.06 0.60 0.48 0.55 0.41 0.29 0.16 0.12 0.18 0.27 0.27 0.27 0.23 0.19 0.25 0.33 0.29 0.21 0.17 0.14 0.14 0.15 0.20 0.20 0.18 0.17 0.17 0.16 0.18 0.22 0.17 0.18 0.19 0.19 0.29 0.48 0.54 0.53

GFSCGP_prec_precacc_084.txt.gz
Total_Precipitation_Accumulation
0.00 0.00 0.00 0.00 0.00 0.00 0.00 0.00 0.00 0.00 0.00 0.00 0.00 0.02 0.10 0.15 0.04 0.06 0.04 0.14 0.05 0.01 0.02 0.03 0.02 0.02 0.01 0.06 0.04 0.10 0.26 0.24 0.37 0.34 0.22 0.29 0.34 0.54 0.37 0.41 0.45 0.91 0.98 1.73
0.00 0.00 0.00 0.00 0.00 0.00 0.00 0.00 0.00 0.00 0.00 0.00 0.00 0.00 0.02 0.07 0.01 0.01 0.01 0.14 0.03 0.01 0.01 0.01 0.00 0.00 0.01 0.05 0.04 0.02 0.04 0.10 0.19 0.24 0.24 0.12 0.13 0.22 0.29 0.36 0.44 0.59 0.75 1.02
0.02 0.00 0.00 0.00 0.00 0.00 0.00 0.00 0.00 0.00 0.00 0.00 0.00 0.00 0.02 0.02 0.02 0.06 0.01 0.00 0.00 0.00 0.00 0.00 0.00 0.00 0.01 0.01 0.01 0.02 0.03 0.05 0.07 0.14 0.25 0.18 0.21 0.19 0.25 0.42 0.63 0.44 0.48 0.76
0.08 0.00 0.00 0.00 0.00 0.00 0.00 0.00 0.00 0.00 0.00 0.00 0.00 0.01 0.09 0.03 0.01 0.04 0.02 0.00 0.01 0.00 0.00 0.00 0.01 0.01 0.02 0.03 0.03 0.06 0.04 0.04 0.03 0.04 0.07 0.07 0.14 0.13 0.14 0.15 0.30 0.48 0.29 0.51
0.06 0.03 0.02 0.00 0.00 0.00 0.01 0.00 0.00 0.00 0.00 0.01 0.01 0.00 0.08 0.01 0.01 0.01 0.01 0.00 0.01 0.01 0.00 0.00 0.01 0.01 0.02 0.04 0.04 0.03 0.04 0.05 0.03 0.04 0.03 0.05 0.07 0.10 0.08 0.05 0.08 0.32 0.47 0.31
0.00 0.01 0.01 0.01 0.00 0.01 0.00 0.01 0.00 0.00 0.00 0.02 0.02 0.02 0.04 0.01 0.00 0.02 0.02 0.01 0.01 0.02 0.03 0.04 0.05 0.02 0.03 0.05 0.05 0.06 0.06 0.07 0.09 0.09 0.09 0.05 0.10 0.08 0.06 0.06 0.08 0.13 0.31 0.70
0.00 0.00 0.00 0.00 0.00 0.01 0.02 0.07 0.06 0.06 0.03 0.01 0.01 0.02 0.02 0.03 0.06 0.12 0.10 0.01 0.02 0.00 0.00 0.01 0.02 0.02 0.02 0.06 0.04 0.03 0.06 0.16 0.14 0.10 0.09 0.11 0.09 0.09 0.08 0.12 0.22 0.24 0.24 0.51
0.01 0.02 0.00 0.00 0.00 0.01 0.01 0.05 0.09 0.14 0.09 0.06 0.09 0.05 0.02 0.01 0.01 0.00 0.00 0.00 0.00 0.00 0.01 0.02 0.03 0.05 0.06 0.04 0.03 0.02 0.08 0.20 0.22 0.17 0.14 0.16 0.21 0.21 0.23 0.30 0.44 0.47 0.36 0.33
0.02 0.00 0.00 0.00 0.00 0.02 0.09 0.10 0.07 0.18 0.11 0.09 0.06 0.01 0.09 0.05 0.00 0.00 0.00 0.00 0.00 0.01 0.05 0.07 0.02 0.03 0.06 0.05 0.05 0.09 0.10 0.11 0.16 0.18 0.17 0.22 0.29 0.32 0.44 0.46 0.39 0.41 0.31 0.19
0.04 0.08 0.01 0.00 0.00 0.00 0.08 0.20 0.46 0.50 0.30 0.15 0.01 0.06 0.16 0.14 0.03 0.00 0.00 0.00 0.00 0.00 0.01 0.02 0.03 0.02 0.02 0.03 0.13 0.12 0.04 0.08 0.15 0.21 0.17 0.28 0.42 0.43 0.42 0.34 0.44 0.39 0.40 0.43
0.02 0.05 0.06 0.04 0.02 0.03 0.09 0.27 0.47 0.40 0.12 0.19 0.16 0.45 0.39 0.11 0.03 0.00 0.00 0.00 0.00 0.00 0.01 0.02 0.05 0.06 0.10 0.07 0.17 0.23 0.17 0.39 0.37 0.49 0.54 0.46 0.48 0.63 0.70 0.64 0.61 0.59 0.57 0.58
0.14 0.12 0.05 0.01 0.00 0.00 0.04 0.09 0.24 0.51 0.33 0.20 0.21 0.44 0.39 0.08 0.01 0.00 0.00 0.01 0.02 0.03 0.04 0.04 0.05 0.05 0.13 0.20 0.15 0.11 0.13 0.25 0.43 0.49 0.71 0.93 0.78 1.06 1.58 1.63 1.28 1.49 1.49 1.16
0.07 0.19 0.17 0.09 0.11 0.06 0.06 0.11 0.20 0.35 0.44 0.34 0.39 0.37 0.59 0.28 0.06 0.02 0.00 0.01 0.03 0.06 0.06 0.06 0.09 0.12 0.16 0.24 0.30 0.36 0.39 0.53 0.71 0.85 0.90 0.89 0.77 1.14 1.05 0.73 0.55 0.44 0.53 0.49
0.14 0.07 0.10 0.13 0.21 0.25 0.17 0.12 0.15 0.46 0.66 0.38 0.27 0.17 0.77 0.98 0.45 0.13 0.02 0.04 0.08 0.10 0.14 0.14 0.15 0.18 0.24 0.38 0.47 0.54 0.60 0.71 0.65 0.55 0.55 0.46 0.38 0.44 0.43 0.35 0.27 0.22 0.20 0.18
0.31 0.20 0.08 0.04 0.02 0.08 0.17 0.17 0.13 0.22 0.27 0.34 0.10 0.13 0.32 0.81 0.93 0.54 0.09 0.05 0.09 0.13 0.12 0.20 0.20 0.20 0.21 0.28 0.33 0.38 0.39 0.40 0.39 0.34 0.31 0.27 0.32 0.26 0.23 0.16 0.16 0.18 0.20 0.27
0.53 0.35 0.10 0.06 0.03 0.03 0.03 0.04 0.18 0.21 0.14 0.12 0.06 0.15 0.23 0.52 0.64 0.51 0.42 0.20 0.16 0.17 0.15 0.15 0.16 0.15 0.16 0.16 0.14 0.19 0.25 0.25 0.17 0.11 0.18 0.20 0.17 0.19 0.22 0.20 0.23 0.20 0.17 0.22
0.52 0.65 0.41 0.17 0.05 0.05 0.02 0.00 0.03 0.11 0.16 0.24 0.27 0.14 0.15 0.21 0.42 0.32 0.35 0.29 0.27 0.33 0.17 0.15 0.16 0.15 0.14 0.12 0.09 0.14 0.16 0.14 0.14 0.14 0.10 0.10 0.11 0.13 0.12 0.19 0.17 0.18 0.22 0.26
0.56 0.49 0.53 0.35 0.15 0.22 0.03 0.00 0.00 0.03 0.10 0.12 0.13 0.19 0.29 0.26 0.55 0.61 0.27 0.32 0.38 0.47 0.59 0.27 0.17 0.14 0.11 0.10 0.08 0.10 0.13 0.14 0.13 0.10 0.11 0.10 0.11 0.14 0.14 0.15 0.17 0.19 0.23 0.31
0.32 0.48 0.56 0.49 0.45 0.19 0.02 0.00 0.00 0.05 0.18 0.05 0.07 0.12 0.13 0.13 0.24 0.58 0.54 0.33 0.37 0.47 0.63 0.91 0.42 0.22 0.19 0.09 0.06 0.08 0.11 0.14 0.15 0.18 0.13 0.11 0.10 0.13 0.15 0.15 0.18 0.29 0.38 0.39
0.31 0.38 0.65 0.41 0.56 0.34 0.18 0.01 0.00 0.01 0.14 0.02 0.01 0.07 0.14 0.05 0.10 0.25 0.42 0.53 0.61 0.55 0.45 0.45 0.70 0.61 0.43 0.32 0.13 0.07 0.10 0.09 0.14 0.11 0.12 0.10 0.12 0.10 0.13 0.24 0.26 0.21 0.16 0.15
0.27 0.31 0.37 0.38 0.48 0.33 0.12 0.02 0.01 0.08 0.18 0.01 0.00 0.01 0.08 0.24 0.24 0.54 0.66 0.75 0.87 0.41 0.30 0.33 0.28 0.39 0.58 0.60 0.58 0.36 0.13 0.09 0.07 0.13 0.12 0.17 0.23 0.28 0.24 0.17 0.10 0.07 0.06 0.07
0.37 0.35 0.31 0.36 0.38 0.17 0.02 0.07 0.14 0.21 0.07 0.02 0.01 0.01 0.03 0.15 0.18 0.45 0.55 0.71 0.73 0.48 0.21 0.17 0.21 0.17 0.16 0.16 0.22 0.44 0.48 0.37 0.24 0.19 0.21 0.26 0.26 0.29 0.26 0.13 0.10 0.10 0.08 0.09
0.66 0.44 0.55 0.31 0.26 0.11 0.09 0.11 0.10 0.06 0.12 0.11 0.28 0.30 0.30 0.31 0.56 0.64 0.64 0.73 0.84 0.50 0.09 0.03 0.05 0.02 0.01 0.01 0.02 0.04 0.09 0.21 0.30 0.34 0.38 0.35 0.25 0.14 0.09 0.11 0.13 0.14 0.13 0.14
0.40 0.33 0.66 0.64 0.45 0.19 0.26 0.23 0.06 0.04 0.05 0.05 0.12 0.58 0.93 1.04 1.00 1.04 1.03 0.78 0.64 0.45 0.11 0.02 0.00 0.00 0.02 0.04 0.05 0.08 0.09 0.07 0.06 0.07 0.10 0.08 0.07 0.11 0.07 0.12 0.14 0.15 0.16 0.20
0.35 0.57 0.44 0.75 0.77 0.54 0.49 0.72 0.41 0.20 0.15 0.17 0.19 0.17 0.32 0.46 0.49 0.34 0.34 0.42 0.46 0.48 0.31 0.11 0.07 0.09 0.09 0.07 0.08 0.08 0.09 0.10 0.13 0.11 0.11 0.11 0.11 0.12 0.12 0.17 0.25 0.23 0.35 0.41
0.36 0.88 0.83 0.75 0.96 1.10 1.08 0.63 0.49 0.57 0.43 0.31 0.16 0.13 0.18 0.28 0.31 0.31 0.28 0.24 0.30 0.41 0.38 0.30 0.25 0.18 0.14 0.15 0.20 0.20 0.18 0.17 0.17 0.16 0.18 0.22 0.17 0.18 0.19 0.19 0.29 0.48 0.54 0.53

GFSCGP_prec_precacc_087.txt.gz
Total_Precipitation_Accumulation
0.00 0.00 0.00 0.00 0.00 0.00 0.00 0.00 0.00 0.00 0.00 0.00 0.00 0.02 0.10 0.15 0.04 0.06 0.04 0.14 0.05 0.01 0.02 0.03 0.02 0.02 0.01 0.06 0.04 0.10 0.26 0.26 0.38 0.34 0.22 0.29 0.34 0.54 0.37 0.41 0.45 0.91 0.99 1.75
0.00 0.00 0.00 0.00 0.00 0.00 0.00 0.00 0.00 0.00 0.00 0.00 0.00 0.00 0.02 0.07 0.01 0.01 0.01 0.14 0.03 0.01 0.01 0.01 0.00 0.00 0.01 0.05 0.04 0.02 0.04 0.12 0.20 0.24 0.24 0.12 0.13 0.22 0.29 0.36 0.44 0.59 0.76 1.03
0.02 0.00 0.00 0.00 0.00 0.00 0.00 0.00 0.00 0.00 0.00 0.00 0.00 0.00 0.02 0.02 0.02 0.06 0.01 0.00 0.00 0.00 0.00 0.00 0.00 0.00 0.01 0.01 0.01 0.02 0.03 0.06 0.07 0.14 0.25 0.18 0.21 0.19 0.25 0.42 0.63 0.44 0.49 0.77
0.08 0.00 0.00 0.00 0.00 0.00 0.00 0.00 0.00 0.00 0.00 0.00 0.00 0.01 0.09 0.03 0.01 0.04 0.02 0.00 0.01 0.00 0.00 0.00 0.01 0.01 0.02 0.03 0.03 0.06 0.05 0.05 0.03 0.04 0.07 0.07 0.14 0.13 0.14 0.15 0.30 0.48 0.29 0.51
0.06 0.03 0.02 0.00 0.00 0.00 0.01 0.00 0.00 0.00 0.00 0.01 0.01 0.00 0.08 0.01 0.01 0.01 0.02 0.00 0.01 0.01 0.00 0.00 0.01 0.01 0.02 0.04 0.04 0.03 0.08 0.09 0.03 0.04 0.03 0.05 0.07 0.10 0.08 0.05 0.08 0.33 0.48 0.32
0.00 0.01 0.01 0.01 0.00 0.01 0.00 0.01 0.00 0.00 0.00 0.02 0.02 0.03 0.04 0.02 0.01 0.04 0.06 0.04 0.02 0.02 0.03 0.04 0.05 0.02 0.03 0.05 0.05 0.06 0.08 0.08 0.09 0.09 0.09 0.05 0.10 0.08 0.06 0.06 0.08 0.14 0.32 0.71
0.00 0.00 0.00 0.00 0.00 0.01 0.02 0.07 0.06 0.06 0.03 0.01 0.01 0.03 0.02 0.08 0.12 0.15 0.17 0.07 0.05 0.01 0.00 0.01 0.02 0.02 0.02 0.08 0.06 0.03 0.08 0.18 0.14 0.10 0.09 0.11 0.09 0.09 0.08 0.12 0.22 0.24 0.24 0.51
0.01 0.02 0.00 0.00 0.00 0.01 0.01 0.05 0.09 0.14 0.09 0.06 0.09 0.06 0.24 0.46 0.10 0.05 0.02 0.02 0.03 0.02 0.01 0.02 0.03 0.05 0.06 0.04 0.05 0.04 0.13 0.24 0.24 0.18 0.14 0.16 0.21 0.21 0.23 0.30 0.44 0.47 0.36 0.33
0.02 0.00 0.00 0.00 0.00 0.02 0.09 0.10 0.07 0.18 0.11 0.09 0.06 0.01 0.24 0.38 0.12 0.06 0.03 0.01 0.00 0.01 0.06 0.07 0.03 0.03 0.07 0.09 0.12 0.14 0.16 0.16 0.20 0.23 0.19 0.24 0.30 0.32 0.44 0.47 0.39 0.41 0.31 0.19
0.04 0.08 0.01 0.00 0.01 0.00 0.08 0.20 0.47 0.54 0.34 0.16 0.01 0.09 0.22 0.22 0.10 0.05 0.01 0.00 0.00 0.00 0.01 0.02 0.04 0.05 0.11 0.43 0.70 0.60 0.32 0.22 0.20 0.25 0.21 0.30 0.43 0.43 0.42 0.34 0.44 0.40 0.40 0.43
0.02 0.06 0.06 0.04 0.03 0.04 0.10 0.28 0.47 0.43 0.16 0.21 0.17 0.47 0.54 0.18 0.05 0.05 0.03 0.00 0.00 0.00 0.01 0.02 0.08 0.12 0.23 0.31 0.43 0.52 0.48 0.58 0.40 0.51 0.58 0.49 0.50 0.64 0.71 0.65 0.62 0.60 0.58 0.58
0.14 0.12 0.05 0.01 0.00 0.00 0.06 0.12 0.27 0.54 0.34 0.22 0.23 0.46 0.43 0.10 0.01 0.00 0.00 0.01 0.02 0.03 0.04 0.04 0.05 0.07 0.21 0.33 0.35 0.31 0.34 0.43 0.50 0.51 0.78 1.04 0.82 1.07 1.59 1.64 1.28 1.49 1.50 1.16
0.08 0.19 0.17 0.09 0.11 0.08 0.09 0.16 0.24 0.40 0.51 0.41 0.42 0.41 0.62 0.30 0.08 0.02 0.00 0.01 0.03 0.06 0.06 0.07 0.09 0.12 0.18 0.26 0.34 0.39 0.44 0.63 0.79 0.88 0.98 0.98 0.85 1.15 1.06 0.73 0.55 0.44 0.53 0.49
0.14 0.08 0.10 0.13 0.22 0.29 0.20 0.14 0.19 0.57 0.81 0.49 0.29 0.18 0.78 1.02 0.55 0.15 0.02 0.04 0.08 0.10 0.14 0.15 0.16 0.19 0.25 0.40 0.48 0.56 0.63 0.78 0.70 0.61 0.65 0.54 0.45 0.46 0.43 0.35 0.27 0.23 0.20 0.19
0.32 0.20 0.08 0.04 0.02 0.10 0.19 0.18 0.16 0.26 0.31 0.41 0.12 0.15 0.37 0.89 1.01 0.57 0.09 0.05 0.09 0.13 0.12 0.20 0.21 0.21 0.22 0.30 0.35 0.41 0.44 0.47 0.46 0.43 0.43 0.38 0.38 0.29 0.24 0.17 0.17 0.18 0.20 0.27
0.54 0.38 0.14 0.07 0.03 0.03 0.03 0.04 0.20 0.22 0.16 0.18 0.10 0.24 0.25 0.55 0.71 0.52 0.42 0.20 0.16 0.17 0.15 0.16 0.16 0.16 0.17 0.18 0.16 0.22 0.29 0.31 0.23 0.15 0.23 0.23 0.19 0.21 0.23 0.22 0.25 0.21 0.19 0.23
0.52 0.67 0.47 0.21 0.06 0.05 0.03 0.00 0.04 0.12 0.19 0.31 0.40 0.31 0.18 0.21 0.42 0.32 0.35 0.29 0.27 0.33 0.17 0.15 0.16 0.16 0.16 0.15 0.12 0.16 0.20 0.19 0.22 0.20 0.13 0.12 0.12 0.13 0.13 0.21 0.20 0.20 0.23 0.27
0.56 0.50 0.56 0.37 0.16 0.23 0.03 0.00 0.01 0.09 0.18 0.24 0.28 0.24 0.29 0.26 0.55 0.61 0.27 0.32 0.38 0.48 0.59 0.29 0.22 0.18 0.15 0.14 0.14 0.15 0.16 0.20 0.20 0.17 0.18 0.13 0.13 0.15 0.16 0.17 0.19 0.21 0.24 0.31
0.33 0.49 0.59 0.54 0.48 0.21 0.08 0.07 0.06 0.08 0.20 0.06 0.08 0.12 0.13 0.13 0.24 0.58 0.54 0.35 0.42 0.49 0.64 0.92 0.45 0.26 0.26 0.17 0.15 0.16 0.18 0.21 0.23 0.29 0.24 0.20 0.18 0.17 0.19 0.20 0.23 0.33 0.41 0.42
0.31 0.40 0.67 0.45 0.63 0.52 0.65 0.21 0.04 0.04 0.16 0.03 0.01 0.07 0.14 0.05 0.10 0.25 0.43 0.55 0.64 0.58 0.48 0.47 0.73 0.65 0.50 0.50 0.30 0.20 0.19 0.20 0.27 0.30 0.27 0.24 0.27 0.22 0.21 0.33 0.36 0.31 0.24 0.21
0.27 0.32 0.38 0.39 0.55 0.54 0.37 0.11 0.01 0.11 0.26 0.02 0.00 0.01 0.08 0.24 0.25 0.55 0.68 0.78 0.90 0.44 0.31 0.35 0.29 0.42 0.63 0.69 0.77 0.57 0.34 0.28 0.28 0.34 0.42 0.45 0.46 0.48 0.45 0.29 0.17 0.14 0.12 0.11
0.38 0.36 0.35 0.44 0.62 0.48 0.04 0.07 0.16 0.26 0.08 0.02 0.01 0.01 0.03 0.16 0.19 0.46 0.57 0.74 0.77 0.51 0.23 0.19 0.22 0.20 0.20 0.21 0.30 0.60 0.73 0.63 0.50 0.45 0.46 0.60 0.62 0.63 0.59 0.48 0.40 0.26 0.14 0.11
0.97 0.65 0.81 0.51 0.47 0.20 0.10 0.12 0.12 0.07 0.13 0.12 0.28 0.30 0.30 0.31 0.57 0.65 0.65 0.75 0.86 0.54 0.12 0.05 0.07 0.04 0.02 0.03 0.05 0.11 0.21 0.43 0.52 0.57 0.64 0.60 0.54 0.46 0.35 0.34 0.42 0.46 0.40 0.30
0.49 0.35 0.73 0.72 0.50 0.21 0.28 0.24 0.07 0.05 0.06 0.06 0.12 0.58 0.93 1.05 1.00 1.05 1.04 0.80 0.66 0.48 0.15 0.04 0.01 0.01 0.03 0.05 0.06 0.09 0.10 0.09 0.10 0.13 0.16 0.16 0.18 0.23 0.19 0.24 0.26 0.25 0.27 0.31
0.35 0.57 0.46 0.78 0.81 0.57 0.50 0.74 0.43 0.22 0.15 0.17 0.20 0.18 0.32 0.47 0.51 0.36 0.36 0.45 0.49 0.52 0.35 0.14 0.10 0.12 0.13 0.08 0.08 0.09 0.09 0.10 0.13 0.11 0.11 0.11 0.11 0.13 0.14 0.18 0.26 0.24 0.36 0.42
0.36 0.89 0.83 0.77 0.99 1.12 1.11 0.65 0.51 0.59 0.44 0.33 0.17 0.14 0.20 0.29 0.32 0.33 0.31 0.28 0.33 0.44 0.42 0.34 0.29 0.23 0.17 0.16 0.21 0.20 0.18 0.17 0.17 0.17 0.18 0.23 0.17 0.18 0.19 0.19 0.29 0.48 0.54 0.53

GFSCGP_prec_precacc_090.txt.gz
Total_Precipitation_Accumulation
0.00 0.00 0.00 0.00 0.00 0.00 0.00 0.00 0.00 0.00 0.00 0.00 0.00 0.02 0.10 0.15 0.04 0.06 0.04 0.14 0.05 0.01 0.02 0.03 0.02 0.02 0.01 0.06 0.04 0.10 0.27 0.28 0.43 0.38 0.26 0.31 0.34 0.54 0.38 0.41 0.45 0.91 0.99 1.76
0.00 0.00 0.00 0.00 0.00 0.00 0.00 0.00 0.00 0.00 0.00 0.00 0.00 0.00 0.02 0.07 0.01 0.01 0.01 0.14 0.03 0.01 0.01 0.01 0.00 0.00 0.01 0.05 0.04 0.02 0.04 0.13 0.21 0.26 0.27 0.13 0.14 0.22 0.29 0.36 0.44 0.59 0.76 1.04
0.02 0.00 0.00 0.00 0.00 0.00 0.00 0.00 0.00 0.00 0.00 0.00 0.00 0.00 0.02 0.02 0.02 0.06 0.01 0.00 0.00 0.00 0.00 0.00 0.00 0.00 0.01 0.01 0.01 0.02 0.03 0.06 0.08 0.16 0.28 0.19 0.23 0.19 0.25 0.42 0.63 0.44 0.49 0.77
0.08 0.00 0.00 0.00 0.00 0.00 0.00 0.00 0.00 0.00 0.00 0.00 0.00 0.01 0.09 0.03 0.01 0.04 0.02 0.00 0.01 0.00 0.00 0.00 0.01 0.01 0.02 0.03 0.03 0.06 0.05 0.05 0.03 0.06 0.09 0.07 0.14 0.13 0.14 0.15 0.30 0.48 0.29 0.51
0.06 0.03 0.02 0.00 0.00 0.00 0.01 0.00 0.00 0.00 0.00 0.01 0.01 0.00 0.08 0.02 0.01 0.01 0.02 0.01 0.01 0.01 0.00 0.00 0.01 0.01 0.02 0.04 0.04 0.03 0.08 0.09 0.04 0.06 0.05 0.05 0.07 0.10 0.08 0.05 0.08 0.33 0.48 0.32
0.00 0.01 0.01 0.01 0.00 0.01 0.00 0.01 0.00 0.00 0.00 0.02 0.02 0.03 0.04 0.03 0.05 0.07 0.08 0.06 0.06 0.03 0.03 0.04 0.05 0.02 0.03 0.13 0.09 0.06 0.08 0.09 0.13 0.12 0.10 0.05 0.10 0.08 0.06 0.06 0.08 0.14 0.32 0.72
0.00 0.00 0.00 0.00 0.00 0.01 0.02 0.07 0.06 0.06 0.03 0.01 0.01 0.03 0.02 0.11 0.23 0.24 0.23 0.12 0.09 0.05 0.02 0.02 0.02 0.02 0.02 0.12 0.22 0.15 0.16 0.20 0.16 0.12 0.11 0.11 0.09 0.09 0.08 0.12 0.22 0.24 0.24 0.52
0.01 0.02 0.00 0.00 0.00 0.01 0.01 0.05 0.09 0.14 0.09 0.06 0.09 0.06 0.25 0.54 0.21 0.12 0.11 0.11 0.17 0.11 0.03 0.03 0.04 0.05 0.06 0.04 0.09 0.16 0.35 0.34 0.29 0.22 0.16 0.18 0.21 0.21 0.23 0.30 0.45 0.48 0.36 0.33
0.02 0.00 0.00 0.00 0.00 0.02 0.09 0.10 0.07 0.18 0.11 0.09 0.06 0.02 0.25 0.41 0.19 0.17 0.19 0.12 0.06 0.07 0.09 0.09 0.04 0.03 0.08 0.09 0.25 0.25 0.23 0.21 0.28 0.28 0.22 0.25 0.30 0.32 0.44 0.47 0.39 0.41 0.31 0.19
0.04 0.08 0.01 0.00 0.01 0.01 0.08 0.21 0.49 0.55 0.35 0.16 0.01 0.11 0.26 0.23 0.11 0.07 0.10 0.07 0.00 0.00 0.01 0.02 0.04 0.08 0.15 0.48 0.81 0.80 0.66 0.47 0.41 0.39 0.26 0.32 0.45 0.43 0.43 0.34 0.45 0.40 0.40 0.43
0.02 0.06 0.06 0.04 0.03 0.04 0.10 0.28 0.49 0.45 0.17 0.21 0.17 0.47 0.54 0.18 0.05 0.05 0.04 0.03 0.00 0.00 0.01 0.02 0.08 0.15 0.31 0.42 0.65 0.86 0.92 1.02 0.80 0.82 0.72 0.52 0.52 0.66 0.73 0.66 0.62 0.60 0.58 0.58
0.14 0.12 0.05 0.01 0.00 0.00 0.07 0.15 0.33 0.62 0.38 0.23 0.23 0.47 0.43 0.10 0.01 0.00 0.00 0.01 0.02 0.03 0.04 0.04 0.05 0.09 0.25 0.42 0.57 0.67 0.92 1.29 1.08 0.79 0.91 1.08 0.85 1.14 1.61 1.65 1.29 1.50 1.50 1.17
0.08 0.19 0.17 0.09 0.11 0.08 0.09 0.17 0.29 0.46 0.56 0.45 0.47 0.42 0.62 0.30 0.08 0.02 0.00 0.01 0.03 0.06 0.06 0.07 0.09 0.12 0.19 0.28 0.42 0.56 0.81 1.05 1.24 1.29 1.12 1.01 0.90 1.21 1.07 0.74 0.56 0.46 0.55 0.51
0.14 0.08 0.11 0.13 0.22 0.29 0.20 0.14 0.21 0.69 0.98 0.60 0.40 0.27 0.83 1.04 0.56 0.24 0.06 0.04 0.08 0.10 0.14 0.15 0.16 0.19 0.25 0.40 0.49 0.57 0.74 0.87 0.82 0.91 0.82 0.62 0.50 0.49 0.44 0.36 0.28 0.24 0.21 0.19
0.32 0.20 0.08 0.04 0.02 0.10 0.19 0.18 0.16 0.26 0.34 0.51 0.20 0.30 0.52 0.91 1.02 0.64 0.16 0.05 0.09 0.13 0.12 0.20 0.21 0.21 0.23 0.30 0.35 0.42 0.47 0.58 0.57 0.60 0.64 0.45 0.41 0.31 0.26 0.18 0.18 0.19 0.21 0.28
0.54 0.38 0.14 0.07 0.03 0.03 0.03 0.04 0.20 0.22 0.17 0.20 0.12 0.35 0.62 0.67 0.72 0.52 0.42 0.20 0.16 0.17 0.15 0.16 0.16 0.16 0.18 0.18 0.16 0.23 0.32 0.35 0.31 0.21 0.31 0.31 0.24 0.24 0.24 0.22 0.26 0.22 0.20 0.24
0.52 0.67 0.47 0.21 0.06 0.06 0.03 0.01 0.04 0.12 0.22 0.33 0.42 0.36 0.30 0.31 0.43 0.32 0.35 0.29 0.27 0.33 0.17 0.15 0.17 0.16 0.17 0.17 0.14 0.18 0.22 0.24 0.31 0.31 0.21 0.17 0.17 0.18 0.14 0.21 0.22 0.22 0.25 0.29
0.56 0.50 0.56 0.38 0.17 0.23 0.06 0.06 0.05 0.13 0.33 0.40 0.48 0.34 0.33 0.27 0.55 0.61 0.27 0.33 0.38 0.48 0.59 0.29 0.22 0.19 0.17 0.19 0.18 0.18 0.19 0.24 0.28 0.27 0.29 0.20 0.15 0.18 0.17 0.17 0.21 0.26 0.27 0.33
0.33 0.49 0.61 0.54 0.50 0.22 0.11 0.14 0.28 0.31 0.34 0.19 0.16 0.13 0.14 0.13 0.24 0.58 0.54 0.36 0.43 0.50 0.65 0.93 0.46 0.27 0.29 0.24 0.22 0.21 0.23 0.24 0.28 0.40 0.36 0.38 0.38 0.30 0.25 0.23 0.25 0.35 0.44 0.44
0.32 0.41 0.69 0.47 0.70 0.53 0.68 0.25 0.16 0.36 0.36 0.12 0.03 0.07 0.14 0.06 0.11 0.26 0.44 0.56 0.66 0.58 0.48 0.47 0.73 0.66 0.51 0.55 0.39 0.28 0.27 0.26 0.32 0.35 0.40 0.43 0.50 0.50 0.45 0.49 0.46 0.36 0.29 0.25
0.27 0.33 0.39 0.39 0.57 0.56 0.42 0.22 0.18 0.28 0.41 0.03 0.00 0.01 0.08 0.25 0.25 0.56 0.69 0.79 0.91 0.45 0.32 0.35 0.30 0.43 0.65 0.71 0.81 0.67 0.47 0.40 0.40 0.43 0.51 0.60 0.67 0.77 0.73 0.49 0.34 0.29 0.24 0.23
0.46 0.41 0.38 0.52 0.74 0.58 0.07 0.20 0.33 0.39 0.12 0.03 0.01 0.01 0.03 0.16 0.20 0.47 0.58 0.76 0.78 0.52 0.24 0.19 0.23 0.21 0.22 0.22 0.32 0.64 0.80 0.76 0.65 0.59 0.56 0.71 0.78 0.84 0.87 0.82 0.69 0.47 0.32 0.27
1.20 0.95 0.97 0.63 0.57 0.32 0.16 0.20 0.21 0.10 0.14 0.12 0.28 0.31 0.30 0.32 0.57 0.65 0.66 0.76 0.88 0.55 0.12 0.05 0.08 0.05 0.03 0.06 0.08 0.15 0.28 0.50 0.59 0.66 0.74 0.69 0.62 0.58 0.54 0.58 0.70 0.78 0.73 0.57
0.51 0.43 0.82 0.76 0.53 0.24 0.32 0.26 0.09 0.06 0.07 0.06 0.12 0.58 0.94 1.06 1.01 1.05 1.05 0.80 0.67 0.50 0.17 0.06 0.02 0.01 0.04 0.08 0.10 0.10 0.11 0.10 0.12 0.15 0.21 0.23 0.27 0.32 0.28 0.34 0.40 0.42 0.47 0.55
0.35 0.58 0.49 0.80 0.82 0.58 0.51 0.76 0.45 0.23 0.16 0.18 0.20 0.18 0.33 0.47 0.51 0.36 0.37 0.46 0.49 0.53 0.37 0.16 0.12 0.14 0.15 0.10 0.10 0.12 0.11 0.11 0.14 0.12 0.14 0.14 0.16 0.20 0.21 0.25 0.33 0.32 0.46 0.51
0.37 0.90 0.84 0.78 1.00 1.13 1.12 0.67 0.52 0.61 0.46 0.34 0.17 0.15 0.20 0.29 0.32 0.34 0.31 0.28 0.34 0.45 0.43 0.35 0.31 0.26 0.20 0.18 0.23 0.23 0.20 0.17 0.18 0.17 0.18 0.23 0.17 0.18 0.19 0.19 0.29 0.49 0.55 0.53

GFSCGP_prec_precacc_093.txt.gz
Total_Precipitation_Accumulation
0.00 0.00 0.00 0.00 0.00 0.00 0.00 0.00 0.00 0.00 0.00 0.00 0.00 0.02 0.10 0.15 0.04 0.06 0.04 0.14 0.05 0.01 0.02 0.03 0.02 0.02 0.01 0.06 0.04 0.10 0.27 0.28 0.44 0.39 0.28 0.34 0.34 0.55 0.40 0.42 0.45 0.91 0.99 1.76
0.00 0.00 0.00 0.00 0.00 0.00 0.00 0.00 0.00 0.00 0.00 0.00 0.00 0.00 0.02 0.07 0.01 0.01 0.01 0.14 0.03 0.01 0.01 0.01 0.00 0.00 0.01 0.05 0.04 0.02 0.04 0.13 0.21 0.26 0.29 0.18 0.23 0.32 0.37 0.38 0.45 0.59 0.76 1.04
0.02 0.00 0.00 0.00 0.00 0.00 0.00 0.00 0.00 0.00 0.00 0.00 0.00 0.00 0.02 0.02 0.02 0.06 0.01 0.00 0.00 0.00 0.00 0.00 0.00 0.00 0.01 0.01 0.01 0.02 0.03 0.06 0.08 0.16 0.28 0.24 0.31 0.26 0.36 0.44 0.63 0.44 0.49 0.77
0.08 0.00 0.00 0.00 0.00 0.00 0.00 0.00 0.00 0.00 0.00 0.00 0.00 0.01 0.09 0.03 0.01 0.04 0.02 0.00 0.01 0.00 0.00 0.00 0.01 0.01 0.02 0.03 0.03 0.06 0.05 0.05 0.03 0.06 0.10 0.09 0.15 0.13 0.14 0.15 0.30 0.48 0.29 0.51
0.06 0.03 0.02 0.00 0.00 0.00 0.01 0.00 0.00 0.00 0.00 0.01 0.01 0.00 0.08 0.02 0.01 0.01 0.02 0.01 0.02 0.02 0.00 0.00 0.01 0.01 0.02 0.04 0.04 0.03 0.08 0.09 0.04 0.06 0.05 0.08 0.10 0.13 0.14 0.09 0.08 0.33 0.48 0.32
0.00 0.01 0.01 0.01 0.00 0.01 0.00 0.01 0.00 0.00 0.00 0.02 0.02 0.03 0.04 0.03 0.05 0.07 0.08 0.06 0.06 0.04 0.03 0.04 0.05 0.02 0.03 0.13 0.09 0.06 0.08 0.09 0.13 0.12 0.13 0.09 0.12 0.13 0.10 0.08 0.09 0.14 0.32 0.72
0.00 0.00 0.00 0.00 0.00 0.01 0.02 0.07 0.06 0.06 0.03 0.01 0.01 0.03 0.02 0.11 0.23 0.24 0.24 0.14 0.11 0.06 0.03 0.02 0.03 0.03 0.02 0.12 0.23 0.16 0.19 0.21 0.16 0.12 0.13 0.16 0.16 0.13 0.12 0.14 0.23 0.24 0.24 0.52
0.01 0.02 0.00 0.00 0.00 0.01 0.01 0.05 0.09 0.14 0.09 0.06 0.09 0.06 0.25 0.54 0.21 0.12 0.13 0.16 0.20 0.16 0.04 0.03 0.06 0.08 0.07 0.04 0.13 0.25 0.40 0.44 0.40 0.32 0.28 0.28 0.27 0.23 0.26 0.31 0.45 0.48 0.36 0.33
0.02 0.00 0.00 0.00 0.00 0.02 0.09 0.10 0.07 0.19 0.11 0.09 0.06 0.02 0.25 0.41 0.19 0.17 0.21 0.18 0.14 0.13 0.14 0.09 0.05 0.08 0.10 0.09 0.29 0.34 0.31 0.24 0.35 0.45 0.38 0.39 0.37 0.35 0.45 0.47 0.39 0.41 0.31 0.19
0.04 0.08 0.01 0.00 0.01 0.01 0.08 0.21 0.49 0.56 0.37 0.16 0.01 0.11 0.26 0.23 0.11 0.07 0.11 0.19 0.09 0.03 0.02 0.03 0.05 0.12 0.20 0.52 0.88 0.92 0.78 0.60 0.51 0.52 0.44 0.50 0.55 0.51 0.45 0.34 0.45 0.40 0.40 0.43
0.02 0.06 0.06 0.04 0.03 0.04 0.10 0.29 0.49 0.46 0.18 0.22 0.17 0.47 0.54 0.18 0.05 0.05 0.05 0.08 0.06 0.01 0.01 0.02 0.08 0.17 0.35 0.47 0.73 0.94 1.10 1.38 1.09 1.04 0.95 0.78 0.65 0.75 0.77 0.66 0.62 0.60 0.58 0.58
0.14 0.12 0.05 0.01 0.00 0.00 0.07 0.15 0.33 0.66 0.41 0.24 0.24 0.47 0.44 0.10 0.01 0.00 0.01 0.02 0.03 0.03 0.04 0.04 0.05 0.09 0.30 0.50 0.64 0.75 1.00 1.49 1.40 1.08 1.18 1.31 0.97 1.20 1.64 1.65 1.29 1.50 1.50 1.17
0.08 0.19 0.17 0.09 0.11 0.08 0.09 0.17 0.29 0.47 0.59 0.48 0.52 0.43 0.64 0.31 0.08 0.02 0.01 0.04 0.04 0.06 0.06 0.07 0.09 0.12 0.19 0.31 0.51 0.65 0.94 1.34 1.48 1.66 1.45 1.28 1.02 1.25 1.09 0.75 0.56 0.46 0.55 0.51
0.14 0.08 0.11 0.13 0.22 0.29 0.20 0.14 0.21 0.69 1.00 0.61 0.41 0.28 0.86 1.08 0.60 0.27 0.06 0.04 0.08 0.10 0.14 0.15 0.16 0.19 0.25 0.41 0.52 0.65 1.03 1.17 0.90 1.23 1.37 1.03 0.63 0.53 0.46 0.36 0.28 0.24 0.21 0.20
0.32 0.20 0.08 0.04 0.02 0.10 0.19 0.18 0.16 0.26 0.34 0.53 0.21 0.31 0.61 1.12 1.16 0.69 0.16 0.05 0.09 0.13 0.12 0.20 0.21 0.21 0.23 0.30 0.35 0.42 0.49 0.80 0.80 0.84 1.31 1.26 0.71 0.36 0.26 0.18 0.18 0.19 0.21 0.28
0.54 0.38 0.14 0.07 0.03 0.03 0.03 0.04 0.20 0.22 0.17 0.20 0.12 0.36 0.65 0.80 0.90 0.64 0.43 0.20 0.16 0.17 0.15 0.16 0.16 0.16 0.18 0.18 0.16 0.23 0.32 0.38 0.46 0.43 0.83 1.10 0.89 0.31 0.25 0.23 0.26 0.22 0.20 0.24
0.52 0.67 0.47 0.21 0.06 0.06 0.04 0.04 0.06 0.12 0.22 0.34 0.43 0.36 0.33 0.42 0.55 0.38 0.36 0.29 0.28 0.33 0.17 0.16 0.17 0.16 0.17 0.17 0.15 0.18 0.23 0.26 0.37 0.41 0.47 0.42 0.57 0.42 0.21 0.23 0.22 0.22 0.25 0.29
0.56 0.50 0.56 0.38 0.17 0.24 0.08 0.16 0.22 0.16 0.35 0.48 0.53 0.40 0.36 0.30 0.59 0.62 0.27 0.33 0.39 0.49 0.60 0.29 0.23 0.19 0.17 0.19 0.20 0.19 0.21 0.26 0.33 0.41 0.45 0.49 0.39 0.42 0.24 0.22 0.22 0.27 0.27 0.34
0.33 0.49 0.62 0.55 0.50 0.22 0.13 0.26 0.47 0.42 0.44 0.33 0.28 0.21 0.18 0.15 0.24 0.58 0.55 0.36 0.44 0.51 0.66 0.94 0.47 0.27 0.29 0.24 0.23 0.24 0.26 0.27 0.31 0.44 0.56 0.60 0.55 0.47 0.33 0.30 0.30 0.38 0.45 0.44
0.32 0.41 0.72 0.50 0.72 0.55 0.69 0.25 0.20 0.50 0.47 0.20 0.12 0.10 0.15 0.06 0.11 0.26 0.44 0.56 0.67 0.59 0.49 0.48 0.74 0.67 0.52 0.56 0.39 0.30 0.30 0.29 0.37 0.41 0.47 0.56 0.65 0.67 0.74 0.73 0.57 0.43 0.35 0.29
0.28 0.35 0.41 0.40 0.58 0.57 0.45 0.26 0.31 0.51 0.52 0.09 0.01 0.02 0.08 0.26 0.26 0.57 0.70 0.80 0.92 0.46 0.32 0.35 0.30 0.44 0.65 0.72 0.81 0.68 0.51 0.45 0.48 0.53 0.57 0.65 0.77 0.92 0.90 0.73 0.60 0.51 0.40 0.34
0.54 0.46 0.43 0.57 0.82 0.62 0.10 0.25 0.48 0.58 0.24 0.05 0.02 0.02 0.04 0.17 0.21 0.48 0.59 0.77 0.79 0.53 0.24 0.19 0.23 0.22 0.23 0.23 0.32 0.64 0.81 0.80 0.71 0.67 0.65 0.78 0.83 0.90 0.97 0.97 0.88 0.69 0.56 0.49
1.32 1.07 1.09 0.70 0.64 0.42 0.24 0.29 0.33 0.21 0.19 0.14 0.30 0.31 0.30 0.32 0.58 0.66 0.67 0.77 0.89 0.55 0.12 0.05 0.08 0.05 0.04 0.06 0.08 0.15 0.29 0.51 0.62 0.70 0.79 0.76 0.70 0.64 0.58 0.63 0.78 0.88 0.86 0.74
0.53 0.47 0.88 0.80 0.58 0.30 0.42 0.33 0.14 0.09 0.10 0.09 0.13 0.59 0.94 1.06 1.02 1.06 1.06 0.81 0.68 0.50 0.17 0.06 0.02 0.01 0.05 0.09 0.11 0.11 0.11 0.10 0.14 0.17 0.25 0.27 0.31 0.36 0.33 0.39 0.44 0.46 0.54 0.65
0.35 0.58 0.50 0.81 0.84 0.60 0.53 0.80 0.48 0.26 0.19 0.21 0.22 0.19 0.33 0.47 0.52 0.37 0.38 0.47 0.50 0.53 0.37 0.16 0.12 0.14 0.16 0.11 0.11 0.13 0.13 0.12 0.15 0.14 0.17 0.18 0.20 0.24 0.26 0.31 0.39 0.37 0.52 0.58
0.37 0.90 0.84 0.78 1.01 1.14 1.14 0.69 0.54 0.63 0.48 0.36 0.18 0.15 0.21 0.30 0.33 0.34 0.32 0.29 0.34 0.45 0.44 0.35 0.31 0.26 0.21 0.18 0.24 0.24 0.21 0.18 0.18 0.17 0.19 0.24 0.18 0.19 0.21 0.22 0.33 0.52 0.58 0.55

GFSCGP_prec_precacc_096.txt.gz
Total_Precipitation_Accumulation
0.00 0.00 0.00 0.00 0.00 0.00 0.00 0.00 0.00 0.00 0.00 0.00 0.00 0.02 0.10 0.15 0.04 0.06 0.04 0.14 0.05 0.01 0.02 0.03 0.02 0.02 0.01 0.06 0.04 0.10 0.27 0.28 0.44 0.41 0.29 0.36 0.35 0.56 0.41 0.44 0.49 0.93 0.99 1.76
0.00 0.00 0.00 0.00 0.00 0.00 0.00 0.00 0.00 0.00 0.00 0.00 0.00 0.00 0.02 0.07 0.01 0.01 0.01 0.14 0.03 0.01 0.01 0.01 0.00 0.00 0.01 0.05 0.04 0.02 0.04 0.13 0.21 0.26 0.29 0.18 0.23 0.33 0.44 0.51 0.61 0.68 0.77 1.04
0.02 0.00 0.00 0.00 0.00 0.00 0.00 0.00 0.00 0.00 0.00 0.00 0.00 0.00 0.02 0.02 0.02 0.06 0.01 0.00 0.00 0.00 0.00 0.00 0.00 0.00 0.01 0.01 0.01 0.02 0.03 0.06 0.08 0.16 0.28 0.24 0.35 0.35 0.53 0.70 0.87 0.59 0.54 0.78
0.08 0.00 0.00 0.00 0.00 0.00 0.00 0.00 0.00 0.00 0.00 0.00 0.00 0.01 0.09 0.03 0.01 0.04 0.02 0.00 0.01 0.00 0.00 0.00 0.01 0.01 0.02 0.03 0.03 0.06 0.05 0.05 0.03 0.06 0.10 0.09 0.15 0.13 0.15 0.18 0.45 0.66 0.39 0.55
0.06 0.03 0.02 0.00 0.00 0.00 0.01 0.00 0.00 0.00 0.00 0.01 0.01 0.00 0.08 0.02 0.01 0.01 0.02 0.01 0.02 0.02 0.00 0.00 0.01 0.01 0.02 0.04 0.04 0.03 0.08 0.09 0.04 0.06 0.05 0.08 0.10 0.13 0.14 0.09 0.12 0.38 0.49 0.34
0.00 0.01 0.01 0.01 0.00 0.01 0.00 0.01 0.00 0.00 0.00 0.02 0.02 0.03 0.04 0.03 0.05 0.07 0.08 0.06 0.06 0.04 0.03 0.04 0.05 0.02 0.03 0.13 0.09 0.06 0.08 0.09 0.13 0.12 0.13 0.09 0.12 0.13 0.10 0.08 0.10 0.14 0.33 0.72
0.00 0.00 0.00 0.00 0.00 0.01 0.02 0.07 0.06 0.06 0.03 0.01 0.01 0.03 0.02 0.11 0.23 0.24 0.24 0.14 0.11 0.06 0.03 0.02 0.03 0.03 0.02 0.12 0.23 0.16 0.19 0.21 0.16 0.12 0.13 0.16 0.16 0.14 0.13 0.14 0.23 0.24 0.24 0.52
0.01 0.02 0.00 0.00 0.00 0.01 0.01 0.05 0.09 0.14 0.09 0.06 0.09 0.06 0.25 0.54 0.21 0.12 0.13 0.16 0.20 0.16 0.05 0.04 0.06 0.09 0.08 0.06 0.13 0.26 0.43 0.47 0.41 0.33 0.29 0.32 0.35 0.35 0.36 0.39 0.48 0.48 0.36 0.33
0.02 0.00 0.00 0.00 0.00 0.02 0.09 0.10 0.07 0.19 0.11 0.09 0.06 0.02 0.25 0.41 0.19 0.17 0.21 0.18 0.14 0.13 0.14 0.12 0.08 0.09 0.11 0.12 0.31 0.38 0.35 0.30 0.40 0.51 0.41 0.44 0.47 0.50 0.61 0.63 0.53 0.45 0.31 0.19
0.04 0.08 0.02 0.00 0.01 0.01 0.08 0.21 0.49 0.56 0.37 0.16 0.01 0.11 0.26 0.23 0.11 0.07 0.11 0.19 0.09 0.03 0.03 0.04 0.07 0.14 0.20 0.53 0.92 1.02 0.87 0.69 0.62 0.63 0.54 0.60 0.67 0.62 0.60 0.48 0.51 0.43 0.40 0.43
0.02 0.06 0.06 0.04 0.03 0.04 0.10 0.29 0.50 0.47 0.18 0.24 0.17 0.47 0.54 0.18 0.05 0.05 0.05 0.08 0.07 0.01 0.02 0.02 0.09 0.17 0.36 0.49 0.75 1.00 1.22 1.52 1.23 1.13 1.13 0.94 0.76 0.87 0.89 0.81 0.72 0.65 0.59 0.59
0.14 0.12 0.05 0.01 0.00 0.00 0.07 0.15 0.33 0.67 0.45 0.29 0.28 0.49 0.44 0.10 0.01 0.00 0.01 0.02 0.04 0.03 0.04 0.04 0.05 0.09 0.31 0.53 0.66 0.79 1.10 1.66 1.45 1.14 1.27 1.41 1.07 1.34 1.75 1.76 1.36 1.53 1.50 1.17
0.08 0.19 0.17 0.09 0.11 0.08 0.09 0.17 0.29 0.47 0.59 0.49 0.53 0.44 0.64 0.31 0.08 0.02 0.01 0.04 0.04 0.06 0.06 0.07 0.09 0.12 0.20 0.36 0.55 0.68 0.97 1.44 1.58 1.76 1.56 1.47 1.21 1.41 1.17 0.80 0.58 0.46 0.55 0.51
0.14 0.08 0.11 0.13 0.22 0.29 0.20 0.14 0.21 0.69 1.00 0.61 0.42 0.28 0.86 1.08 0.60 0.29 0.12 0.08 0.09 0.10 0.14 0.15 0.16 0.19 0.25 0.42 0.56 0.68 1.09 1.24 0.98 1.34 1.47 1.18 0.99 0.83 0.56 0.38 0.28 0.24 0.21 0.20
0.32 0.20 0.08 0.04 0.02 0.10 0.19 0.18 0.16 0.26 0.34 0.53 0.21 0.31 0.61 1.12 1.16 0.74 0.24 0.10 0.11 0.13 0.12 0.20 0.21 0.21 0.23 0.30 0.35 0.44 0.53 0.90 0.87 0.91 1.39 1.47 1.13 0.82 0.65 0.26 0.19 0.20 0.21 0.28
0.54 0.38 0.14 0.07 0.03 0.03 0.03 0.04 0.20 0.22 0.17 0.20 0.12 0.36 0.65 0.80 0.90 0.67 0.53 0.27 0.19 0.17 0.15 0.16 0.16 0.16 0.18 0.19 0.17 0.23 0.32 0.39 0.50 0.49 0.93 1.34 1.76 0.97 0.82 0.63 0.28 0.23 0.20 0.24
0.52 0.67 0.47 0.21 0.06 0.06 0.04 0.05 0.08 0.15 0.23 0.34 0.43 0.36 0.33 0.42 0.56 0.42 0.42 0.34 0.29 0.34 0.18 0.16 0.17 0.16 0.18 0.18 0.16 0.20 0.23 0.26 0.39 0.49 0.77 0.87 0.96 1.39 0.93 0.74 0.29 0.23 0.25 0.29
0.56 0.50 0.56 0.38 0.17 0.24 0.08 0.16 0.25 0.27 0.41 0.49 0.55 0.42 0.37 0.31 0.63 0.69 0.32 0.35 0.40 0.50 0.61 0.30 0.23 0.20 0.17 0.19 0.20 0.21 0.24 0.27 0.34 0.45 0.56 0.69 0.56 0.93 1.07 0.61 0.31 0.29 0.28 0.34
0.33 0.49 0.62 0.55 0.50 0.22 0.13 0.27 0.52 0.59 0.57 0.41 0.36 0.28 0.24 0.19 0.25 0.59 0.55 0.37 0.45 0.52 0.68 0.95 0.48 0.28 0.30 0.24 0.24 0.25 0.27 0.31 0.33 0.49 0.64 0.78 0.84 0.86 0.80 0.73 0.50 0.47 0.49 0.45
0.32 0.41 0.73 0.52 0.72 0.55 0.69 0.26 0.20 0.56 0.57 0.27 0.26 0.22 0.24 0.13 0.17 0.28 0.46 0.57 0.68 0.61 0.51 0.50 0.75 0.67 0.52 0.56 0.39 0.30 0.31 0.31 0.40 0.45 0.50 0.60 0.80 0.95 1.00 1.01 0.87 0.59 0.44 0.34
0.29 0.36 0.42 0.40 0.59 0.57 0.46 0.26 0.33 0.60 0.61 0.18 0.20 0.16 0.17 0.33 0.30 0.60 0.71 0.82 0.93 0.47 0.34 0.36 0.31 0.45 0.66 0.72 0.81 0.68 0.51 0.47 0.50 0.55 0.59 0.66 0.78 0.99 1.03 0.88 0.78 0.66 0.55 0.43
0.58 0.48 0.47 0.60 0.85 0.64 0.10 0.28 0.55 0.70 0.33 0.16 0.15 0.09 0.06 0.19 0.23 0.49 0.60 0.78 0.80 0.54 0.25 0.21 0.24 0.23 0.23 0.23 0.32 0.64 0.82 0.81 0.72 0.67 0.66 0.79 0.83 0.91 1.00 1.03 0.96 0.79 0.68 0.62
1.34 1.09 1.12 0.75 0.69 0.47 0.27 0.37 0.42 0.32 0.28 0.23 0.34 0.33 0.31 0.33 0.59 0.67 0.68 0.77 0.90 0.57 0.14 0.06 0.09 0.06 0.04 0.06 0.08 0.15 0.30 0.51 0.62 0.70 0.79 0.76 0.70 0.64 0.59 0.64 0.79 0.91 0.92 0.82
0.55 0.51 0.91 0.83 0.62 0.35 0.48 0.39 0.19 0.15 0.14 0.12 0.15 0.59 0.94 1.07 1.02 1.07 1.06 0.82 0.68 0.51 0.18 0.06 0.02 0.01 0.05 0.09 0.11 0.12 0.11 0.11 0.14 0.17 0.25 0.28 0.31 0.37 0.33 0.39 0.45 0.48 0.57 0.69
0.36 0.58 0.51 0.82 0.86 0.63 0.59 0.88 0.53 0.30 0.21 0.22 0.22 0.19 0.34 0.48 0.53 0.37 0.38 0.47 0.50 0.54 0.38 0.16 0.12 0.15 0.16 0.11 0.11 0.14 0.13 0.12 0.15 0.14 0.17 0.18 0.20 0.24 0.26 0.32 0.41 0.39 0.55 0.61
0.37 0.90 0.85 0.78 1.01 1.14 1.17 0.74 0.58 0.64 0.49 0.36 0.19 0.16 0.22 0.30 0.33 0.35 0.32 0.30 0.35 0.46 0.44 0.36 0.32 0.27 0.21 0.19 0.24 0.24 0.21 0.18 0.18 0.17 0.19 0.24 0.18 0.19 0.22 0.22 0.34 0.53 0.60 0.58

GFSCGP_prec_precacc_099.txt.gz
Total_Precipitation_Accumulation
0.00 0.00 0.00 0.00 0.00 0.00 0.00 0.00 0.00 0.00 0.00 0.00 0.00 0.02 0.10 0.15 0.04 0.06 0.04 0.14 0.05 0.01 0.02 0.03 0.02 0.02 0.01 0.06 0.04 0.10 0.27 0.28 0.44 0.41 0.29 0.36 0.35 0.57 0.42 0.45 0.54 0.94 0.99 1.76
0.00 0.00 0.00 0.00 0.00 0.00 0.00 0.00 0.00 0.00 0.00 0.00 0.00 0.00 0.02 0.07 0.01 0.01 0.01 0.14 0.03 0.01 0.01 0.01 0.00 0.00 0.01 0.05 0.04 0.02 0.04 0.13 0.21 0.26 0.29 0.18 0.23 0.33 0.51 0.55 0.64 0.72 0.78 1.04
0.02 0.00 0.00 0.00 0.00 0.00 0.00 0.00 0.00 0.00 0.00 0.00 0.00 0.00 0.02 0.02 0.02 0.06 0.01 0.00 0.00 0.00 0.00 0.00 0.00 0.00 0.01 0.01 0.01 0.02 0.03 0.06 0.08 0.16 0.28 0.25 0.37 0.39 0.59 0.71 0.87 0.66 0.68 0.88
0.08 0.00 0.00 0.00 0.00 0.00 0.00 0.00 0.00 0.00 0.00 0.00 0.00 0.01 0.09 0.03 0.01 0.04 0.02 0.00 0.01 0.00 0.00 0.00 0.01 0.01 0.02 0.03 0.03 0.06 0.05 0.05 0.03 0.06 0.10 0.09 0.15 0.13 0.15 0.18 0.47 0.74 0.77 1.09
0.06 0.03 0.02 0.00 0.00 0.00 0.01 0.00 0.00 0.00 0.00 0.01 0.01 0.00 0.08 0.02 0.01 0.01 0.02 0.01 0.02 0.02 0.00 0.00 0.01 0.01 0.02 0.04 0.04 0.03 0.08 0.09 0.04 0.07 0.05 0.08 0.10 0.13 0.14 0.09 0.13 0.40 0.68 0.55
0.00 0.01 0.01 0.01 0.00 0.01 0.00 0.01 0.00 0.00 0.00 0.02 0.02 0.03 0.04 0.03 0.05 0.07 0.08 0.06 0.06 0.04 0.03 0.04 0.05 0.02 0.03 0.13 0.09 0.06 0.08 0.09 0.13 0.13 0.13 0.09 0.12 0.13 0.10 0.08 0.10 0.15 0.34 0.75
0.00 0.00 0.00 0.00 0.00 0.01 0.02 0.07 0.06 0.06 0.03 0.01 0.01 0.03 0.02 0.11 0.23 0.24 0.24 0.14 0.11 0.06 0.03 0.02 0.03 0.03 0.02 0.12 0.23 0.16 0.19 0.21 0.16 0.13 0.14 0.17 0.17 0.14 0.14 0.15 0.25 0.27 0.25 0.54
0.01 0.02 0.00 0.00 0.00 0.01 0.01 0.05 0.09 0.14 0.09 0.06 0.09 0.06 0.25 0.54 0.21 0.12 0.13 0.16 0.20 0.16 0.05 0.04 0.06 0.09 0.08 0.06 0.14 0.27 0.44 0.47 0.43 0.36 0.33 0.36 0.39 0.37 0.38 0.42 0.58 0.53 0.37 0.36
0.02 0.00 0.00 0.00 0.00 0.02 0.09 0.10 0.07 0.19 0.11 0.09 0.06 0.02 0.25 0.41 0.19 0.17 0.21 0.18 0.14 0.13 0.14 0.12 0.08 0.10 0.13 0.12 0.31 0.39 0.37 0.31 0.44 0.59 0.48 0.51 0.53 0.57 0.68 0.71 0.68 0.65 0.44 0.29
0.04 0.09 0.02 0.00 0.01 0.01 0.08 0.21 0.49 0.56 0.37 0.16 0.01 0.11 0.26 0.23 0.11 0.07 0.11 0.19 0.09 0.03 0.03 0.04 0.07 0.15 0.23 0.55 0.92 1.04 0.90 0.72 0.67 0.74 0.65 0.71 0.74 0.66 0.63 0.56 0.73 0.66 0.63 0.58
0.03 0.07 0.06 0.04 0.03 0.04 0.10 0.29 0.50 0.47 0.18 0.24 0.18 0.47 0.54 0.18 0.05 0.05 0.05 0.08 0.07 0.01 0.02 0.02 0.09 0.17 0.36 0.50 0.77 1.01 1.25 1.62 1.34 1.26 1.28 1.07 0.89 0.92 0.92 0.85 0.76 0.82 0.74 0.75
0.15 0.12 0.05 0.01 0.00 0.00 0.07 0.15 0.33 0.67 0.45 0.29 0.28 0.49 0.44 0.10 0.01 0.00 0.01 0.02 0.04 0.03 0.04 0.04 0.05 0.09 0.31 0.54 0.68 0.80 1.13 1.78 1.63 1.22 1.37 1.45 1.17 1.47 1.79 1.79 1.40 1.56 1.56 1.20
0.08 0.19 0.17 0.09 0.11 0.08 0.09 0.17 0.29 0.47 0.59 0.49 0.53 0.44 0.64 0.31 0.08 0.02 0.01 0.04 0.04 0.06 0.06 0.07 0.09 0.12 0.20 0.37 0.58 0.70 1.00 1.51 1.70 1.85 1.67 1.52 1.26 1.48 1.25 0.85 0.64 0.50 0.56 0.52
0.14 0.08 0.11 0.13 0.22 0.29 0.20 0.14 0.21 0.69 1.00 0.61 0.42 0.28 0.86 1.08 0.60 0.29 0.12 0.08 0.10 0.10 0.14 0.15 0.16 0.19 0.25 0.42 0.58 0.71 1.10 1.29 1.04 1.39 1.53 1.24 1.07 0.97 0.70 0.51 0.36 0.28 0.23 0.20
0.32 0.20 0.08 0.04 0.02 0.10 0.19 0.18 0.16 0.26 0.34 0.53 0.21 0.31 0.61 1.12 1.16 0.74 0.24 0.10 0.12 0.13 0.12 0.20 0.21 0.21 0.23 0.30 0.36 0.44 0.57 1.01 1.04 1.04 1.49 1.51 1.18 0.92 0.87 0.67 0.45 0.24 0.22 0.28
0.54 0.38 0.14 0.07 0.03 0.03 0.03 0.04 0.20 0.22 0.17 0.20 0.12 0.36 0.65 0.80 0.90 0.67 0.53 0.29 0.21 0.19 0.16 0.16 0.16 0.16 0.18 0.19 0.17 0.25 0.33 0.40 0.57 0.64 1.01 1.37 1.81 1.15 1.12 1.20 1.18 0.60 0.24 0.26
0.52 0.67 0.47 0.21 0.06 0.06 0.04 0.05 0.08 0.15 0.23 0.35 0.44 0.36 0.33 0.42 0.56 0.42 0.43 0.36 0.32 0.35 0.18 0.16 0.17 0.17 0.18 0.18 0.16 0.22 0.28 0.28 0.39 0.53 0.81 0.92 1.08 1.50 1.09 1.24 1.22 1.18 0.47 0.31
0.56 0.50 0.56 0.38 0.17 0.24 0.08 0.16 0.25 0.27 0.42 0.50 0.55 0.43 0.37 0.31 0.64 0.72 0.36 0.42 0.45 0.51 0.61 0.30 0.23 0.20 0.18 0.20 0.21 0.22 0.26 0.31 0.35 0.46 0.62 0.75 0.62 1.06 1.36 1.04 0.98 0.93 0.55 0.38
0.33 0.49 0.62 0.55 0.50 0.22 0.13 0.27 0.53 0.60 0.58 0.43 0.38 0.31 0.27 0.25 0.31 0.65 0.61 0.40 0.46 0.53 0.68 0.96 0.49 0.29 0.31 0.24 0.24 0.25 0.28 0.33 0.36 0.53 0.67 0.81 0.90 0.95 1.06 1.29 1.09 1.03 0.80 0.51
0.32 0.41 0.73 0.52 0.72 0.55 0.69 0.26 0.20 0.58 0.60 0.30 0.29 0.30 0.33 0.27 0.29 0.36 0.50 0.59 0.68 0.62 0.51 0.50 0.76 0.68 0.52 0.56 0.40 0.30 0.31 0.31 0.41 0.48 0.54 0.65 0.84 1.02 1.23 1.43 1.43 1.19 0.90 0.51
0.29 0.36 0.43 0.41 0.60 0.57 0.46 0.26 0.33 0.63 0.64 0.23 0.32 0.33 0.35 0.52 0.45 0.68 0.74 0.83 0.94 0.48 0.35 0.37 0.31 0.46 0.68 0.72 0.81 0.68 0.51 0.48 0.52 0.57 0.61 0.67 0.79 1.00 1.13 1.11 1.08 1.12 1.03 0.79
0.59 0.49 0.48 0.60 0.86 0.64 0.11 0.28 0.57 0.74 0.40 0.26 0.32 0.28 0.27 0.33 0.29 0.52 0.62 0.79 0.81 0.55 0.26 0.21 0.25 0.23 0.24 0.23 0.32 0.65 0.83 0.83 0.72 0.67 0.66 0.79 0.83 0.91 1.01 1.04 1.02 0.92 0.87 0.93
1.35 1.10 1.13 0.76 0.69 0.48 0.29 0.40 0.47 0.37 0.36 0.36 0.49 0.48 0.40 0.38 0.62 0.70 0.70 0.79 0.91 0.58 0.14 0.07 0.09 0.06 0.05 0.07 0.08 0.16 0.31 0.51 0.62 0.70 0.79 0.77 0.70 0.64 0.59 0.64 0.79 0.91 0.93 0.84
0.56 0.52 0.92 0.83 0.64 0.37 0.52 0.43 0.23 0.21 0.21 0.22 0.23 0.65 0.96 1.08 1.04 1.08 1.07 0.83 0.69 0.52 0.18 0.07 0.02 0.01 0.06 0.10 0.12 0.13 0.12 0.11 0.14 0.17 0.25 0.28 0.31 0.37 0.33 0.39 0.45 0.48 0.57 0.69
0.36 0.59 0.52 0.83 0.89 0.65 0.62 0.91 0.56 0.35 0.26 0.26 0.25 0.21 0.35 0.48 0.54 0.38 0.39 0.48 0.51 0.55 0.38 0.16 0.12 0.15 0.17 0.11 0.12 0.14 0.14 0.12 0.15 0.14 0.17 0.18 0.20 0.25 0.27 0.32 0.42 0.40 0.57 0.61
0.37 0.90 0.85 0.78 1.02 1.15 1.20 0.77 0.60 0.66 0.53 0.38 0.19 0.16 0.22 0.30 0.34 0.35 0.33 0.30 0.36 0.46 0.45 0.36 0.32 0.27 0.21 0.19 0.24 0.24 0.21 0.18 0.18 0.17 0.19 0.24 0.18 0.19 0.22 0.22 0.34 0.54 0.62 0.59

GFSCGP_prec_precacc_102.txt.gz
Total_Precipitation_Accumulation
0.00 0.00 0.00 0.00 0.00 0.00 0.00 0.00 0.00 0.00 0.00 0.00 0.00 0.02 0.10 0.15 0.04 0.06 0.04 0.14 0.05 0.01 0.02 0.03 0.02 0.02 0.01 0.06 0.04 0.10 0.27 0.28 0.44 0.41 0.29 0.36 0.35 0.57 0.42 0.45 0.54 0.94 0.99 1.76
0.01 0.00 0.00 0.00 0.00 0.00 0.00 0.00 0.00 0.00 0.00 0.00 0.00 0.00 0.02 0.07 0.01 0.01 0.01 0.14 0.03 0.01 0.01 0.01 0.00 0.00 0.01 0.05 0.04 0.02 0.04 0.13 0.21 0.26 0.29 0.18 0.23 0.33 0.51 0.56 0.65 0.72 0.78 1.05
0.04 0.00 0.00 0.00 0.00 0.00 0.00 0.00 0.00 0.00 0.00 0.00 0.00 0.00 0.02 0.02 0.02 0.06 0.01 0.00 0.00 0.00 0.00 0.00 0.00 0.00 0.01 0.01 0.01 0.02 0.03 0.06 0.08 0.16 0.28 0.25 0.37 0.40 0.61 0.73 0.88 0.67 0.70 0.93
0.14 0.02 0.01 0.00 0.00 0.00 0.00 0.00 0.00 0.00 0.00 0.00 0.00 0.01 0.09 0.03 0.01 0.04 0.02 0.00 0.01 0.00 0.00 0.00 0.01 0.01 0.02 0.03 0.03 0.06 0.05 0.05 0.03 0.06 0.10 0.09 0.15 0.13 0.15 0.18 0.47 0.74 0.79 1.13
0.09 0.04 0.05 0.03 0.00 0.00 0.01 0.00 0.00 0.00 0.00 0.01 0.01 0.00 0.08 0.02 0.01 0.01 0.02 0.01 0.02 0.02 0.00 0.00 0.01 0.01 0.02 0.04 0.04 0.03 0.08 0.09 0.04 0.07 0.05 0.08 0.10 0.14 0.14 0.09 0.13 0.41 0.69 0.56
0.02 0.02 0.03 0.03 0.01 0.01 0.00 0.01 0.00 0.00 0.00 0.02 0.02 0.03 0.04 0.03 0.05 0.07 0.08 0.06 0.06 0.04 0.03 0.04 0.05 0.02 0.03 0.13 0.09 0.06 0.08 0.09 0.13 0.13 0.13 0.09 0.13 0.13 0.10 0.09 0.11 0.17 0.36 0.77
0.01 0.00 0.00 0.00 0.00 0.01 0.02 0.07 0.06 0.06 0.03 0.01 0.01 0.03 0.02 0.11 0.23 0.24 0.24 0.14 0.11 0.06 0.03 0.02 0.03 0.03 0.02 0.12 0.23 0.16 0.20 0.21 0.16 0.13 0.14 0.17 0.17 0.15 0.14 0.16 0.25 0.29 0.27 0.55
0.01 0.02 0.00 0.00 0.00 0.01 0.01 0.05 0.09 0.14 0.09 0.06 0.09 0.06 0.25 0.54 0.21 0.12 0.13 0.16 0.20 0.16 0.05 0.04 0.06 0.09 0.08 0.06 0.14 0.27 0.44 0.47 0.44 0.37 0.34 0.37 0.40 0.39 0.40 0.44 0.59 0.55 0.38 0.36
0.03 0.00 0.00 0.00 0.00 0.02 0.09 0.10 0.07 0.19 0.11 0.09 0.06 0.02 0.25 0.41 0.19 0.17 0.21 0.18 0.14 0.13 0.14 0.12 0.08 0.10 0.13 0.13 0.32 0.39 0.37 0.31 0.46 0.61 0.51 0.54 0.58 0.62 0.76 0.73 0.72 0.69 0.45 0.30
0.04 0.09 0.02 0.00 0.01 0.01 0.08 0.21 0.50 0.57 0.37 0.16 0.01 0.11 0.26 0.23 0.11 0.07 0.11 0.19 0.09 0.03 0.03 0.04 0.07 0.15 0.23 0.57 0.94 1.05 0.91 0.74 0.70 0.78 0.72 0.76 0.80 0.69 0.67 0.59 0.77 0.73 0.70 0.61
0.03 0.07 0.06 0.04 0.03 0.04 0.10 0.29 0.50 0.48 0.19 0.25 0.18 0.48 0.54 0.18 0.05 0.05 0.05 0.08 0.07 0.01 0.02 0.02 0.09 0.17 0.36 0.50 0.80 1.04 1.26 1.63 1.40 1.36 1.41 1.15 0.95 0.98 0.96 0.90 0.81 0.86 0.76 0.79
0.15 0.12 0.06 0.01 0.00 0.00 0.07 0.15 0.33 0.67 0.45 0.29 0.28 0.49 0.44 0.10 0.01 0.00 0.01 0.02 0.04 0.03 0.04 0.04 0.05 0.09 0.31 0.54 0.69 0.82 1.13 1.80 1.70 1.31 1.55 1.65 1.34 1.63 1.94 1.89 1.50 1.66 1.62 1.25
0.08 0.19 0.17 0.09 0.11 0.08 0.09 0.17 0.29 0.47 0.59 0.49 0.53 0.44 0.64 0.31 0.08 0.02 0.01 0.04 0.04 0.06 0.06 0.07 0.09 0.12 0.20 0.37 0.58 0.74 1.06 1.56 1.74 1.92 1.80 1.62 1.33 1.66 1.47 1.08 0.80 0.64 0.60 0.52
0.14 0.08 0.11 0.13 0.22 0.29 0.20 0.14 0.21 0.69 1.00 0.61 0.42 0.28 0.86 1.08 0.60 0.29 0.12 0.08 0.10 0.10 0.14 0.15 0.16 0.19 0.25 0.42 0.58 0.74 1.26 1.45 1.25 1.48 1.58 1.42 1.25 1.15 0.85 0.68 0.50 0.36 0.28 0.21
0.32 0.20 0.08 0.04 0.02 0.10 0.19 0.18 0.16 0.26 0.34 0.53 0.21 0.31 0.61 1.12 1.16 0.74 0.24 0.10 0.12 0.13 0.12 0.20 0.21 0.21 0.23 0.30 0.36 0.45 0.58 1.05 1.18 1.35 1.66 1.56 1.33 1.09 1.03 0.78 0.57 0.36 0.26 0.30
0.54 0.38 0.14 0.07 0.03 0.03 0.03 0.04 0.20 0.22 0.17 0.20 0.12 0.36 0.65 0.80 0.90 0.68 0.54 0.29 0.21 0.19 0.16 0.16 0.16 0.16 0.18 0.19 0.17 0.25 0.34 0.41 0.59 0.67 1.11 1.50 1.88 1.18 1.15 1.28 1.28 0.85 0.38 0.32
0.52 0.67 0.47 0.21 0.06 0.06 0.04 0.05 0.08 0.15 0.23 0.35 0.44 0.37 0.33 0.43 0.57 0.43 0.43 0.36 0.33 0.37 0.19 0.16 0.18 0.17 0.18 0.19 0.17 0.23 0.31 0.31 0.40 0.53 0.92 1.06 1.24 1.60 1.19 1.39 1.50 1.62 1.22 0.77
0.56 0.50 0.56 0.38 0.17 0.24 0.08 0.16 0.26 0.27 0.42 0.51 0.56 0.44 0.38 0.32 0.66 0.72 0.37 0.44 0.48 0.54 0.63 0.31 0.24 0.20 0.18 0.20 0.21 0.22 0.27 0.31 0.37 0.47 0.63 0.78 0.68 1.11 1.41 1.07 1.09 1.18 1.22 1.13
0.33 0.49 0.62 0.55 0.50 0.22 0.13 0.27 0.53 0.61 0.60 0.44 0.38 0.33 0.29 0.28 0.34 0.69 0.65 0.47 0.54 0.60 0.72 0.97 0.50 0.30 0.31 0.25 0.24 0.26 0.28 0.33 0.36 0.55 0.71 0.85 0.95 0.98 1.09 1.35 1.22 1.29 1.21 1.07
0.32 0.41 0.73 0.53 0.73 0.55 0.70 0.26 0.21 0.59 0.64 0.30 0.29 0.31 0.35 0.31 0.34 0.40 0.55 0.66 0.77 0.66 0.54 0.53 0.78 0.69 0.53 0.57 0.40 0.30 0.31 0.31 0.41 0.49 0.58 0.70 0.88 1.06 1.27 1.56 1.67 1.53 1.34 1.06
0.29 0.36 0.43 0.41 0.60 0.58 0.46 0.26 0.34 0.66 0.66 0.24 0.32 0.35 0.41 0.57 0.52 0.77 0.81 0.89 0.98 0.51 0.38 0.39 0.32 0.46 0.68 0.73 0.81 0.68 0.52 0.48 0.53 0.58 0.61 0.67 0.80 1.02 1.17 1.19 1.30 1.46 1.53 1.38
0.60 0.49 0.49 0.61 0.86 0.65 0.11 0.28 0.58 0.75 0.42 0.29 0.36 0.35 0.35 0.42 0.37 0.58 0.66 0.83 0.85 0.58 0.27 0.22 0.25 0.24 0.24 0.23 0.32 0.65 0.84 0.84 0.72 0.67 0.66 0.79 0.83 0.92 1.01 1.05 1.06 1.02 1.07 1.29
1.35 1.11 1.13 0.77 0.70 0.48 0.29 0.40 0.47 0.39 0.40 0.42 0.57 0.58 0.49 0.48 0.72 0.76 0.75 0.83 0.94 0.59 0.15 0.07 0.09 0.06 0.05 0.07 0.09 0.16 0.31 0.51 0.62 0.70 0.79 0.77 0.70 0.65 0.59 0.64 0.80 0.92 0.94 0.88
0.56 0.52 0.93 0.85 0.65 0.38 0.53 0.44 0.25 0.24 0.26 0.28 0.29 0.71 1.01 1.13 1.09 1.12 1.10 0.85 0.70 0.52 0.18 0.07 0.02 0.01 0.06 0.10 0.12 0.13 0.12 0.11 0.14 0.17 0.25 0.28 0.32 0.37 0.34 0.39 0.45 0.48 0.58 0.69
0.36 0.59 0.52 0.84 0.90 0.66 0.64 0.93 0.59 0.39 0.29 0.29 0.31 0.25 0.38 0.51 0.56 0.39 0.39 0.48 0.52 0.55 0.38 0.16 0.12 0.15 0.17 0.12 0.12 0.14 0.14 0.12 0.15 0.14 0.17 0.18 0.20 0.25 0.27 0.33 0.42 0.41 0.58 0.62
0.37 0.91 0.85 0.79 1.02 1.16 1.22 0.80 0.64 0.71 0.57 0.42 0.21 0.17 0.22 0.30 0.34 0.35 0.33 0.31 0.36 0.47 0.45 0.36 0.32 0.27 0.22 0.19 0.24 0.24 0.21 0.18 0.18 0.17 0.19 0.24 0.18 0.19 0.22 0.22 0.34 0.55 0.62 0.59

GFSCGP_prec_precacc_108.txt.gz
Total_Precipitation_Accumulation
0.00 0.00 0.00 0.00 0.00 0.00 0.00 0.00 0.00 0.00 0.00 0.00 0.00 0.02 0.10 0.15 0.04 0.06 0.04 0.14 0.05 0.01 0.02 0.03 0.02 0.02 0.01 0.06 0.04 0.10 0.27 0.28 0.44 0.41 0.29 0.36 0.35 0.57 0.42 0.45 0.54 0.94 1.07 1.79
0.01 0.01 0.00 0.00 0.00 0.00 0.00 0.00 0.00 0.00 0.00 0.00 0.00 0.00 0.02 0.07 0.01 0.01 0.01 0.14 0.03 0.01 0.01 0.01 0.00 0.00 0.01 0.05 0.04 0.02 0.04 0.13 0.21 0.26 0.29 0.18 0.23 0.33 0.51 0.56 0.65 0.72 0.82 1.18
0.04 0.01 0.00 0.01 0.03 0.02 0.01 0.00 0.00 0.00 0.00 0.00 0.01 0.00 0.02 0.02 0.02 0.06 0.01 0.00 0.00 0.00 0.00 0.00 0.00 0.00 0.01 0.01 0.01 0.02 0.03 0.06 0.08 0.16 0.28 0.25 0.37 0.40 0.61 0.73 0.88 0.67 0.72 0.97
0.14 0.02 0.02 0.02 0.02 0.01 0.04 0.00 0.01 0.01 0.02 0.04 0.00 0.05 0.09 0.03 0.01 0.04 0.02 0.00 0.01 0.00 0.00 0.00 0.01 0.01 0.02 0.03 0.03 0.06 0.05 0.05 0.03 0.06 0.10 0.09 0.15 0.13 0.15 0.18 0.47 0.75 0.81 1.20
0.10 0.04 0.06 0.05 0.02 0.02 0.04 0.01 0.03 0.02 0.02 0.03 0.02 0.02 0.09 0.02 0.01 0.01 0.02 0.01 0.02 0.02 0.00 0.00 0.01 0.01 0.02 0.04 0.04 0.03 0.08 0.09 0.04 0.07 0.05 0.08 0.10 0.14 0.14 0.09 0.13 0.42 0.70 0.58
0.04 0.06 0.04 0.03 0.01 0.04 0.04 0.05 0.02 0.01 0.04 0.13 0.03 0.04 0.07 0.03 0.05 0.07 0.08 0.06 0.06 0.04 0.03 0.04 0.05 0.02 0.03 0.13 0.09 0.06 0.08 0.09 0.13 0.13 0.13 0.09 0.13 0.13 0.10 0.09 0.12 0.20 0.42 0.86
0.04 0.07 0.02 0.00 0.01 0.01 0.08 0.21 0.21 0.18 0.12 0.08 0.01 0.07 0.06 0.12 0.23 0.24 0.25 0.15 0.11 0.06 0.03 0.02 0.03 0.03 0.02 0.12 0.23 0.16 0.20 0.21 0.16 0.13 0.14 0.17 0.17 0.15 0.15 0.16 0.28 0.38 0.49 0.82
0.09 0.06 0.00 0.00 0.00 0.03 0.03 0.11 0.16 0.23 0.15 0.09 0.13 0.16 0.30 0.58 0.22 0.14 0.22 0.22 0.20 0.16 0.05 0.04 0.06 0.09 0.08 0.06 0.14 0.27 0.44 0.47 0.44 0.37 0.34 0.37 0.41 0.40 0.40 0.44 0.63 0.62 0.46 0.45
0.05 0.02 0.00 0.00 0.00 0.04 0.17 0.16 0.08 0.26 0.20 0.16 0.11 0.05 0.31 0.45 0.20 0.19 0.27 0.24 0.14 0.13 0.14 0.12 0.08 0.10 0.13 0.13 0.32 0.39 0.37 0.31 0.46 0.61 0.51 0.55 0.61 0.68 0.81 0.78 0.81 0.77 0.54 0.38
0.06 0.12 0.02 0.00 0.01 0.01 0.09 0.23 0.58 0.66 0.43 0.20 0.02 0.17 0.41 0.27 0.12 0.08 0.12 0.20 0.09 0.03 0.03 0.04 0.07 0.15 0.23 0.57 0.94 1.05 0.91 0.74 0.70 0.79 0.73 0.78 0.86 0.86 0.89 0.77 0.90 0.81 0.76 0.73
0.04 0.09 0.07 0.05 0.03 0.05 0.11 0.31 0.58 0.61 0.25 0.31 0.21 0.67 0.74 0.45 0.21 0.08 0.05 0.08 0.07 0.01 0.02 0.02 0.09 0.17 0.36 0.50 0.80 1.04 1.26 1.63 1.40 1.37 1.42 1.19 1.00 1.13 1.13 1.09 1.07 1.09 0.98 1.00
0.15 0.13 0.07 0.01 0.00 0.00 0.07 0.15 0.40 0.82 0.61 0.36 0.33 0.63 0.61 0.37 0.09 0.01 0.01 0.02 0.04 0.03 0.04 0.04 0.05 0.09 0.31 0.54 0.69 0.82 1.13 1.80 1.70 1.31 1.55 1.67 1.40 1.70 2.06 2.10 1.79 1.91 1.85 1.61
0.08 0.19 0.19 0.10 0.11 0.08 0.09 0.17 0.29 0.48 0.60 0.49 0.56 0.53 0.77 0.32 0.08 0.02 0.01 0.04 0.04 0.06 0.06 0.07 0.09 0.12 0.20 0.37 0.58 0.74 1.06 1.57 1.75 1.93 1.81 1.65 1.39 1.75 1.58 1.21 0.99 0.86 0.81 0.78
0.15 0.08 0.11 0.15 0.23 0.29 0.20 0.14 0.21 0.69 1.00 0.61 0.42 0.29 0.90 1.08 0.60 0.29 0.12 0.08 0.10 0.10 0.14 0.15 0.16 0.19 0.25 0.42 0.58 0.74 1.26 1.48 1.40 1.70 1.73 1.52 1.37 1.28 1.03 0.87 0.78 0.65 0.57 0.35
0.32 0.20 0.08 0.04 0.02 0.10 0.19 0.18 0.16 0.26 0.34 0.53 0.21 0.31 0.61 1.12 1.16 0.74 0.24 0.10 0.12 0.13 0.12 0.20 0.21 0.21 0.23 0.30 0.36 0.45 0.58 1.06 1.20 1.45 1.91 1.81 1.56 1.42 1.52 1.53 1.41 0.88 0.76 0.65
0.54 0.38 0.14 0.07 0.03 0.03 0.03 0.04 0.20 0.22 0.17 0.20 0.12 0.36 0.65 0.80 0.90 0.68 0.54 0.29 0.21 0.19 0.16 0.16 0.16 0.16 0.18 0.19 0.17 0.25 0.35 0.42 0.61 0.70 1.15 1.59 1.97 1.28 1.34 1.60 1.81 1.35 0.93 0.99
0.52 0.67 0.47 0.21 0.06 0.06 0.04 0.05 0.08 0.15 0.23 0.35 0.44 0.37 0.33 0.43 0.59 0.43 0.44 0.36 0.34 0.37 0.19 0.17 0.18 0.17 0.19 0.19 0.17 0.23 0.31 0.31 0.42 0.57 0.95 1.10 1.38 1.79 1.38 1.55 1.66 1.90 1.57 1.24
0.56 0.50 0.56 0.38 0.17 0.24 0.08 0.16 0.26 0.27 0.42 0.51 0.56 0.44 0.38 0.32 0.67 0.73 0.38 0.45 0.49 0.56 0.66 0.33 0.25 0.22 0.20 0.22 0.22 0.23 0.27 0.31 0.39 0.51 0.69 0.84 0.78 1.29 1.63 1.31 1.24 1.29 1.45 1.54
0.33 0.49 0.62 0.55 0.50 0.23 0.14 0.27 0.53 0.61 0.60 0.44 0.38 0.33 0.29 0.28 0.35 0.70 0.66 0.48 0.56 0.66 0.82 1.04 0.54 0.35 0.37 0.29 0.27 0.27 0.28 0.33 0.37 0.59 0.77 0.95 1.05 1.07 1.16 1.42 1.28 1.37 1.27 1.26
0.32 0.41 0.73 0.53 0.73 0.56 0.72 0.26 0.21 0.60 0.67 0.31 0.30 0.31 0.35 0.33 0.44 0.47 0.58 0.70 0.84 0.78 0.63 0.59 0.87 0.80 0.63 0.64 0.43 0.31 0.31 0.31 0.42 0.52 0.65 0.78 0.95 1.13 1.35 1.65 1.77 1.67 1.53 1.28
0.30 0.37 0.44 0.42 0.62 0.61 0.46 0.26 0.34 0.69 0.71 0.24 0.33 0.36 0.43 0.64 0.58 0.80 0.85 0.96 1.08 0.59 0.46 0.50 0.43 0.58 0.77 0.77 0.83 0.69 0.52 0.49 0.55 0.58 0.61 0.68 0.80 1.03 1.19 1.23 1.39 1.63 1.81 1.77
0.61 0.50 0.50 0.62 0.88 0.69 0.11 0.28 0.59 0.78 0.43 0.29 0.37 0.37 0.39 0.46 0.39 0.62 0.71 0.89 0.91 0.66 0.37 0.29 0.32 0.28 0.26 0.24 0.32 0.65 0.84 0.84 0.73 0.68 0.66 0.79 0.84 0.92 1.02 1.05 1.08 1.08 1.21 1.52
1.37 1.14 1.18 0.80 0.74 0.49 0.29 0.41 0.47 0.40 0.41 0.44 0.59 0.62 0.53 0.53 0.78 0.82 0.83 0.91 1.04 0.69 0.21 0.10 0.10 0.06 0.05 0.07 0.09 0.16 0.31 0.51 0.62 0.70 0.80 0.77 0.71 0.65 0.60 0.64 0.80 0.92 0.96 0.94
0.56 0.53 0.93 0.86 0.66 0.38 0.53 0.44 0.25 0.25 0.28 0.30 0.31 0.74 1.05 1.19 1.16 1.21 1.20 0.94 0.77 0.55 0.19 0.07 0.02 0.01 0.06 0.10 0.12 0.13 0.12 0.11 0.14 0.17 0.25 0.28 0.32 0.37 0.34 0.39 0.46 0.48 0.58 0.70
0.36 0.59 0.52 0.85 0.91 0.67 0.64 0.93 0.59 0.40 0.30 0.31 0.32 0.25 0.39 0.53 0.59 0.41 0.42 0.50 0.53 0.56 0.39 0.16 0.12 0.15 0.17 0.12 0.12 0.14 0.14 0.12 0.15 0.14 0.17 0.18 0.20 0.25 0.27 0.33 0.43 0.41 0.59 0.62
0.37 0.91 0.86 0.80 1.02 1.16 1.23 0.81 0.64 0.72 0.58 0.43 0.21 0.17 0.22 0.31 0.34 0.36 0.34 0.31 0.36 0.47 0.45 0.36 0.32 0.27 0.22 0.19 0.24 0.24 0.21 0.18 0.18 0.17 0.19 0.24 0.18 0.19 0.22 0.22 0.35 0.55 0.63 0.59

GFSCGP_prec_precacc_111.txt.gz
Total_Precipitation_Accumulation
0.00 0.00 0.00 0.00 0.00 0.00 0.00 0.00 0.00 0.00 0.00 0.00 0.00 0.02 0.10 0.15 0.04 0.06 0.04 0.14 0.05 0.01 0.02 0.03 0.02 0.02 0.01 0.06 0.04 0.10 0.27 0.28 0.44 0.41 0.29 0.36 0.35 0.57 0.42 0.45 0.54 0.94 1.17 1.88
0.01 0.01 0.00 0.00 0.00 0.00 0.00 0.00 0.00 0.00 0.00 0.00 0.00 0.00 0.02 0.07 0.01 0.01 0.01 0.14 0.03 0.01 0.01 0.01 0.00 0.00 0.01 0.05 0.04 0.02 0.04 0.13 0.21 0.26 0.29 0.18 0.23 0.33 0.51 0.56 0.65 0.72 0.83 1.21
0.04 0.01 0.00 0.01 0.03 0.02 0.01 0.00 0.00 0.00 0.00 0.00 0.01 0.01 0.02 0.02 0.02 0.06 0.01 0.00 0.00 0.00 0.00 0.00 0.00 0.00 0.01 0.01 0.01 0.02 0.03 0.06 0.08 0.16 0.28 0.25 0.37 0.40 0.61 0.73 0.88 0.67 0.72 0.98
0.14 0.02 0.02 0.02 0.02 0.01 0.04 0.00 0.01 0.01 0.02 0.05 0.01 0.08 0.09 0.03 0.01 0.04 0.02 0.00 0.01 0.01 0.01 0.00 0.01 0.01 0.02 0.03 0.03 0.06 0.05 0.05 0.03 0.06 0.10 0.09 0.15 0.13 0.15 0.18 0.47 0.75 0.81 1.21
0.10 0.04 0.06 0.05 0.02 0.02 0.04 0.01 0.03 0.02 0.02 0.05 0.02 0.06 0.10 0.02 0.01 0.02 0.03 0.01 0.02 0.02 0.00 0.00 0.01 0.01 0.02 0.04 0.04 0.03 0.08 0.09 0.04 0.07 0.05 0.08 0.10 0.14 0.14 0.09 0.13 0.42 0.70 0.60
0.04 0.06 0.04 0.03 0.01 0.04 0.04 0.05 0.02 0.01 0.06 0.20 0.04 0.05 0.08 0.03 0.06 0.08 0.10 0.08 0.06 0.04 0.03 0.04 0.05 0.02 0.03 0.13 0.09 0.06 0.08 0.09 0.13 0.13 0.13 0.09 0.13 0.13 0.10 0.09 0.12 0.20 0.42 0.86
0.04 0.07 0.02 0.00 0.01 0.01 0.08 0.21 0.23 0.21 0.16 0.09 0.01 0.09 0.07 0.12 0.26 0.31 0.34 0.25 0.12 0.06 0.03 0.02 0.03 0.03 0.02 0.12 0.23 0.16 0.20 0.21 0.16 0.13 0.14 0.17 0.17 0.15 0.15 0.16 0.28 0.38 0.49 0.82
0.09 0.06 0.00 0.00 0.00 0.03 0.03 0.11 0.17 0.26 0.17 0.11 0.13 0.20 0.32 0.62 0.34 0.49 0.34 0.42 0.27 0.17 0.05 0.04 0.06 0.09 0.08 0.06 0.14 0.27 0.44 0.47 0.44 0.37 0.34 0.37 0.41 0.41 0.41 0.45 0.63 0.62 0.46 0.45
0.05 0.03 0.00 0.00 0.00 0.04 0.17 0.17 0.08 0.28 0.22 0.21 0.12 0.05 0.31 0.78 0.66 0.46 0.36 0.36 0.22 0.14 0.14 0.12 0.08 0.10 0.13 0.13 0.32 0.39 0.37 0.31 0.46 0.61 0.51 0.55 0.61 0.68 0.81 0.79 0.82 0.78 0.55 0.38
0.06 0.12 0.02 0.00 0.01 0.01 0.09 0.23 0.61 0.72 0.45 0.22 0.03 0.26 0.62 0.48 0.65 0.40 0.29 0.23 0.11 0.05 0.03 0.04 0.07 0.15 0.23 0.57 0.94 1.05 0.91 0.74 0.70 0.79 0.73 0.78 0.86 0.86 0.90 0.78 0.93 0.83 0.77 0.73
0.04 0.09 0.07 0.05 0.03 0.05 0.11 0.32 0.60 0.67 0.30 0.33 0.23 0.78 1.11 1.00 0.75 0.33 0.20 0.11 0.07 0.01 0.02 0.02 0.09 0.17 0.36 0.50 0.80 1.04 1.26 1.63 1.40 1.37 1.42 1.19 1.00 1.13 1.13 1.09 1.09 1.12 1.03 1.05
0.16 0.15 0.07 0.01 0.00 0.00 0.07 0.16 0.42 0.89 0.71 0.56 0.44 0.71 0.74 0.55 0.35 0.08 0.02 0.02 0.04 0.03 0.04 0.04 0.05 0.09 0.31 0.54 0.69 0.82 1.13 1.80 1.70 1.31 1.55 1.67 1.40 1.70 2.06 2.10 1.79 1.92 1.87 1.64
0.10 0.25 0.19 0.10 0.12 0.08 0.09 0.17 0.31 0.50 0.61 0.50 0.57 0.56 0.83 0.38 0.12 0.03 0.01 0.04 0.04 0.06 0.06 0.07 0.09 0.12 0.20 0.37 0.58 0.74 1.06 1.57 1.75 1.93 1.81 1.65 1.39 1.75 1.58 1.21 0.99 0.86 0.82 0.79
0.15 0.08 0.11 0.16 0.23 0.29 0.20 0.14 0.21 0.69 1.00 0.61 0.42 0.30 0.92 1.10 0.60 0.29 0.12 0.08 0.10 0.10 0.14 0.15 0.16 0.19 0.25 0.42 0.58 0.74 1.26 1.48 1.40 1.70 1.73 1.52 1.37 1.28 1.03 0.87 0.78 0.65 0.57 0.36
0.33 0.20 0.08 0.04 0.02 0.10 0.19 0.18 0.16 0.26 0.34 0.53 0.21 0.32 0.61 1.12 1.16 0.74 0.24 0.10 0.12 0.13 0.12 0.20 0.21 0.21 0.23 0.30 0.36 0.45 0.58 1.06 1.20 1.45 1.91 1.81 1.56 1.42 1.52 1.53 1.41 0.88 0.76 0.65
0.54 0.38 0.14 0.07 0.03 0.03 0.03 0.04 0.20 0.22 0.17 0.20 0.12 0.36 0.65 0.80 0.90 0.68 0.54 0.29 0.21 0.19 0.16 0.16 0.16 0.16 0.18 0.19 0.18 0.25 0.35 0.42 0.61 0.70 1.16 1.59 1.97 1.28 1.34 1.60 1.81 1.36 0.94 1.02
0.52 0.67 0.47 0.21 0.06 0.06 0.04 0.05 0.08 0.15 0.23 0.35 0.44 0.37 0.33 0.43 0.59 0.43 0.44 0.36 0.34 0.37 0.19 0.17 0.18 0.18 0.19 0.20 0.18 0.24 0.32 0.31 0.42 0.58 0.96 1.11 1.38 1.80 1.39 1.56 1.67 1.92 1.58 1.25
0.56 0.50 0.56 0.38 0.17 0.24 0.08 0.16 0.26 0.27 0.42 0.51 0.56 0.44 0.38 0.32 0.67 0.73 0.38 0.45 0.49 0.56 0.66 0.33 0.26 0.23 0.22 0.24 0.24 0.25 0.28 0.32 0.40 0.52 0.70 0.85 0.79 1.30 1.65 1.32 1.26 1.33 1.49 1.59
0.33 0.49 0.62 0.55 0.50 0.23 0.14 0.27 0.53 0.61 0.60 0.44 0.38 0.33 0.29 0.28 0.35 0.71 0.66 0.48 0.57 0.67 0.83 1.05 0.55 0.37 0.40 0.34 0.31 0.30 0.31 0.34 0.37 0.60 0.80 0.98 1.09 1.11 1.20 1.47 1.32 1.41 1.32 1.30
0.32 0.41 0.73 0.53 0.73 0.57 0.72 0.26 0.21 0.60 0.67 0.31 0.30 0.31 0.35 0.34 0.45 0.48 0.58 0.70 0.85 0.79 0.63 0.61 0.90 0.84 0.69 0.73 0.51 0.37 0.35 0.33 0.43 0.52 0.66 0.80 0.97 1.16 1.39 1.71 1.84 1.73 1.59 1.35
0.30 0.37 0.44 0.42 0.62 0.61 0.46 0.26 0.34 0.69 0.71 0.24 0.33 0.36 0.43 0.66 0.60 0.80 0.85 0.97 1.09 0.60 0.49 0.53 0.48 0.66 0.86 0.83 0.87 0.73 0.54 0.50 0.55 0.58 0.61 0.68 0.80 1.03 1.20 1.24 1.40 1.66 1.85 1.80
0.61 0.50 0.50 0.62 0.88 0.70 0.11 0.28 0.59 0.79 0.43 0.29 0.37 0.38 0.40 0.47 0.41 0.62 0.71 0.90 0.92 0.69 0.40 0.34 0.37 0.34 0.29 0.25 0.33 0.65 0.84 0.84 0.73 0.68 0.66 0.79 0.84 0.92 1.02 1.05 1.08 1.08 1.21 1.52
1.37 1.14 1.18 0.80 0.74 0.49 0.29 0.41 0.47 0.40 0.41 0.44 0.59 0.62 0.53 0.54 0.78 0.83 0.84 0.93 1.06 0.72 0.25 0.13 0.12 0.07 0.05 0.07 0.09 0.16 0.31 0.51 0.62 0.70 0.80 0.77 0.71 0.65 0.60 0.64 0.80 0.92 0.96 0.94
0.56 0.53 0.93 0.87 0.66 0.38 0.53 0.44 0.25 0.25 0.28 0.30 0.31 0.74 1.05 1.20 1.17 1.22 1.22 0.97 0.80 0.58 0.19 0.07 0.02 0.01 0.06 0.10 0.12 0.13 0.12 0.11 0.14 0.17 0.25 0.28 0.32 0.37 0.34 0.39 0.46 0.48 0.58 0.70
0.36 0.59 0.52 0.86 0.91 0.67 0.64 0.93 0.59 0.40 0.30 0.31 0.32 0.25 0.39 0.53 0.59 0.42 0.42 0.51 0.53 0.56 0.39 0.16 0.12 0.15 0.17 0.12 0.12 0.14 0.14 0.12 0.15 0.14 0.17 0.18 0.20 0.25 0.27 0.33 0.43 0.41 0.59 0.62
0.37 0.91 0.86 0.80 1.02 1.16 1.23 0.81 0.64 0.72 0.58 0.43 0.21 0.17 0.22 0.31 0.35 0.36 0.34 0.31 0.36 0.47 0.45 0.36 0.32 0.27 0.22 0.19 0.24 0.24 0.21 0.18 0.18 0.17 0.19 0.24 0.18 0.19 0.22 0.22 0.35 0.55 0.63 0.59

GFSCGP_prec_precacc_114.txt.gz
Total_Precipitation_Accumulation
0.00 0.00 0.00 0.00 0.00 0.00 0.00 0.00 0.00 0.00 0.00 0.00 0.00 0.02 0.10 0.15 0.04 0.06 0.04 0.14 0.05 0.01 0.02 0.03 0.02 0.02 0.01 0.06 0.04 0.10 0.27 0.28 0.44 0.41 0.29 0.36 0.35 0.57 0.42 0.45 0.54 0.94 1.17 1.89
0.01 0.01 0.00 0.00 0.00 0.00 0.00 0.00 0.00 0.00 0.00 0.00 0.00 0.00 0.02 0.07 0.01 0.01 0.01 0.14 0.03 0.01 0.01 0.01 0.00 0.00 0.01 0.05 0.04 0.02 0.04 0.13 0.21 0.26 0.29 0.18 0.23 0.33 0.51 0.56 0.65 0.72 0.83 1.21
0.04 0.01 0.00 0.01 0.03 0.02 0.01 0.00 0.00 0.00 0.00 0.00 0.01 0.01 0.02 0.02 0.02 0.06 0.02 0.00 0.00 0.00 0.00 0.00 0.00 0.00 0.01 0.01 0.01 0.02 0.03 0.06 0.08 0.16 0.28 0.25 0.37 0.40 0.61 0.73 0.88 0.67 0.72 0.98
0.14 0.02 0.02 0.02 0.02 0.01 0.04 0.00 0.01 0.01 0.02 0.05 0.01 0.08 0.09 0.03 0.01 0.04 0.02 0.01 0.05 0.07 0.01 0.00 0.01 0.01 0.02 0.03 0.03 0.06 0.05 0.05 0.03 0.06 0.10 0.09 0.15 0.13 0.15 0.18 0.47 0.75 0.81 1.21
0.10 0.04 0.06 0.05 0.02 0.02 0.04 0.01 0.03 0.02 0.02 0.05 0.02 0.06 0.10 0.02 0.01 0.02 0.03 0.03 0.11 0.13 0.05 0.00 0.01 0.01 0.02 0.04 0.04 0.03 0.08 0.09 0.04 0.07 0.05 0.08 0.10 0.14 0.14 0.09 0.13 0.42 0.70 0.60
0.04 0.06 0.04 0.03 0.01 0.04 0.04 0.05 0.02 0.01 0.06 0.20 0.04 0.05 0.08 0.03 0.06 0.08 0.13 0.11 0.11 0.11 0.06 0.04 0.05 0.02 0.03 0.13 0.09 0.06 0.08 0.09 0.13 0.13 0.13 0.09 0.13 0.13 0.10 0.09 0.12 0.20 0.42 0.86
0.04 0.07 0.02 0.00 0.01 0.01 0.08 0.21 0.24 0.21 0.16 0.09 0.01 0.09 0.07 0.13 0.27 0.33 0.40 0.50 0.27 0.08 0.04 0.02 0.03 0.03 0.02 0.12 0.23 0.16 0.20 0.21 0.16 0.13 0.14 0.17 0.17 0.15 0.15 0.16 0.28 0.38 0.49 0.82
0.09 0.06 0.00 0.00 0.00 0.03 0.03 0.11 0.17 0.26 0.17 0.11 0.13 0.20 0.33 0.67 0.46 0.68 0.57 0.63 0.54 0.24 0.06 0.04 0.06 0.09 0.08 0.06 0.14 0.27 0.44 0.47 0.44 0.37 0.34 0.37 0.41 0.41 0.41 0.45 0.63 0.62 0.46 0.45
0.05 0.03 0.00 0.00 0.00 0.04 0.17 0.17 0.08 0.28 0.22 0.21 0.12 0.05 0.34 0.94 1.26 1.03 0.94 0.70 0.42 0.28 0.17 0.13 0.09 0.11 0.13 0.13 0.32 0.39 0.37 0.31 0.46 0.61 0.51 0.55 0.61 0.68 0.81 0.79 0.82 0.78 0.55 0.38
0.06 0.13 0.02 0.00 0.01 0.01 0.09 0.23 0.62 0.73 0.46 0.23 0.03 0.27 0.75 0.77 1.11 0.90 0.81 0.70 0.45 0.19 0.12 0.08 0.08 0.15 0.23 0.57 0.94 1.05 0.91 0.74 0.70 0.79 0.73 0.78 0.86 0.86 0.90 0.78 0.93 0.83 0.77 0.74
0.05 0.10 0.08 0.05 0.03 0.05 0.11 0.32 0.60 0.67 0.31 0.35 0.24 0.84 1.22 1.12 0.88 0.54 0.48 0.36 0.18 0.03 0.02 0.03 0.09 0.17 0.36 0.50 0.80 1.04 1.26 1.63 1.40 1.37 1.42 1.19 1.00 1.13 1.13 1.09 1.09 1.13 1.04 1.06
0.19 0.17 0.07 0.01 0.00 0.00 0.07 0.16 0.42 0.90 0.72 0.61 0.53 0.86 0.81 0.56 0.39 0.12 0.02 0.04 0.06 0.04 0.04 0.04 0.05 0.09 0.31 0.54 0.69 0.82 1.13 1.80 1.70 1.31 1.55 1.67 1.40 1.70 2.06 2.10 1.79 1.92 1.87 1.64
0.19 0.38 0.29 0.15 0.13 0.08 0.09 0.17 0.31 0.52 0.64 0.52 0.58 0.58 0.85 0.41 0.13 0.04 0.01 0.04 0.04 0.06 0.06 0.07 0.09 0.12 0.20 0.37 0.58 0.74 1.06 1.57 1.75 1.93 1.81 1.65 1.39 1.75 1.58 1.21 0.99 0.86 0.82 0.79
0.18 0.17 0.18 0.19 0.24 0.29 0.20 0.14 0.21 0.70 1.01 0.62 0.42 0.30 0.93 1.11 0.60 0.29 0.12 0.08 0.10 0.10 0.14 0.15 0.16 0.19 0.25 0.42 0.58 0.74 1.26 1.48 1.40 1.70 1.73 1.52 1.37 1.28 1.03 0.87 0.78 0.65 0.57 0.36
0.33 0.21 0.10 0.05 0.02 0.10 0.19 0.18 0.16 0.27 0.34 0.53 0.21 0.32 0.62 1.12 1.16 0.74 0.24 0.10 0.12 0.13 0.12 0.20 0.21 0.21 0.23 0.30 0.36 0.45 0.58 1.06 1.20 1.45 1.91 1.81 1.56 1.43 1.52 1.53 1.41 0.88 0.76 0.65
0.55 0.40 0.16 0.09 0.03 0.03 0.03 0.04 0.20 0.22 0.17 0.20 0.12 0.36 0.65 0.80 0.90 0.68 0.54 0.29 0.21 0.19 0.16 0.16 0.16 0.17 0.18 0.19 0.18 0.25 0.35 0.42 0.61 0.70 1.16 1.60 1.97 1.29 1.34 1.61 1.81 1.36 0.94 1.02
0.52 0.69 0.51 0.25 0.07 0.08 0.04 0.05 0.08 0.15 0.23 0.35 0.44 0.37 0.33 0.43 0.59 0.43 0.44 0.37 0.34 0.37 0.19 0.17 0.19 0.18 0.20 0.21 0.19 0.24 0.32 0.31 0.42 0.58 0.97 1.11 1.39 1.81 1.40 1.56 1.68 1.93 1.59 1.25
0.56 0.50 0.57 0.38 0.18 0.29 0.09 0.16 0.26 0.27 0.42 0.51 0.56 0.44 0.38 0.32 0.67 0.74 0.38 0.45 0.50 0.56 0.67 0.34 0.27 0.25 0.23 0.25 0.25 0.25 0.29 0.33 0.40 0.53 0.71 0.86 0.81 1.32 1.67 1.34 1.28 1.36 1.51 1.60
0.33 0.50 0.63 0.55 0.50 0.23 0.14 0.27 0.53 0.61 0.60 0.44 0.38 0.33 0.29 0.28 0.35 0.72 0.66 0.48 0.57 0.67 0.83 1.06 0.57 0.38 0.41 0.35 0.32 0.32 0.32 0.36 0.38 0.61 0.80 0.99 1.10 1.13 1.22 1.48 1.35 1.44 1.34 1.33
0.32 0.41 0.73 0.53 0.73 0.57 0.72 0.26 0.21 0.60 0.67 0.31 0.30 0.31 0.36 0.34 0.45 0.49 0.59 0.71 0.85 0.79 0.64 0.62 0.90 0.84 0.70 0.74 0.54 0.41 0.40 0.36 0.46 0.53 0.66 0.80 0.97 1.16 1.39 1.71 1.85 1.74 1.60 1.38
0.30 0.37 0.44 0.42 0.62 0.61 0.46 0.26 0.34 0.69 0.71 0.24 0.33 0.36 0.43 0.66 0.60 0.81 0.86 0.98 1.10 0.61 0.50 0.53 0.49 0.68 0.89 0.87 0.91 0.76 0.55 0.51 0.55 0.58 0.61 0.68 0.80 1.03 1.20 1.24 1.40 1.66 1.85 1.80
0.61 0.50 0.50 0.62 0.88 0.70 0.11 0.28 0.59 0.79 0.43 0.29 0.37 0.38 0.40 0.47 0.41 0.62 0.71 0.91 0.93 0.71 0.41 0.35 0.39 0.37 0.31 0.26 0.33 0.65 0.84 0.84 0.73 0.68 0.66 0.79 0.84 0.92 1.02 1.05 1.08 1.08 1.21 1.52
1.37 1.14 1.18 0.80 0.74 0.49 0.29 0.41 0.47 0.40 0.41 0.44 0.59 0.62 0.53 0.54 0.78 0.83 0.84 0.94 1.08 0.74 0.27 0.14 0.13 0.07 0.05 0.07 0.09 0.16 0.31 0.51 0.62 0.70 0.80 0.77 0.71 0.65 0.60 0.64 0.80 0.92 0.96 0.94
0.56 0.53 0.93 0.87 0.66 0.38 0.53 0.44 0.25 0.25 0.28 0.30 0.31 0.74 1.05 1.20 1.17 1.23 1.23 0.98 0.81 0.59 0.20 0.07 0.02 0.01 0.06 0.10 0.12 0.13 0.12 0.11 0.14 0.17 0.25 0.28 0.32 0.37 0.34 0.39 0.46 0.48 0.58 0.70
0.36 0.59 0.52 0.86 0.92 0.67 0.64 0.93 0.59 0.40 0.30 0.31 0.32 0.25 0.39 0.53 0.60 0.42 0.43 0.51 0.53 0.56 0.39 0.16 0.12 0.15 0.17 0.12 0.12 0.14 0.14 0.12 0.15 0.14 0.17 0.18 0.20 0.25 0.27 0.33 0.44 0.42 0.59 0.62
0.37 0.91 0.86 0.80 1.02 1.16 1.23 0.81 0.64 0.72 0.58 0.43 0.21 0.17 0.22 0.31 0.35 0.36 0.34 0.31 0.36 0.47 0.45 0.36 0.32 0.27 0.22 0.19 0.24 0.24 0.21 0.18 0.18 0.17 0.19 0.24 0.18 0.19 0.22 0.22 0.35 0.56 0.63 0.59

GFSCGP_prec_precacc_117.txt.gz
Total_Precipitation_Accumulation
0.00 0.00 0.00 0.00 0.00 0.00 0.00 0.00 0.00 0.00 0.00 0.00 0.00 0.02 0.10 0.15 0.04 0.06 0.04 0.14 0.05 0.01 0.02 0.03 0.02 0.02 0.01 0.06 0.04 0.10 0.27 0.28 0.44 0.41 0.29 0.36 0.35 0.57 0.42 0.45 0.54 0.94 1.17 1.89
0.01 0.01 0.00 0.00 0.00 0.00 0.00 0.00 0.00 0.00 0.00 0.00 0.00 0.00 0.02 0.07 0.01 0.01 0.01 0.14 0.03 0.01 0.01 0.01 0.00 0.00 0.01 0.05 0.04 0.02 0.04 0.13 0.21 0.26 0.29 0.18 0.23 0.33 0.51 0.56 0.65 0.72 0.83 1.21
0.04 0.01 0.00 0.01 0.03 0.02 0.01 0.00 0.00 0.00 0.00 0.00 0.01 0.01 0.02 0.02 0.02 0.06 0.02 0.00 0.00 0.00 0.00 0.00 0.00 0.00 0.01 0.01 0.01 0.02 0.03 0.06 0.08 0.16 0.28 0.25 0.37 0.40 0.61 0.73 0.88 0.67 0.72 0.98
0.14 0.02 0.02 0.02 0.02 0.01 0.04 0.00 0.01 0.01 0.02 0.05 0.01 0.08 0.09 0.03 0.01 0.04 0.02 0.01 0.05 0.07 0.01 0.00 0.01 0.01 0.02 0.03 0.03 0.06 0.05 0.05 0.03 0.06 0.10 0.09 0.15 0.13 0.15 0.18 0.47 0.75 0.81 1.21
0.10 0.04 0.06 0.05 0.02 0.02 0.04 0.01 0.03 0.02 0.02 0.05 0.02 0.06 0.10 0.02 0.01 0.02 0.03 0.03 0.11 0.14 0.08 0.05 0.03 0.02 0.03 0.05 0.04 0.03 0.08 0.09 0.04 0.07 0.05 0.08 0.10 0.14 0.14 0.09 0.13 0.42 0.70 0.60
0.04 0.06 0.04 0.03 0.01 0.04 0.04 0.05 0.02 0.01 0.06 0.20 0.04 0.05 0.08 0.04 0.06 0.08 0.14 0.11 0.12 0.13 0.08 0.09 0.12 0.07 0.06 0.14 0.09 0.06 0.08 0.09 0.13 0.13 0.13 0.09 0.13 0.13 0.10 0.09 0.12 0.20 0.42 0.86
0.04 0.07 0.02 0.00 0.01 0.01 0.08 0.21 0.25 0.21 0.16 0.09 0.01 0.09 0.08 0.15 0.27 0.33 0.43 0.56 0.40 0.24 0.15 0.07 0.04 0.04 0.04 0.14 0.24 0.16 0.20 0.21 0.16 0.13 0.14 0.17 0.17 0.15 0.15 0.16 0.28 0.38 0.49 0.82
0.09 0.06 0.00 0.00 0.00 0.03 0.03 0.11 0.18 0.26 0.17 0.11 0.13 0.20 0.33 0.69 0.47 0.74 0.73 0.84 0.77 0.59 0.37 0.21 0.11 0.10 0.08 0.06 0.14 0.27 0.44 0.47 0.44 0.37 0.34 0.37 0.41 0.41 0.41 0.45 0.63 0.62 0.46 0.45
0.05 0.03 0.00 0.00 0.00 0.04 0.17 0.17 0.08 0.29 0.22 0.21 0.12 0.05 0.36 0.94 1.29 1.09 1.10 0.93 0.67 0.60 0.52 0.44 0.26 0.15 0.13 0.13 0.32 0.39 0.37 0.31 0.46 0.61 0.51 0.55 0.61 0.68 0.81 0.79 0.82 0.78 0.55 0.38
0.06 0.13 0.02 0.00 0.01 0.01 0.09 0.23 0.62 0.74 0.46 0.23 0.03 0.27 0.76 0.78 1.14 0.98 0.95 0.85 0.68 0.48 0.43 0.31 0.24 0.23 0.26 0.58 0.94 1.05 0.91 0.74 0.70 0.79 0.73 0.78 0.86 0.86 0.90 0.78 0.93 0.83 0.77 0.74
0.05 0.10 0.08 0.05 0.03 0.05 0.11 0.32 0.60 0.67 0.31 0.35 0.24 0.84 1.22 1.12 0.89 0.56 0.56 0.50 0.38 0.20 0.12 0.13 0.18 0.24 0.40 0.53 0.82 1.05 1.26 1.63 1.40 1.37 1.42 1.19 1.00 1.13 1.13 1.09 1.09 1.13 1.04 1.06
0.22 0.20 0.08 0.01 0.00 0.01 0.07 0.16 0.42 0.90 0.72 0.61 0.53 0.87 0.81 0.56 0.40 0.12 0.02 0.04 0.09 0.08 0.08 0.07 0.07 0.10 0.31 0.54 0.69 0.82 1.13 1.80 1.70 1.31 1.55 1.67 1.40 1.70 2.06 2.10 1.79 1.92 1.87 1.64
0.22 0.42 0.32 0.19 0.16 0.10 0.11 0.17 0.31 0.52 0.65 0.53 0.58 0.58 0.86 0.42 0.13 0.04 0.01 0.04 0.04 0.06 0.06 0.07 0.09 0.12 0.20 0.37 0.58 0.74 1.06 1.57 1.75 1.93 1.81 1.65 1.39 1.75 1.58 1.21 0.99 0.86 0.82 0.79
0.23 0.18 0.18 0.20 0.26 0.30 0.21 0.15 0.21 0.70 1.02 0.62 0.42 0.30 0.94 1.14 0.60 0.29 0.12 0.08 0.10 0.10 0.14 0.15 0.16 0.19 0.25 0.42 0.58 0.74 1.26 1.48 1.40 1.70 1.73 1.52 1.37 1.28 1.03 0.87 0.78 0.65 0.57 0.36
0.34 0.21 0.10 0.07 0.07 0.15 0.23 0.20 0.17 0.27 0.34 0.54 0.21 0.32 0.62 1.12 1.16 0.74 0.24 0.10 0.12 0.13 0.12 0.20 0.21 0.21 0.23 0.30 0.36 0.45 0.58 1.06 1.20 1.45 1.91 1.81 1.56 1.43 1.52 1.53 1.41 0.88 0.76 0.65
0.55 0.40 0.16 0.09 0.03 0.03 0.04 0.05 0.20 0.22 0.17 0.20 0.12 0.36 0.65 0.80 0.90 0.68 0.54 0.29 0.21 0.19 0.16 0.16 0.16 0.17 0.18 0.20 0.18 0.25 0.35 0.43 0.61 0.70 1.16 1.60 1.97 1.29 1.34 1.61 1.81 1.36 0.94 1.02
0.52 0.69 0.52 0.27 0.09 0.22 0.16 0.05 0.08 0.15 0.23 0.35 0.44 0.37 0.33 0.43 0.59 0.44 0.44 0.37 0.34 0.37 0.19 0.17 0.19 0.19 0.21 0.22 0.20 0.25 0.33 0.32 0.42 0.58 0.97 1.11 1.39 1.81 1.40 1.57 1.68 1.93 1.59 1.26
0.56 0.50 0.59 0.40 0.20 0.37 0.12 0.16 0.26 0.27 0.42 0.51 0.56 0.44 0.38 0.32 0.67 0.74 0.38 0.45 0.50 0.56 0.67 0.34 0.27 0.25 0.24 0.26 0.26 0.27 0.30 0.34 0.40 0.53 0.71 0.86 0.81 1.32 1.68 1.34 1.28 1.36 1.52 1.61
0.33 0.50 0.64 0.56 0.52 0.24 0.14 0.27 0.53 0.61 0.60 0.44 0.38 0.33 0.29 0.28 0.35 0.72 0.66 0.48 0.57 0.67 0.84 1.07 0.57 0.39 0.43 0.36 0.33 0.34 0.34 0.39 0.39 0.61 0.80 0.99 1.10 1.13 1.22 1.48 1.35 1.44 1.34 1.33
0.32 0.41 0.74 0.54 0.74 0.57 0.72 0.26 0.21 0.60 0.67 0.31 0.30 0.31 0.36 0.34 0.45 0.49 0.59 0.71 0.86 0.80 0.65 0.62 0.91 0.85 0.71 0.76 0.55 0.42 0.41 0.37 0.46 0.53 0.66 0.80 0.97 1.16 1.39 1.71 1.85 1.74 1.60 1.38
0.30 0.38 0.44 0.42 0.62 0.61 0.46 0.26 0.34 0.69 0.71 0.24 0.33 0.36 0.43 0.66 0.60 0.81 0.86 0.98 1.11 0.62 0.51 0.54 0.49 0.69 0.91 0.87 0.91 0.76 0.55 0.51 0.55 0.59 0.61 0.68 0.80 1.03 1.20 1.24 1.40 1.66 1.85 1.80
0.61 0.50 0.50 0.62 0.88 0.70 0.11 0.28 0.59 0.79 0.43 0.29 0.37 0.38 0.40 0.47 0.42 0.63 0.72 0.92 0.95 0.72 0.42 0.35 0.39 0.37 0.32 0.26 0.33 0.65 0.84 0.84 0.73 0.68 0.66 0.79 0.84 0.92 1.02 1.05 1.08 1.08 1.21 1.52
1.37 1.14 1.18 0.80 0.74 0.49 0.29 0.41 0.47 0.40 0.41 0.44 0.59 0.62 0.53 0.54 0.79 0.84 0.86 0.95 1.09 0.75 0.27 0.14 0.13 0.07 0.05 0.07 0.09 0.16 0.31 0.51 0.62 0.70 0.80 0.77 0.71 0.65 0.60 0.64 0.80 0.92 0.96 0.94
0.56 0.53 0.93 0.87 0.66 0.38 0.53 0.44 0.25 0.25 0.28 0.30 0.31 0.74 1.05 1.20 1.17 1.23 1.23 0.98 0.81 0.59 0.20 0.07 0.02 0.01 0.06 0.10 0.12 0.13 0.12 0.11 0.14 0.17 0.25 0.28 0.32 0.37 0.34 0.40 0.46 0.48 0.58 0.70
0.36 0.59 0.52 0.86 0.92 0.67 0.65 0.93 0.59 0.40 0.30 0.31 0.32 0.25 0.39 0.53 0.60 0.42 0.43 0.51 0.53 0.56 0.39 0.16 0.12 0.15 0.17 0.12 0.12 0.14 0.14 0.12 0.15 0.14 0.17 0.18 0.20 0.25 0.27 0.34 0.44 0.42 0.59 0.62
0.37 0.91 0.86 0.80 1.02 1.16 1.23 0.81 0.64 0.72 0.58 0.43 0.21 0.17 0.22 0.31 0.35 0.36 0.34 0.31 0.36 0.47 0.45 0.36 0.32 0.27 0.22 0.19 0.24 0.24 0.21 0.18 0.18 0.17 0.19 0.24 0.18 0.19 0.22 0.22 0.35 0.56 0.63 0.59

GFSCGP_prec_precacc_120.txt.gz
Total_Precipitation_Accumulation
0.00 0.00 0.00 0.00 0.00 0.00 0.00 0.00 0.00 0.00 0.00 0.00 0.00 0.02 0.10 0.15 0.04 0.06 0.04 0.14 0.05 0.01 0.02 0.03 0.02 0.02 0.01 0.06 0.04 0.10 0.27 0.28 0.44 0.41 0.29 0.36 0.35 0.57 0.42 0.45 0.54 0.94 1.17 1.89
0.01 0.01 0.00 0.00 0.00 0.00 0.00 0.00 0.00 0.00 0.00 0.00 0.00 0.00 0.02 0.07 0.01 0.01 0.01 0.14 0.03 0.01 0.01 0.01 0.00 0.00 0.01 0.05 0.04 0.02 0.04 0.13 0.21 0.26 0.29 0.18 0.23 0.33 0.51 0.56 0.65 0.72 0.83 1.21
0.04 0.01 0.00 0.01 0.03 0.02 0.01 0.00 0.00 0.00 0.00 0.00 0.01 0.01 0.02 0.02 0.02 0.06 0.02 0.00 0.00 0.00 0.00 0.00 0.00 0.00 0.01 0.01 0.01 0.02 0.03 0.06 0.08 0.16 0.28 0.25 0.37 0.40 0.61 0.73 0.88 0.67 0.72 0.98
0.14 0.02 0.02 0.02 0.02 0.01 0.04 0.00 0.01 0.01 0.02 0.05 0.01 0.08 0.09 0.03 0.01 0.04 0.02 0.01 0.05 0.07 0.01 0.00 0.01 0.01 0.03 0.04 0.04 0.06 0.06 0.06 0.03 0.06 0.10 0.09 0.15 0.13 0.15 0.18 0.47 0.75 0.81 1.21
0.10 0.04 0.06 0.05 0.02 0.02 0.04 0.01 0.03 0.02 0.02 0.05 0.02 0.06 0.10 0.02 0.01 0.02 0.04 0.03 0.12 0.14 0.08 0.05 0.04 0.04 0.04 0.05 0.05 0.05 0.11 0.12 0.05 0.07 0.05 0.08 0.10 0.14 0.14 0.09 0.13 0.42 0.70 0.60
0.04 0.06 0.04 0.03 0.01 0.04 0.04 0.05 0.02 0.01 0.06 0.20 0.04 0.05 0.08 0.04 0.07 0.09 0.15 0.14 0.15 0.16 0.11 0.13 0.15 0.09 0.07 0.14 0.09 0.06 0.09 0.10 0.14 0.13 0.13 0.09 0.13 0.13 0.10 0.09 0.12 0.20 0.42 0.86
0.04 0.07 0.02 0.00 0.01 0.01 0.08 0.21 0.26 0.22 0.16 0.09 0.01 0.09 0.08 0.15 0.28 0.33 0.43 0.57 0.45 0.31 0.23 0.15 0.12 0.10 0.09 0.18 0.29 0.21 0.22 0.22 0.16 0.13 0.14 0.17 0.17 0.15 0.15 0.16 0.28 0.38 0.49 0.82
0.09 0.06 0.00 0.00 0.00 0.03 0.03 0.11 0.19 0.27 0.17 0.11 0.13 0.20 0.33 0.69 0.47 0.74 0.73 0.85 0.81 0.66 0.48 0.34 0.23 0.20 0.15 0.11 0.17 0.30 0.48 0.51 0.45 0.37 0.34 0.37 0.41 0.41 0.41 0.45 0.63 0.62 0.46 0.45
0.05 0.03 0.00 0.00 0.00 0.04 0.17 0.17 0.08 0.31 0.24 0.23 0.12 0.05 0.36 0.95 1.29 1.09 1.10 0.93 0.68 0.62 0.57 0.50 0.38 0.27 0.22 0.18 0.33 0.39 0.37 0.31 0.46 0.61 0.51 0.55 0.61 0.68 0.81 0.79 0.82 0.78 0.55 0.38
0.06 0.13 0.02 0.00 0.01 0.01 0.09 0.23 0.62 0.76 0.47 0.23 0.03 0.27 0.76 0.78 1.15 0.99 0.95 0.87 0.69 0.49 0.44 0.32 0.25 0.27 0.30 0.62 0.97 1.06 0.91 0.74 0.70 0.79 0.73 0.78 0.86 0.86 0.90 0.78 0.93 0.83 0.77 0.74
0.05 0.10 0.08 0.05 0.03 0.05 0.11 0.32 0.60 0.68 0.31 0.35 0.24 0.84 1.22 1.12 0.89 0.56 0.56 0.51 0.39 0.20 0.13 0.14 0.19 0.26 0.44 0.57 0.84 1.06 1.28 1.65 1.41 1.37 1.42 1.19 1.00 1.13 1.13 1.09 1.09 1.13 1.04 1.06
0.22 0.23 0.09 0.02 0.00 0.01 0.08 0.16 0.43 0.91 0.73 0.61 0.53 0.87 0.81 0.56 0.40 0.12 0.02 0.04 0.09 0.08 0.08 0.07 0.07 0.10 0.32 0.55 0.70 0.82 1.13 1.80 1.70 1.31 1.55 1.67 1.40 1.70 2.06 2.10 1.79 1.92 1.87 1.64
0.28 0.47 0.34 0.19 0.16 0.10 0.11 0.17 0.31 0.53 0.69 0.55 0.58 0.58 0.86 0.42 0.13 0.04 0.01 0.04 0.04 0.06 0.06 0.07 0.09 0.12 0.20 0.37 0.58 0.75 1.06 1.57 1.75 1.93 1.82 1.65 1.39 1.76 1.58 1.21 0.99 0.86 0.82 0.79
0.28 0.21 0.19 0.21 0.26 0.30 0.21 0.15 0.23 0.77 1.15 0.64 0.43 0.30 0.94 1.14 0.60 0.29 0.12 0.08 0.10 0.10 0.14 0.15 0.16 0.19 0.25 0.42 0.58 0.74 1.26 1.48 1.40 1.70 1.73 1.52 1.37 1.28 1.03 0.88 0.78 0.65 0.57 0.36
0.39 0.24 0.11 0.07 0.07 0.15 0.23 0.21 0.21 0.37 0.43 0.60 0.23 0.32 0.62 1.12 1.16 0.74 0.24 0.10 0.12 0.13 0.12 0.20 0.21 0.22 0.23 0.30 0.36 0.45 0.58 1.06 1.20 1.46 1.91 1.81 1.56 1.43 1.52 1.54 1.41 0.88 0.76 0.65
0.56 0.42 0.16 0.09 0.03 0.04 0.05 0.05 0.21 0.25 0.22 0.26 0.14 0.37 0.65 0.80 0.90 0.68 0.54 0.29 0.21 0.19 0.16 0.16 0.16 0.17 0.19 0.20 0.19 0.26 0.36 0.43 0.61 0.70 1.16 1.60 1.97 1.29 1.34 1.61 1.81 1.36 0.94 1.02
0.53 0.70 0.53 0.28 0.09 0.24 0.21 0.05 0.08 0.15 0.23 0.35 0.44 0.37 0.33 0.44 0.59 0.44 0.44 0.37 0.34 0.37 0.20 0.17 0.19 0.19 0.21 0.23 0.21 0.26 0.34 0.32 0.42 0.58 0.97 1.11 1.39 1.81 1.40 1.57 1.68 1.93 1.59 1.26
0.58 0.52 0.62 0.43 0.23 0.43 0.12 0.16 0.26 0.27 0.42 0.51 0.56 0.44 0.38 0.32 0.68 0.74 0.38 0.45 0.50 0.56 0.67 0.34 0.28 0.25 0.24 0.27 0.28 0.28 0.32 0.35 0.40 0.53 0.71 0.86 0.81 1.32 1.68 1.34 1.28 1.36 1.52 1.61
0.33 0.51 0.67 0.58 0.54 0.25 0.14 0.27 0.53 0.61 0.60 0.44 0.38 0.33 0.29 0.28 0.35 0.73 0.66 0.48 0.57 0.68 0.84 1.07 0.58 0.40 0.43 0.37 0.35 0.36 0.37 0.41 0.39 0.61 0.80 0.99 1.10 1.13 1.22 1.48 1.35 1.44 1.34 1.33
0.32 0.41 0.77 0.57 0.75 0.58 0.72 0.26 0.21 0.60 0.67 0.31 0.30 0.31 0.36 0.34 0.45 0.49 0.59 0.71 0.86 0.80 0.65 0.63 0.92 0.86 0.71 0.77 0.56 0.43 0.42 0.37 0.46 0.53 0.66 0.80 0.97 1.16 1.39 1.71 1.85 1.74 1.60 1.38
0.33 0.41 0.46 0.43 0.62 0.61 0.46 0.26 0.34 0.69 0.71 0.24 0.33 0.36 0.43 0.66 0.60 0.81 0.86 0.98 1.11 0.62 0.52 0.54 0.50 0.70 0.92 0.88 0.91 0.76 0.55 0.51 0.55 0.59 0.61 0.68 0.80 1.03 1.20 1.24 1.40 1.66 1.85 1.80
0.62 0.51 0.51 0.63 0.89 0.70 0.11 0.28 0.59 0.79 0.43 0.29 0.37 0.38 0.40 0.47 0.42 0.63 0.72 0.92 0.95 0.73 0.42 0.35 0.39 0.38 0.32 0.26 0.33 0.65 0.84 0.84 0.73 0.68 0.66 0.79 0.84 0.92 1.02 1.05 1.08 1.08 1.21 1.52
1.37 1.14 1.18 0.80 0.74 0.49 0.29 0.41 0.47 0.40 0.41 0.44 0.59 0.62 0.53 0.54 0.79 0.84 0.86 0.95 1.09 0.75 0.27 0.14 0.13 0.07 0.05 0.07 0.09 0.16 0.31 0.51 0.62 0.70 0.80 0.77 0.71 0.65 0.60 0.64 0.80 0.92 0.96 0.94
0.56 0.53 0.93 0.87 0.66 0.38 0.53 0.44 0.25 0.25 0.28 0.30 0.31 0.74 1.05 1.20 1.17 1.23 1.24 0.99 0.81 0.59 0.20 0.07 0.02 0.01 0.06 0.10 0.12 0.13 0.12 0.11 0.14 0.17 0.25 0.28 0.32 0.37 0.34 0.40 0.46 0.48 0.58 0.70
0.36 0.59 0.52 0.86 0.92 0.67 0.65 0.93 0.59 0.40 0.30 0.31 0.32 0.25 0.39 0.53 0.60 0.42 0.43 0.51 0.53 0.56 0.39 0.16 0.12 0.15 0.17 0.12 0.12 0.14 0.14 0.12 0.15 0.14 0.17 0.18 0.20 0.25 0.27 0.34 0.44 0.42 0.59 0.62
0.37 0.91 0.86 0.80 1.02 1.16 1.23 0.81 0.64 0.72 0.58 0.43 0.21 0.17 0.22 0.31 0.35 0.36 0.34 0.31 0.36 0.47 0.45 0.36 0.32 0.27 0.22 0.19 0.24 0.24 0.21 0.18 0.18 0.17 0.19 0.24 0.18 0.19 0.22 0.22 0.35 0.56 0.63 0.59

GFSCGP_prec_precacc_123.txt.gz
Total_Precipitation_Accumulation
0.00 0.00 0.00 0.00 0.00 0.00 0.00 0.00 0.00 0.00 0.00 0.00 0.00 0.02 0.10 0.15 0.04 0.06 0.04 0.14 0.05 0.01 0.02 0.03 0.02 0.02 0.01 0.06 0.04 0.10 0.27 0.28 0.44 0.41 0.29 0.36 0.35 0.57 0.42 0.45 0.54 0.94 1.17 1.89
0.01 0.01 0.00 0.00 0.00 0.00 0.00 0.00 0.00 0.00 0.00 0.00 0.00 0.00 0.02 0.07 0.01 0.01 0.01 0.14 0.03 0.01 0.01 0.01 0.00 0.00 0.01 0.05 0.04 0.02 0.04 0.13 0.21 0.26 0.29 0.18 0.23 0.33 0.51 0.56 0.65 0.72 0.83 1.21
0.04 0.01 0.00 0.01 0.03 0.02 0.01 0.00 0.00 0.00 0.00 0.00 0.01 0.01 0.02 0.02 0.02 0.06 0.02 0.00 0.00 0.00 0.00 0.00 0.00 0.00 0.01 0.01 0.01 0.02 0.03 0.06 0.08 0.16 0.28 0.25 0.37 0.40 0.61 0.73 0.88 0.67 0.72 0.98
0.14 0.02 0.02 0.02 0.02 0.01 0.04 0.00 0.01 0.01 0.02 0.05 0.01 0.08 0.09 0.03 0.01 0.04 0.02 0.01 0.05 0.07 0.01 0.00 0.01 0.01 0.03 0.04 0.04 0.06 0.06 0.06 0.04 0.06 0.10 0.09 0.15 0.13 0.15 0.18 0.47 0.75 0.81 1.21
0.10 0.04 0.06 0.05 0.02 0.02 0.04 0.01 0.03 0.02 0.02 0.05 0.02 0.06 0.10 0.02 0.01 0.02 0.04 0.03 0.12 0.14 0.08 0.05 0.04 0.04 0.04 0.05 0.05 0.05 0.11 0.13 0.08 0.10 0.08 0.10 0.11 0.14 0.14 0.09 0.13 0.42 0.70 0.60
0.04 0.06 0.04 0.03 0.01 0.04 0.04 0.05 0.02 0.01 0.06 0.20 0.04 0.05 0.08 0.04 0.07 0.09 0.15 0.14 0.15 0.16 0.11 0.13 0.16 0.09 0.08 0.15 0.09 0.06 0.09 0.11 0.15 0.16 0.18 0.14 0.15 0.14 0.10 0.09 0.12 0.20 0.42 0.86
0.04 0.07 0.02 0.00 0.01 0.01 0.08 0.21 0.27 0.22 0.16 0.09 0.01 0.09 0.08 0.15 0.28 0.33 0.43 0.57 0.45 0.31 0.23 0.16 0.12 0.10 0.10 0.21 0.31 0.23 0.25 0.24 0.17 0.14 0.15 0.19 0.19 0.15 0.15 0.16 0.28 0.38 0.49 0.82
0.09 0.06 0.00 0.00 0.00 0.03 0.03 0.11 0.20 0.27 0.17 0.11 0.13 0.20 0.33 0.69 0.47 0.74 0.73 0.85 0.81 0.66 0.48 0.34 0.24 0.20 0.15 0.11 0.18 0.31 0.49 0.53 0.47 0.40 0.36 0.38 0.41 0.41 0.41 0.45 0.63 0.62 0.46 0.45
0.05 0.03 0.00 0.00 0.00 0.04 0.17 0.17 0.09 0.33 0.26 0.23 0.12 0.05 0.36 0.95 1.29 1.10 1.10 0.93 0.68 0.62 0.57 0.50 0.38 0.27 0.22 0.18 0.35 0.41 0.37 0.31 0.46 0.61 0.52 0.55 0.61 0.68 0.82 0.79 0.82 0.78 0.55 0.38
0.06 0.13 0.02 0.00 0.01 0.01 0.09 0.23 0.63 0.79 0.50 0.23 0.03 0.27 0.76 0.78 1.15 0.99 0.95 0.87 0.69 0.49 0.44 0.32 0.25 0.27 0.30 0.62 0.97 1.06 0.91 0.74 0.70 0.79 0.73 0.78 0.86 0.86 0.90 0.78 0.93 0.83 0.77 0.74
0.05 0.10 0.08 0.05 0.03 0.05 0.11 0.32 0.60 0.69 0.32 0.35 0.24 0.84 1.22 1.12 0.89 0.56 0.56 0.51 0.39 0.20 0.13 0.14 0.19 0.26 0.44 0.57 0.84 1.07 1.28 1.65 1.41 1.37 1.42 1.19 1.00 1.13 1.13 1.09 1.09 1.13 1.04 1.06
0.22 0.23 0.09 0.02 0.00 0.02 0.09 0.17 0.45 0.97 0.78 0.64 0.54 0.87 0.81 0.56 0.40 0.12 0.02 0.04 0.09 0.08 0.08 0.07 0.07 0.10 0.32 0.55 0.70 0.82 1.13 1.80 1.70 1.32 1.55 1.67 1.40 1.70 2.06 2.10 1.79 1.92 1.87 1.64
0.30 0.50 0.38 0.23 0.19 0.11 0.11 0.17 0.33 0.57 0.72 0.57 0.61 0.59 0.86 0.42 0.13 0.04 0.01 0.04 0.04 0.06 0.06 0.07 0.09 0.12 0.20 0.37 0.58 0.75 1.07 1.58 1.75 1.93 1.82 1.65 1.39 1.76 1.58 1.21 0.99 0.86 0.82 0.79
0.30 0.23 0.22 0.24 0.28 0.30 0.21 0.15 0.25 0.81 1.18 0.67 0.44 0.30 0.94 1.14 0.60 0.29 0.12 0.08 0.10 0.10 0.14 0.15 0.16 0.19 0.25 0.42 0.58 0.74 1.26 1.48 1.40 1.70 1.73 1.52 1.37 1.28 1.03 0.88 0.78 0.65 0.57 0.36
0.41 0.25 0.12 0.07 0.08 0.16 0.24 0.21 0.21 0.38 0.43 0.62 0.24 0.33 0.62 1.13 1.17 0.74 0.24 0.10 0.12 0.13 0.12 0.20 0.21 0.22 0.23 0.30 0.36 0.45 0.58 1.06 1.20 1.46 1.91 1.81 1.56 1.43 1.52 1.54 1.41 0.88 0.76 0.66
0.58 0.44 0.17 0.09 0.04 0.05 0.05 0.05 0.21 0.25 0.22 0.28 0.17 0.41 0.66 0.81 0.91 0.68 0.54 0.29 0.21 0.19 0.16 0.16 0.16 0.17 0.19 0.20 0.19 0.26 0.36 0.43 0.61 0.70 1.16 1.60 1.97 1.29 1.34 1.61 1.81 1.36 0.94 1.02
0.56 0.71 0.55 0.29 0.09 0.25 0.22 0.05 0.08 0.15 0.23 0.35 0.44 0.37 0.33 0.44 0.59 0.44 0.44 0.37 0.34 0.37 0.20 0.17 0.19 0.19 0.22 0.23 0.21 0.26 0.34 0.32 0.42 0.58 0.97 1.11 1.39 1.81 1.40 1.57 1.68 1.93 1.59 1.26
0.59 0.56 0.69 0.47 0.26 0.48 0.13 0.16 0.26 0.27 0.42 0.51 0.56 0.44 0.38 0.32 0.68 0.74 0.38 0.45 0.50 0.56 0.67 0.34 0.28 0.26 0.25 0.27 0.28 0.29 0.32 0.35 0.40 0.53 0.71 0.86 0.81 1.32 1.68 1.34 1.28 1.36 1.52 1.61
0.34 0.52 0.73 0.64 0.59 0.26 0.14 0.27 0.53 0.61 0.60 0.44 0.38 0.33 0.29 0.28 0.35 0.73 0.66 0.48 0.57 0.68 0.84 1.07 0.58 0.40 0.44 0.37 0.35 0.36 0.37 0.41 0.39 0.61 0.80 0.99 1.10 1.13 1.22 1.48 1.35 1.44 1.34 1.33
0.43 0.53 0.87 0.65 0.76 0.58 0.72 0.26 0.21 0.60 0.67 0.31 0.30 0.31 0.36 0.34 0.45 0.50 0.60 0.71 0.86 0.80 0.65 0.63 0.92 0.86 0.71 0.77 0.56 0.43 0.42 0.37 0.46 0.53 0.66 0.80 0.97 1.16 1.39 1.71 1.85 1.74 1.60 1.38
0.42 0.54 0.64 0.52 0.64 0.61 0.46 0.26 0.34 0.69 0.71 0.24 0.33 0.36 0.43 0.66 0.60 0.81 0.86 0.98 1.11 0.62 0.52 0.54 0.50 0.70 0.92 0.88 0.91 0.76 0.55 0.51 0.55 0.59 0.61 0.68 0.80 1.03 1.20 1.24 1.40 1.66 1.85 1.80
0.63 0.52 0.52 0.64 0.91 0.70 0.11 0.28 0.59 0.79 0.43 0.29 0.37 0.38 0.40 0.47 0.42 0.63 0.72 0.92 0.96 0.73 0.42 0.35 0.39 0.38 0.32 0.26 0.33 0.65 0.84 0.84 0.73 0.68 0.66 0.79 0.84 0.92 1.02 1.05 1.08 1.08 1.21 1.52
1.37 1.14 1.18 0.80 0.74 0.49 0.29 0.41 0.47 0.40 0.41 0.44 0.59 0.62 0.53 0.54 0.79 0.84 0.86 0.96 1.09 0.75 0.27 0.14 0.13 0.07 0.05 0.07 0.09 0.16 0.31 0.51 0.62 0.70 0.80 0.77 0.71 0.65 0.60 0.64 0.80 0.92 0.96 0.94
0.56 0.53 0.93 0.87 0.66 0.38 0.53 0.44 0.25 0.25 0.28 0.30 0.31 0.74 1.05 1.20 1.17 1.24 1.24 0.99 0.82 0.59 0.20 0.07 0.02 0.01 0.06 0.10 0.12 0.13 0.12 0.11 0.14 0.17 0.25 0.28 0.32 0.37 0.34 0.40 0.46 0.48 0.58 0.70
0.36 0.59 0.52 0.86 0.92 0.67 0.65 0.93 0.59 0.40 0.30 0.31 0.32 0.25 0.39 0.53 0.60 0.42 0.44 0.52 0.53 0.56 0.39 0.16 0.12 0.15 0.17 0.12 0.12 0.14 0.14 0.12 0.15 0.14 0.17 0.18 0.20 0.25 0.27 0.34 0.44 0.42 0.59 0.62
0.37 0.91 0.86 0.80 1.02 1.16 1.23 0.81 0.64 0.72 0.58 0.43 0.21 0.17 0.22 0.31 0.35 0.36 0.34 0.31 0.36 0.47 0.45 0.36 0.32 0.27 0.22 0.19 0.24 0.24 0.21 0.18 0.18 0.17 0.19 0.24 0.18 0.19 0.22 0.22 0.35 0.56 0.63 0.59

GFSCGP_prec_precacc_126.txt.gz
Total_Precipitation_Accumulation
0.00 0.00 0.00 0.00 0.00 0.00 0.00 0.00 0.00 0.00 0.00 0.00 0.00 0.02 0.10 0.15 0.04 0.06 0.04 0.14 0.05 0.01 0.02 0.03 0.02 0.02 0.01 0.06 0.04 0.10 0.27 0.28 0.44 0.41 0.29 0.36 0.36 0.57 0.42 0.45 0.54 0.94 1.17 1.89
0.01 0.01 0.00 0.00 0.00 0.00 0.00 0.00 0.00 0.00 0.00 0.00 0.00 0.00 0.02 0.07 0.01 0.01 0.01 0.14 0.03 0.01 0.01 0.01 0.00 0.00 0.01 0.05 0.04 0.02 0.04 0.13 0.21 0.26 0.29 0.18 0.23 0.33 0.51 0.56 0.65 0.72 0.83 1.21
0.04 0.01 0.00 0.01 0.03 0.02 0.01 0.00 0.00 0.00 0.00 0.00 0.01 0.01 0.02 0.02 0.02 0.06 0.02 0.00 0.00 0.00 0.00 0.00 0.00 0.00 0.01 0.01 0.01 0.02 0.03 0.06 0.08 0.16 0.28 0.25 0.37 0.40 0.61 0.73 0.88 0.67 0.72 0.98
0.14 0.02 0.02 0.02 0.02 0.01 0.04 0.00 0.01 0.01 0.02 0.05 0.01 0.08 0.09 0.03 0.01 0.04 0.02 0.01 0.05 0.07 0.01 0.00 0.01 0.01 0.03 0.04 0.04 0.06 0.06 0.06 0.04 0.06 0.10 0.09 0.15 0.13 0.15 0.18 0.47 0.75 0.81 1.21
0.10 0.04 0.06 0.05 0.02 0.02 0.04 0.01 0.03 0.02 0.02 0.05 0.02 0.06 0.10 0.02 0.01 0.02 0.04 0.04 0.12 0.14 0.08 0.05 0.04 0.04 0.04 0.05 0.05 0.05 0.11 0.13 0.08 0.10 0.08 0.10 0.11 0.14 0.14 0.09 0.13 0.42 0.70 0.60
0.04 0.06 0.04 0.03 0.01 0.04 0.04 0.05 0.02 0.01 0.06 0.20 0.04 0.05 0.08 0.04 0.07 0.09 0.15 0.14 0.15 0.17 0.12 0.13 0.16 0.09 0.08 0.15 0.09 0.06 0.09 0.11 0.15 0.16 0.18 0.14 0.16 0.16 0.12 0.09 0.12 0.20 0.42 0.86
0.04 0.07 0.02 0.00 0.01 0.01 0.08 0.21 0.27 0.22 0.16 0.10 0.01 0.09 0.08 0.15 0.28 0.33 0.43 0.57 0.45 0.31 0.23 0.16 0.12 0.10 0.10 0.21 0.32 0.24 0.25 0.24 0.18 0.14 0.15 0.19 0.20 0.18 0.18 0.19 0.29 0.38 0.49 0.82
0.09 0.06 0.00 0.00 0.00 0.03 0.03 0.11 0.20 0.27 0.17 0.11 0.13 0.20 0.33 0.69 0.47 0.74 0.73 0.85 0.81 0.66 0.49 0.34 0.24 0.20 0.15 0.11 0.18 0.31 0.49 0.53 0.48 0.40 0.36 0.39 0.42 0.41 0.41 0.46 0.65 0.64 0.47 0.45
0.05 0.03 0.00 0.00 0.00 0.04 0.17 0.17 0.09 0.33 0.26 0.24 0.12 0.05 0.36 0.95 1.29 1.10 1.10 0.93 0.68 0.62 0.57 0.50 0.38 0.27 0.22 0.18 0.35 0.41 0.37 0.31 0.46 0.61 0.52 0.55 0.61 0.68 0.82 0.80 0.83 0.79 0.56 0.39
0.06 0.13 0.02 0.00 0.01 0.01 0.09 0.23 0.63 0.81 0.51 0.24 0.03 0.27 0.76 0.78 1.15 0.99 0.96 0.87 0.70 0.49 0.44 0.32 0.25 0.27 0.30 0.62 0.97 1.06 0.91 0.74 0.71 0.79 0.73 0.78 0.86 0.87 0.90 0.78 0.94 0.83 0.78 0.74
0.05 0.10 0.08 0.05 0.03 0.05 0.11 0.33 0.61 0.71 0.33 0.36 0.25 0.84 1.22 1.12 0.89 0.56 0.56 0.51 0.39 0.20 0.13 0.14 0.19 0.26 0.44 0.57 0.84 1.07 1.28 1.65 1.41 1.37 1.42 1.19 1.00 1.13 1.14 1.10 1.09 1.13 1.04 1.06
0.22 0.23 0.10 0.02 0.00 0.02 0.09 0.17 0.47 1.00 0.80 0.66 0.59 0.89 0.81 0.56 0.40 0.12 0.02 0.04 0.09 0.08 0.08 0.07 0.07 0.10 0.32 0.55 0.70 0.82 1.13 1.80 1.70 1.32 1.55 1.67 1.40 1.71 2.06 2.10 1.79 1.93 1.87 1.64
0.31 0.52 0.41 0.25 0.21 0.12 0.12 0.18 0.35 0.61 0.79 0.64 0.69 0.60 0.86 0.42 0.13 0.04 0.01 0.04 0.04 0.06 0.06 0.07 0.09 0.12 0.20 0.37 0.58 0.75 1.07 1.58 1.75 1.93 1.82 1.65 1.39 1.76 1.58 1.21 0.99 0.86 0.82 0.79
0.33 0.25 0.24 0.25 0.30 0.33 0.25 0.18 0.30 0.87 1.24 0.70 0.45 0.31 0.94 1.14 0.60 0.30 0.12 0.08 0.10 0.10 0.14 0.15 0.16 0.19 0.25 0.42 0.58 0.74 1.26 1.48 1.40 1.70 1.73 1.52 1.37 1.28 1.03 0.88 0.78 0.65 0.57 0.36
0.42 0.25 0.12 0.07 0.08 0.17 0.25 0.22 0.22 0.40 0.46 0.67 0.25 0.33 0.62 1.13 1.17 0.75 0.26 0.12 0.12 0.13 0.12 0.20 0.21 0.22 0.23 0.31 0.36 0.45 0.58 1.06 1.20 1.46 1.91 1.81 1.56 1.43 1.52 1.54 1.41 0.88 0.76 0.66
0.60 0.45 0.18 0.10 0.04 0.06 0.06 0.05 0.21 0.26 0.22 0.29 0.18 0.41 0.66 0.81 0.92 0.70 0.55 0.30 0.21 0.19 0.16 0.16 0.16 0.17 0.19 0.20 0.19 0.26 0.36 0.43 0.61 0.70 1.16 1.60 1.97 1.29 1.34 1.61 1.81 1.36 0.94 1.02
0.58 0.73 0.57 0.31 0.10 0.27 0.26 0.05 0.08 0.15 0.23 0.35 0.44 0.37 0.33 0.44 0.59 0.44 0.44 0.37 0.34 0.37 0.20 0.17 0.19 0.19 0.22 0.23 0.21 0.27 0.34 0.32 0.42 0.58 0.97 1.11 1.39 1.81 1.40 1.57 1.68 1.93 1.59 1.26
0.61 0.58 0.75 0.52 0.31 0.57 0.14 0.16 0.26 0.27 0.42 0.51 0.56 0.44 0.38 0.32 0.68 0.74 0.38 0.45 0.50 0.56 0.67 0.34 0.28 0.26 0.25 0.27 0.28 0.29 0.32 0.35 0.40 0.53 0.71 0.86 0.81 1.32 1.68 1.34 1.28 1.36 1.52 1.61
0.34 0.54 0.76 0.67 0.61 0.28 0.14 0.27 0.53 0.61 0.60 0.44 0.38 0.33 0.29 0.28 0.35 0.74 0.66 0.48 0.57 0.68 0.84 1.07 0.58 0.40 0.44 0.37 0.35 0.36 0.37 0.41 0.39 0.61 0.80 0.99 1.10 1.13 1.22 1.48 1.35 1.44 1.34 1.33
0.43 0.54 0.91 0.67 0.79 0.59 0.72 0.26 0.21 0.60 0.67 0.31 0.30 0.31 0.36 0.34 0.46 0.50 0.60 0.71 0.86 0.80 0.65 0.63 0.92 0.86 0.71 0.77 0.56 0.43 0.42 0.37 0.46 0.53 0.66 0.80 0.97 1.16 1.39 1.71 1.85 1.74 1.60 1.38
0.43 0.57 0.68 0.63 0.76 0.67 0.47 0.26 0.34 0.69 0.71 0.24 0.33 0.36 0.43 0.66 0.60 0.81 0.86 0.99 1.11 0.62 0.52 0.55 0.50 0.70 0.92 0.88 0.91 0.76 0.55 0.51 0.55 0.59 0.61 0.68 0.80 1.03 1.20 1.24 1.40 1.66 1.85 1.80
0.66 0.60 0.61 0.77 1.06 0.78 0.11 0.28 0.59 0.79 0.43 0.29 0.37 0.38 0.40 0.47 0.42 0.63 0.72 0.93 0.96 0.73 0.43 0.36 0.40 0.38 0.32 0.26 0.33 0.65 0.84 0.85 0.73 0.68 0.66 0.79 0.84 0.92 1.02 1.05 1.08 1.08 1.21 1.52
1.38 1.15 1.19 0.82 0.76 0.50 0.29 0.41 0.47 0.40 0.41 0.44 0.59 0.62 0.53 0.54 0.79 0.84 0.86 0.96 1.09 0.75 0.27 0.14 0.13 0.07 0.05 0.07 0.09 0.16 0.31 0.51 0.62 0.70 0.80 0.77 0.71 0.65 0.60 0.64 0.80 0.92 0.96 0.94
0.56 0.53 0.93 0.87 0.66 0.38 0.53 0.44 0.25 0.25 0.28 0.30 0.31 0.74 1.05 1.20 1.17 1.24 1.24 0.99 0.82 0.59 0.20 0.07 0.02 0.01 0.06 0.10 0.12 0.13 0.12 0.11 0.14 0.17 0.25 0.28 0.32 0.37 0.34 0.40 0.46 0.48 0.58 0.70
0.37 0.59 0.52 0.86 0.92 0.67 0.65 0.93 0.59 0.40 0.30 0.31 0.32 0.25 0.39 0.53 0.60 0.43 0.44 0.52 0.53 0.56 0.39 0.16 0.12 0.15 0.17 0.12 0.12 0.14 0.14 0.12 0.15 0.14 0.17 0.18 0.20 0.25 0.27 0.34 0.44 0.42 0.59 0.62
0.37 0.91 0.86 0.81 1.02 1.16 1.23 0.81 0.64 0.72 0.58 0.43 0.21 0.17 0.22 0.31 0.35 0.36 0.34 0.31 0.36 0.47 0.45 0.36 0.32 0.27 0.22 0.19 0.24 0.24 0.21 0.18 0.18 0.17 0.19 0.24 0.18 0.19 0.22 0.22 0.35 0.56 0.63 0.59

GFSCGP_prec_precacc_129.txt.gz
Total_Precipitation_Accumulation
0.00 0.00 0.00 0.00 0.00 0.00 0.00 0.00 0.00 0.00 0.00 0.00 0.00 0.02 0.10 0.15 0.04 0.06 0.04 0.14 0.05 0.01 0.02 0.03 0.02 0.02 0.01 0.06 0.04 0.10 0.27 0.28 0.44 0.41 0.29 0.36 0.36 0.57 0.42 0.45 0.54 0.95 1.17 1.89
0.01 0.01 0.00 0.00 0.00 0.00 0.00 0.00 0.00 0.00 0.00 0.00 0.00 0.00 0.02 0.07 0.01 0.01 0.01 0.14 0.03 0.01 0.01 0.01 0.00 0.00 0.01 0.05 0.04 0.02 0.04 0.13 0.21 0.26 0.29 0.18 0.23 0.33 0.51 0.56 0.65 0.72 0.83 1.21
0.04 0.01 0.00 0.01 0.03 0.02 0.01 0.00 0.00 0.00 0.00 0.00 0.01 0.01 0.02 0.02 0.02 0.06 0.02 0.00 0.00 0.00 0.00 0.00 0.00 0.00 0.01 0.01 0.01 0.02 0.03 0.06 0.08 0.16 0.28 0.25 0.37 0.40 0.61 0.73 0.88 0.67 0.72 0.98
0.14 0.02 0.02 0.02 0.02 0.01 0.04 0.00 0.01 0.01 0.02 0.05 0.01 0.08 0.09 0.03 0.01 0.04 0.02 0.01 0.05 0.07 0.01 0.00 0.01 0.01 0.03 0.04 0.04 0.06 0.06 0.06 0.04 0.06 0.10 0.09 0.15 0.13 0.15 0.18 0.47 0.75 0.81 1.21
0.10 0.04 0.06 0.05 0.02 0.02 0.04 0.01 0.03 0.02 0.02 0.05 0.02 0.06 0.10 0.02 0.01 0.02 0.04 0.04 0.12 0.14 0.08 0.05 0.04 0.04 0.04 0.05 0.05 0.05 0.11 0.13 0.08 0.10 0.08 0.10 0.11 0.14 0.14 0.09 0.13 0.42 0.70 0.60
0.04 0.06 0.04 0.03 0.01 0.04 0.04 0.05 0.02 0.01 0.06 0.20 0.04 0.05 0.08 0.04 0.07 0.09 0.15 0.14 0.15 0.17 0.12 0.13 0.16 0.09 0.08 0.15 0.09 0.06 0.09 0.11 0.15 0.16 0.18 0.14 0.16 0.16 0.12 0.09 0.12 0.20 0.42 0.86
0.04 0.07 0.02 0.00 0.01 0.01 0.08 0.21 0.27 0.22 0.16 0.10 0.01 0.09 0.08 0.15 0.28 0.33 0.43 0.57 0.45 0.31 0.23 0.16 0.12 0.10 0.10 0.21 0.32 0.24 0.25 0.24 0.18 0.14 0.15 0.19 0.20 0.18 0.18 0.19 0.29 0.39 0.50 0.82
0.09 0.06 0.00 0.00 0.00 0.03 0.03 0.11 0.20 0.27 0.17 0.11 0.13 0.20 0.33 0.69 0.47 0.74 0.73 0.85 0.81 0.66 0.49 0.34 0.24 0.20 0.15 0.11 0.18 0.31 0.49 0.53 0.48 0.40 0.36 0.39 0.42 0.41 0.41 0.46 0.65 0.64 0.47 0.46
0.05 0.03 0.00 0.00 0.00 0.04 0.17 0.17 0.09 0.33 0.26 0.24 0.12 0.05 0.36 0.95 1.29 1.10 1.10 0.93 0.68 0.62 0.57 0.50 0.38 0.27 0.22 0.18 0.35 0.41 0.37 0.31 0.46 0.61 0.52 0.55 0.61 0.68 0.82 0.80 0.83 0.79 0.56 0.39
0.06 0.13 0.02 0.00 0.01 0.01 0.09 0.23 0.63 0.81 0.51 0.24 0.03 0.27 0.76 0.78 1.15 0.99 0.96 0.87 0.70 0.49 0.44 0.32 0.25 0.27 0.30 0.62 0.97 1.06 0.91 0.74 0.71 0.79 0.73 0.78 0.86 0.87 0.90 0.78 0.94 0.83 0.78 0.74
0.05 0.10 0.08 0.05 0.03 0.05 0.11 0.33 0.61 0.72 0.33 0.36 0.25 0.84 1.22 1.12 0.89 0.56 0.56 0.51 0.39 0.20 0.13 0.14 0.19 0.26 0.44 0.57 0.84 1.07 1.28 1.65 1.41 1.37 1.42 1.19 1.00 1.13 1.14 1.10 1.09 1.13 1.04 1.06
0.22 0.23 0.10 0.02 0.00 0.02 0.09 0.17 0.47 1.01 0.81 0.67 0.60 0.89 0.81 0.56 0.40 0.12 0.02 0.04 0.09 0.08 0.08 0.07 0.07 0.10 0.32 0.55 0.70 0.82 1.13 1.80 1.70 1.32 1.55 1.67 1.40 1.71 2.06 2.10 1.80 1.93 1.88 1.64
0.32 0.53 0.41 0.25 0.22 0.13 0.12 0.18 0.35 0.62 0.82 0.66 0.74 0.62 0.86 0.42 0.13 0.04 0.01 0.04 0.04 0.06 0.06 0.07 0.09 0.12 0.20 0.37 0.58 0.75 1.07 1.58 1.75 1.93 1.82 1.65 1.39 1.76 1.58 1.21 0.99 0.86 0.82 0.79
0.33 0.25 0.25 0.26 0.31 0.37 0.29 0.20 0.32 0.90 1.31 0.75 0.48 0.32 0.94 1.14 0.61 0.30 0.12 0.08 0.10 0.10 0.14 0.15 0.16 0.19 0.25 0.42 0.58 0.74 1.26 1.48 1.40 1.70 1.73 1.52 1.37 1.28 1.03 0.88 0.78 0.65 0.57 0.36
0.43 0.26 0.13 0.07 0.08 0.19 0.27 0.24 0.23 0.43 0.50 0.73 0.28 0.35 0.62 1.13 1.18 0.76 0.26 0.12 0.12 0.14 0.12 0.20 0.21 0.22 0.23 0.31 0.36 0.45 0.58 1.06 1.20 1.46 1.91 1.81 1.56 1.43 1.52 1.54 1.41 0.88 0.76 0.66
0.61 0.46 0.18 0.10 0.04 0.06 0.06 0.05 0.21 0.26 0.22 0.29 0.18 0.42 0.66 0.81 0.92 0.70 0.55 0.30 0.21 0.19 0.16 0.16 0.16 0.17 0.19 0.20 0.19 0.26 0.36 0.43 0.61 0.70 1.16 1.60 1.97 1.29 1.34 1.61 1.81 1.36 0.94 1.02
0.62 0.76 0.60 0.32 0.10 0.28 0.28 0.05 0.08 0.15 0.23 0.35 0.44 0.37 0.33 0.44 0.59 0.44 0.44 0.37 0.34 0.37 0.20 0.18 0.20 0.19 0.22 0.23 0.21 0.27 0.34 0.32 0.42 0.58 0.97 1.11 1.39 1.81 1.40 1.57 1.68 1.93 1.59 1.26
0.66 0.61 0.80 0.56 0.32 0.63 0.16 0.16 0.26 0.27 0.42 0.51 0.56 0.44 0.38 0.32 0.68 0.74 0.38 0.45 0.50 0.57 0.67 0.35 0.28 0.26 0.25 0.27 0.28 0.29 0.32 0.35 0.40 0.53 0.71 0.86 0.81 1.32 1.68 1.34 1.28 1.36 1.52 1.62
0.35 0.57 0.80 0.70 0.63 0.29 0.14 0.27 0.53 0.61 0.61 0.44 0.38 0.33 0.29 0.28 0.35 0.74 0.66 0.48 0.57 0.68 0.84 1.08 0.58 0.40 0.44 0.37 0.35 0.36 0.37 0.41 0.39 0.61 0.80 0.99 1.10 1.13 1.22 1.48 1.35 1.45 1.34 1.33
0.43 0.54 0.95 0.70 0.82 0.60 0.72 0.26 0.21 0.60 0.68 0.31 0.30 0.31 0.36 0.34 0.46 0.50 0.60 0.71 0.86 0.81 0.67 0.65 0.92 0.86 0.71 0.77 0.56 0.43 0.42 0.37 0.46 0.53 0.66 0.80 0.97 1.16 1.39 1.71 1.85 1.75 1.60 1.38
0.45 0.60 0.71 0.64 0.78 0.67 0.47 0.26 0.34 0.70 0.72 0.24 0.33 0.36 0.43 0.66 0.60 0.81 0.86 0.99 1.12 0.63 0.54 0.56 0.50 0.70 0.92 0.88 0.91 0.76 0.55 0.51 0.55 0.59 0.61 0.68 0.80 1.03 1.20 1.24 1.40 1.66 1.85 1.80
0.69 0.64 0.64 0.83 1.12 0.81 0.11 0.28 0.59 0.79 0.43 0.29 0.37 0.38 0.40 0.47 0.42 0.63 0.73 0.93 0.97 0.75 0.44 0.36 0.40 0.38 0.32 0.26 0.33 0.65 0.84 0.85 0.73 0.68 0.66 0.79 0.84 0.92 1.02 1.06 1.08 1.08 1.21 1.52
1.39 1.16 1.22 0.89 0.84 0.52 0.30 0.41 0.47 0.40 0.41 0.44 0.59 0.62 0.53 0.54 0.79 0.85 0.87 0.97 1.10 0.76 0.28 0.15 0.13 0.07 0.05 0.07 0.09 0.16 0.31 0.51 0.62 0.70 0.80 0.77 0.71 0.65 0.60 0.64 0.80 0.92 0.96 0.94
0.57 0.53 0.94 0.88 0.67 0.39 0.53 0.44 0.25 0.25 0.28 0.30 0.31 0.74 1.05 1.20 1.18 1.24 1.25 1.00 0.83 0.60 0.20 0.07 0.02 0.01 0.06 0.10 0.12 0.13 0.12 0.11 0.14 0.17 0.25 0.28 0.32 0.37 0.34 0.40 0.46 0.48 0.58 0.70
0.42 0.62 0.55 0.88 0.93 0.67 0.65 0.93 0.59 0.40 0.30 0.31 0.32 0.25 0.39 0.53 0.60 0.43 0.44 0.52 0.54 0.56 0.39 0.16 0.12 0.15 0.17 0.12 0.12 0.14 0.14 0.12 0.15 0.14 0.17 0.18 0.20 0.25 0.27 0.34 0.44 0.42 0.59 0.62
0.38 0.93 0.87 0.84 1.05 1.18 1.25 0.81 0.64 0.72 0.58 0.43 0.21 0.17 0.22 0.31 0.35 0.36 0.34 0.31 0.37 0.47 0.45 0.36 0.32 0.27 0.22 0.19 0.24 0.24 0.21 0.18 0.18 0.17 0.19 0.24 0.18 0.19 0.22 0.22 0.35 0.56 0.63 0.59

GFSCGP_prec_precacc_132.txt.gz
Total_Precipitation_Accumulation
0.00 0.00 0.00 0.00 0.00 0.00 0.00 0.00 0.00 0.00 0.00 0.00 0.00 0.02 0.10 0.15 0.04 0.06 0.04 0.14 0.05 0.01 0.02 0.03 0.02 0.02 0.01 0.06 0.04 0.10 0.27 0.28 0.44 0.41 0.29 0.36 0.36 0.57 0.42 0.45 0.54 0.95 1.17 1.89
0.01 0.01 0.00 0.00 0.00 0.00 0.00 0.00 0.00 0.00 0.00 0.00 0.00 0.00 0.02 0.07 0.01 0.01 0.01 0.14 0.03 0.01 0.01 0.01 0.00 0.00 0.01 0.05 0.04 0.02 0.04 0.13 0.21 0.26 0.29 0.18 0.23 0.33 0.51 0.56 0.65 0.72 0.83 1.21
0.04 0.01 0.00 0.01 0.03 0.02 0.01 0.00 0.00 0.00 0.00 0.00 0.01 0.01 0.02 0.02 0.02 0.06 0.02 0.00 0.00 0.00 0.00 0.00 0.00 0.00 0.01 0.01 0.01 0.02 0.03 0.06 0.08 0.16 0.28 0.25 0.37 0.40 0.61 0.73 0.88 0.67 0.72 0.98
0.14 0.02 0.02 0.02 0.02 0.01 0.04 0.00 0.01 0.01 0.02 0.05 0.01 0.08 0.09 0.03 0.01 0.04 0.02 0.01 0.05 0.07 0.01 0.00 0.01 0.01 0.03 0.04 0.04 0.06 0.06 0.06 0.04 0.06 0.10 0.09 0.15 0.13 0.15 0.18 0.47 0.75 0.81 1.21
0.10 0.04 0.06 0.05 0.02 0.02 0.04 0.01 0.03 0.02 0.02 0.05 0.02 0.06 0.10 0.02 0.01 0.02 0.04 0.04 0.12 0.14 0.08 0.05 0.04 0.04 0.04 0.05 0.05 0.05 0.11 0.13 0.08 0.10 0.08 0.10 0.11 0.14 0.14 0.09 0.13 0.42 0.70 0.60
0.04 0.06 0.04 0.03 0.01 0.04 0.04 0.05 0.02 0.01 0.06 0.20 0.04 0.05 0.08 0.04 0.07 0.09 0.15 0.14 0.15 0.17 0.12 0.13 0.16 0.09 0.08 0.15 0.09 0.06 0.09 0.11 0.15 0.16 0.18 0.14 0.16 0.16 0.12 0.09 0.12 0.20 0.42 0.86
0.04 0.07 0.02 0.00 0.01 0.01 0.08 0.21 0.27 0.22 0.16 0.10 0.01 0.09 0.08 0.15 0.28 0.33 0.43 0.57 0.45 0.31 0.23 0.16 0.12 0.10 0.10 0.21 0.32 0.24 0.25 0.24 0.18 0.14 0.15 0.19 0.20 0.18 0.18 0.19 0.29 0.39 0.50 0.83
0.09 0.06 0.00 0.00 0.00 0.03 0.03 0.11 0.20 0.27 0.17 0.11 0.13 0.20 0.33 0.69 0.47 0.74 0.73 0.85 0.81 0.66 0.49 0.34 0.24 0.20 0.15 0.11 0.18 0.31 0.49 0.53 0.48 0.40 0.36 0.39 0.42 0.41 0.41 0.46 0.65 0.64 0.47 0.46
0.05 0.03 0.00 0.00 0.00 0.04 0.17 0.17 0.09 0.33 0.26 0.24 0.12 0.05 0.36 0.95 1.29 1.10 1.10 0.93 0.68 0.62 0.57 0.50 0.38 0.27 0.22 0.18 0.35 0.41 0.37 0.31 0.46 0.61 0.52 0.55 0.61 0.68 0.82 0.80 0.83 0.79 0.56 0.39
0.06 0.13 0.02 0.00 0.01 0.01 0.09 0.23 0.63 0.81 0.51 0.24 0.03 0.27 0.76 0.78 1.15 0.99 0.96 0.87 0.70 0.49 0.44 0.32 0.25 0.27 0.30 0.62 0.97 1.06 0.91 0.74 0.71 0.79 0.73 0.78 0.86 0.87 0.90 0.78 0.94 0.83 0.78 0.74
0.05 0.10 0.08 0.05 0.03 0.05 0.11 0.33 0.61 0.72 0.33 0.36 0.25 0.84 1.22 1.12 0.89 0.56 0.56 0.51 0.39 0.20 0.13 0.14 0.19 0.26 0.44 0.57 0.84 1.07 1.28 1.65 1.41 1.37 1.42 1.19 1.00 1.13 1.14 1.10 1.10 1.13 1.04 1.06
0.22 0.23 0.10 0.02 0.00 0.02 0.09 0.17 0.47 1.01 0.81 0.67 0.60 0.90 0.81 0.56 0.40 0.12 0.02 0.04 0.09 0.08 0.08 0.07 0.07 0.10 0.32 0.55 0.70 0.82 1.13 1.80 1.70 1.32 1.55 1.67 1.40 1.71 2.06 2.10 1.80 1.93 1.88 1.64
0.32 0.53 0.41 0.25 0.22 0.13 0.12 0.18 0.35 0.62 0.83 0.66 0.76 0.62 0.86 0.42 0.13 0.04 0.01 0.04 0.04 0.06 0.06 0.07 0.09 0.12 0.20 0.37 0.58 0.75 1.07 1.58 1.75 1.93 1.82 1.65 1.39 1.76 1.58 1.21 0.99 0.86 0.82 0.79
0.33 0.25 0.25 0.26 0.31 0.38 0.31 0.21 0.32 0.92 1.34 0.78 0.50 0.32 0.94 1.14 0.62 0.30 0.12 0.09 0.10 0.10 0.14 0.15 0.16 0.19 0.25 0.42 0.58 0.74 1.26 1.48 1.40 1.70 1.73 1.52 1.37 1.28 1.03 0.88 0.78 0.65 0.57 0.36
0.43 0.26 0.13 0.07 0.08 0.20 0.30 0.26 0.24 0.45 0.53 0.77 0.29 0.37 0.62 1.13 1.20 0.77 0.26 0.12 0.12 0.14 0.12 0.20 0.21 0.22 0.23 0.31 0.36 0.45 0.58 1.06 1.20 1.46 1.91 1.81 1.56 1.43 1.52 1.54 1.41 0.88 0.76 0.66
0.61 0.46 0.18 0.10 0.04 0.06 0.10 0.08 0.21 0.26 0.23 0.29 0.18 0.42 0.66 0.81 0.92 0.70 0.56 0.30 0.21 0.19 0.16 0.16 0.16 0.17 0.19 0.20 0.19 0.26 0.36 0.43 0.61 0.70 1.16 1.60 1.97 1.29 1.34 1.61 1.81 1.36 0.94 1.02
0.63 0.77 0.60 0.34 0.10 0.29 0.30 0.05 0.08 0.15 0.23 0.35 0.44 0.37 0.33 0.44 0.59 0.44 0.44 0.39 0.34 0.37 0.20 0.18 0.20 0.19 0.22 0.23 0.21 0.27 0.34 0.32 0.42 0.58 0.97 1.11 1.39 1.81 1.40 1.57 1.68 1.93 1.59 1.26
0.70 0.69 0.91 0.64 0.35 0.73 0.19 0.16 0.26 0.27 0.42 0.51 0.56 0.44 0.38 0.32 0.68 0.74 0.38 0.46 0.50 0.57 0.67 0.35 0.28 0.26 0.25 0.27 0.28 0.29 0.32 0.35 0.40 0.53 0.71 0.86 0.81 1.32 1.68 1.34 1.29 1.36 1.52 1.62
0.35 0.61 0.96 0.84 0.68 0.31 0.14 0.27 0.53 0.61 0.61 0.44 0.38 0.33 0.29 0.28 0.35 0.74 0.67 0.51 0.59 0.68 0.84 1.08 0.60 0.41 0.45 0.38 0.35 0.36 0.37 0.41 0.39 0.61 0.80 0.99 1.10 1.13 1.22 1.48 1.35 1.45 1.35 1.33
0.43 0.55 1.01 0.78 0.87 0.61 0.72 0.26 0.21 0.61 0.70 0.31 0.30 0.31 0.36 0.34 0.46 0.52 0.60 0.71 0.86 0.81 0.67 0.66 0.94 0.88 0.73 0.78 0.56 0.43 0.42 0.37 0.46 0.53 0.66 0.80 0.97 1.16 1.39 1.71 1.85 1.75 1.60 1.38
0.46 0.60 0.73 0.65 0.80 0.67 0.47 0.26 0.34 0.71 0.72 0.24 0.33 0.36 0.43 0.67 0.61 0.82 0.86 0.99 1.12 0.63 0.54 0.58 0.53 0.73 0.94 0.88 0.91 0.76 0.55 0.51 0.55 0.59 0.61 0.68 0.80 1.03 1.20 1.24 1.40 1.66 1.85 1.80
0.73 0.68 0.66 0.84 1.15 0.82 0.11 0.28 0.60 0.79 0.43 0.29 0.37 0.38 0.40 0.48 0.43 0.63 0.73 0.93 0.97 0.75 0.45 0.38 0.42 0.41 0.33 0.26 0.33 0.65 0.84 0.85 0.73 0.68 0.66 0.79 0.84 0.92 1.02 1.06 1.08 1.08 1.22 1.52
1.39 1.17 1.24 0.92 0.88 0.54 0.30 0.41 0.48 0.40 0.41 0.44 0.59 0.62 0.53 0.54 0.79 0.85 0.87 0.97 1.10 0.76 0.29 0.16 0.14 0.08 0.05 0.07 0.09 0.16 0.31 0.51 0.62 0.70 0.80 0.77 0.71 0.65 0.60 0.64 0.80 0.93 0.97 0.94
0.57 0.53 0.95 0.90 0.67 0.39 0.53 0.44 0.25 0.25 0.28 0.30 0.31 0.74 1.05 1.20 1.18 1.24 1.25 1.01 0.83 0.60 0.20 0.07 0.02 0.01 0.06 0.10 0.12 0.13 0.12 0.11 0.14 0.17 0.25 0.28 0.32 0.37 0.34 0.40 0.46 0.48 0.58 0.70
0.47 0.66 0.60 0.92 0.94 0.69 0.65 0.93 0.59 0.40 0.30 0.31 0.32 0.25 0.39 0.53 0.60 0.43 0.44 0.53 0.54 0.57 0.39 0.16 0.12 0.15 0.17 0.12 0.12 0.14 0.14 0.12 0.15 0.14 0.17 0.18 0.20 0.25 0.27 0.34 0.44 0.42 0.59 0.62
0.39 0.95 0.92 0.87 1.09 1.21 1.31 0.85 0.66 0.72 0.58 0.43 0.21 0.17 0.22 0.31 0.35 0.36 0.35 0.32 0.37 0.47 0.45 0.36 0.32 0.27 0.22 0.19 0.24 0.24 0.21 0.18 0.18 0.17 0.19 0.24 0.18 0.19 0.22 0.22 0.35 0.56 0.63 0.59

GFSCGP_prec_precacc_135.txt.gz
Total_Precipitation_Accumulation
0.00 0.00 0.00 0.00 0.00 0.00 0.00 0.00 0.00 0.00 0.00 0.00 0.00 0.02 0.10 0.15 0.04 0.06 0.04 0.14 0.05 0.01 0.02 0.03 0.02 0.02 0.01 0.06 0.04 0.10 0.27 0.28 0.44 0.41 0.29 0.36 0.36 0.57 0.42 0.45 0.54 0.95 1.17 1.89
0.01 0.01 0.00 0.00 0.00 0.00 0.00 0.00 0.00 0.00 0.00 0.00 0.00 0.00 0.02 0.07 0.01 0.01 0.01 0.14 0.03 0.01 0.01 0.01 0.00 0.00 0.01 0.05 0.04 0.02 0.04 0.13 0.21 0.26 0.29 0.18 0.23 0.33 0.51 0.56 0.65 0.72 0.83 1.21
0.04 0.01 0.00 0.01 0.03 0.02 0.01 0.00 0.00 0.00 0.00 0.00 0.01 0.01 0.02 0.02 0.02 0.06 0.02 0.00 0.00 0.00 0.00 0.00 0.00 0.00 0.01 0.01 0.01 0.02 0.03 0.06 0.08 0.16 0.28 0.25 0.37 0.40 0.61 0.73 0.88 0.67 0.72 0.98
0.14 0.02 0.02 0.02 0.02 0.01 0.04 0.00 0.01 0.01 0.02 0.05 0.01 0.08 0.09 0.03 0.01 0.04 0.02 0.01 0.05 0.07 0.01 0.00 0.01 0.01 0.03 0.04 0.04 0.06 0.06 0.06 0.04 0.06 0.10 0.09 0.15 0.13 0.15 0.18 0.47 0.75 0.81 1.21
0.10 0.04 0.06 0.05 0.02 0.02 0.04 0.01 0.03 0.02 0.02 0.05 0.02 0.06 0.10 0.02 0.01 0.02 0.04 0.04 0.12 0.14 0.08 0.05 0.04 0.04 0.04 0.05 0.05 0.05 0.11 0.13 0.08 0.10 0.08 0.10 0.11 0.14 0.14 0.09 0.13 0.42 0.70 0.60
0.04 0.06 0.04 0.03 0.01 0.04 0.04 0.05 0.02 0.01 0.06 0.20 0.04 0.05 0.08 0.04 0.07 0.09 0.15 0.14 0.15 0.17 0.12 0.13 0.16 0.09 0.08 0.15 0.09 0.06 0.09 0.11 0.15 0.16 0.18 0.14 0.16 0.16 0.12 0.09 0.12 0.20 0.42 0.86
0.04 0.07 0.02 0.00 0.01 0.01 0.08 0.21 0.27 0.22 0.16 0.10 0.01 0.09 0.08 0.15 0.28 0.33 0.43 0.57 0.45 0.31 0.23 0.16 0.12 0.10 0.10 0.21 0.32 0.24 0.25 0.24 0.18 0.14 0.15 0.19 0.20 0.18 0.18 0.19 0.29 0.39 0.50 0.83
0.09 0.06 0.00 0.00 0.00 0.03 0.03 0.11 0.20 0.27 0.17 0.11 0.13 0.20 0.33 0.69 0.47 0.74 0.73 0.85 0.81 0.66 0.49 0.34 0.24 0.20 0.15 0.11 0.18 0.31 0.49 0.53 0.48 0.40 0.36 0.39 0.42 0.41 0.41 0.46 0.65 0.64 0.47 0.46
0.05 0.03 0.00 0.00 0.00 0.04 0.17 0.17 0.09 0.33 0.26 0.24 0.12 0.05 0.36 0.95 1.29 1.10 1.10 0.93 0.68 0.62 0.57 0.50 0.38 0.27 0.22 0.18 0.35 0.41 0.37 0.31 0.46 0.61 0.52 0.55 0.61 0.68 0.82 0.80 0.83 0.79 0.56 0.39
0.06 0.13 0.02 0.00 0.01 0.01 0.09 0.23 0.63 0.81 0.51 0.24 0.03 0.27 0.76 0.78 1.15 0.99 0.96 0.87 0.70 0.49 0.44 0.32 0.25 0.27 0.30 0.62 0.97 1.06 0.91 0.74 0.71 0.79 0.73 0.78 0.86 0.87 0.90 0.78 0.94 0.83 0.78 0.74
0.05 0.10 0.08 0.05 0.03 0.05 0.11 0.33 0.61 0.72 0.33 0.36 0.25 0.84 1.22 1.12 0.89 0.56 0.56 0.51 0.39 0.20 0.13 0.14 0.19 0.26 0.44 0.57 0.84 1.07 1.28 1.65 1.41 1.37 1.42 1.19 1.00 1.13 1.14 1.10 1.10 1.13 1.04 1.06
0.22 0.23 0.10 0.02 0.00 0.02 0.09 0.17 0.47 1.01 0.81 0.67 0.60 0.90 0.81 0.56 0.40 0.12 0.02 0.04 0.09 0.08 0.08 0.07 0.07 0.10 0.32 0.55 0.70 0.82 1.13 1.80 1.70 1.32 1.55 1.67 1.40 1.71 2.06 2.10 1.80 1.93 1.88 1.64
0.32 0.53 0.41 0.25 0.22 0.13 0.12 0.18 0.35 0.62 0.83 0.66 0.76 0.62 0.86 0.42 0.14 0.04 0.02 0.04 0.04 0.06 0.06 0.07 0.09 0.12 0.20 0.37 0.58 0.75 1.07 1.58 1.75 1.93 1.82 1.65 1.39 1.76 1.58 1.21 0.99 0.86 0.82 0.79
0.34 0.25 0.25 0.26 0.31 0.38 0.31 0.21 0.32 0.92 1.35 0.78 0.50 0.32 0.94 1.14 0.63 0.31 0.14 0.11 0.11 0.10 0.14 0.15 0.16 0.19 0.25 0.42 0.58 0.74 1.26 1.48 1.40 1.70 1.73 1.52 1.37 1.28 1.03 0.88 0.78 0.65 0.57 0.36
0.55 0.36 0.16 0.07 0.08 0.20 0.31 0.27 0.24 0.45 0.55 0.80 0.30 0.37 0.62 1.13 1.22 0.78 0.28 0.15 0.15 0.14 0.12 0.20 0.21 0.22 0.23 0.31 0.36 0.45 0.58 1.06 1.20 1.46 1.91 1.81 1.56 1.43 1.52 1.54 1.41 0.88 0.76 0.66
0.68 0.54 0.25 0.12 0.04 0.06 0.11 0.08 0.21 0.26 0.23 0.30 0.19 0.42 0.66 0.81 0.92 0.70 0.56 0.30 0.22 0.19 0.16 0.16 0.16 0.17 0.19 0.20 0.19 0.26 0.36 0.43 0.61 0.70 1.16 1.60 1.97 1.29 1.34 1.61 1.81 1.36 0.94 1.02
0.64 0.77 0.61 0.35 0.10 0.29 0.30 0.06 0.08 0.15 0.23 0.35 0.45 0.38 0.33 0.44 0.59 0.44 0.44 0.39 0.34 0.37 0.20 0.18 0.20 0.19 0.22 0.23 0.21 0.27 0.34 0.32 0.42 0.58 0.97 1.11 1.39 1.81 1.40 1.57 1.68 1.93 1.59 1.26
0.71 0.70 0.93 0.65 0.36 0.74 0.20 0.16 0.26 0.27 0.42 0.51 0.56 0.44 0.38 0.32 0.68 0.74 0.38 0.46 0.50 0.57 0.68 0.35 0.28 0.26 0.25 0.27 0.28 0.29 0.32 0.35 0.40 0.53 0.71 0.86 0.81 1.32 1.68 1.34 1.29 1.36 1.52 1.62
0.35 0.61 0.97 0.89 0.74 0.35 0.15 0.27 0.53 0.62 0.62 0.44 0.38 0.33 0.29 0.28 0.35 0.74 0.67 0.53 0.61 0.69 0.85 1.08 0.60 0.41 0.45 0.38 0.35 0.36 0.37 0.41 0.39 0.61 0.80 0.99 1.10 1.13 1.22 1.48 1.35 1.45 1.35 1.33
0.43 0.55 1.02 0.82 0.97 0.68 0.73 0.26 0.21 0.61 0.71 0.31 0.30 0.31 0.36 0.34 0.46 0.52 0.60 0.72 0.87 0.82 0.67 0.66 0.94 0.88 0.73 0.79 0.57 0.44 0.42 0.37 0.46 0.53 0.66 0.80 0.97 1.16 1.39 1.71 1.85 1.75 1.60 1.38
0.47 0.60 0.74 0.67 0.84 0.70 0.47 0.26 0.34 0.71 0.72 0.24 0.33 0.36 0.43 0.67 0.61 0.82 0.86 0.99 1.12 0.63 0.54 0.58 0.53 0.73 0.94 0.89 0.92 0.76 0.55 0.51 0.55 0.59 0.61 0.68 0.80 1.03 1.20 1.24 1.40 1.66 1.85 1.80
0.76 0.76 0.71 0.87 1.18 0.84 0.11 0.28 0.60 0.79 0.43 0.29 0.37 0.38 0.40 0.48 0.43 0.63 0.73 0.93 0.97 0.75 0.45 0.38 0.42 0.42 0.35 0.27 0.33 0.65 0.84 0.85 0.73 0.68 0.66 0.79 0.84 0.92 1.02 1.06 1.08 1.08 1.22 1.52
1.40 1.18 1.26 0.97 0.90 0.54 0.30 0.41 0.48 0.40 0.41 0.44 0.59 0.62 0.53 0.54 0.79 0.85 0.87 0.97 1.10 0.76 0.29 0.16 0.15 0.10 0.07 0.07 0.09 0.16 0.31 0.51 0.62 0.70 0.80 0.77 0.71 0.65 0.60 0.64 0.80 0.93 0.97 0.94
0.57 0.53 0.95 0.91 0.67 0.39 0.53 0.44 0.25 0.25 0.28 0.30 0.31 0.74 1.05 1.20 1.18 1.24 1.25 1.01 0.84 0.60 0.20 0.07 0.03 0.02 0.06 0.10 0.12 0.13 0.12 0.11 0.14 0.17 0.25 0.28 0.32 0.37 0.34 0.40 0.46 0.48 0.58 0.70
0.48 0.71 0.68 1.01 0.97 0.70 0.66 0.94 0.61 0.42 0.31 0.31 0.32 0.25 0.39 0.53 0.60 0.43 0.44 0.53 0.54 0.57 0.39 0.16 0.12 0.15 0.17 0.12 0.12 0.14 0.14 0.12 0.15 0.14 0.17 0.18 0.20 0.25 0.27 0.34 0.44 0.42 0.59 0.62
0.39 0.95 0.93 0.89 1.13 1.25 1.34 0.88 0.71 0.79 0.60 0.44 0.21 0.17 0.22 0.31 0.35 0.36 0.35 0.32 0.37 0.47 0.45 0.36 0.32 0.27 0.22 0.19 0.24 0.24 0.21 0.18 0.18 0.17 0.19 0.24 0.18 0.19 0.22 0.22 0.35 0.56 0.63 0.59

GFSCGP_prec_precacc_138.txt.gz
Total_Precipitation_Accumulation
0.00 0.00 0.00 0.00 0.00 0.00 0.00 0.00 0.00 0.00 0.00 0.00 0.00 0.02 0.10 0.15 0.04 0.06 0.04 0.14 0.05 0.01 0.02 0.03 0.02 0.02 0.01 0.06 0.04 0.10 0.27 0.28 0.44 0.41 0.29 0.36 0.36 0.57 0.42 0.45 0.54 0.95 1.17 1.89
0.01 0.01 0.00 0.00 0.00 0.00 0.00 0.00 0.00 0.00 0.00 0.00 0.00 0.00 0.02 0.07 0.01 0.01 0.01 0.14 0.03 0.01 0.01 0.01 0.00 0.00 0.01 0.05 0.04 0.02 0.04 0.13 0.21 0.26 0.29 0.18 0.23 0.33 0.51 0.56 0.65 0.72 0.83 1.21
0.04 0.01 0.00 0.01 0.03 0.02 0.01 0.00 0.00 0.00 0.00 0.00 0.01 0.01 0.02 0.02 0.02 0.06 0.02 0.00 0.00 0.00 0.00 0.00 0.00 0.00 0.01 0.01 0.01 0.02 0.03 0.06 0.08 0.16 0.28 0.25 0.37 0.40 0.61 0.73 0.88 0.67 0.72 0.98
0.14 0.02 0.02 0.02 0.02 0.01 0.04 0.00 0.01 0.01 0.02 0.05 0.01 0.08 0.09 0.03 0.01 0.04 0.02 0.01 0.05 0.07 0.01 0.00 0.01 0.01 0.03 0.04 0.04 0.06 0.06 0.06 0.04 0.06 0.10 0.09 0.15 0.13 0.15 0.18 0.47 0.75 0.81 1.21
0.10 0.04 0.06 0.05 0.02 0.02 0.04 0.01 0.03 0.02 0.02 0.05 0.02 0.06 0.10 0.02 0.01 0.02 0.04 0.04 0.12 0.14 0.08 0.05 0.04 0.04 0.04 0.05 0.05 0.05 0.11 0.13 0.08 0.10 0.08 0.10 0.11 0.14 0.14 0.09 0.13 0.42 0.70 0.60
0.04 0.06 0.04 0.03 0.01 0.04 0.04 0.05 0.02 0.01 0.06 0.20 0.04 0.05 0.08 0.04 0.07 0.09 0.15 0.14 0.15 0.17 0.12 0.13 0.16 0.09 0.08 0.15 0.09 0.06 0.09 0.11 0.15 0.16 0.18 0.14 0.16 0.16 0.12 0.09 0.12 0.20 0.42 0.86
0.04 0.07 0.02 0.00 0.01 0.01 0.08 0.21 0.27 0.22 0.16 0.10 0.01 0.09 0.08 0.15 0.28 0.33 0.43 0.57 0.45 0.31 0.23 0.16 0.12 0.10 0.10 0.21 0.32 0.24 0.25 0.24 0.18 0.14 0.15 0.19 0.20 0.18 0.18 0.19 0.29 0.39 0.50 0.83
0.09 0.06 0.00 0.00 0.00 0.03 0.03 0.11 0.20 0.27 0.17 0.11 0.13 0.20 0.33 0.69 0.47 0.74 0.73 0.85 0.81 0.66 0.49 0.34 0.24 0.20 0.15 0.11 0.18 0.31 0.49 0.53 0.48 0.40 0.36 0.39 0.42 0.41 0.41 0.46 0.65 0.64 0.47 0.46
0.05 0.03 0.00 0.00 0.00 0.04 0.17 0.17 0.09 0.33 0.27 0.24 0.12 0.05 0.36 0.95 1.29 1.10 1.10 0.93 0.68 0.62 0.57 0.50 0.38 0.27 0.22 0.18 0.35 0.41 0.37 0.31 0.46 0.61 0.52 0.55 0.61 0.68 0.82 0.80 0.83 0.79 0.56 0.39
0.06 0.13 0.02 0.00 0.01 0.01 0.09 0.23 0.63 0.81 0.51 0.24 0.03 0.27 0.76 0.78 1.15 0.99 0.96 0.87 0.70 0.49 0.44 0.32 0.25 0.27 0.30 0.62 0.97 1.06 0.91 0.74 0.71 0.79 0.73 0.78 0.86 0.87 0.90 0.78 0.94 0.83 0.78 0.74
0.05 0.10 0.08 0.05 0.03 0.05 0.11 0.33 0.61 0.72 0.33 0.36 0.25 0.84 1.22 1.12 0.89 0.56 0.56 0.51 0.39 0.20 0.13 0.14 0.19 0.26 0.44 0.57 0.84 1.07 1.28 1.65 1.41 1.37 1.42 1.19 1.00 1.13 1.14 1.10 1.10 1.13 1.04 1.06
0.22 0.23 0.10 0.02 0.00 0.02 0.09 0.17 0.47 1.01 0.81 0.67 0.60 0.90 0.81 0.56 0.40 0.12 0.02 0.04 0.09 0.08 0.08 0.07 0.07 0.10 0.32 0.55 0.70 0.82 1.13 1.80 1.70 1.32 1.55 1.67 1.40 1.71 2.06 2.10 1.80 1.93 1.88 1.64
0.32 0.53 0.41 0.25 0.22 0.13 0.12 0.18 0.35 0.62 0.83 0.66 0.76 0.62 0.86 0.42 0.14 0.04 0.02 0.04 0.04 0.06 0.06 0.07 0.09 0.12 0.20 0.37 0.58 0.75 1.07 1.58 1.75 1.93 1.82 1.65 1.39 1.76 1.58 1.21 0.99 0.86 0.82 0.79
0.41 0.29 0.26 0.26 0.31 0.38 0.31 0.21 0.32 0.92 1.36 0.79 0.50 0.32 0.94 1.15 0.64 0.32 0.14 0.11 0.11 0.10 0.14 0.15 0.16 0.19 0.25 0.42 0.58 0.74 1.26 1.48 1.40 1.70 1.73 1.52 1.37 1.28 1.03 0.88 0.78 0.65 0.57 0.36
0.78 0.62 0.33 0.12 0.10 0.21 0.31 0.27 0.25 0.46 0.56 0.81 0.30 0.37 0.62 1.14 1.23 0.80 0.29 0.17 0.18 0.16 0.13 0.20 0.22 0.22 0.23 0.31 0.36 0.45 0.58 1.06 1.20 1.46 1.91 1.81 1.56 1.43 1.52 1.54 1.41 0.88 0.76 0.66
0.83 0.78 0.49 0.28 0.21 0.16 0.15 0.09 0.23 0.31 0.26 0.33 0.20 0.43 0.66 0.81 0.93 0.72 0.59 0.36 0.27 0.22 0.16 0.17 0.17 0.17 0.19 0.20 0.19 0.26 0.36 0.43 0.61 0.70 1.16 1.60 1.97 1.29 1.34 1.61 1.81 1.36 0.94 1.02
0.66 0.80 0.68 0.42 0.22 0.43 0.36 0.07 0.09 0.16 0.25 0.37 0.46 0.38 0.33 0.44 0.59 0.44 0.45 0.41 0.36 0.39 0.20 0.18 0.20 0.19 0.22 0.23 0.21 0.27 0.34 0.32 0.42 0.58 0.97 1.11 1.39 1.81 1.40 1.57 1.68 1.93 1.59 1.26
0.71 0.70 0.94 0.66 0.37 0.82 0.23 0.17 0.26 0.27 0.43 0.51 0.56 0.44 0.38 0.32 0.68 0.74 0.38 0.46 0.50 0.57 0.69 0.36 0.29 0.26 0.25 0.28 0.28 0.29 0.32 0.35 0.40 0.53 0.71 0.86 0.81 1.32 1.68 1.34 1.29 1.36 1.52 1.62
0.35 0.61 0.98 0.89 0.74 0.35 0.15 0.27 0.53 0.62 0.62 0.44 0.38 0.33 0.29 0.28 0.35 0.74 0.67 0.53 0.61 0.69 0.86 1.09 0.61 0.42 0.45 0.38 0.35 0.36 0.37 0.41 0.39 0.61 0.80 0.99 1.10 1.13 1.22 1.48 1.35 1.45 1.35 1.33
0.43 0.55 1.02 0.82 0.97 0.68 0.73 0.26 0.21 0.61 0.71 0.31 0.30 0.31 0.36 0.34 0.46 0.52 0.60 0.72 0.88 0.83 0.69 0.68 0.95 0.88 0.73 0.79 0.57 0.44 0.42 0.37 0.46 0.53 0.66 0.80 0.97 1.16 1.39 1.71 1.85 1.75 1.60 1.38
0.47 0.60 0.74 0.67 0.85 0.70 0.47 0.26 0.34 0.72 0.73 0.24 0.33 0.36 0.43 0.67 0.61 0.82 0.86 1.00 1.13 0.64 0.54 0.58 0.54 0.73 0.94 0.89 0.92 0.76 0.55 0.51 0.55 0.59 0.61 0.68 0.80 1.03 1.20 1.24 1.40 1.67 1.85 1.80
0.76 0.76 0.72 0.88 1.21 0.85 0.11 0.28 0.60 0.79 0.43 0.29 0.37 0.38 0.40 0.48 0.43 0.63 0.73 0.93 0.97 0.75 0.45 0.38 0.42 0.42 0.35 0.27 0.33 0.65 0.84 0.85 0.73 0.68 0.66 0.79 0.84 0.92 1.02 1.06 1.09 1.09 1.22 1.53
1.40 1.18 1.26 0.98 0.92 0.54 0.30 0.41 0.48 0.40 0.41 0.44 0.59 0.62 0.53 0.54 0.79 0.85 0.87 0.97 1.11 0.76 0.29 0.16 0.15 0.10 0.07 0.08 0.09 0.16 0.31 0.51 0.62 0.70 0.80 0.77 0.71 0.65 0.60 0.64 0.80 0.93 0.97 0.94
0.57 0.53 0.95 0.91 0.67 0.39 0.53 0.44 0.25 0.25 0.28 0.30 0.31 0.74 1.05 1.20 1.18 1.24 1.25 1.01 0.84 0.60 0.20 0.07 0.03 0.02 0.07 0.11 0.12 0.13 0.12 0.11 0.14 0.17 0.25 0.28 0.32 0.37 0.34 0.40 0.46 0.48 0.58 0.70
0.48 0.71 0.68 1.01 0.97 0.70 0.66 0.94 0.62 0.44 0.32 0.32 0.33 0.25 0.39 0.53 0.60 0.43 0.44 0.53 0.54 0.57 0.39 0.16 0.12 0.15 0.17 0.12 0.12 0.14 0.14 0.12 0.15 0.14 0.17 0.18 0.20 0.25 0.27 0.34 0.44 0.42 0.59 0.62
0.39 0.95 0.93 0.89 1.13 1.25 1.34 0.88 0.71 0.79 0.61 0.44 0.22 0.17 0.22 0.31 0.35 0.36 0.35 0.32 0.37 0.47 0.45 0.36 0.32 0.27 0.22 0.19 0.24 0.24 0.21 0.18 0.18 0.17 0.19 0.24 0.18 0.19 0.22 0.22 0.35 0.56 0.63 0.59

GFSCGP_prec_precacc_141.txt.gz
Total_Precipitation_Accumulation
0.00 0.00 0.00 0.00 0.00 0.00 0.00 0.00 0.00 0.00 0.00 0.00 0.00 0.02 0.10 0.15 0.04 0.06 0.04 0.14 0.05 0.01 0.02 0.03 0.02 0.02 0.01 0.06 0.04 0.10 0.27 0.28 0.44 0.41 0.29 0.36 0.36 0.57 0.42 0.45 0.54 0.95 1.17 1.89
0.01 0.01 0.00 0.00 0.00 0.00 0.00 0.00 0.00 0.00 0.00 0.00 0.00 0.00 0.02 0.07 0.01 0.01 0.01 0.14 0.03 0.01 0.01 0.01 0.00 0.00 0.01 0.05 0.04 0.02 0.04 0.13 0.21 0.26 0.29 0.18 0.23 0.33 0.51 0.56 0.65 0.72 0.83 1.21
0.04 0.01 0.00 0.01 0.03 0.02 0.01 0.00 0.00 0.00 0.00 0.00 0.01 0.01 0.02 0.02 0.02 0.06 0.02 0.00 0.00 0.00 0.00 0.00 0.00 0.00 0.01 0.01 0.01 0.02 0.03 0.06 0.08 0.16 0.28 0.25 0.37 0.40 0.61 0.73 0.88 0.67 0.72 0.98
0.14 0.02 0.02 0.02 0.02 0.01 0.04 0.00 0.01 0.01 0.02 0.05 0.01 0.08 0.09 0.03 0.01 0.04 0.02 0.01 0.05 0.07 0.01 0.00 0.01 0.01 0.03 0.04 0.04 0.06 0.06 0.06 0.04 0.06 0.10 0.09 0.15 0.13 0.15 0.18 0.47 0.75 0.81 1.21
0.10 0.04 0.06 0.05 0.02 0.02 0.04 0.01 0.03 0.02 0.02 0.05 0.02 0.06 0.10 0.02 0.01 0.02 0.04 0.04 0.12 0.14 0.08 0.05 0.04 0.04 0.04 0.05 0.05 0.05 0.11 0.13 0.08 0.10 0.08 0.10 0.11 0.14 0.14 0.09 0.13 0.42 0.70 0.60
0.04 0.06 0.04 0.03 0.01 0.04 0.04 0.05 0.02 0.01 0.06 0.20 0.04 0.05 0.08 0.04 0.07 0.09 0.15 0.14 0.15 0.17 0.12 0.13 0.16 0.09 0.08 0.15 0.09 0.06 0.09 0.11 0.15 0.16 0.18 0.14 0.16 0.16 0.12 0.09 0.12 0.20 0.42 0.86
0.04 0.07 0.02 0.00 0.01 0.01 0.08 0.21 0.27 0.22 0.16 0.10 0.01 0.09 0.08 0.15 0.28 0.33 0.43 0.57 0.45 0.31 0.23 0.16 0.12 0.10 0.10 0.21 0.32 0.24 0.25 0.24 0.18 0.14 0.15 0.19 0.20 0.18 0.18 0.19 0.29 0.39 0.50 0.83
0.09 0.06 0.00 0.00 0.00 0.03 0.03 0.11 0.20 0.27 0.17 0.11 0.13 0.20 0.33 0.69 0.47 0.74 0.73 0.85 0.81 0.66 0.49 0.34 0.24 0.20 0.15 0.11 0.18 0.31 0.49 0.53 0.48 0.40 0.36 0.39 0.42 0.41 0.41 0.46 0.65 0.64 0.47 0.46
0.05 0.03 0.00 0.00 0.00 0.04 0.17 0.17 0.09 0.33 0.27 0.25 0.12 0.05 0.36 0.95 1.29 1.10 1.10 0.93 0.68 0.62 0.57 0.50 0.38 0.27 0.22 0.18 0.35 0.41 0.37 0.31 0.46 0.61 0.52 0.55 0.61 0.68 0.82 0.80 0.83 0.79 0.56 0.39
0.06 0.13 0.02 0.00 0.01 0.01 0.09 0.23 0.63 0.82 0.55 0.25 0.03 0.27 0.76 0.78 1.15 0.99 0.96 0.87 0.70 0.49 0.44 0.32 0.25 0.27 0.30 0.62 0.97 1.06 0.91 0.74 0.71 0.79 0.73 0.78 0.86 0.87 0.90 0.78 0.94 0.83 0.78 0.74
0.05 0.10 0.08 0.05 0.03 0.05 0.11 0.33 0.61 0.72 0.33 0.36 0.25 0.84 1.22 1.12 0.89 0.56 0.56 0.51 0.39 0.20 0.13 0.14 0.19 0.26 0.44 0.57 0.84 1.07 1.28 1.65 1.41 1.37 1.42 1.19 1.00 1.13 1.14 1.10 1.10 1.13 1.04 1.06
0.22 0.23 0.10 0.02 0.00 0.02 0.09 0.17 0.47 1.02 0.82 0.67 0.60 0.90 0.81 0.56 0.40 0.12 0.02 0.04 0.09 0.08 0.08 0.07 0.07 0.10 0.32 0.55 0.70 0.82 1.13 1.80 1.70 1.32 1.55 1.67 1.40 1.71 2.06 2.10 1.80 1.93 1.88 1.64
0.32 0.56 0.44 0.25 0.22 0.13 0.12 0.18 0.35 0.62 0.83 0.67 0.76 0.62 0.86 0.42 0.14 0.04 0.02 0.04 0.04 0.06 0.06 0.07 0.09 0.12 0.20 0.37 0.58 0.75 1.07 1.58 1.75 1.93 1.82 1.65 1.39 1.76 1.58 1.21 0.99 0.86 0.82 0.79
0.49 0.47 0.49 0.39 0.33 0.38 0.31 0.21 0.32 0.92 1.37 0.80 0.50 0.32 0.94 1.15 0.64 0.32 0.14 0.11 0.11 0.10 0.14 0.15 0.16 0.19 0.25 0.42 0.58 0.74 1.26 1.48 1.40 1.70 1.73 1.52 1.37 1.28 1.03 0.88 0.78 0.65 0.57 0.36
0.84 0.82 0.56 0.34 0.24 0.29 0.35 0.28 0.25 0.46 0.57 0.84 0.31 0.37 0.62 1.14 1.24 0.80 0.29 0.17 0.18 0.16 0.13 0.21 0.23 0.23 0.23 0.31 0.37 0.45 0.58 1.06 1.20 1.46 1.91 1.81 1.56 1.43 1.52 1.54 1.41 0.88 0.76 0.66
0.87 0.90 0.62 0.39 0.39 0.30 0.21 0.10 0.24 0.34 0.34 0.44 0.29 0.46 0.66 0.81 0.94 0.73 0.60 0.36 0.27 0.25 0.22 0.24 0.28 0.29 0.28 0.24 0.20 0.26 0.36 0.43 0.61 0.70 1.16 1.60 1.97 1.29 1.34 1.61 1.81 1.36 0.94 1.02
0.71 0.84 0.75 0.47 0.30 0.53 0.40 0.08 0.11 0.20 0.32 0.48 0.63 0.47 0.37 0.47 0.62 0.44 0.45 0.41 0.36 0.39 0.21 0.19 0.20 0.19 0.22 0.23 0.22 0.28 0.36 0.33 0.42 0.58 0.97 1.11 1.39 1.81 1.40 1.57 1.68 1.93 1.59 1.26
0.73 0.72 0.99 0.69 0.40 0.87 0.25 0.17 0.27 0.28 0.45 0.53 0.58 0.45 0.40 0.34 0.68 0.74 0.38 0.46 0.50 0.57 0.69 0.36 0.29 0.26 0.26 0.29 0.33 0.36 0.39 0.36 0.40 0.53 0.71 0.86 0.81 1.32 1.68 1.34 1.29 1.36 1.52 1.62
0.35 0.62 1.00 0.90 0.74 0.36 0.16 0.28 0.53 0.62 0.62 0.44 0.39 0.33 0.29 0.29 0.36 0.74 0.67 0.53 0.61 0.69 0.86 1.09 0.61 0.42 0.46 0.42 0.42 0.41 0.38 0.42 0.39 0.61 0.80 0.99 1.10 1.13 1.22 1.48 1.35 1.45 1.35 1.33
0.43 0.56 1.03 0.82 0.97 0.68 0.73 0.26 0.21 0.61 0.71 0.31 0.30 0.31 0.36 0.34 0.46 0.52 0.60 0.72 0.88 0.83 0.69 0.68 0.96 0.89 0.74 0.79 0.57 0.44 0.44 0.38 0.46 0.53 0.66 0.80 0.97 1.16 1.39 1.71 1.85 1.75 1.60 1.38
0.47 0.60 0.75 0.67 0.86 0.70 0.47 0.26 0.34 0.72 0.73 0.24 0.33 0.36 0.43 0.67 0.61 0.82 0.86 1.00 1.13 0.64 0.55 0.58 0.54 0.74 0.94 0.89 0.92 0.76 0.55 0.51 0.55 0.59 0.61 0.68 0.80 1.03 1.20 1.24 1.41 1.67 1.85 1.80
0.76 0.76 0.72 0.90 1.23 0.85 0.11 0.28 0.60 0.79 0.43 0.29 0.37 0.38 0.40 0.48 0.43 0.63 0.73 0.93 0.97 0.75 0.45 0.38 0.43 0.42 0.35 0.27 0.33 0.65 0.84 0.85 0.73 0.68 0.66 0.79 0.84 0.92 1.02 1.06 1.09 1.09 1.22 1.53
1.40 1.18 1.26 0.98 0.92 0.54 0.30 0.41 0.48 0.40 0.41 0.44 0.59 0.62 0.53 0.54 0.79 0.85 0.87 0.97 1.11 0.76 0.29 0.16 0.15 0.10 0.07 0.08 0.09 0.16 0.31 0.52 0.62 0.70 0.80 0.77 0.71 0.65 0.60 0.64 0.81 0.94 0.97 0.94
0.57 0.53 0.95 0.91 0.67 0.39 0.53 0.44 0.25 0.25 0.28 0.30 0.31 0.74 1.05 1.20 1.18 1.24 1.25 1.01 0.84 0.60 0.20 0.07 0.03 0.02 0.07 0.11 0.12 0.13 0.12 0.11 0.14 0.17 0.25 0.28 0.32 0.37 0.34 0.40 0.46 0.48 0.58 0.70
0.48 0.71 0.68 1.01 0.97 0.70 0.66 0.94 0.62 0.44 0.32 0.32 0.33 0.25 0.39 0.53 0.60 0.43 0.44 0.53 0.54 0.57 0.39 0.16 0.12 0.15 0.17 0.13 0.12 0.15 0.14 0.12 0.15 0.14 0.17 0.18 0.20 0.25 0.27 0.34 0.44 0.42 0.59 0.62
0.39 0.95 0.93 0.89 1.13 1.25 1.34 0.88 0.71 0.79 0.61 0.44 0.22 0.17 0.22 0.31 0.35 0.36 0.35 0.32 0.37 0.47 0.45 0.36 0.32 0.27 0.23 0.21 0.26 0.25 0.22 0.18 0.18 0.17 0.19 0.24 0.18 0.19 0.22 0.22 0.35 0.56 0.63 0.59

GFSCGP_prec_precacc_144.txt.gz
Total_Precipitation_Accumulation
0.00 0.00 0.00 0.00 0.00 0.00 0.00 0.00 0.00 0.00 0.00 0.00 0.00 0.02 0.10 0.15 0.04 0.06 0.04 0.14 0.05 0.01 0.02 0.03 0.02 0.02 0.01 0.06 0.04 0.10 0.27 0.28 0.44 0.41 0.29 0.36 0.36 0.57 0.42 0.45 0.54 0.95 1.17 1.89
0.01 0.01 0.00 0.00 0.00 0.00 0.00 0.00 0.00 0.00 0.00 0.00 0.00 0.00 0.02 0.07 0.01 0.01 0.01 0.14 0.03 0.01 0.01 0.01 0.00 0.00 0.01 0.05 0.04 0.02 0.04 0.13 0.21 0.26 0.29 0.18 0.23 0.33 0.51 0.56 0.65 0.72 0.83 1.21
0.04 0.01 0.00 0.01 0.03 0.02 0.01 0.00 0.00 0.00 0.00 0.00 0.01 0.01 0.02 0.02 0.02 0.06 0.02 0.00 0.00 0.00 0.00 0.00 0.00 0.00 0.01 0.01 0.01 0.02 0.03 0.06 0.08 0.16 0.28 0.25 0.37 0.40 0.61 0.73 0.88 0.67 0.72 0.98
0.14 0.02 0.02 0.02 0.02 0.01 0.04 0.00 0.01 0.01 0.02 0.05 0.01 0.08 0.09 0.03 0.01 0.04 0.02 0.01 0.05 0.07 0.01 0.00 0.01 0.01 0.03 0.04 0.04 0.06 0.06 0.06 0.04 0.06 0.10 0.09 0.15 0.13 0.15 0.18 0.47 0.75 0.81 1.21
0.10 0.04 0.06 0.05 0.02 0.02 0.04 0.01 0.03 0.02 0.02 0.05 0.02 0.06 0.10 0.02 0.01 0.02 0.04 0.04 0.12 0.14 0.08 0.05 0.04 0.04 0.04 0.05 0.05 0.05 0.11 0.13 0.08 0.10 0.08 0.10 0.11 0.14 0.14 0.09 0.13 0.42 0.70 0.60
0.04 0.06 0.04 0.03 0.01 0.04 0.04 0.05 0.02 0.01 0.06 0.20 0.04 0.05 0.08 0.04 0.07 0.09 0.15 0.14 0.15 0.17 0.12 0.13 0.16 0.09 0.08 0.15 0.09 0.06 0.09 0.11 0.15 0.16 0.18 0.14 0.16 0.16 0.12 0.09 0.12 0.20 0.42 0.86
0.04 0.07 0.02 0.00 0.01 0.01 0.08 0.21 0.27 0.22 0.16 0.10 0.01 0.09 0.08 0.15 0.28 0.33 0.43 0.57 0.45 0.31 0.23 0.16 0.12 0.10 0.10 0.21 0.32 0.24 0.25 0.24 0.18 0.14 0.15 0.19 0.20 0.18 0.18 0.19 0.29 0.39 0.50 0.83
0.09 0.06 0.00 0.00 0.00 0.03 0.03 0.11 0.21 0.27 0.17 0.11 0.13 0.20 0.33 0.69 0.47 0.74 0.73 0.85 0.81 0.66 0.49 0.34 0.24 0.20 0.15 0.11 0.18 0.31 0.49 0.53 0.48 0.40 0.36 0.39 0.42 0.41 0.41 0.46 0.65 0.64 0.47 0.46
0.05 0.03 0.00 0.00 0.00 0.04 0.18 0.17 0.10 0.34 0.30 0.27 0.12 0.05 0.36 0.95 1.29 1.10 1.10 0.93 0.68 0.62 0.57 0.50 0.38 0.27 0.22 0.18 0.35 0.41 0.37 0.31 0.46 0.61 0.52 0.55 0.61 0.68 0.82 0.80 0.83 0.79 0.56 0.39
0.06 0.13 0.02 0.00 0.01 0.01 0.09 0.23 0.63 0.87 0.70 0.29 0.04 0.27 0.76 0.78 1.15 0.99 0.96 0.87 0.70 0.49 0.44 0.32 0.25 0.27 0.30 0.62 0.97 1.06 0.91 0.74 0.71 0.79 0.73 0.78 0.86 0.87 0.90 0.78 0.94 0.83 0.78 0.74
0.05 0.10 0.08 0.05 0.03 0.05 0.11 0.33 0.61 0.73 0.36 0.41 0.27 0.84 1.22 1.12 0.89 0.56 0.56 0.51 0.39 0.20 0.13 0.14 0.19 0.26 0.44 0.57 0.84 1.07 1.28 1.65 1.41 1.37 1.42 1.19 1.00 1.13 1.14 1.10 1.10 1.13 1.04 1.06
0.22 0.26 0.11 0.02 0.00 0.02 0.09 0.17 0.48 1.04 0.87 0.70 0.62 0.92 0.81 0.56 0.40 0.12 0.02 0.04 0.09 0.08 0.08 0.07 0.07 0.10 0.32 0.55 0.70 0.82 1.13 1.80 1.70 1.32 1.55 1.67 1.40 1.71 2.06 2.10 1.80 1.93 1.88 1.64
0.33 0.62 0.53 0.27 0.22 0.13 0.12 0.18 0.35 0.62 0.87 0.76 0.84 0.66 0.86 0.42 0.14 0.04 0.02 0.04 0.04 0.06 0.06 0.07 0.09 0.12 0.20 0.37 0.58 0.75 1.07 1.58 1.75 1.93 1.82 1.65 1.39 1.76 1.58 1.21 0.99 0.86 0.82 0.79
0.49 0.48 0.53 0.47 0.38 0.42 0.33 0.21 0.32 0.94 1.41 0.85 0.52 0.33 0.94 1.15 0.64 0.32 0.14 0.11 0.11 0.10 0.14 0.15 0.16 0.19 0.25 0.42 0.58 0.74 1.26 1.48 1.40 1.70 1.73 1.52 1.37 1.28 1.03 0.88 0.78 0.65 0.57 0.36
0.84 0.82 0.59 0.39 0.29 0.34 0.42 0.32 0.26 0.48 0.60 0.90 0.36 0.38 0.62 1.14 1.24 0.80 0.29 0.17 0.18 0.16 0.13 0.21 0.23 0.23 0.23 0.31 0.37 0.45 0.58 1.06 1.20 1.46 1.91 1.81 1.56 1.43 1.52 1.54 1.41 0.88 0.76 0.66
0.88 0.90 0.63 0.41 0.40 0.33 0.24 0.11 0.25 0.36 0.38 0.53 0.40 0.50 0.67 0.84 0.97 0.74 0.60 0.36 0.27 0.25 0.22 0.24 0.28 0.29 0.29 0.28 0.23 0.28 0.37 0.43 0.61 0.71 1.16 1.60 1.97 1.29 1.34 1.61 1.81 1.36 0.94 1.02
0.73 0.86 0.76 0.48 0.30 0.54 0.41 0.08 0.12 0.20 0.36 0.58 0.72 0.51 0.40 0.55 0.67 0.45 0.45 0.42 0.36 0.39 0.22 0.20 0.21 0.19 0.23 0.24 0.22 0.28 0.36 0.34 0.45 0.60 0.97 1.11 1.39 1.81 1.40 1.57 1.68 1.93 1.59 1.26
0.76 0.76 1.05 0.74 0.43 0.91 0.25 0.17 0.27 0.28 0.45 0.54 0.59 0.46 0.40 0.37 0.74 0.76 0.39 0.47 0.51 0.59 0.69 0.36 0.29 0.27 0.26 0.30 0.33 0.37 0.43 0.50 0.54 0.56 0.71 0.86 0.81 1.32 1.68 1.34 1.29 1.36 1.52 1.62
0.36 0.64 1.08 0.99 0.79 0.36 0.16 0.28 0.53 0.62 0.62 0.44 0.39 0.33 0.29 0.29 0.38 0.77 0.67 0.53 0.61 0.70 0.88 1.10 0.62 0.43 0.47 0.42 0.42 0.44 0.48 0.50 0.45 0.63 0.81 0.99 1.10 1.13 1.22 1.48 1.35 1.45 1.35 1.33
0.45 0.60 1.12 0.88 0.99 0.68 0.73 0.26 0.21 0.61 0.71 0.31 0.30 0.31 0.36 0.35 0.47 0.53 0.61 0.72 0.88 0.83 0.70 0.69 0.98 0.90 0.74 0.80 0.58 0.46 0.47 0.41 0.50 0.55 0.66 0.80 0.97 1.16 1.39 1.71 1.85 1.75 1.60 1.38
0.54 0.72 0.86 0.72 0.88 0.71 0.47 0.26 0.34 0.72 0.73 0.24 0.33 0.36 0.43 0.67 0.61 0.82 0.86 1.00 1.13 0.64 0.55 0.58 0.54 0.75 0.95 0.90 0.93 0.77 0.56 0.52 0.56 0.59 0.61 0.68 0.80 1.03 1.20 1.24 1.41 1.67 1.85 1.80
0.77 0.78 0.75 0.92 1.25 0.86 0.11 0.28 0.60 0.79 0.43 0.29 0.37 0.38 0.40 0.48 0.43 0.63 0.73 0.93 0.97 0.75 0.45 0.38 0.43 0.42 0.36 0.28 0.34 0.65 0.85 0.86 0.73 0.68 0.66 0.79 0.84 0.92 1.02 1.06 1.09 1.09 1.22 1.53
1.40 1.18 1.26 0.98 0.92 0.54 0.30 0.41 0.48 0.40 0.41 0.44 0.59 0.62 0.53 0.54 0.79 0.85 0.87 0.97 1.11 0.76 0.29 0.16 0.15 0.10 0.07 0.08 0.10 0.17 0.32 0.52 0.62 0.70 0.80 0.77 0.71 0.65 0.60 0.65 0.81 0.94 0.97 0.94
0.58 0.53 0.95 0.91 0.67 0.39 0.53 0.44 0.25 0.25 0.28 0.30 0.31 0.74 1.05 1.20 1.18 1.24 1.25 1.01 0.84 0.60 0.20 0.07 0.03 0.02 0.07 0.11 0.12 0.14 0.16 0.12 0.14 0.17 0.25 0.28 0.32 0.38 0.35 0.40 0.46 0.48 0.58 0.70
0.48 0.71 0.68 1.01 0.97 0.70 0.66 0.94 0.62 0.44 0.32 0.32 0.33 0.25 0.39 0.53 0.60 0.43 0.44 0.53 0.54 0.57 0.39 0.16 0.12 0.15 0.17 0.13 0.13 0.18 0.17 0.12 0.15 0.14 0.17 0.18 0.20 0.25 0.28 0.34 0.45 0.42 0.59 0.62
0.39 0.95 0.93 0.89 1.13 1.25 1.34 0.88 0.71 0.79 0.61 0.44 0.22 0.17 0.22 0.31 0.35 0.36 0.35 0.32 0.37 0.47 0.45 0.36 0.32 0.27 0.23 0.21 0.29 0.31 0.25 0.19 0.18 0.17 0.19 0.24 0.18 0.19 0.22 0.23 0.36 0.56 0.63 0.59

GFSCGP_prec_precacc_147.txt.gz
Total_Precipitation_Accumulation
0.00 0.00 0.00 0.00 0.00 0.00 0.00 0.00 0.00 0.00 0.00 0.00 0.00 0.02 0.10 0.15 0.04 0.06 0.04 0.14 0.05 0.01 0.02 0.03 0.02 0.02 0.01 0.06 0.04 0.10 0.27 0.28 0.44 0.41 0.29 0.36 0.36 0.57 0.42 0.45 0.54 0.95 1.17 1.89
0.01 0.01 0.00 0.00 0.00 0.00 0.00 0.00 0.00 0.00 0.00 0.00 0.00 0.00 0.02 0.07 0.01 0.01 0.01 0.14 0.03 0.01 0.01 0.01 0.00 0.00 0.01 0.05 0.04 0.02 0.04 0.13 0.21 0.26 0.29 0.18 0.23 0.33 0.51 0.56 0.65 0.72 0.83 1.21
0.04 0.01 0.00 0.01 0.03 0.02 0.01 0.00 0.00 0.00 0.00 0.00 0.01 0.01 0.02 0.02 0.02 0.06 0.02 0.00 0.00 0.00 0.00 0.00 0.00 0.00 0.01 0.01 0.01 0.02 0.03 0.06 0.08 0.16 0.28 0.25 0.37 0.40 0.61 0.73 0.88 0.67 0.72 0.98
0.14 0.02 0.02 0.02 0.02 0.01 0.04 0.00 0.01 0.01 0.02 0.05 0.01 0.08 0.09 0.03 0.01 0.04 0.02 0.01 0.05 0.07 0.01 0.00 0.01 0.01 0.03 0.04 0.04 0.06 0.06 0.06 0.04 0.06 0.10 0.09 0.15 0.13 0.15 0.18 0.47 0.75 0.81 1.21
0.10 0.04 0.06 0.05 0.02 0.02 0.04 0.01 0.03 0.02 0.02 0.05 0.02 0.06 0.10 0.02 0.01 0.02 0.04 0.04 0.12 0.14 0.08 0.05 0.04 0.04 0.04 0.05 0.05 0.05 0.11 0.13 0.08 0.10 0.08 0.10 0.11 0.14 0.14 0.09 0.13 0.42 0.70 0.60
0.04 0.06 0.04 0.03 0.01 0.04 0.04 0.05 0.02 0.01 0.06 0.20 0.04 0.05 0.08 0.04 0.07 0.09 0.15 0.14 0.15 0.17 0.12 0.13 0.16 0.09 0.08 0.15 0.09 0.06 0.09 0.11 0.15 0.16 0.18 0.14 0.16 0.16 0.12 0.09 0.12 0.20 0.42 0.86
0.04 0.07 0.02 0.00 0.01 0.01 0.08 0.21 0.27 0.22 0.16 0.10 0.01 0.09 0.08 0.15 0.28 0.33 0.43 0.57 0.45 0.31 0.23 0.16 0.12 0.10 0.10 0.21 0.32 0.24 0.25 0.24 0.18 0.14 0.15 0.19 0.20 0.18 0.18 0.19 0.29 0.39 0.50 0.83
0.09 0.06 0.00 0.00 0.00 0.03 0.03 0.11 0.22 0.28 0.18 0.11 0.13 0.20 0.33 0.69 0.47 0.74 0.73 0.85 0.81 0.66 0.49 0.34 0.24 0.20 0.15 0.11 0.18 0.31 0.49 0.53 0.48 0.40 0.36 0.39 0.42 0.41 0.41 0.46 0.65 0.64 0.47 0.46
0.05 0.03 0.00 0.00 0.00 0.04 0.18 0.17 0.10 0.39 0.40 0.42 0.14 0.05 0.36 0.95 1.29 1.10 1.10 0.93 0.68 0.62 0.57 0.50 0.38 0.27 0.22 0.18 0.35 0.41 0.37 0.31 0.46 0.61 0.52 0.55 0.61 0.68 0.82 0.80 0.83 0.79 0.56 0.39
0.06 0.13 0.02 0.00 0.01 0.01 0.09 0.23 0.63 0.91 0.78 0.35 0.06 0.27 0.76 0.78 1.15 0.99 0.96 0.87 0.70 0.49 0.44 0.32 0.25 0.27 0.30 0.62 0.97 1.06 0.91 0.74 0.71 0.79 0.73 0.78 0.86 0.87 0.90 0.78 0.94 0.83 0.78 0.74
0.05 0.11 0.08 0.05 0.03 0.05 0.11 0.33 0.61 0.74 0.42 0.48 0.31 0.85 1.22 1.12 0.89 0.56 0.56 0.51 0.39 0.20 0.13 0.14 0.19 0.26 0.44 0.57 0.84 1.07 1.28 1.65 1.41 1.37 1.42 1.19 1.00 1.13 1.14 1.10 1.10 1.13 1.04 1.06
0.22 0.28 0.12 0.02 0.00 0.02 0.09 0.17 0.48 1.06 0.91 0.74 0.67 0.95 0.81 0.56 0.40 0.12 0.02 0.04 0.09 0.08 0.08 0.07 0.07 0.10 0.32 0.55 0.70 0.82 1.13 1.80 1.70 1.32 1.55 1.67 1.40 1.71 2.06 2.10 1.80 1.93 1.88 1.64
0.33 0.63 0.53 0.27 0.22 0.13 0.12 0.18 0.35 0.63 0.91 0.83 0.91 0.71 0.86 0.42 0.14 0.04 0.02 0.04 0.04 0.06 0.06 0.07 0.09 0.12 0.20 0.37 0.58 0.75 1.07 1.58 1.75 1.93 1.82 1.65 1.39 1.76 1.58 1.21 0.99 0.86 0.82 0.79
0.50 0.48 0.53 0.47 0.38 0.42 0.33 0.21 0.33 0.97 1.49 0.93 0.57 0.36 0.95 1.15 0.64 0.32 0.14 0.11 0.11 0.10 0.14 0.15 0.16 0.19 0.25 0.42 0.58 0.74 1.26 1.48 1.40 1.70 1.73 1.52 1.37 1.28 1.03 0.88 0.78 0.65 0.57 0.36
0.85 0.83 0.59 0.39 0.29 0.34 0.42 0.32 0.26 0.49 0.61 0.94 0.40 0.41 0.63 1.14 1.24 0.80 0.29 0.17 0.18 0.16 0.13 0.21 0.23 0.23 0.23 0.31 0.37 0.45 0.58 1.06 1.20 1.46 1.91 1.81 1.56 1.43 1.52 1.54 1.41 0.88 0.76 0.66
0.90 0.92 0.64 0.41 0.40 0.33 0.24 0.11 0.25 0.36 0.38 0.53 0.41 0.51 0.67 0.84 0.97 0.74 0.60 0.36 0.27 0.25 0.22 0.24 0.28 0.29 0.29 0.28 0.24 0.29 0.37 0.45 0.62 0.71 1.16 1.60 1.97 1.29 1.34 1.61 1.81 1.36 0.94 1.02
0.75 0.89 0.80 0.51 0.30 0.55 0.44 0.08 0.12 0.20 0.36 0.58 0.72 0.51 0.40 0.55 0.69 0.47 0.46 0.43 0.37 0.39 0.22 0.21 0.22 0.20 0.24 0.27 0.26 0.30 0.37 0.34 0.45 0.60 0.97 1.12 1.39 1.81 1.40 1.57 1.68 1.93 1.59 1.26
0.76 0.78 1.11 0.77 0.45 0.96 0.25 0.17 0.27 0.28 0.45 0.54 0.59 0.46 0.40 0.37 0.74 0.76 0.40 0.50 0.54 0.62 0.72 0.38 0.33 0.33 0.36 0.40 0.40 0.42 0.48 0.52 0.56 0.63 0.78 0.90 0.81 1.32 1.68 1.34 1.29 1.36 1.52 1.62
0.36 0.67 1.15 1.04 0.82 0.38 0.16 0.28 0.53 0.62 0.62 0.44 0.39 0.33 0.29 0.29 0.38 0.77 0.67 0.53 0.62 0.74 0.97 1.18 0.69 0.52 0.60 0.57 0.56 0.57 0.60 0.54 0.53 0.75 0.89 1.02 1.10 1.13 1.22 1.48 1.35 1.45 1.35 1.33
0.46 0.62 1.21 0.95 1.06 0.70 0.73 0.26 0.21 0.61 0.71 0.31 0.30 0.31 0.36 0.35 0.47 0.53 0.61 0.72 0.88 0.83 0.71 0.73 1.03 0.97 0.85 0.94 0.68 0.53 0.56 0.60 0.73 0.67 0.71 0.82 0.97 1.16 1.39 1.71 1.85 1.75 1.60 1.38
0.60 0.82 0.98 0.78 0.93 0.71 0.47 0.26 0.34 0.72 0.73 0.24 0.33 0.36 0.43 0.67 0.61 0.82 0.86 1.00 1.13 0.64 0.55 0.58 0.55 0.76 0.98 0.94 1.00 0.88 0.73 0.79 0.81 0.69 0.64 0.68 0.80 1.03 1.20 1.24 1.41 1.67 1.85 1.80
0.80 0.88 0.91 1.07 1.44 0.90 0.11 0.28 0.60 0.79 0.43 0.29 0.37 0.38 0.40 0.48 0.43 0.63 0.73 0.93 0.97 0.75 0.45 0.38 0.43 0.43 0.36 0.28 0.35 0.68 0.93 1.03 0.89 0.72 0.67 0.79 0.84 0.92 1.02 1.06 1.09 1.09 1.22 1.53
1.44 1.19 1.27 0.99 0.95 0.55 0.30 0.41 0.48 0.40 0.41 0.44 0.59 0.62 0.53 0.54 0.79 0.85 0.87 0.97 1.11 0.76 0.29 0.16 0.15 0.10 0.08 0.09 0.11 0.18 0.37 0.60 0.72 0.74 0.80 0.77 0.71 0.65 0.60 0.65 0.81 0.94 0.97 0.94
0.59 0.54 0.96 0.91 0.67 0.39 0.53 0.44 0.25 0.25 0.28 0.30 0.31 0.74 1.05 1.20 1.18 1.24 1.25 1.01 0.84 0.60 0.20 0.07 0.03 0.02 0.08 0.11 0.13 0.15 0.23 0.22 0.18 0.18 0.25 0.28 0.32 0.38 0.35 0.40 0.46 0.48 0.58 0.70
0.50 0.75 0.69 1.01 0.97 0.70 0.66 0.94 0.62 0.44 0.32 0.32 0.33 0.25 0.39 0.53 0.60 0.43 0.44 0.53 0.54 0.57 0.39 0.16 0.12 0.15 0.18 0.13 0.13 0.19 0.20 0.19 0.22 0.18 0.17 0.18 0.20 0.25 0.28 0.34 0.45 0.42 0.59 0.62
0.39 0.97 0.94 0.89 1.13 1.25 1.34 0.88 0.71 0.79 0.61 0.44 0.22 0.17 0.22 0.31 0.35 0.36 0.35 0.32 0.37 0.47 0.45 0.36 0.32 0.27 0.23 0.21 0.31 0.36 0.31 0.21 0.19 0.18 0.19 0.24 0.18 0.20 0.22 0.23 0.37 0.57 0.63 0.59